<?xml version="1.0" encoding="UTF-8" standalone="no" ?>
<gpx xmlns="http://www.topografix.com/GPX/1/1" xmlns:xsi="http://www.w3.org/2001/XMLSchema-instance" xsi:schemaLocation="http://www.topografix.com/GPX/1/1 http://www.topografix.com/GPX/1/1/gpx.xsd" version="1.1" creator="VisuGPX - https://www.visugpx.com">
  <metadata>
    <name>Escueillens-et-Saint-Just-de-Bélengard marche</name>
  </metadata>
  <wpt lat="43.09514" lon="2.03117">
    <ele>313</ele>
    <name><![CDATA[CP1]]></name>
  </wpt>
  <wpt lat="43.09608" lon="2.03567">
    <ele>308</ele>
    <name><![CDATA[CP2]]></name>
  </wpt>
  <wpt lat="43.09784" lon="2.03656">
    <ele>326</ele>
    <name><![CDATA[CP3]]></name>
  </wpt>
  <wpt lat="43.1015" lon="2.04154">
    <ele>311</ele>
    <name><![CDATA[CP4]]></name>
  </wpt>
  <wpt lat="43.10635" lon="2.04107">
    <ele>305</ele>
    <name><![CDATA[CP5]]></name>
  </wpt>
  <wpt lat="43.10636" lon="2.03943">
    <ele>303</ele>
    <name><![CDATA[CP6]]></name>
  </wpt>
  <wpt lat="43.10815" lon="2.03588">
    <ele>307</ele>
    <name><![CDATA[CP7]]></name>
  </wpt>
  <wpt lat="43.10701" lon="2.03268">
    <ele>319</ele>
    <name><![CDATA[CP8]]></name>
  </wpt>
  <wpt lat="43.10778" lon="2.02393">
    <ele>329</ele>
    <name><![CDATA[CP9]]></name>
  </wpt>
  <wpt lat="43.10699" lon="2.02224">
    <ele>332</ele>
    <name><![CDATA[CP10]]></name>
  </wpt>
  <wpt lat="43.10585" lon="2.02462">
    <ele>327</ele>
    <name><![CDATA[CP11]]></name>
  </wpt>
  <wpt lat="43.10233" lon="2.02802">
    <ele>326</ele>
    <name><![CDATA[CP12]]></name>
  </wpt>
  <wpt lat="43.10064" lon="2.02646">
    <ele>338</ele>
    <name><![CDATA[CP13]]></name>
  </wpt>
  <wpt lat="43.09953" lon="2.03176">
    <ele>336</ele>
    <name><![CDATA[CP14]]></name>
  </wpt>
  <wpt lat="43.09736" lon="2.03058">
    <ele>333</ele>
    <name><![CDATA[CP15]]></name>
  </wpt>
  <wpt lat="43.09699" lon="2.03175">
    <ele>335</ele>
    <name><![CDATA[CP16]]></name>
  </wpt>
  <wpt lat="43.09692" lon="2.0314">
    <ele>335</ele>
    <name><![CDATA[CP17]]></name>
  </wpt>
  <trk>
    <name><![CDATA[Escueillens-et-Saint-Just-de-Bélengard marche]]></name>
    <trkseg>
      <trkpt lat="43.09525" lon="2.03098">
        <ele>313</ele>
        <time>2023-09-10T11:51:25Z</time>
      </trkpt>
      <trkpt lat="43.09525" lon="2.03099">
        <ele>313</ele>
        <time>2023-09-10T11:51:26Z</time>
      </trkpt>
      <trkpt lat="43.09524" lon="2.03099">
        <ele>313</ele>
        <time>2023-09-10T11:51:27Z</time>
      </trkpt>
      <trkpt lat="43.09524" lon="2.031">
        <ele>313</ele>
        <time>2023-09-10T11:51:28Z</time>
      </trkpt>
      <trkpt lat="43.09523" lon="2.03101">
        <ele>313</ele>
        <time>2023-09-10T11:51:29Z</time>
      </trkpt>
      <trkpt lat="43.09522" lon="2.03102">
        <ele>313</ele>
        <time>2023-09-10T11:51:30Z</time>
      </trkpt>
      <trkpt lat="43.09522" lon="2.03102">
        <ele>313</ele>
        <time>2023-09-10T11:51:31Z</time>
      </trkpt>
      <trkpt lat="43.09521" lon="2.03103">
        <ele>313</ele>
        <time>2023-09-10T11:51:32Z</time>
      </trkpt>
      <trkpt lat="43.09521" lon="2.03104">
        <ele>313</ele>
        <time>2023-09-10T11:51:33Z</time>
      </trkpt>
      <trkpt lat="43.0952" lon="2.03106">
        <ele>313</ele>
        <time>2023-09-10T11:51:34Z</time>
      </trkpt>
      <trkpt lat="43.0952" lon="2.03107">
        <ele>313</ele>
        <time>2023-09-10T11:51:35Z</time>
      </trkpt>
      <trkpt lat="43.09519" lon="2.03109">
        <ele>313</ele>
        <time>2023-09-10T11:51:36Z</time>
      </trkpt>
      <trkpt lat="43.09519" lon="2.0311">
        <ele>313</ele>
        <time>2023-09-10T11:51:37Z</time>
      </trkpt>
      <trkpt lat="43.09518" lon="2.03112">
        <ele>313</ele>
        <time>2023-09-10T11:51:38Z</time>
      </trkpt>
      <trkpt lat="43.09517" lon="2.03113">
        <ele>313</ele>
        <time>2023-09-10T11:51:39Z</time>
      </trkpt>
      <trkpt lat="43.09516" lon="2.03114">
        <ele>313</ele>
        <time>2023-09-10T11:51:40Z</time>
      </trkpt>
      <trkpt lat="43.09516" lon="2.03115">
        <ele>313</ele>
        <time>2023-09-10T11:51:41Z</time>
      </trkpt>
      <trkpt lat="43.09515" lon="2.03116">
        <ele>313</ele>
        <time>2023-09-10T11:51:42Z</time>
      </trkpt>
      <trkpt lat="43.09515" lon="2.03117">
        <ele>313</ele>
        <time>2023-09-10T11:51:43Z</time>
      </trkpt>
      <trkpt lat="43.09514" lon="2.03117">
        <ele>313</ele>
        <time>2023-09-10T11:51:44Z</time>
      </trkpt>
      <trkpt lat="43.09514" lon="2.03118">
        <ele>313</ele>
        <time>2023-09-10T11:51:45Z</time>
      </trkpt>
      <trkpt lat="43.09513" lon="2.03119">
        <ele>313</ele>
        <time>2023-09-10T11:51:46Z</time>
      </trkpt>
      <trkpt lat="43.09513" lon="2.03119">
        <ele>313</ele>
        <time>2023-09-10T11:51:47Z</time>
      </trkpt>
      <trkpt lat="43.09513" lon="2.0312">
        <ele>313</ele>
        <time>2023-09-10T11:51:48Z</time>
      </trkpt>
      <trkpt lat="43.09513" lon="2.03121">
        <ele>313</ele>
        <time>2023-09-10T11:51:49Z</time>
      </trkpt>
      <trkpt lat="43.09513" lon="2.03121">
        <ele>313</ele>
        <time>2023-09-10T11:51:50Z</time>
      </trkpt>
      <trkpt lat="43.09513" lon="2.03121">
        <ele>313</ele>
        <time>2023-09-10T11:51:51Z</time>
      </trkpt>
      <trkpt lat="43.09513" lon="2.03122">
        <ele>313</ele>
        <time>2023-09-10T11:51:52Z</time>
      </trkpt>
      <trkpt lat="43.09512" lon="2.03122">
        <ele>313</ele>
        <time>2023-09-10T11:51:53Z</time>
      </trkpt>
      <trkpt lat="43.09512" lon="2.03123">
        <ele>313</ele>
        <time>2023-09-10T11:51:54Z</time>
      </trkpt>
      <trkpt lat="43.09512" lon="2.03124">
        <ele>313</ele>
        <time>2023-09-10T11:51:55Z</time>
      </trkpt>
      <trkpt lat="43.09511" lon="2.03125">
        <ele>313</ele>
        <time>2023-09-10T11:51:56Z</time>
      </trkpt>
      <trkpt lat="43.0951" lon="2.03127">
        <ele>313</ele>
        <time>2023-09-10T11:52:08Z</time>
      </trkpt>
      <trkpt lat="43.0951" lon="2.03128">
        <ele>313</ele>
        <time>2023-09-10T11:52:09Z</time>
      </trkpt>
      <trkpt lat="43.09509" lon="2.03129">
        <ele>313</ele>
        <time>2023-09-10T11:52:10Z</time>
      </trkpt>
      <trkpt lat="43.09509" lon="2.03129">
        <ele>313</ele>
        <time>2023-09-10T11:52:11Z</time>
      </trkpt>
      <trkpt lat="43.09508" lon="2.03129">
        <ele>313</ele>
        <time>2023-09-10T11:52:12Z</time>
      </trkpt>
      <trkpt lat="43.09508" lon="2.0313">
        <ele>313</ele>
        <time>2023-09-10T11:52:13Z</time>
      </trkpt>
      <trkpt lat="43.09508" lon="2.0313">
        <ele>313</ele>
        <time>2023-09-10T11:52:14Z</time>
      </trkpt>
      <trkpt lat="43.09507" lon="2.03131">
        <ele>313</ele>
        <time>2023-09-10T11:52:15Z</time>
      </trkpt>
      <trkpt lat="43.09506" lon="2.03131">
        <ele>313</ele>
        <time>2023-09-10T11:52:16Z</time>
      </trkpt>
      <trkpt lat="43.09506" lon="2.03132">
        <ele>313</ele>
        <time>2023-09-10T11:52:17Z</time>
      </trkpt>
      <trkpt lat="43.09505" lon="2.03132">
        <ele>313</ele>
        <time>2023-09-10T11:52:18Z</time>
      </trkpt>
      <trkpt lat="43.09505" lon="2.03133">
        <ele>313</ele>
        <time>2023-09-10T11:52:19Z</time>
      </trkpt>
      <trkpt lat="43.09504" lon="2.03133">
        <ele>313</ele>
        <time>2023-09-10T11:52:20Z</time>
      </trkpt>
      <trkpt lat="43.09503" lon="2.03134">
        <ele>313</ele>
        <time>2023-09-10T11:52:21Z</time>
      </trkpt>
      <trkpt lat="43.09502" lon="2.03134">
        <ele>313</ele>
        <time>2023-09-10T11:52:22Z</time>
      </trkpt>
      <trkpt lat="43.09502" lon="2.03134">
        <ele>313</ele>
        <time>2023-09-10T11:52:23Z</time>
      </trkpt>
      <trkpt lat="43.09501" lon="2.03135">
        <ele>313</ele>
        <time>2023-09-10T11:52:24Z</time>
      </trkpt>
      <trkpt lat="43.095" lon="2.03135">
        <ele>313</ele>
        <time>2023-09-10T11:52:25Z</time>
      </trkpt>
      <trkpt lat="43.095" lon="2.03136">
        <ele>313</ele>
        <time>2023-09-10T11:52:26Z</time>
      </trkpt>
      <trkpt lat="43.09499" lon="2.03137">
        <ele>313</ele>
        <time>2023-09-10T11:52:27Z</time>
      </trkpt>
      <trkpt lat="43.09499" lon="2.03137">
        <ele>313</ele>
        <time>2023-09-10T11:52:28Z</time>
      </trkpt>
      <trkpt lat="43.09498" lon="2.03137">
        <ele>313</ele>
        <time>2023-09-10T11:52:29Z</time>
      </trkpt>
      <trkpt lat="43.09498" lon="2.03137">
        <ele>313</ele>
        <time>2023-09-10T11:52:30Z</time>
      </trkpt>
      <trkpt lat="43.09497" lon="2.03137">
        <ele>313</ele>
        <time>2023-09-10T11:52:31Z</time>
      </trkpt>
      <trkpt lat="43.09497" lon="2.03137">
        <ele>313</ele>
        <time>2023-09-10T11:52:32Z</time>
      </trkpt>
      <trkpt lat="43.09496" lon="2.03137">
        <ele>313</ele>
        <time>2023-09-10T11:52:33Z</time>
      </trkpt>
      <trkpt lat="43.09496" lon="2.03137">
        <ele>313</ele>
        <time>2023-09-10T11:52:34Z</time>
      </trkpt>
      <trkpt lat="43.09495" lon="2.03137">
        <ele>313</ele>
        <time>2023-09-10T11:52:35Z</time>
      </trkpt>
      <trkpt lat="43.09494" lon="2.03137">
        <ele>313</ele>
        <time>2023-09-10T11:52:36Z</time>
      </trkpt>
      <trkpt lat="43.09494" lon="2.03137">
        <ele>313</ele>
        <time>2023-09-10T11:52:37Z</time>
      </trkpt>
      <trkpt lat="43.09493" lon="2.03137">
        <ele>313</ele>
        <time>2023-09-10T11:52:38Z</time>
      </trkpt>
      <trkpt lat="43.09493" lon="2.03138">
        <ele>313</ele>
        <time>2023-09-10T11:52:39Z</time>
      </trkpt>
      <trkpt lat="43.09492" lon="2.03139">
        <ele>313</ele>
        <time>2023-09-10T11:52:40Z</time>
      </trkpt>
      <trkpt lat="43.09492" lon="2.03141">
        <ele>313</ele>
        <time>2023-09-10T11:52:41Z</time>
      </trkpt>
      <trkpt lat="43.09492" lon="2.03142">
        <ele>313</ele>
        <time>2023-09-10T11:52:42Z</time>
      </trkpt>
      <trkpt lat="43.09491" lon="2.03143">
        <ele>313</ele>
        <time>2023-09-10T11:52:43Z</time>
      </trkpt>
      <trkpt lat="43.09491" lon="2.03143">
        <ele>313</ele>
        <time>2023-09-10T11:52:44Z</time>
      </trkpt>
      <trkpt lat="43.0949" lon="2.03144">
        <ele>313</ele>
        <time>2023-09-10T11:52:45Z</time>
      </trkpt>
      <trkpt lat="43.0949" lon="2.03145">
        <ele>313</ele>
        <time>2023-09-10T11:52:46Z</time>
      </trkpt>
      <trkpt lat="43.09489" lon="2.03145">
        <ele>313</ele>
        <time>2023-09-10T11:52:47Z</time>
      </trkpt>
      <trkpt lat="43.09488" lon="2.03146">
        <ele>313</ele>
        <time>2023-09-10T11:52:48Z</time>
      </trkpt>
      <trkpt lat="43.09487" lon="2.03147">
        <ele>313</ele>
        <time>2023-09-10T11:52:49Z</time>
      </trkpt>
      <trkpt lat="43.09486" lon="2.03147">
        <ele>314</ele>
        <time>2023-09-10T11:52:50Z</time>
      </trkpt>
      <trkpt lat="43.09486" lon="2.03148">
        <ele>314</ele>
        <time>2023-09-10T11:52:51Z</time>
      </trkpt>
      <trkpt lat="43.09485" lon="2.03149">
        <ele>314</ele>
        <time>2023-09-10T11:52:52Z</time>
      </trkpt>
      <trkpt lat="43.09484" lon="2.0315">
        <ele>314</ele>
        <time>2023-09-10T11:52:53Z</time>
      </trkpt>
      <trkpt lat="43.09484" lon="2.03151">
        <ele>314</ele>
        <time>2023-09-10T11:52:54Z</time>
      </trkpt>
      <trkpt lat="43.09483" lon="2.03152">
        <ele>314</ele>
        <time>2023-09-10T11:52:55Z</time>
      </trkpt>
      <trkpt lat="43.09482" lon="2.03152">
        <ele>314</ele>
        <time>2023-09-10T11:52:56Z</time>
      </trkpt>
      <trkpt lat="43.09482" lon="2.03153">
        <ele>314</ele>
        <time>2023-09-10T11:52:57Z</time>
      </trkpt>
      <trkpt lat="43.09482" lon="2.03154">
        <ele>314</ele>
        <time>2023-09-10T11:52:58Z</time>
      </trkpt>
      <trkpt lat="43.09481" lon="2.03155">
        <ele>314</ele>
        <time>2023-09-10T11:52:59Z</time>
      </trkpt>
      <trkpt lat="43.09481" lon="2.03156">
        <ele>314</ele>
        <time>2023-09-10T11:53:00Z</time>
      </trkpt>
      <trkpt lat="43.0948" lon="2.03157">
        <ele>313</ele>
        <time>2023-09-10T11:53:01Z</time>
      </trkpt>
      <trkpt lat="43.09479" lon="2.03158">
        <ele>313</ele>
        <time>2023-09-10T11:53:02Z</time>
      </trkpt>
      <trkpt lat="43.09479" lon="2.03159">
        <ele>313</ele>
        <time>2023-09-10T11:53:03Z</time>
      </trkpt>
      <trkpt lat="43.09478" lon="2.0316">
        <ele>313</ele>
        <time>2023-09-10T11:53:04Z</time>
      </trkpt>
      <trkpt lat="43.09478" lon="2.0316">
        <ele>313</ele>
        <time>2023-09-10T11:53:05Z</time>
      </trkpt>
      <trkpt lat="43.09478" lon="2.0316">
        <ele>313</ele>
        <time>2023-09-10T11:53:06Z</time>
      </trkpt>
      <trkpt lat="43.09478" lon="2.0316">
        <ele>313</ele>
        <time>2023-09-10T11:53:07Z</time>
      </trkpt>
      <trkpt lat="43.09478" lon="2.0316">
        <ele>313</ele>
        <time>2023-09-10T11:53:08Z</time>
      </trkpt>
      <trkpt lat="43.09478" lon="2.03161">
        <ele>313</ele>
        <time>2023-09-10T11:53:09Z</time>
      </trkpt>
      <trkpt lat="43.09479" lon="2.03162">
        <ele>313</ele>
        <time>2023-09-10T11:53:10Z</time>
      </trkpt>
      <trkpt lat="43.09479" lon="2.03162">
        <ele>313</ele>
        <time>2023-09-10T11:53:11Z</time>
      </trkpt>
      <trkpt lat="43.0948" lon="2.03162">
        <ele>313</ele>
        <time>2023-09-10T11:53:12Z</time>
      </trkpt>
      <trkpt lat="43.0948" lon="2.03164">
        <ele>313</ele>
        <time>2023-09-10T11:53:35Z</time>
      </trkpt>
      <trkpt lat="43.09479" lon="2.03165">
        <ele>313</ele>
        <time>2023-09-10T11:53:36Z</time>
      </trkpt>
      <trkpt lat="43.09479" lon="2.03165">
        <ele>313</ele>
        <time>2023-09-10T11:53:37Z</time>
      </trkpt>
      <trkpt lat="43.09479" lon="2.03166">
        <ele>313</ele>
        <time>2023-09-10T11:53:38Z</time>
      </trkpt>
      <trkpt lat="43.09478" lon="2.03167">
        <ele>313</ele>
        <time>2023-09-10T11:53:39Z</time>
      </trkpt>
      <trkpt lat="43.09478" lon="2.03167">
        <ele>313</ele>
        <time>2023-09-10T11:53:40Z</time>
      </trkpt>
      <trkpt lat="43.09477" lon="2.03168">
        <ele>313</ele>
        <time>2023-09-10T11:53:41Z</time>
      </trkpt>
      <trkpt lat="43.09477" lon="2.03169">
        <ele>313</ele>
        <time>2023-09-10T11:53:42Z</time>
      </trkpt>
      <trkpt lat="43.09476" lon="2.0317">
        <ele>313</ele>
        <time>2023-09-10T11:53:43Z</time>
      </trkpt>
      <trkpt lat="43.09476" lon="2.03172">
        <ele>313</ele>
        <time>2023-09-10T11:53:44Z</time>
      </trkpt>
      <trkpt lat="43.09476" lon="2.03173">
        <ele>313</ele>
        <time>2023-09-10T11:53:45Z</time>
      </trkpt>
      <trkpt lat="43.09475" lon="2.03174">
        <ele>313</ele>
        <time>2023-09-10T11:53:46Z</time>
      </trkpt>
      <trkpt lat="43.09475" lon="2.03175">
        <ele>313</ele>
        <time>2023-09-10T11:53:47Z</time>
      </trkpt>
      <trkpt lat="43.09474" lon="2.03176">
        <ele>313</ele>
        <time>2023-09-10T11:53:48Z</time>
      </trkpt>
      <trkpt lat="43.09474" lon="2.03177">
        <ele>313</ele>
        <time>2023-09-10T11:53:49Z</time>
      </trkpt>
      <trkpt lat="43.09474" lon="2.03178">
        <ele>313</ele>
        <time>2023-09-10T11:53:50Z</time>
      </trkpt>
      <trkpt lat="43.09473" lon="2.03179">
        <ele>313</ele>
        <time>2023-09-10T11:53:51Z</time>
      </trkpt>
      <trkpt lat="43.09473" lon="2.0318">
        <ele>313</ele>
        <time>2023-09-10T11:53:52Z</time>
      </trkpt>
      <trkpt lat="43.09472" lon="2.03181">
        <ele>313</ele>
        <time>2023-09-10T11:53:53Z</time>
      </trkpt>
      <trkpt lat="43.09472" lon="2.03182">
        <ele>313</ele>
        <time>2023-09-10T11:53:54Z</time>
      </trkpt>
      <trkpt lat="43.09471" lon="2.03183">
        <ele>313</ele>
        <time>2023-09-10T11:53:55Z</time>
      </trkpt>
      <trkpt lat="43.09469" lon="2.03184">
        <ele>313</ele>
        <time>2023-09-10T11:53:56Z</time>
      </trkpt>
      <trkpt lat="43.09468" lon="2.03185">
        <ele>313</ele>
        <time>2023-09-10T11:53:57Z</time>
      </trkpt>
      <trkpt lat="43.09467" lon="2.03186">
        <ele>313</ele>
        <time>2023-09-10T11:53:58Z</time>
      </trkpt>
      <trkpt lat="43.09465" lon="2.03187">
        <ele>313</ele>
        <time>2023-09-10T11:53:59Z</time>
      </trkpt>
      <trkpt lat="43.09464" lon="2.03188">
        <ele>313</ele>
        <time>2023-09-10T11:54:00Z</time>
      </trkpt>
      <trkpt lat="43.09463" lon="2.03189">
        <ele>313</ele>
        <time>2023-09-10T11:54:01Z</time>
      </trkpt>
      <trkpt lat="43.09463" lon="2.0319">
        <ele>313</ele>
        <time>2023-09-10T11:54:02Z</time>
      </trkpt>
      <trkpt lat="43.09463" lon="2.03191">
        <ele>313</ele>
        <time>2023-09-10T11:54:03Z</time>
      </trkpt>
      <trkpt lat="43.09462" lon="2.03192">
        <ele>313</ele>
        <time>2023-09-10T11:54:04Z</time>
      </trkpt>
      <trkpt lat="43.09462" lon="2.03193">
        <ele>313</ele>
        <time>2023-09-10T11:54:05Z</time>
      </trkpt>
      <trkpt lat="43.09462" lon="2.03194">
        <ele>313</ele>
        <time>2023-09-10T11:54:06Z</time>
      </trkpt>
      <trkpt lat="43.09462" lon="2.03195">
        <ele>313</ele>
        <time>2023-09-10T11:54:07Z</time>
      </trkpt>
      <trkpt lat="43.09462" lon="2.03196">
        <ele>313</ele>
        <time>2023-09-10T11:54:08Z</time>
      </trkpt>
      <trkpt lat="43.09462" lon="2.03197">
        <ele>313</ele>
        <time>2023-09-10T11:54:09Z</time>
      </trkpt>
      <trkpt lat="43.09462" lon="2.03198">
        <ele>313</ele>
        <time>2023-09-10T11:54:10Z</time>
      </trkpt>
      <trkpt lat="43.09462" lon="2.03199">
        <ele>313</ele>
        <time>2023-09-10T11:54:11Z</time>
      </trkpt>
      <trkpt lat="43.09461" lon="2.032">
        <ele>313</ele>
        <time>2023-09-10T11:54:12Z</time>
      </trkpt>
      <trkpt lat="43.09461" lon="2.03201">
        <ele>313</ele>
        <time>2023-09-10T11:54:13Z</time>
      </trkpt>
      <trkpt lat="43.09461" lon="2.03202">
        <ele>313</ele>
        <time>2023-09-10T11:54:14Z</time>
      </trkpt>
      <trkpt lat="43.09461" lon="2.03203">
        <ele>313</ele>
        <time>2023-09-10T11:54:15Z</time>
      </trkpt>
      <trkpt lat="43.0946" lon="2.03204">
        <ele>313</ele>
        <time>2023-09-10T11:54:16Z</time>
      </trkpt>
      <trkpt lat="43.09459" lon="2.03205">
        <ele>313</ele>
        <time>2023-09-10T11:54:17Z</time>
      </trkpt>
      <trkpt lat="43.09458" lon="2.03205">
        <ele>313</ele>
        <time>2023-09-10T11:54:18Z</time>
      </trkpt>
      <trkpt lat="43.09457" lon="2.03205">
        <ele>313</ele>
        <time>2023-09-10T11:54:19Z</time>
      </trkpt>
      <trkpt lat="43.09456" lon="2.03206">
        <ele>313</ele>
        <time>2023-09-10T11:54:20Z</time>
      </trkpt>
      <trkpt lat="43.09455" lon="2.03207">
        <ele>313</ele>
        <time>2023-09-10T11:54:21Z</time>
      </trkpt>
      <trkpt lat="43.09454" lon="2.03207">
        <ele>313</ele>
        <time>2023-09-10T11:54:22Z</time>
      </trkpt>
      <trkpt lat="43.09453" lon="2.03208">
        <ele>313</ele>
        <time>2023-09-10T11:54:23Z</time>
      </trkpt>
      <trkpt lat="43.09452" lon="2.03209">
        <ele>313</ele>
        <time>2023-09-10T11:54:24Z</time>
      </trkpt>
      <trkpt lat="43.09451" lon="2.0321">
        <ele>313</ele>
        <time>2023-09-10T11:54:25Z</time>
      </trkpt>
      <trkpt lat="43.09451" lon="2.0321">
        <ele>313</ele>
        <time>2023-09-10T11:54:26Z</time>
      </trkpt>
      <trkpt lat="43.09451" lon="2.03211">
        <ele>313</ele>
        <time>2023-09-10T11:54:27Z</time>
      </trkpt>
      <trkpt lat="43.0945" lon="2.03211">
        <ele>313</ele>
        <time>2023-09-10T11:54:28Z</time>
      </trkpt>
      <trkpt lat="43.0945" lon="2.03212">
        <ele>313</ele>
        <time>2023-09-10T11:54:29Z</time>
      </trkpt>
      <trkpt lat="43.09449" lon="2.03212">
        <ele>314</ele>
        <time>2023-09-10T11:54:30Z</time>
      </trkpt>
      <trkpt lat="43.09448" lon="2.03213">
        <ele>314</ele>
        <time>2023-09-10T11:54:31Z</time>
      </trkpt>
      <trkpt lat="43.09448" lon="2.03214">
        <ele>314</ele>
        <time>2023-09-10T11:54:32Z</time>
      </trkpt>
      <trkpt lat="43.09447" lon="2.03215">
        <ele>314</ele>
        <time>2023-09-10T11:54:33Z</time>
      </trkpt>
      <trkpt lat="43.09446" lon="2.03215">
        <ele>314</ele>
        <time>2023-09-10T11:54:34Z</time>
      </trkpt>
      <trkpt lat="43.09446" lon="2.03216">
        <ele>314</ele>
        <time>2023-09-10T11:54:35Z</time>
      </trkpt>
      <trkpt lat="43.09445" lon="2.03217">
        <ele>314</ele>
        <time>2023-09-10T11:54:36Z</time>
      </trkpt>
      <trkpt lat="43.09445" lon="2.03218">
        <ele>314</ele>
        <time>2023-09-10T11:54:37Z</time>
      </trkpt>
      <trkpt lat="43.09444" lon="2.03219">
        <ele>314</ele>
        <time>2023-09-10T11:54:38Z</time>
      </trkpt>
      <trkpt lat="43.09444" lon="2.0322">
        <ele>314</ele>
        <time>2023-09-10T11:54:39Z</time>
      </trkpt>
      <trkpt lat="43.09443" lon="2.03221">
        <ele>314</ele>
        <time>2023-09-10T11:54:40Z</time>
      </trkpt>
      <trkpt lat="43.09443" lon="2.03222">
        <ele>314</ele>
        <time>2023-09-10T11:54:41Z</time>
      </trkpt>
      <trkpt lat="43.09442" lon="2.03223">
        <ele>314</ele>
        <time>2023-09-10T11:54:42Z</time>
      </trkpt>
      <trkpt lat="43.09441" lon="2.03224">
        <ele>314</ele>
        <time>2023-09-10T11:54:43Z</time>
      </trkpt>
      <trkpt lat="43.0944" lon="2.03226">
        <ele>314</ele>
        <time>2023-09-10T11:54:44Z</time>
      </trkpt>
      <trkpt lat="43.09439" lon="2.03227">
        <ele>314</ele>
        <time>2023-09-10T11:54:45Z</time>
      </trkpt>
      <trkpt lat="43.09438" lon="2.03228">
        <ele>314</ele>
        <time>2023-09-10T11:54:46Z</time>
      </trkpt>
      <trkpt lat="43.09438" lon="2.03228">
        <ele>314</ele>
        <time>2023-09-10T11:54:47Z</time>
      </trkpt>
      <trkpt lat="43.09437" lon="2.03229">
        <ele>314</ele>
        <time>2023-09-10T11:54:48Z</time>
      </trkpt>
      <trkpt lat="43.09437" lon="2.0323">
        <ele>314</ele>
        <time>2023-09-10T11:54:49Z</time>
      </trkpt>
      <trkpt lat="43.09436" lon="2.03231">
        <ele>314</ele>
        <time>2023-09-10T11:54:50Z</time>
      </trkpt>
      <trkpt lat="43.09436" lon="2.03232">
        <ele>314</ele>
        <time>2023-09-10T11:54:51Z</time>
      </trkpt>
      <trkpt lat="43.09435" lon="2.03233">
        <ele>314</ele>
        <time>2023-09-10T11:54:52Z</time>
      </trkpt>
      <trkpt lat="43.09435" lon="2.03234">
        <ele>314</ele>
        <time>2023-09-10T11:54:53Z</time>
      </trkpt>
      <trkpt lat="43.09434" lon="2.03236">
        <ele>314</ele>
        <time>2023-09-10T11:54:54Z</time>
      </trkpt>
      <trkpt lat="43.09434" lon="2.03237">
        <ele>314</ele>
        <time>2023-09-10T11:54:55Z</time>
      </trkpt>
      <trkpt lat="43.09433" lon="2.03238">
        <ele>314</ele>
        <time>2023-09-10T11:54:56Z</time>
      </trkpt>
      <trkpt lat="43.09433" lon="2.03239">
        <ele>314</ele>
        <time>2023-09-10T11:54:57Z</time>
      </trkpt>
      <trkpt lat="43.09432" lon="2.0324">
        <ele>314</ele>
        <time>2023-09-10T11:54:58Z</time>
      </trkpt>
      <trkpt lat="43.09431" lon="2.03241">
        <ele>314</ele>
        <time>2023-09-10T11:54:59Z</time>
      </trkpt>
      <trkpt lat="43.0943" lon="2.03242">
        <ele>314</ele>
        <time>2023-09-10T11:55:00Z</time>
      </trkpt>
      <trkpt lat="43.09429" lon="2.03243">
        <ele>314</ele>
        <time>2023-09-10T11:55:01Z</time>
      </trkpt>
      <trkpt lat="43.09428" lon="2.03244">
        <ele>314</ele>
        <time>2023-09-10T11:55:02Z</time>
      </trkpt>
      <trkpt lat="43.09427" lon="2.03245">
        <ele>314</ele>
        <time>2023-09-10T11:55:03Z</time>
      </trkpt>
      <trkpt lat="43.09426" lon="2.03246">
        <ele>314</ele>
        <time>2023-09-10T11:55:04Z</time>
      </trkpt>
      <trkpt lat="43.09426" lon="2.03247">
        <ele>314</ele>
        <time>2023-09-10T11:55:05Z</time>
      </trkpt>
      <trkpt lat="43.09425" lon="2.03248">
        <ele>314</ele>
        <time>2023-09-10T11:55:06Z</time>
      </trkpt>
      <trkpt lat="43.09424" lon="2.03249">
        <ele>314</ele>
        <time>2023-09-10T11:55:07Z</time>
      </trkpt>
      <trkpt lat="43.09424" lon="2.03249">
        <ele>314</ele>
        <time>2023-09-10T11:55:08Z</time>
      </trkpt>
      <trkpt lat="43.09423" lon="2.0325">
        <ele>314</ele>
        <time>2023-09-10T11:55:09Z</time>
      </trkpt>
      <trkpt lat="43.09423" lon="2.0325">
        <ele>314</ele>
        <time>2023-09-10T11:55:10Z</time>
      </trkpt>
      <trkpt lat="43.09422" lon="2.03251">
        <ele>314</ele>
        <time>2023-09-10T11:55:11Z</time>
      </trkpt>
      <trkpt lat="43.09422" lon="2.03252">
        <ele>314</ele>
        <time>2023-09-10T11:55:12Z</time>
      </trkpt>
      <trkpt lat="43.09421" lon="2.03253">
        <ele>314</ele>
        <time>2023-09-10T11:55:13Z</time>
      </trkpt>
      <trkpt lat="43.09421" lon="2.03254">
        <ele>314</ele>
        <time>2023-09-10T11:55:14Z</time>
      </trkpt>
      <trkpt lat="43.0942" lon="2.03254">
        <ele>314</ele>
        <time>2023-09-10T11:55:15Z</time>
      </trkpt>
      <trkpt lat="43.0942" lon="2.03255">
        <ele>314</ele>
        <time>2023-09-10T11:55:16Z</time>
      </trkpt>
      <trkpt lat="43.0942" lon="2.03256">
        <ele>314</ele>
        <time>2023-09-10T11:55:17Z</time>
      </trkpt>
      <trkpt lat="43.09419" lon="2.03257">
        <ele>314</ele>
        <time>2023-09-10T11:55:18Z</time>
      </trkpt>
      <trkpt lat="43.09419" lon="2.03259">
        <ele>314</ele>
        <time>2023-09-10T11:55:19Z</time>
      </trkpt>
      <trkpt lat="43.09419" lon="2.0326">
        <ele>315</ele>
        <time>2023-09-10T11:55:20Z</time>
      </trkpt>
      <trkpt lat="43.09419" lon="2.03261">
        <ele>315</ele>
        <time>2023-09-10T11:55:21Z</time>
      </trkpt>
      <trkpt lat="43.0942" lon="2.03262">
        <ele>315</ele>
        <time>2023-09-10T11:55:22Z</time>
      </trkpt>
      <trkpt lat="43.0942" lon="2.03264">
        <ele>315</ele>
        <time>2023-09-10T11:55:23Z</time>
      </trkpt>
      <trkpt lat="43.0942" lon="2.03265">
        <ele>315</ele>
        <time>2023-09-10T11:55:24Z</time>
      </trkpt>
      <trkpt lat="43.0942" lon="2.03266">
        <ele>315</ele>
        <time>2023-09-10T11:55:25Z</time>
      </trkpt>
      <trkpt lat="43.0942" lon="2.03268">
        <ele>315</ele>
        <time>2023-09-10T11:55:26Z</time>
      </trkpt>
      <trkpt lat="43.0942" lon="2.03269">
        <ele>315</ele>
        <time>2023-09-10T11:55:27Z</time>
      </trkpt>
      <trkpt lat="43.0942" lon="2.0327">
        <ele>315</ele>
        <time>2023-09-10T11:55:28Z</time>
      </trkpt>
      <trkpt lat="43.09419" lon="2.03272">
        <ele>315</ele>
        <time>2023-09-10T11:55:29Z</time>
      </trkpt>
      <trkpt lat="43.09419" lon="2.03273">
        <ele>315</ele>
        <time>2023-09-10T11:55:30Z</time>
      </trkpt>
      <trkpt lat="43.09419" lon="2.03274">
        <ele>315</ele>
        <time>2023-09-10T11:55:31Z</time>
      </trkpt>
      <trkpt lat="43.09419" lon="2.03275">
        <ele>315</ele>
        <time>2023-09-10T11:55:32Z</time>
      </trkpt>
      <trkpt lat="43.09419" lon="2.03277">
        <ele>315</ele>
        <time>2023-09-10T11:55:33Z</time>
      </trkpt>
      <trkpt lat="43.09419" lon="2.03278">
        <ele>315</ele>
        <time>2023-09-10T11:55:34Z</time>
      </trkpt>
      <trkpt lat="43.09419" lon="2.0328">
        <ele>315</ele>
        <time>2023-09-10T11:55:35Z</time>
      </trkpt>
      <trkpt lat="43.09419" lon="2.03281">
        <ele>315</ele>
        <time>2023-09-10T11:55:36Z</time>
      </trkpt>
      <trkpt lat="43.0942" lon="2.03283">
        <ele>315</ele>
        <time>2023-09-10T11:55:37Z</time>
      </trkpt>
      <trkpt lat="43.09421" lon="2.03284">
        <ele>315</ele>
        <time>2023-09-10T11:55:38Z</time>
      </trkpt>
      <trkpt lat="43.09422" lon="2.03286">
        <ele>315</ele>
        <time>2023-09-10T11:55:39Z</time>
      </trkpt>
      <trkpt lat="43.09423" lon="2.03288">
        <ele>315</ele>
        <time>2023-09-10T11:55:40Z</time>
      </trkpt>
      <trkpt lat="43.09423" lon="2.0329">
        <ele>315</ele>
        <time>2023-09-10T11:55:41Z</time>
      </trkpt>
      <trkpt lat="43.09424" lon="2.03292">
        <ele>315</ele>
        <time>2023-09-10T11:55:42Z</time>
      </trkpt>
      <trkpt lat="43.09424" lon="2.03294">
        <ele>315</ele>
        <time>2023-09-10T11:55:43Z</time>
      </trkpt>
      <trkpt lat="43.09424" lon="2.03295">
        <ele>315</ele>
        <time>2023-09-10T11:55:44Z</time>
      </trkpt>
      <trkpt lat="43.09424" lon="2.03296">
        <ele>315</ele>
        <time>2023-09-10T11:55:45Z</time>
      </trkpt>
      <trkpt lat="43.09424" lon="2.03297">
        <ele>315</ele>
        <time>2023-09-10T11:55:46Z</time>
      </trkpt>
      <trkpt lat="43.09423" lon="2.03298">
        <ele>315</ele>
        <time>2023-09-10T11:55:47Z</time>
      </trkpt>
      <trkpt lat="43.09423" lon="2.03299">
        <ele>315</ele>
        <time>2023-09-10T11:55:48Z</time>
      </trkpt>
      <trkpt lat="43.09422" lon="2.033">
        <ele>315</ele>
        <time>2023-09-10T11:55:49Z</time>
      </trkpt>
      <trkpt lat="43.09422" lon="2.03301">
        <ele>315</ele>
        <time>2023-09-10T11:55:50Z</time>
      </trkpt>
      <trkpt lat="43.09421" lon="2.03302">
        <ele>314</ele>
        <time>2023-09-10T11:55:51Z</time>
      </trkpt>
      <trkpt lat="43.09421" lon="2.03303">
        <ele>314</ele>
        <time>2023-09-10T11:55:52Z</time>
      </trkpt>
      <trkpt lat="43.0942" lon="2.03304">
        <ele>314</ele>
        <time>2023-09-10T11:55:53Z</time>
      </trkpt>
      <trkpt lat="43.0942" lon="2.03305">
        <ele>314</ele>
        <time>2023-09-10T11:55:54Z</time>
      </trkpt>
      <trkpt lat="43.0942" lon="2.03307">
        <ele>314</ele>
        <time>2023-09-10T11:55:55Z</time>
      </trkpt>
      <trkpt lat="43.09419" lon="2.03308">
        <ele>314</ele>
        <time>2023-09-10T11:55:56Z</time>
      </trkpt>
      <trkpt lat="43.09419" lon="2.03309">
        <ele>314</ele>
        <time>2023-09-10T11:55:57Z</time>
      </trkpt>
      <trkpt lat="43.09418" lon="2.0331">
        <ele>314</ele>
        <time>2023-09-10T11:55:58Z</time>
      </trkpt>
      <trkpt lat="43.09418" lon="2.03311">
        <ele>314</ele>
        <time>2023-09-10T11:55:59Z</time>
      </trkpt>
      <trkpt lat="43.09418" lon="2.03312">
        <ele>314</ele>
        <time>2023-09-10T11:56:00Z</time>
      </trkpt>
      <trkpt lat="43.09418" lon="2.03314">
        <ele>314</ele>
        <time>2023-09-10T11:56:01Z</time>
      </trkpt>
      <trkpt lat="43.09418" lon="2.03315">
        <ele>314</ele>
        <time>2023-09-10T11:56:02Z</time>
      </trkpt>
      <trkpt lat="43.09418" lon="2.03316">
        <ele>314</ele>
        <time>2023-09-10T11:56:03Z</time>
      </trkpt>
      <trkpt lat="43.09417" lon="2.03317">
        <ele>314</ele>
        <time>2023-09-10T11:56:04Z</time>
      </trkpt>
      <trkpt lat="43.09417" lon="2.03318">
        <ele>314</ele>
        <time>2023-09-10T11:56:05Z</time>
      </trkpt>
      <trkpt lat="43.09417" lon="2.03319">
        <ele>314</ele>
        <time>2023-09-10T11:56:06Z</time>
      </trkpt>
      <trkpt lat="43.09416" lon="2.0332">
        <ele>314</ele>
        <time>2023-09-10T11:56:07Z</time>
      </trkpt>
      <trkpt lat="43.09416" lon="2.03321">
        <ele>314</ele>
        <time>2023-09-10T11:56:08Z</time>
      </trkpt>
      <trkpt lat="43.09416" lon="2.03323">
        <ele>314</ele>
        <time>2023-09-10T11:56:09Z</time>
      </trkpt>
      <trkpt lat="43.09415" lon="2.03324">
        <ele>314</ele>
        <time>2023-09-10T11:56:10Z</time>
      </trkpt>
      <trkpt lat="43.09415" lon="2.03326">
        <ele>314</ele>
        <time>2023-09-10T11:56:11Z</time>
      </trkpt>
      <trkpt lat="43.09414" lon="2.03327">
        <ele>314</ele>
        <time>2023-09-10T11:56:12Z</time>
      </trkpt>
      <trkpt lat="43.09414" lon="2.03329">
        <ele>314</ele>
        <time>2023-09-10T11:56:13Z</time>
      </trkpt>
      <trkpt lat="43.09413" lon="2.0333">
        <ele>314</ele>
        <time>2023-09-10T11:56:14Z</time>
      </trkpt>
      <trkpt lat="43.09413" lon="2.03332">
        <ele>314</ele>
        <time>2023-09-10T11:56:15Z</time>
      </trkpt>
      <trkpt lat="43.09412" lon="2.03334">
        <ele>314</ele>
        <time>2023-09-10T11:56:16Z</time>
      </trkpt>
      <trkpt lat="43.09411" lon="2.03335">
        <ele>314</ele>
        <time>2023-09-10T11:56:17Z</time>
      </trkpt>
      <trkpt lat="43.09411" lon="2.03336">
        <ele>314</ele>
        <time>2023-09-10T11:56:18Z</time>
      </trkpt>
      <trkpt lat="43.0941" lon="2.03337">
        <ele>314</ele>
        <time>2023-09-10T11:56:19Z</time>
      </trkpt>
      <trkpt lat="43.0941" lon="2.03338">
        <ele>314</ele>
        <time>2023-09-10T11:56:20Z</time>
      </trkpt>
      <trkpt lat="43.09409" lon="2.03339">
        <ele>314</ele>
        <time>2023-09-10T11:56:21Z</time>
      </trkpt>
      <trkpt lat="43.09409" lon="2.0334">
        <ele>314</ele>
        <time>2023-09-10T11:56:22Z</time>
      </trkpt>
      <trkpt lat="43.09409" lon="2.03342">
        <ele>314</ele>
        <time>2023-09-10T11:56:23Z</time>
      </trkpt>
      <trkpt lat="43.09409" lon="2.03343">
        <ele>314</ele>
        <time>2023-09-10T11:56:24Z</time>
      </trkpt>
      <trkpt lat="43.09408" lon="2.03344">
        <ele>314</ele>
        <time>2023-09-10T11:56:25Z</time>
      </trkpt>
      <trkpt lat="43.09408" lon="2.03345">
        <ele>314</ele>
        <time>2023-09-10T11:56:26Z</time>
      </trkpt>
      <trkpt lat="43.09407" lon="2.03347">
        <ele>314</ele>
        <time>2023-09-10T11:56:27Z</time>
      </trkpt>
      <trkpt lat="43.09407" lon="2.03348">
        <ele>314</ele>
        <time>2023-09-10T11:56:28Z</time>
      </trkpt>
      <trkpt lat="43.09406" lon="2.0335">
        <ele>314</ele>
        <time>2023-09-10T11:56:29Z</time>
      </trkpt>
      <trkpt lat="43.09406" lon="2.03351">
        <ele>314</ele>
        <time>2023-09-10T11:56:30Z</time>
      </trkpt>
      <trkpt lat="43.09406" lon="2.03353">
        <ele>314</ele>
        <time>2023-09-10T11:56:31Z</time>
      </trkpt>
      <trkpt lat="43.09405" lon="2.03355">
        <ele>314</ele>
        <time>2023-09-10T11:56:32Z</time>
      </trkpt>
      <trkpt lat="43.09405" lon="2.03356">
        <ele>314</ele>
        <time>2023-09-10T11:56:33Z</time>
      </trkpt>
      <trkpt lat="43.09404" lon="2.03358">
        <ele>314</ele>
        <time>2023-09-10T11:56:34Z</time>
      </trkpt>
      <trkpt lat="43.09403" lon="2.03359">
        <ele>314</ele>
        <time>2023-09-10T11:56:35Z</time>
      </trkpt>
      <trkpt lat="43.09403" lon="2.03361">
        <ele>314</ele>
        <time>2023-09-10T11:56:36Z</time>
      </trkpt>
      <trkpt lat="43.09402" lon="2.03361">
        <ele>314</ele>
        <time>2023-09-10T11:56:37Z</time>
      </trkpt>
      <trkpt lat="43.09402" lon="2.03362">
        <ele>314</ele>
        <time>2023-09-10T11:56:38Z</time>
      </trkpt>
      <trkpt lat="43.09402" lon="2.03363">
        <ele>314</ele>
        <time>2023-09-10T11:56:39Z</time>
      </trkpt>
      <trkpt lat="43.09402" lon="2.03364">
        <ele>314</ele>
        <time>2023-09-10T11:56:40Z</time>
      </trkpt>
      <trkpt lat="43.09402" lon="2.03365">
        <ele>314</ele>
        <time>2023-09-10T11:56:41Z</time>
      </trkpt>
      <trkpt lat="43.09402" lon="2.03366">
        <ele>314</ele>
        <time>2023-09-10T11:56:42Z</time>
      </trkpt>
      <trkpt lat="43.09402" lon="2.03368">
        <ele>314</ele>
        <time>2023-09-10T11:56:43Z</time>
      </trkpt>
      <trkpt lat="43.09402" lon="2.03369">
        <ele>314</ele>
        <time>2023-09-10T11:56:44Z</time>
      </trkpt>
      <trkpt lat="43.09402" lon="2.03371">
        <ele>314</ele>
        <time>2023-09-10T11:56:45Z</time>
      </trkpt>
      <trkpt lat="43.09403" lon="2.03372">
        <ele>314</ele>
        <time>2023-09-10T11:56:46Z</time>
      </trkpt>
      <trkpt lat="43.09403" lon="2.03374">
        <ele>314</ele>
        <time>2023-09-10T11:56:47Z</time>
      </trkpt>
      <trkpt lat="43.09404" lon="2.03377">
        <ele>314</ele>
        <time>2023-09-10T11:56:48Z</time>
      </trkpt>
      <trkpt lat="43.09404" lon="2.03379">
        <ele>314</ele>
        <time>2023-09-10T11:56:49Z</time>
      </trkpt>
      <trkpt lat="43.09404" lon="2.03381">
        <ele>314</ele>
        <time>2023-09-10T11:56:50Z</time>
      </trkpt>
      <trkpt lat="43.09403" lon="2.03383">
        <ele>314</ele>
        <time>2023-09-10T11:56:51Z</time>
      </trkpt>
      <trkpt lat="43.09403" lon="2.03385">
        <ele>314</ele>
        <time>2023-09-10T11:56:52Z</time>
      </trkpt>
      <trkpt lat="43.09402" lon="2.03386">
        <ele>314</ele>
        <time>2023-09-10T11:56:53Z</time>
      </trkpt>
      <trkpt lat="43.09402" lon="2.03388">
        <ele>314</ele>
        <time>2023-09-10T11:56:54Z</time>
      </trkpt>
      <trkpt lat="43.09401" lon="2.03388">
        <ele>314</ele>
        <time>2023-09-10T11:56:55Z</time>
      </trkpt>
      <trkpt lat="43.094" lon="2.03389">
        <ele>314</ele>
        <time>2023-09-10T11:56:56Z</time>
      </trkpt>
      <trkpt lat="43.09398" lon="2.03391">
        <ele>314</ele>
        <time>2023-09-10T11:56:57Z</time>
      </trkpt>
      <trkpt lat="43.09397" lon="2.03392">
        <ele>314</ele>
        <time>2023-09-10T11:56:58Z</time>
      </trkpt>
      <trkpt lat="43.09394" lon="2.03392">
        <ele>314</ele>
        <time>2023-09-10T11:57:25Z</time>
      </trkpt>
      <trkpt lat="43.09393" lon="2.03393">
        <ele>314</ele>
        <time>2023-09-10T11:57:26Z</time>
      </trkpt>
      <trkpt lat="43.09391" lon="2.03393">
        <ele>314</ele>
        <time>2023-09-10T11:57:27Z</time>
      </trkpt>
      <trkpt lat="43.0939" lon="2.03394">
        <ele>314</ele>
        <time>2023-09-10T11:57:28Z</time>
      </trkpt>
      <trkpt lat="43.09389" lon="2.03395">
        <ele>314</ele>
        <time>2023-09-10T11:57:29Z</time>
      </trkpt>
      <trkpt lat="43.09388" lon="2.03396">
        <ele>314</ele>
        <time>2023-09-10T11:57:30Z</time>
      </trkpt>
      <trkpt lat="43.09388" lon="2.03397">
        <ele>314</ele>
        <time>2023-09-10T11:57:31Z</time>
      </trkpt>
      <trkpt lat="43.09387" lon="2.03397">
        <ele>314</ele>
        <time>2023-09-10T11:57:32Z</time>
      </trkpt>
      <trkpt lat="43.09386" lon="2.03398">
        <ele>314</ele>
        <time>2023-09-10T11:57:33Z</time>
      </trkpt>
      <trkpt lat="43.09386" lon="2.03399">
        <ele>314</ele>
        <time>2023-09-10T11:57:34Z</time>
      </trkpt>
      <trkpt lat="43.09385" lon="2.034">
        <ele>314</ele>
        <time>2023-09-10T11:57:35Z</time>
      </trkpt>
      <trkpt lat="43.09385" lon="2.03401">
        <ele>314</ele>
        <time>2023-09-10T11:57:36Z</time>
      </trkpt>
      <trkpt lat="43.09384" lon="2.03403">
        <ele>314</ele>
        <time>2023-09-10T11:57:37Z</time>
      </trkpt>
      <trkpt lat="43.09384" lon="2.03404">
        <ele>314</ele>
        <time>2023-09-10T11:57:38Z</time>
      </trkpt>
      <trkpt lat="43.09384" lon="2.03405">
        <ele>314</ele>
        <time>2023-09-10T11:57:39Z</time>
      </trkpt>
      <trkpt lat="43.09383" lon="2.03406">
        <ele>314</ele>
        <time>2023-09-10T11:57:40Z</time>
      </trkpt>
      <trkpt lat="43.09383" lon="2.03407">
        <ele>314</ele>
        <time>2023-09-10T11:57:41Z</time>
      </trkpt>
      <trkpt lat="43.09383" lon="2.03407">
        <ele>314</ele>
        <time>2023-09-10T11:57:42Z</time>
      </trkpt>
      <trkpt lat="43.09383" lon="2.03408">
        <ele>314</ele>
        <time>2023-09-10T11:57:43Z</time>
      </trkpt>
      <trkpt lat="43.09383" lon="2.03409">
        <ele>314</ele>
        <time>2023-09-10T11:57:44Z</time>
      </trkpt>
      <trkpt lat="43.09383" lon="2.0341">
        <ele>314</ele>
        <time>2023-09-10T11:57:45Z</time>
      </trkpt>
      <trkpt lat="43.09383" lon="2.03411">
        <ele>314</ele>
        <time>2023-09-10T11:57:46Z</time>
      </trkpt>
      <trkpt lat="43.09383" lon="2.03412">
        <ele>314</ele>
        <time>2023-09-10T11:57:47Z</time>
      </trkpt>
      <trkpt lat="43.09383" lon="2.03413">
        <ele>314</ele>
        <time>2023-09-10T11:57:48Z</time>
      </trkpt>
      <trkpt lat="43.09383" lon="2.03414">
        <ele>314</ele>
        <time>2023-09-10T11:57:49Z</time>
      </trkpt>
      <trkpt lat="43.09383" lon="2.03415">
        <ele>314</ele>
        <time>2023-09-10T11:57:50Z</time>
      </trkpt>
      <trkpt lat="43.09383" lon="2.03416">
        <ele>314</ele>
        <time>2023-09-10T11:57:51Z</time>
      </trkpt>
      <trkpt lat="43.09384" lon="2.03416">
        <ele>314</ele>
        <time>2023-09-10T11:57:52Z</time>
      </trkpt>
      <trkpt lat="43.09384" lon="2.03417">
        <ele>314</ele>
        <time>2023-09-10T11:57:53Z</time>
      </trkpt>
      <trkpt lat="43.09385" lon="2.03417">
        <ele>314</ele>
        <time>2023-09-10T11:57:54Z</time>
      </trkpt>
      <trkpt lat="43.09386" lon="2.03417">
        <ele>314</ele>
        <time>2023-09-10T11:57:55Z</time>
      </trkpt>
      <trkpt lat="43.09386" lon="2.03418">
        <ele>314</ele>
        <time>2023-09-10T11:57:56Z</time>
      </trkpt>
      <trkpt lat="43.09387" lon="2.03418">
        <ele>314</ele>
        <time>2023-09-10T11:57:57Z</time>
      </trkpt>
      <trkpt lat="43.09388" lon="2.03418">
        <ele>314</ele>
        <time>2023-09-10T11:57:58Z</time>
      </trkpt>
      <trkpt lat="43.09389" lon="2.03418">
        <ele>314</ele>
        <time>2023-09-10T11:57:59Z</time>
      </trkpt>
      <trkpt lat="43.09391" lon="2.03417">
        <ele>314</ele>
        <time>2023-09-10T11:58:00Z</time>
      </trkpt>
      <trkpt lat="43.09392" lon="2.03417">
        <ele>314</ele>
        <time>2023-09-10T11:58:01Z</time>
      </trkpt>
      <trkpt lat="43.09393" lon="2.03417">
        <ele>314</ele>
        <time>2023-09-10T11:58:02Z</time>
      </trkpt>
      <trkpt lat="43.09394" lon="2.03417">
        <ele>314</ele>
        <time>2023-09-10T11:58:03Z</time>
      </trkpt>
      <trkpt lat="43.09395" lon="2.03417">
        <ele>314</ele>
        <time>2023-09-10T11:58:04Z</time>
      </trkpt>
      <trkpt lat="43.09396" lon="2.03417">
        <ele>314</ele>
        <time>2023-09-10T11:58:05Z</time>
      </trkpt>
      <trkpt lat="43.09398" lon="2.03417">
        <ele>314</ele>
        <time>2023-09-10T11:58:06Z</time>
      </trkpt>
      <trkpt lat="43.09399" lon="2.03417">
        <ele>314</ele>
        <time>2023-09-10T11:58:07Z</time>
      </trkpt>
      <trkpt lat="43.094" lon="2.03417">
        <ele>314</ele>
        <time>2023-09-10T11:58:08Z</time>
      </trkpt>
      <trkpt lat="43.09402" lon="2.03418">
        <ele>314</ele>
        <time>2023-09-10T11:58:09Z</time>
      </trkpt>
      <trkpt lat="43.09403" lon="2.03418">
        <ele>314</ele>
        <time>2023-09-10T11:58:10Z</time>
      </trkpt>
      <trkpt lat="43.09404" lon="2.03419">
        <ele>314</ele>
        <time>2023-09-10T11:58:11Z</time>
      </trkpt>
      <trkpt lat="43.09405" lon="2.0342">
        <ele>314</ele>
        <time>2023-09-10T11:58:12Z</time>
      </trkpt>
      <trkpt lat="43.09406" lon="2.03421">
        <ele>314</ele>
        <time>2023-09-10T11:58:13Z</time>
      </trkpt>
      <trkpt lat="43.09408" lon="2.03422">
        <ele>314</ele>
        <time>2023-09-10T11:58:14Z</time>
      </trkpt>
      <trkpt lat="43.09409" lon="2.03423">
        <ele>314</ele>
        <time>2023-09-10T11:58:15Z</time>
      </trkpt>
      <trkpt lat="43.09411" lon="2.03424">
        <ele>314</ele>
        <time>2023-09-10T11:58:16Z</time>
      </trkpt>
      <trkpt lat="43.09411" lon="2.03426">
        <ele>314</ele>
        <time>2023-09-10T11:58:17Z</time>
      </trkpt>
      <trkpt lat="43.09412" lon="2.03427">
        <ele>314</ele>
        <time>2023-09-10T11:58:18Z</time>
      </trkpt>
      <trkpt lat="43.09412" lon="2.03427">
        <ele>314</ele>
        <time>2023-09-10T11:58:19Z</time>
      </trkpt>
      <trkpt lat="43.09412" lon="2.03428">
        <ele>314</ele>
        <time>2023-09-10T11:58:20Z</time>
      </trkpt>
      <trkpt lat="43.09412" lon="2.03428">
        <ele>314</ele>
        <time>2023-09-10T11:58:21Z</time>
      </trkpt>
      <trkpt lat="43.09412" lon="2.03429">
        <ele>314</ele>
        <time>2023-09-10T11:58:22Z</time>
      </trkpt>
      <trkpt lat="43.09412" lon="2.0343">
        <ele>314</ele>
        <time>2023-09-10T11:58:23Z</time>
      </trkpt>
      <trkpt lat="43.09413" lon="2.0343">
        <ele>314</ele>
        <time>2023-09-10T11:58:24Z</time>
      </trkpt>
      <trkpt lat="43.09414" lon="2.03431">
        <ele>314</ele>
        <time>2023-09-10T11:58:25Z</time>
      </trkpt>
      <trkpt lat="43.09414" lon="2.03433">
        <ele>314</ele>
        <time>2023-09-10T11:58:26Z</time>
      </trkpt>
      <trkpt lat="43.09415" lon="2.03434">
        <ele>314</ele>
        <time>2023-09-10T11:58:27Z</time>
      </trkpt>
      <trkpt lat="43.09416" lon="2.03435">
        <ele>314</ele>
        <time>2023-09-10T11:58:28Z</time>
      </trkpt>
      <trkpt lat="43.09417" lon="2.03437">
        <ele>314</ele>
        <time>2023-09-10T11:58:29Z</time>
      </trkpt>
      <trkpt lat="43.09417" lon="2.03438">
        <ele>314</ele>
        <time>2023-09-10T11:58:30Z</time>
      </trkpt>
      <trkpt lat="43.09418" lon="2.03439">
        <ele>314</ele>
        <time>2023-09-10T11:58:31Z</time>
      </trkpt>
      <trkpt lat="43.09419" lon="2.03441">
        <ele>314</ele>
        <time>2023-09-10T11:58:32Z</time>
      </trkpt>
      <trkpt lat="43.09419" lon="2.03442">
        <ele>314</ele>
        <time>2023-09-10T11:58:33Z</time>
      </trkpt>
      <trkpt lat="43.0942" lon="2.03444">
        <ele>314</ele>
        <time>2023-09-10T11:58:34Z</time>
      </trkpt>
      <trkpt lat="43.0942" lon="2.03445">
        <ele>314</ele>
        <time>2023-09-10T11:58:35Z</time>
      </trkpt>
      <trkpt lat="43.09421" lon="2.03447">
        <ele>314</ele>
        <time>2023-09-10T11:58:36Z</time>
      </trkpt>
      <trkpt lat="43.09421" lon="2.03448">
        <ele>314</ele>
        <time>2023-09-10T11:58:37Z</time>
      </trkpt>
      <trkpt lat="43.09421" lon="2.0345">
        <ele>314</ele>
        <time>2023-09-10T11:58:38Z</time>
      </trkpt>
      <trkpt lat="43.09421" lon="2.03451">
        <ele>314</ele>
        <time>2023-09-10T11:58:39Z</time>
      </trkpt>
      <trkpt lat="43.09422" lon="2.03453">
        <ele>314</ele>
        <time>2023-09-10T11:58:40Z</time>
      </trkpt>
      <trkpt lat="43.09422" lon="2.03454">
        <ele>314</ele>
        <time>2023-09-10T11:58:41Z</time>
      </trkpt>
      <trkpt lat="43.09422" lon="2.03455">
        <ele>314</ele>
        <time>2023-09-10T11:58:42Z</time>
      </trkpt>
      <trkpt lat="43.09422" lon="2.03457">
        <ele>314</ele>
        <time>2023-09-10T11:58:43Z</time>
      </trkpt>
      <trkpt lat="43.09423" lon="2.03458">
        <ele>314</ele>
        <time>2023-09-10T11:58:44Z</time>
      </trkpt>
      <trkpt lat="43.09423" lon="2.0346">
        <ele>314</ele>
        <time>2023-09-10T11:58:45Z</time>
      </trkpt>
      <trkpt lat="43.09423" lon="2.03461">
        <ele>314</ele>
        <time>2023-09-10T11:58:46Z</time>
      </trkpt>
      <trkpt lat="43.09423" lon="2.03463">
        <ele>314</ele>
        <time>2023-09-10T11:58:47Z</time>
      </trkpt>
      <trkpt lat="43.09424" lon="2.03464">
        <ele>314</ele>
        <time>2023-09-10T11:58:48Z</time>
      </trkpt>
      <trkpt lat="43.09424" lon="2.03466">
        <ele>314</ele>
        <time>2023-09-10T11:58:49Z</time>
      </trkpt>
      <trkpt lat="43.09424" lon="2.03467">
        <ele>314</ele>
        <time>2023-09-10T11:58:50Z</time>
      </trkpt>
      <trkpt lat="43.09424" lon="2.03469">
        <ele>314</ele>
        <time>2023-09-10T11:58:51Z</time>
      </trkpt>
      <trkpt lat="43.09424" lon="2.0347">
        <ele>314</ele>
        <time>2023-09-10T11:58:52Z</time>
      </trkpt>
      <trkpt lat="43.09425" lon="2.03471">
        <ele>314</ele>
        <time>2023-09-10T11:58:53Z</time>
      </trkpt>
      <trkpt lat="43.09425" lon="2.03473">
        <ele>314</ele>
        <time>2023-09-10T11:58:54Z</time>
      </trkpt>
      <trkpt lat="43.09425" lon="2.03474">
        <ele>314</ele>
        <time>2023-09-10T11:58:55Z</time>
      </trkpt>
      <trkpt lat="43.09426" lon="2.03475">
        <ele>314</ele>
        <time>2023-09-10T11:58:56Z</time>
      </trkpt>
      <trkpt lat="43.09426" lon="2.03476">
        <ele>314</ele>
        <time>2023-09-10T11:58:57Z</time>
      </trkpt>
      <trkpt lat="43.09427" lon="2.03477">
        <ele>314</ele>
        <time>2023-09-10T11:58:58Z</time>
      </trkpt>
      <trkpt lat="43.09427" lon="2.03478">
        <ele>314</ele>
        <time>2023-09-10T11:58:59Z</time>
      </trkpt>
      <trkpt lat="43.09428" lon="2.0348">
        <ele>314</ele>
        <time>2023-09-10T11:59:00Z</time>
      </trkpt>
      <trkpt lat="43.09428" lon="2.03481">
        <ele>314</ele>
        <time>2023-09-10T11:59:01Z</time>
      </trkpt>
      <trkpt lat="43.09429" lon="2.03483">
        <ele>314</ele>
        <time>2023-09-10T11:59:02Z</time>
      </trkpt>
      <trkpt lat="43.0943" lon="2.03484">
        <ele>314</ele>
        <time>2023-09-10T11:59:03Z</time>
      </trkpt>
      <trkpt lat="43.0943" lon="2.03486">
        <ele>314</ele>
        <time>2023-09-10T11:59:04Z</time>
      </trkpt>
      <trkpt lat="43.09431" lon="2.03487">
        <ele>314</ele>
        <time>2023-09-10T11:59:05Z</time>
      </trkpt>
      <trkpt lat="43.09431" lon="2.03488">
        <ele>314</ele>
        <time>2023-09-10T11:59:06Z</time>
      </trkpt>
      <trkpt lat="43.09432" lon="2.03489">
        <ele>314</ele>
        <time>2023-09-10T11:59:07Z</time>
      </trkpt>
      <trkpt lat="43.09432" lon="2.0349">
        <ele>314</ele>
        <time>2023-09-10T11:59:08Z</time>
      </trkpt>
      <trkpt lat="43.09433" lon="2.03491">
        <ele>314</ele>
        <time>2023-09-10T11:59:09Z</time>
      </trkpt>
      <trkpt lat="43.09433" lon="2.03492">
        <ele>314</ele>
        <time>2023-09-10T11:59:10Z</time>
      </trkpt>
      <trkpt lat="43.09433" lon="2.03494">
        <ele>314</ele>
        <time>2023-09-10T11:59:11Z</time>
      </trkpt>
      <trkpt lat="43.09433" lon="2.03495">
        <ele>314</ele>
        <time>2023-09-10T11:59:12Z</time>
      </trkpt>
      <trkpt lat="43.09434" lon="2.03496">
        <ele>314</ele>
        <time>2023-09-10T11:59:13Z</time>
      </trkpt>
      <trkpt lat="43.09434" lon="2.03498">
        <ele>314</ele>
        <time>2023-09-10T11:59:14Z</time>
      </trkpt>
      <trkpt lat="43.09434" lon="2.03499">
        <ele>314</ele>
        <time>2023-09-10T11:59:15Z</time>
      </trkpt>
      <trkpt lat="43.09434" lon="2.03501">
        <ele>314</ele>
        <time>2023-09-10T11:59:16Z</time>
      </trkpt>
      <trkpt lat="43.09434" lon="2.03502">
        <ele>314</ele>
        <time>2023-09-10T11:59:17Z</time>
      </trkpt>
      <trkpt lat="43.09434" lon="2.03504">
        <ele>314</ele>
        <time>2023-09-10T11:59:18Z</time>
      </trkpt>
      <trkpt lat="43.09433" lon="2.03505">
        <ele>314</ele>
        <time>2023-09-10T11:59:19Z</time>
      </trkpt>
      <trkpt lat="43.09433" lon="2.03507">
        <ele>314</ele>
        <time>2023-09-10T11:59:20Z</time>
      </trkpt>
      <trkpt lat="43.09433" lon="2.03508">
        <ele>314</ele>
        <time>2023-09-10T11:59:21Z</time>
      </trkpt>
      <trkpt lat="43.09432" lon="2.03509">
        <ele>314</ele>
        <time>2023-09-10T11:59:22Z</time>
      </trkpt>
      <trkpt lat="43.09432" lon="2.0351">
        <ele>314</ele>
        <time>2023-09-10T11:59:23Z</time>
      </trkpt>
      <trkpt lat="43.09431" lon="2.03512">
        <ele>314</ele>
        <time>2023-09-10T11:59:24Z</time>
      </trkpt>
      <trkpt lat="43.09431" lon="2.03513">
        <ele>314</ele>
        <time>2023-09-10T11:59:25Z</time>
      </trkpt>
      <trkpt lat="43.0943" lon="2.03514">
        <ele>314</ele>
        <time>2023-09-10T11:59:26Z</time>
      </trkpt>
      <trkpt lat="43.0943" lon="2.03515">
        <ele>314</ele>
        <time>2023-09-10T11:59:27Z</time>
      </trkpt>
      <trkpt lat="43.09429" lon="2.03516">
        <ele>314</ele>
        <time>2023-09-10T11:59:28Z</time>
      </trkpt>
      <trkpt lat="43.09428" lon="2.03517">
        <ele>314</ele>
        <time>2023-09-10T11:59:29Z</time>
      </trkpt>
      <trkpt lat="43.09428" lon="2.03519">
        <ele>314</ele>
        <time>2023-09-10T11:59:30Z</time>
      </trkpt>
      <trkpt lat="43.09427" lon="2.0352">
        <ele>313</ele>
        <time>2023-09-10T11:59:31Z</time>
      </trkpt>
      <trkpt lat="43.09427" lon="2.03521">
        <ele>313</ele>
        <time>2023-09-10T11:59:32Z</time>
      </trkpt>
      <trkpt lat="43.09426" lon="2.03522">
        <ele>313</ele>
        <time>2023-09-10T11:59:33Z</time>
      </trkpt>
      <trkpt lat="43.09426" lon="2.03523">
        <ele>313</ele>
        <time>2023-09-10T11:59:34Z</time>
      </trkpt>
      <trkpt lat="43.09425" lon="2.03525">
        <ele>313</ele>
        <time>2023-09-10T11:59:35Z</time>
      </trkpt>
      <trkpt lat="43.09424" lon="2.03526">
        <ele>313</ele>
        <time>2023-09-10T11:59:36Z</time>
      </trkpt>
      <trkpt lat="43.09424" lon="2.03527">
        <ele>313</ele>
        <time>2023-09-10T11:59:37Z</time>
      </trkpt>
      <trkpt lat="43.09423" lon="2.03528">
        <ele>313</ele>
        <time>2023-09-10T11:59:38Z</time>
      </trkpt>
      <trkpt lat="43.09422" lon="2.0353">
        <ele>313</ele>
        <time>2023-09-10T11:59:39Z</time>
      </trkpt>
      <trkpt lat="43.09422" lon="2.03531">
        <ele>313</ele>
        <time>2023-09-10T11:59:40Z</time>
      </trkpt>
      <trkpt lat="43.09421" lon="2.03532">
        <ele>313</ele>
        <time>2023-09-10T11:59:41Z</time>
      </trkpt>
      <trkpt lat="43.09421" lon="2.03534">
        <ele>313</ele>
        <time>2023-09-10T11:59:42Z</time>
      </trkpt>
      <trkpt lat="43.0942" lon="2.03535">
        <ele>313</ele>
        <time>2023-09-10T11:59:43Z</time>
      </trkpt>
      <trkpt lat="43.0942" lon="2.03536">
        <ele>313</ele>
        <time>2023-09-10T11:59:44Z</time>
      </trkpt>
      <trkpt lat="43.09419" lon="2.03537">
        <ele>313</ele>
        <time>2023-09-10T11:59:45Z</time>
      </trkpt>
      <trkpt lat="43.09418" lon="2.03539">
        <ele>313</ele>
        <time>2023-09-10T11:59:46Z</time>
      </trkpt>
      <trkpt lat="43.09418" lon="2.0354">
        <ele>313</ele>
        <time>2023-09-10T11:59:47Z</time>
      </trkpt>
      <trkpt lat="43.09417" lon="2.03541">
        <ele>313</ele>
        <time>2023-09-10T11:59:48Z</time>
      </trkpt>
      <trkpt lat="43.09416" lon="2.03542">
        <ele>313</ele>
        <time>2023-09-10T11:59:49Z</time>
      </trkpt>
      <trkpt lat="43.09416" lon="2.03544">
        <ele>313</ele>
        <time>2023-09-10T11:59:50Z</time>
      </trkpt>
      <trkpt lat="43.09415" lon="2.03546">
        <ele>313</ele>
        <time>2023-09-10T11:59:51Z</time>
      </trkpt>
      <trkpt lat="43.09415" lon="2.03547">
        <ele>313</ele>
        <time>2023-09-10T11:59:52Z</time>
      </trkpt>
      <trkpt lat="43.09415" lon="2.03549">
        <ele>313</ele>
        <time>2023-09-10T11:59:53Z</time>
      </trkpt>
      <trkpt lat="43.09414" lon="2.03551">
        <ele>313</ele>
        <time>2023-09-10T11:59:54Z</time>
      </trkpt>
      <trkpt lat="43.09414" lon="2.03552">
        <ele>313</ele>
        <time>2023-09-10T11:59:55Z</time>
      </trkpt>
      <trkpt lat="43.09414" lon="2.03554">
        <ele>313</ele>
        <time>2023-09-10T11:59:56Z</time>
      </trkpt>
      <trkpt lat="43.09414" lon="2.03555">
        <ele>313</ele>
        <time>2023-09-10T11:59:57Z</time>
      </trkpt>
      <trkpt lat="43.09415" lon="2.03556">
        <ele>313</ele>
        <time>2023-09-10T11:59:58Z</time>
      </trkpt>
      <trkpt lat="43.09415" lon="2.03558">
        <ele>313</ele>
        <time>2023-09-10T11:59:59Z</time>
      </trkpt>
      <trkpt lat="43.09415" lon="2.03559">
        <ele>313</ele>
        <time>2023-09-10T12:00:00Z</time>
      </trkpt>
      <trkpt lat="43.09416" lon="2.0356">
        <ele>313</ele>
        <time>2023-09-10T12:00:01Z</time>
      </trkpt>
      <trkpt lat="43.09417" lon="2.03561">
        <ele>313</ele>
        <time>2023-09-10T12:00:02Z</time>
      </trkpt>
      <trkpt lat="43.09418" lon="2.03562">
        <ele>313</ele>
        <time>2023-09-10T12:00:03Z</time>
      </trkpt>
      <trkpt lat="43.09419" lon="2.03563">
        <ele>313</ele>
        <time>2023-09-10T12:00:04Z</time>
      </trkpt>
      <trkpt lat="43.0942" lon="2.03564">
        <ele>313</ele>
        <time>2023-09-10T12:00:05Z</time>
      </trkpt>
      <trkpt lat="43.0942" lon="2.03565">
        <ele>313</ele>
        <time>2023-09-10T12:00:06Z</time>
      </trkpt>
      <trkpt lat="43.09422" lon="2.03565">
        <ele>313</ele>
        <time>2023-09-10T12:00:07Z</time>
      </trkpt>
      <trkpt lat="43.09423" lon="2.03566">
        <ele>313</ele>
        <time>2023-09-10T12:00:08Z</time>
      </trkpt>
      <trkpt lat="43.09424" lon="2.03566">
        <ele>313</ele>
        <time>2023-09-10T12:00:09Z</time>
      </trkpt>
      <trkpt lat="43.09425" lon="2.03567">
        <ele>313</ele>
        <time>2023-09-10T12:00:10Z</time>
      </trkpt>
      <trkpt lat="43.09426" lon="2.03568">
        <ele>313</ele>
        <time>2023-09-10T12:00:11Z</time>
      </trkpt>
      <trkpt lat="43.09427" lon="2.03568">
        <ele>313</ele>
        <time>2023-09-10T12:00:12Z</time>
      </trkpt>
      <trkpt lat="43.09428" lon="2.03569">
        <ele>313</ele>
        <time>2023-09-10T12:00:13Z</time>
      </trkpt>
      <trkpt lat="43.09429" lon="2.03569">
        <ele>313</ele>
        <time>2023-09-10T12:00:14Z</time>
      </trkpt>
      <trkpt lat="43.0943" lon="2.0357">
        <ele>313</ele>
        <time>2023-09-10T12:00:15Z</time>
      </trkpt>
      <trkpt lat="43.09431" lon="2.03571">
        <ele>313</ele>
        <time>2023-09-10T12:00:16Z</time>
      </trkpt>
      <trkpt lat="43.09432" lon="2.03572">
        <ele>313</ele>
        <time>2023-09-10T12:00:17Z</time>
      </trkpt>
      <trkpt lat="43.09433" lon="2.03572">
        <ele>313</ele>
        <time>2023-09-10T12:00:18Z</time>
      </trkpt>
      <trkpt lat="43.09434" lon="2.03573">
        <ele>313</ele>
        <time>2023-09-10T12:00:19Z</time>
      </trkpt>
      <trkpt lat="43.09435" lon="2.03574">
        <ele>313</ele>
        <time>2023-09-10T12:00:20Z</time>
      </trkpt>
      <trkpt lat="43.09436" lon="2.03574">
        <ele>313</ele>
        <time>2023-09-10T12:00:21Z</time>
      </trkpt>
      <trkpt lat="43.09437" lon="2.03575">
        <ele>313</ele>
        <time>2023-09-10T12:00:22Z</time>
      </trkpt>
      <trkpt lat="43.09438" lon="2.03576">
        <ele>313</ele>
        <time>2023-09-10T12:00:23Z</time>
      </trkpt>
      <trkpt lat="43.09439" lon="2.03577">
        <ele>313</ele>
        <time>2023-09-10T12:00:24Z</time>
      </trkpt>
      <trkpt lat="43.0944" lon="2.03577">
        <ele>313</ele>
        <time>2023-09-10T12:00:25Z</time>
      </trkpt>
      <trkpt lat="43.0944" lon="2.03578">
        <ele>313</ele>
        <time>2023-09-10T12:00:26Z</time>
      </trkpt>
      <trkpt lat="43.09441" lon="2.03579">
        <ele>313</ele>
        <time>2023-09-10T12:00:27Z</time>
      </trkpt>
      <trkpt lat="43.09442" lon="2.0358">
        <ele>313</ele>
        <time>2023-09-10T12:00:28Z</time>
      </trkpt>
      <trkpt lat="43.09443" lon="2.03581">
        <ele>313</ele>
        <time>2023-09-10T12:00:29Z</time>
      </trkpt>
      <trkpt lat="43.09443" lon="2.03582">
        <ele>314</ele>
        <time>2023-09-10T12:00:30Z</time>
      </trkpt>
      <trkpt lat="43.09444" lon="2.03583">
        <ele>314</ele>
        <time>2023-09-10T12:00:31Z</time>
      </trkpt>
      <trkpt lat="43.09445" lon="2.03585">
        <ele>314</ele>
        <time>2023-09-10T12:00:32Z</time>
      </trkpt>
      <trkpt lat="43.09446" lon="2.03586">
        <ele>314</ele>
        <time>2023-09-10T12:00:33Z</time>
      </trkpt>
      <trkpt lat="43.09446" lon="2.03587">
        <ele>314</ele>
        <time>2023-09-10T12:00:34Z</time>
      </trkpt>
      <trkpt lat="43.09447" lon="2.03589">
        <ele>314</ele>
        <time>2023-09-10T12:00:35Z</time>
      </trkpt>
      <trkpt lat="43.09447" lon="2.0359">
        <ele>314</ele>
        <time>2023-09-10T12:00:36Z</time>
      </trkpt>
      <trkpt lat="43.09448" lon="2.03591">
        <ele>314</ele>
        <time>2023-09-10T12:00:37Z</time>
      </trkpt>
      <trkpt lat="43.09448" lon="2.03592">
        <ele>314</ele>
        <time>2023-09-10T12:00:38Z</time>
      </trkpt>
      <trkpt lat="43.09449" lon="2.03594">
        <ele>314</ele>
        <time>2023-09-10T12:00:39Z</time>
      </trkpt>
      <trkpt lat="43.09449" lon="2.03595">
        <ele>314</ele>
        <time>2023-09-10T12:00:40Z</time>
      </trkpt>
      <trkpt lat="43.0945" lon="2.03596">
        <ele>314</ele>
        <time>2023-09-10T12:00:41Z</time>
      </trkpt>
      <trkpt lat="43.0945" lon="2.03597">
        <ele>314</ele>
        <time>2023-09-10T12:00:42Z</time>
      </trkpt>
      <trkpt lat="43.09451" lon="2.03599">
        <ele>314</ele>
        <time>2023-09-10T12:00:43Z</time>
      </trkpt>
      <trkpt lat="43.09451" lon="2.036">
        <ele>314</ele>
        <time>2023-09-10T12:00:44Z</time>
      </trkpt>
      <trkpt lat="43.09452" lon="2.03601">
        <ele>314</ele>
        <time>2023-09-10T12:00:45Z</time>
      </trkpt>
      <trkpt lat="43.09452" lon="2.03603">
        <ele>313</ele>
        <time>2023-09-10T12:00:46Z</time>
      </trkpt>
      <trkpt lat="43.09453" lon="2.03604">
        <ele>313</ele>
        <time>2023-09-10T12:00:47Z</time>
      </trkpt>
      <trkpt lat="43.09453" lon="2.03605">
        <ele>313</ele>
        <time>2023-09-10T12:00:48Z</time>
      </trkpt>
      <trkpt lat="43.09453" lon="2.03606">
        <ele>313</ele>
        <time>2023-09-10T12:00:49Z</time>
      </trkpt>
      <trkpt lat="43.09454" lon="2.03607">
        <ele>313</ele>
        <time>2023-09-10T12:00:50Z</time>
      </trkpt>
      <trkpt lat="43.09454" lon="2.03609">
        <ele>313</ele>
        <time>2023-09-10T12:00:51Z</time>
      </trkpt>
      <trkpt lat="43.09455" lon="2.0361">
        <ele>313</ele>
        <time>2023-09-10T12:00:52Z</time>
      </trkpt>
      <trkpt lat="43.09455" lon="2.03611">
        <ele>313</ele>
        <time>2023-09-10T12:00:53Z</time>
      </trkpt>
      <trkpt lat="43.09456" lon="2.03612">
        <ele>313</ele>
        <time>2023-09-10T12:00:54Z</time>
      </trkpt>
      <trkpt lat="43.09456" lon="2.03613">
        <ele>313</ele>
        <time>2023-09-10T12:00:55Z</time>
      </trkpt>
      <trkpt lat="43.09457" lon="2.03615">
        <ele>313</ele>
        <time>2023-09-10T12:00:56Z</time>
      </trkpt>
      <trkpt lat="43.09457" lon="2.03616">
        <ele>313</ele>
        <time>2023-09-10T12:00:57Z</time>
      </trkpt>
      <trkpt lat="43.09458" lon="2.03617">
        <ele>313</ele>
        <time>2023-09-10T12:00:58Z</time>
      </trkpt>
      <trkpt lat="43.09458" lon="2.03618">
        <ele>313</ele>
        <time>2023-09-10T12:00:59Z</time>
      </trkpt>
      <trkpt lat="43.09459" lon="2.03619">
        <ele>313</ele>
        <time>2023-09-10T12:01:00Z</time>
      </trkpt>
      <trkpt lat="43.09459" lon="2.0362">
        <ele>313</ele>
        <time>2023-09-10T12:01:01Z</time>
      </trkpt>
      <trkpt lat="43.09459" lon="2.03621">
        <ele>313</ele>
        <time>2023-09-10T12:01:02Z</time>
      </trkpt>
      <trkpt lat="43.0946" lon="2.03622">
        <ele>313</ele>
        <time>2023-09-10T12:01:03Z</time>
      </trkpt>
      <trkpt lat="43.0946" lon="2.03623">
        <ele>313</ele>
        <time>2023-09-10T12:01:04Z</time>
      </trkpt>
      <trkpt lat="43.09461" lon="2.03624">
        <ele>313</ele>
        <time>2023-09-10T12:01:05Z</time>
      </trkpt>
      <trkpt lat="43.09461" lon="2.03624">
        <ele>313</ele>
        <time>2023-09-10T12:01:06Z</time>
      </trkpt>
      <trkpt lat="43.09462" lon="2.03625">
        <ele>313</ele>
        <time>2023-09-10T12:01:07Z</time>
      </trkpt>
      <trkpt lat="43.09462" lon="2.03626">
        <ele>313</ele>
        <time>2023-09-10T12:01:08Z</time>
      </trkpt>
      <trkpt lat="43.09463" lon="2.03627">
        <ele>313</ele>
        <time>2023-09-10T12:01:09Z</time>
      </trkpt>
      <trkpt lat="43.09464" lon="2.03628">
        <ele>313</ele>
        <time>2023-09-10T12:01:10Z</time>
      </trkpt>
      <trkpt lat="43.09465" lon="2.03629">
        <ele>313</ele>
        <time>2023-09-10T12:01:11Z</time>
      </trkpt>
      <trkpt lat="43.09465" lon="2.0363">
        <ele>313</ele>
        <time>2023-09-10T12:01:12Z</time>
      </trkpt>
      <trkpt lat="43.09466" lon="2.03631">
        <ele>313</ele>
        <time>2023-09-10T12:01:13Z</time>
      </trkpt>
      <trkpt lat="43.09467" lon="2.03632">
        <ele>313</ele>
        <time>2023-09-10T12:01:14Z</time>
      </trkpt>
      <trkpt lat="43.09468" lon="2.03632">
        <ele>314</ele>
        <time>2023-09-10T12:01:15Z</time>
      </trkpt>
      <trkpt lat="43.09469" lon="2.03633">
        <ele>314</ele>
        <time>2023-09-10T12:01:16Z</time>
      </trkpt>
      <trkpt lat="43.0947" lon="2.03633">
        <ele>314</ele>
        <time>2023-09-10T12:01:17Z</time>
      </trkpt>
      <trkpt lat="43.09471" lon="2.03633">
        <ele>314</ele>
        <time>2023-09-10T12:01:18Z</time>
      </trkpt>
      <trkpt lat="43.09472" lon="2.03634">
        <ele>314</ele>
        <time>2023-09-10T12:01:19Z</time>
      </trkpt>
      <trkpt lat="43.09473" lon="2.03634">
        <ele>314</ele>
        <time>2023-09-10T12:01:20Z</time>
      </trkpt>
      <trkpt lat="43.09474" lon="2.03634">
        <ele>314</ele>
        <time>2023-09-10T12:01:21Z</time>
      </trkpt>
      <trkpt lat="43.09475" lon="2.03634">
        <ele>314</ele>
        <time>2023-09-10T12:01:22Z</time>
      </trkpt>
      <trkpt lat="43.09476" lon="2.03634">
        <ele>314</ele>
        <time>2023-09-10T12:01:23Z</time>
      </trkpt>
      <trkpt lat="43.09477" lon="2.03634">
        <ele>314</ele>
        <time>2023-09-10T12:01:24Z</time>
      </trkpt>
      <trkpt lat="43.09477" lon="2.03635">
        <ele>314</ele>
        <time>2023-09-10T12:01:25Z</time>
      </trkpt>
      <trkpt lat="43.09478" lon="2.03635">
        <ele>314</ele>
        <time>2023-09-10T12:01:26Z</time>
      </trkpt>
      <trkpt lat="43.09479" lon="2.03636">
        <ele>314</ele>
        <time>2023-09-10T12:01:27Z</time>
      </trkpt>
      <trkpt lat="43.0948" lon="2.03636">
        <ele>314</ele>
        <time>2023-09-10T12:01:28Z</time>
      </trkpt>
      <trkpt lat="43.09481" lon="2.03636">
        <ele>314</ele>
        <time>2023-09-10T12:01:29Z</time>
      </trkpt>
      <trkpt lat="43.09482" lon="2.03635">
        <ele>314</ele>
        <time>2023-09-10T12:01:30Z</time>
      </trkpt>
      <trkpt lat="43.09483" lon="2.03635">
        <ele>314</ele>
        <time>2023-09-10T12:01:31Z</time>
      </trkpt>
      <trkpt lat="43.09483" lon="2.03635">
        <ele>314</ele>
        <time>2023-09-10T12:01:32Z</time>
      </trkpt>
      <trkpt lat="43.09484" lon="2.03635">
        <ele>314</ele>
        <time>2023-09-10T12:01:33Z</time>
      </trkpt>
      <trkpt lat="43.09485" lon="2.03635">
        <ele>314</ele>
        <time>2023-09-10T12:01:34Z</time>
      </trkpt>
      <trkpt lat="43.09486" lon="2.03635">
        <ele>314</ele>
        <time>2023-09-10T12:01:35Z</time>
      </trkpt>
      <trkpt lat="43.09487" lon="2.03635">
        <ele>314</ele>
        <time>2023-09-10T12:01:36Z</time>
      </trkpt>
      <trkpt lat="43.09488" lon="2.03636">
        <ele>314</ele>
        <time>2023-09-10T12:01:37Z</time>
      </trkpt>
      <trkpt lat="43.09489" lon="2.03636">
        <ele>314</ele>
        <time>2023-09-10T12:01:38Z</time>
      </trkpt>
      <trkpt lat="43.0949" lon="2.03637">
        <ele>314</ele>
        <time>2023-09-10T12:01:39Z</time>
      </trkpt>
      <trkpt lat="43.09491" lon="2.03637">
        <ele>314</ele>
        <time>2023-09-10T12:01:40Z</time>
      </trkpt>
      <trkpt lat="43.09492" lon="2.03637">
        <ele>314</ele>
        <time>2023-09-10T12:01:41Z</time>
      </trkpt>
      <trkpt lat="43.09493" lon="2.03638">
        <ele>314</ele>
        <time>2023-09-10T12:01:42Z</time>
      </trkpt>
      <trkpt lat="43.09494" lon="2.03638">
        <ele>314</ele>
        <time>2023-09-10T12:01:43Z</time>
      </trkpt>
      <trkpt lat="43.09495" lon="2.03638">
        <ele>314</ele>
        <time>2023-09-10T12:01:44Z</time>
      </trkpt>
      <trkpt lat="43.09496" lon="2.03639">
        <ele>314</ele>
        <time>2023-09-10T12:01:45Z</time>
      </trkpt>
      <trkpt lat="43.09497" lon="2.03639">
        <ele>314</ele>
        <time>2023-09-10T12:01:46Z</time>
      </trkpt>
      <trkpt lat="43.09499" lon="2.03639">
        <ele>314</ele>
        <time>2023-09-10T12:01:47Z</time>
      </trkpt>
      <trkpt lat="43.095" lon="2.0364">
        <ele>314</ele>
        <time>2023-09-10T12:01:48Z</time>
      </trkpt>
      <trkpt lat="43.09501" lon="2.0364">
        <ele>314</ele>
        <time>2023-09-10T12:01:49Z</time>
      </trkpt>
      <trkpt lat="43.09502" lon="2.0364">
        <ele>314</ele>
        <time>2023-09-10T12:01:50Z</time>
      </trkpt>
      <trkpt lat="43.09503" lon="2.03641">
        <ele>314</ele>
        <time>2023-09-10T12:01:51Z</time>
      </trkpt>
      <trkpt lat="43.09504" lon="2.03641">
        <ele>314</ele>
        <time>2023-09-10T12:01:52Z</time>
      </trkpt>
      <trkpt lat="43.09505" lon="2.03641">
        <ele>314</ele>
        <time>2023-09-10T12:01:53Z</time>
      </trkpt>
      <trkpt lat="43.09506" lon="2.03641">
        <ele>314</ele>
        <time>2023-09-10T12:01:54Z</time>
      </trkpt>
      <trkpt lat="43.09507" lon="2.03641">
        <ele>314</ele>
        <time>2023-09-10T12:01:55Z</time>
      </trkpt>
      <trkpt lat="43.09508" lon="2.03641">
        <ele>314</ele>
        <time>2023-09-10T12:01:56Z</time>
      </trkpt>
      <trkpt lat="43.09509" lon="2.03641">
        <ele>314</ele>
        <time>2023-09-10T12:01:57Z</time>
      </trkpt>
      <trkpt lat="43.0951" lon="2.03641">
        <ele>314</ele>
        <time>2023-09-10T12:01:58Z</time>
      </trkpt>
      <trkpt lat="43.09511" lon="2.03641">
        <ele>314</ele>
        <time>2023-09-10T12:01:59Z</time>
      </trkpt>
      <trkpt lat="43.09512" lon="2.03641">
        <ele>314</ele>
        <time>2023-09-10T12:02:00Z</time>
      </trkpt>
      <trkpt lat="43.09513" lon="2.03641">
        <ele>314</ele>
        <time>2023-09-10T12:02:01Z</time>
      </trkpt>
      <trkpt lat="43.09514" lon="2.03641">
        <ele>314</ele>
        <time>2023-09-10T12:02:02Z</time>
      </trkpt>
      <trkpt lat="43.09515" lon="2.03641">
        <ele>314</ele>
        <time>2023-09-10T12:02:03Z</time>
      </trkpt>
      <trkpt lat="43.09516" lon="2.03642">
        <ele>314</ele>
        <time>2023-09-10T12:02:04Z</time>
      </trkpt>
      <trkpt lat="43.09518" lon="2.03642">
        <ele>314</ele>
        <time>2023-09-10T12:02:05Z</time>
      </trkpt>
      <trkpt lat="43.09519" lon="2.03643">
        <ele>314</ele>
        <time>2023-09-10T12:02:06Z</time>
      </trkpt>
      <trkpt lat="43.0952" lon="2.03644">
        <ele>314</ele>
        <time>2023-09-10T12:02:07Z</time>
      </trkpt>
      <trkpt lat="43.0952" lon="2.03645">
        <ele>314</ele>
        <time>2023-09-10T12:02:08Z</time>
      </trkpt>
      <trkpt lat="43.09521" lon="2.03645">
        <ele>314</ele>
        <time>2023-09-10T12:02:09Z</time>
      </trkpt>
      <trkpt lat="43.09522" lon="2.03646">
        <ele>314</ele>
        <time>2023-09-10T12:02:10Z</time>
      </trkpt>
      <trkpt lat="43.09523" lon="2.03646">
        <ele>314</ele>
        <time>2023-09-10T12:02:11Z</time>
      </trkpt>
      <trkpt lat="43.09523" lon="2.03646">
        <ele>314</ele>
        <time>2023-09-10T12:02:12Z</time>
      </trkpt>
      <trkpt lat="43.09524" lon="2.03646">
        <ele>314</ele>
        <time>2023-09-10T12:02:13Z</time>
      </trkpt>
      <trkpt lat="43.09525" lon="2.03647">
        <ele>314</ele>
        <time>2023-09-10T12:02:14Z</time>
      </trkpt>
      <trkpt lat="43.09526" lon="2.03647">
        <ele>315</ele>
        <time>2023-09-10T12:02:15Z</time>
      </trkpt>
      <trkpt lat="43.09527" lon="2.03648">
        <ele>315</ele>
        <time>2023-09-10T12:02:16Z</time>
      </trkpt>
      <trkpt lat="43.09528" lon="2.03649">
        <ele>315</ele>
        <time>2023-09-10T12:02:17Z</time>
      </trkpt>
      <trkpt lat="43.09529" lon="2.03649">
        <ele>315</ele>
        <time>2023-09-10T12:02:18Z</time>
      </trkpt>
      <trkpt lat="43.0953" lon="2.0365">
        <ele>315</ele>
        <time>2023-09-10T12:02:19Z</time>
      </trkpt>
      <trkpt lat="43.09531" lon="2.03651">
        <ele>315</ele>
        <time>2023-09-10T12:02:20Z</time>
      </trkpt>
      <trkpt lat="43.09532" lon="2.03652">
        <ele>315</ele>
        <time>2023-09-10T12:02:21Z</time>
      </trkpt>
      <trkpt lat="43.09533" lon="2.03653">
        <ele>315</ele>
        <time>2023-09-10T12:02:22Z</time>
      </trkpt>
      <trkpt lat="43.09534" lon="2.03653">
        <ele>315</ele>
        <time>2023-09-10T12:02:23Z</time>
      </trkpt>
      <trkpt lat="43.09535" lon="2.03654">
        <ele>315</ele>
        <time>2023-09-10T12:02:24Z</time>
      </trkpt>
      <trkpt lat="43.09536" lon="2.03655">
        <ele>315</ele>
        <time>2023-09-10T12:02:25Z</time>
      </trkpt>
      <trkpt lat="43.09537" lon="2.03656">
        <ele>315</ele>
        <time>2023-09-10T12:02:26Z</time>
      </trkpt>
      <trkpt lat="43.09537" lon="2.03657">
        <ele>315</ele>
        <time>2023-09-10T12:02:27Z</time>
      </trkpt>
      <trkpt lat="43.09538" lon="2.03657">
        <ele>315</ele>
        <time>2023-09-10T12:02:28Z</time>
      </trkpt>
      <trkpt lat="43.09538" lon="2.03658">
        <ele>315</ele>
        <time>2023-09-10T12:02:29Z</time>
      </trkpt>
      <trkpt lat="43.09539" lon="2.03658">
        <ele>315</ele>
        <time>2023-09-10T12:02:30Z</time>
      </trkpt>
      <trkpt lat="43.09539" lon="2.03658">
        <ele>315</ele>
        <time>2023-09-10T12:02:31Z</time>
      </trkpt>
      <trkpt lat="43.0954" lon="2.03658">
        <ele>315</ele>
        <time>2023-09-10T12:02:32Z</time>
      </trkpt>
      <trkpt lat="43.0954" lon="2.03658">
        <ele>315</ele>
        <time>2023-09-10T12:02:33Z</time>
      </trkpt>
      <trkpt lat="43.0954" lon="2.03658">
        <ele>315</ele>
        <time>2023-09-10T12:02:34Z</time>
      </trkpt>
      <trkpt lat="43.0954" lon="2.03658">
        <ele>315</ele>
        <time>2023-09-10T12:02:35Z</time>
      </trkpt>
      <trkpt lat="43.09541" lon="2.03657">
        <ele>315</ele>
        <time>2023-09-10T12:02:36Z</time>
      </trkpt>
      <trkpt lat="43.09542" lon="2.03657">
        <ele>315</ele>
        <time>2023-09-10T12:02:37Z</time>
      </trkpt>
      <trkpt lat="43.09543" lon="2.03656">
        <ele>315</ele>
        <time>2023-09-10T12:02:38Z</time>
      </trkpt>
      <trkpt lat="43.09543" lon="2.03655">
        <ele>315</ele>
        <time>2023-09-10T12:02:39Z</time>
      </trkpt>
      <trkpt lat="43.09543" lon="2.03655">
        <ele>315</ele>
        <time>2023-09-10T12:02:40Z</time>
      </trkpt>
      <trkpt lat="43.09544" lon="2.03654">
        <ele>314</ele>
        <time>2023-09-10T12:02:41Z</time>
      </trkpt>
      <trkpt lat="43.09544" lon="2.03653">
        <ele>314</ele>
        <time>2023-09-10T12:02:42Z</time>
      </trkpt>
      <trkpt lat="43.09544" lon="2.03652">
        <ele>314</ele>
        <time>2023-09-10T12:02:43Z</time>
      </trkpt>
      <trkpt lat="43.09544" lon="2.03652">
        <ele>314</ele>
        <time>2023-09-10T12:02:44Z</time>
      </trkpt>
      <trkpt lat="43.09545" lon="2.03651">
        <ele>314</ele>
        <time>2023-09-10T12:02:45Z</time>
      </trkpt>
      <trkpt lat="43.09545" lon="2.0365">
        <ele>314</ele>
        <time>2023-09-10T12:02:46Z</time>
      </trkpt>
      <trkpt lat="43.09545" lon="2.0365">
        <ele>314</ele>
        <time>2023-09-10T12:02:47Z</time>
      </trkpt>
      <trkpt lat="43.09546" lon="2.03649">
        <ele>314</ele>
        <time>2023-09-10T12:02:48Z</time>
      </trkpt>
      <trkpt lat="43.09546" lon="2.03648">
        <ele>314</ele>
        <time>2023-09-10T12:02:49Z</time>
      </trkpt>
      <trkpt lat="43.09547" lon="2.03647">
        <ele>314</ele>
        <time>2023-09-10T12:02:50Z</time>
      </trkpt>
      <trkpt lat="43.09547" lon="2.03646">
        <ele>313</ele>
        <time>2023-09-10T12:02:51Z</time>
      </trkpt>
      <trkpt lat="43.09548" lon="2.03646">
        <ele>313</ele>
        <time>2023-09-10T12:02:52Z</time>
      </trkpt>
      <trkpt lat="43.09548" lon="2.03645">
        <ele>313</ele>
        <time>2023-09-10T12:02:53Z</time>
      </trkpt>
      <trkpt lat="43.09549" lon="2.03644">
        <ele>313</ele>
        <time>2023-09-10T12:02:54Z</time>
      </trkpt>
      <trkpt lat="43.0955" lon="2.03644">
        <ele>313</ele>
        <time>2023-09-10T12:02:55Z</time>
      </trkpt>
      <trkpt lat="43.0955" lon="2.03644">
        <ele>313</ele>
        <time>2023-09-10T12:02:56Z</time>
      </trkpt>
      <trkpt lat="43.09551" lon="2.03643">
        <ele>313</ele>
        <time>2023-09-10T12:02:57Z</time>
      </trkpt>
      <trkpt lat="43.09552" lon="2.03642">
        <ele>313</ele>
        <time>2023-09-10T12:02:58Z</time>
      </trkpt>
      <trkpt lat="43.09552" lon="2.03641">
        <ele>313</ele>
        <time>2023-09-10T12:02:59Z</time>
      </trkpt>
      <trkpt lat="43.09553" lon="2.03641">
        <ele>313</ele>
        <time>2023-09-10T12:03:00Z</time>
      </trkpt>
      <trkpt lat="43.09553" lon="2.0364">
        <ele>312</ele>
        <time>2023-09-10T12:03:01Z</time>
      </trkpt>
      <trkpt lat="43.09554" lon="2.03639">
        <ele>312</ele>
        <time>2023-09-10T12:03:02Z</time>
      </trkpt>
      <trkpt lat="43.09554" lon="2.03639">
        <ele>312</ele>
        <time>2023-09-10T12:03:03Z</time>
      </trkpt>
      <trkpt lat="43.09555" lon="2.03638">
        <ele>312</ele>
        <time>2023-09-10T12:03:04Z</time>
      </trkpt>
      <trkpt lat="43.09555" lon="2.03637">
        <ele>312</ele>
        <time>2023-09-10T12:03:05Z</time>
      </trkpt>
      <trkpt lat="43.09555" lon="2.03637">
        <ele>311</ele>
        <time>2023-09-10T12:03:17Z</time>
      </trkpt>
      <trkpt lat="43.09555" lon="2.03636">
        <ele>311</ele>
        <time>2023-09-10T12:03:18Z</time>
      </trkpt>
      <trkpt lat="43.09555" lon="2.03636">
        <ele>311</ele>
        <time>2023-09-10T12:03:19Z</time>
      </trkpt>
      <trkpt lat="43.09556" lon="2.03635">
        <ele>311</ele>
        <time>2023-09-10T12:03:20Z</time>
      </trkpt>
      <trkpt lat="43.09556" lon="2.03635">
        <ele>310</ele>
        <time>2023-09-10T12:03:21Z</time>
      </trkpt>
      <trkpt lat="43.09557" lon="2.03634">
        <ele>310</ele>
        <time>2023-09-10T12:03:22Z</time>
      </trkpt>
      <trkpt lat="43.09557" lon="2.03634">
        <ele>310</ele>
        <time>2023-09-10T12:03:23Z</time>
      </trkpt>
      <trkpt lat="43.09558" lon="2.03633">
        <ele>310</ele>
        <time>2023-09-10T12:03:24Z</time>
      </trkpt>
      <trkpt lat="43.09559" lon="2.03632">
        <ele>310</ele>
        <time>2023-09-10T12:03:25Z</time>
      </trkpt>
      <trkpt lat="43.0956" lon="2.03631">
        <ele>310</ele>
        <time>2023-09-10T12:03:26Z</time>
      </trkpt>
      <trkpt lat="43.0956" lon="2.03631">
        <ele>310</ele>
        <time>2023-09-10T12:03:27Z</time>
      </trkpt>
      <trkpt lat="43.09561" lon="2.0363">
        <ele>310</ele>
        <time>2023-09-10T12:03:28Z</time>
      </trkpt>
      <trkpt lat="43.09562" lon="2.0363">
        <ele>310</ele>
        <time>2023-09-10T12:03:29Z</time>
      </trkpt>
      <trkpt lat="43.09563" lon="2.03629">
        <ele>310</ele>
        <time>2023-09-10T12:03:30Z</time>
      </trkpt>
      <trkpt lat="43.09563" lon="2.03628">
        <ele>310</ele>
        <time>2023-09-10T12:03:31Z</time>
      </trkpt>
      <trkpt lat="43.09564" lon="2.03627">
        <ele>310</ele>
        <time>2023-09-10T12:03:32Z</time>
      </trkpt>
      <trkpt lat="43.09565" lon="2.03626">
        <ele>310</ele>
        <time>2023-09-10T12:03:33Z</time>
      </trkpt>
      <trkpt lat="43.09566" lon="2.03626">
        <ele>310</ele>
        <time>2023-09-10T12:03:34Z</time>
      </trkpt>
      <trkpt lat="43.09567" lon="2.03625">
        <ele>310</ele>
        <time>2023-09-10T12:03:35Z</time>
      </trkpt>
      <trkpt lat="43.09567" lon="2.03624">
        <ele>310</ele>
        <time>2023-09-10T12:03:36Z</time>
      </trkpt>
      <trkpt lat="43.09568" lon="2.03623">
        <ele>310</ele>
        <time>2023-09-10T12:03:37Z</time>
      </trkpt>
      <trkpt lat="43.09569" lon="2.03622">
        <ele>310</ele>
        <time>2023-09-10T12:03:38Z</time>
      </trkpt>
      <trkpt lat="43.0957" lon="2.03621">
        <ele>310</ele>
        <time>2023-09-10T12:03:39Z</time>
      </trkpt>
      <trkpt lat="43.09571" lon="2.0362">
        <ele>310</ele>
        <time>2023-09-10T12:03:40Z</time>
      </trkpt>
      <trkpt lat="43.09572" lon="2.0362">
        <ele>309</ele>
        <time>2023-09-10T12:03:41Z</time>
      </trkpt>
      <trkpt lat="43.09572" lon="2.03619">
        <ele>309</ele>
        <time>2023-09-10T12:03:42Z</time>
      </trkpt>
      <trkpt lat="43.09573" lon="2.03619">
        <ele>309</ele>
        <time>2023-09-10T12:03:43Z</time>
      </trkpt>
      <trkpt lat="43.09573" lon="2.03618">
        <ele>309</ele>
        <time>2023-09-10T12:03:44Z</time>
      </trkpt>
      <trkpt lat="43.09574" lon="2.03617">
        <ele>309</ele>
        <time>2023-09-10T12:03:45Z</time>
      </trkpt>
      <trkpt lat="43.09574" lon="2.03617">
        <ele>309</ele>
        <time>2023-09-10T12:03:46Z</time>
      </trkpt>
      <trkpt lat="43.09575" lon="2.03616">
        <ele>309</ele>
        <time>2023-09-10T12:03:47Z</time>
      </trkpt>
      <trkpt lat="43.09576" lon="2.03616">
        <ele>309</ele>
        <time>2023-09-10T12:03:48Z</time>
      </trkpt>
      <trkpt lat="43.09576" lon="2.03615">
        <ele>309</ele>
        <time>2023-09-10T12:03:49Z</time>
      </trkpt>
      <trkpt lat="43.09577" lon="2.03615">
        <ele>309</ele>
        <time>2023-09-10T12:03:50Z</time>
      </trkpt>
      <trkpt lat="43.09578" lon="2.03614">
        <ele>308</ele>
        <time>2023-09-10T12:03:51Z</time>
      </trkpt>
      <trkpt lat="43.09579" lon="2.03613">
        <ele>308</ele>
        <time>2023-09-10T12:03:52Z</time>
      </trkpt>
      <trkpt lat="43.09579" lon="2.03612">
        <ele>308</ele>
        <time>2023-09-10T12:03:53Z</time>
      </trkpt>
      <trkpt lat="43.0958" lon="2.03611">
        <ele>308</ele>
        <time>2023-09-10T12:03:54Z</time>
      </trkpt>
      <trkpt lat="43.09581" lon="2.0361">
        <ele>308</ele>
        <time>2023-09-10T12:03:55Z</time>
      </trkpt>
      <trkpt lat="43.09582" lon="2.03608">
        <ele>308</ele>
        <time>2023-09-10T12:03:56Z</time>
      </trkpt>
      <trkpt lat="43.09582" lon="2.03607">
        <ele>308</ele>
        <time>2023-09-10T12:03:57Z</time>
      </trkpt>
      <trkpt lat="43.09583" lon="2.03606">
        <ele>308</ele>
        <time>2023-09-10T12:03:58Z</time>
      </trkpt>
      <trkpt lat="43.09584" lon="2.03604">
        <ele>308</ele>
        <time>2023-09-10T12:03:59Z</time>
      </trkpt>
      <trkpt lat="43.09585" lon="2.03603">
        <ele>308</ele>
        <time>2023-09-10T12:04:00Z</time>
      </trkpt>
      <trkpt lat="43.09585" lon="2.03602">
        <ele>308</ele>
        <time>2023-09-10T12:04:01Z</time>
      </trkpt>
      <trkpt lat="43.09586" lon="2.03601">
        <ele>308</ele>
        <time>2023-09-10T12:04:02Z</time>
      </trkpt>
      <trkpt lat="43.09587" lon="2.036">
        <ele>308</ele>
        <time>2023-09-10T12:04:03Z</time>
      </trkpt>
      <trkpt lat="43.09588" lon="2.03599">
        <ele>308</ele>
        <time>2023-09-10T12:04:04Z</time>
      </trkpt>
      <trkpt lat="43.09589" lon="2.03598">
        <ele>308</ele>
        <time>2023-09-10T12:04:05Z</time>
      </trkpt>
      <trkpt lat="43.09589" lon="2.03597">
        <ele>308</ele>
        <time>2023-09-10T12:04:06Z</time>
      </trkpt>
      <trkpt lat="43.0959" lon="2.03595">
        <ele>308</ele>
        <time>2023-09-10T12:04:15Z</time>
      </trkpt>
      <trkpt lat="43.09591" lon="2.03594">
        <ele>308</ele>
        <time>2023-09-10T12:04:16Z</time>
      </trkpt>
      <trkpt lat="43.09591" lon="2.03593">
        <ele>308</ele>
        <time>2023-09-10T12:04:17Z</time>
      </trkpt>
      <trkpt lat="43.09592" lon="2.03592">
        <ele>308</ele>
        <time>2023-09-10T12:04:18Z</time>
      </trkpt>
      <trkpt lat="43.09592" lon="2.03592">
        <ele>308</ele>
        <time>2023-09-10T12:04:19Z</time>
      </trkpt>
      <trkpt lat="43.09593" lon="2.03591">
        <ele>308</ele>
        <time>2023-09-10T12:04:20Z</time>
      </trkpt>
      <trkpt lat="43.09593" lon="2.0359">
        <ele>308</ele>
        <time>2023-09-10T12:04:21Z</time>
      </trkpt>
      <trkpt lat="43.09594" lon="2.0359">
        <ele>308</ele>
        <time>2023-09-10T12:04:22Z</time>
      </trkpt>
      <trkpt lat="43.09594" lon="2.03589">
        <ele>308</ele>
        <time>2023-09-10T12:04:23Z</time>
      </trkpt>
      <trkpt lat="43.09595" lon="2.03589">
        <ele>308</ele>
        <time>2023-09-10T12:04:24Z</time>
      </trkpt>
      <trkpt lat="43.09595" lon="2.03588">
        <ele>308</ele>
        <time>2023-09-10T12:04:25Z</time>
      </trkpt>
      <trkpt lat="43.09596" lon="2.03588">
        <ele>308</ele>
        <time>2023-09-10T12:04:26Z</time>
      </trkpt>
      <trkpt lat="43.09597" lon="2.03587">
        <ele>308</ele>
        <time>2023-09-10T12:04:27Z</time>
      </trkpt>
      <trkpt lat="43.09597" lon="2.03587">
        <ele>308</ele>
        <time>2023-09-10T12:04:28Z</time>
      </trkpt>
      <trkpt lat="43.09598" lon="2.03586">
        <ele>308</ele>
        <time>2023-09-10T12:04:29Z</time>
      </trkpt>
      <trkpt lat="43.09599" lon="2.03585">
        <ele>308</ele>
        <time>2023-09-10T12:04:30Z</time>
      </trkpt>
      <trkpt lat="43.09599" lon="2.03584">
        <ele>308</ele>
        <time>2023-09-10T12:04:31Z</time>
      </trkpt>
      <trkpt lat="43.096" lon="2.03583">
        <ele>308</ele>
        <time>2023-09-10T12:04:32Z</time>
      </trkpt>
      <trkpt lat="43.09601" lon="2.03581">
        <ele>308</ele>
        <time>2023-09-10T12:04:33Z</time>
      </trkpt>
      <trkpt lat="43.09602" lon="2.0358">
        <ele>308</ele>
        <time>2023-09-10T12:04:34Z</time>
      </trkpt>
      <trkpt lat="43.09603" lon="2.03579">
        <ele>308</ele>
        <time>2023-09-10T12:04:35Z</time>
      </trkpt>
      <trkpt lat="43.09603" lon="2.03578">
        <ele>308</ele>
        <time>2023-09-10T12:04:36Z</time>
      </trkpt>
      <trkpt lat="43.09604" lon="2.03576">
        <ele>308</ele>
        <time>2023-09-10T12:04:37Z</time>
      </trkpt>
      <trkpt lat="43.09604" lon="2.03575">
        <ele>308</ele>
        <time>2023-09-10T12:04:38Z</time>
      </trkpt>
      <trkpt lat="43.09605" lon="2.03574">
        <ele>308</ele>
        <time>2023-09-10T12:04:39Z</time>
      </trkpt>
      <trkpt lat="43.09605" lon="2.03572">
        <ele>308</ele>
        <time>2023-09-10T12:04:40Z</time>
      </trkpt>
      <trkpt lat="43.09606" lon="2.03571">
        <ele>308</ele>
        <time>2023-09-10T12:04:41Z</time>
      </trkpt>
      <trkpt lat="43.09606" lon="2.0357">
        <ele>308</ele>
        <time>2023-09-10T12:04:42Z</time>
      </trkpt>
      <trkpt lat="43.09607" lon="2.03569">
        <ele>308</ele>
        <time>2023-09-10T12:04:43Z</time>
      </trkpt>
      <trkpt lat="43.09607" lon="2.03568">
        <ele>308</ele>
        <time>2023-09-10T12:04:44Z</time>
      </trkpt>
      <trkpt lat="43.09608" lon="2.03568">
        <ele>308</ele>
        <time>2023-09-10T12:04:45Z</time>
      </trkpt>
      <trkpt lat="43.09609" lon="2.03567">
        <ele>308</ele>
        <time>2023-09-10T12:04:46Z</time>
      </trkpt>
      <trkpt lat="43.0961" lon="2.03566">
        <ele>308</ele>
        <time>2023-09-10T12:04:47Z</time>
      </trkpt>
      <trkpt lat="43.09611" lon="2.03566">
        <ele>308</ele>
        <time>2023-09-10T12:04:48Z</time>
      </trkpt>
      <trkpt lat="43.09612" lon="2.03565">
        <ele>308</ele>
        <time>2023-09-10T12:04:49Z</time>
      </trkpt>
      <trkpt lat="43.09613" lon="2.03565">
        <ele>308</ele>
        <time>2023-09-10T12:04:50Z</time>
      </trkpt>
      <trkpt lat="43.09615" lon="2.03565">
        <ele>308</ele>
        <time>2023-09-10T12:04:51Z</time>
      </trkpt>
      <trkpt lat="43.09616" lon="2.03565">
        <ele>308</ele>
        <time>2023-09-10T12:04:52Z</time>
      </trkpt>
      <trkpt lat="43.09617" lon="2.03566">
        <ele>308</ele>
        <time>2023-09-10T12:04:53Z</time>
      </trkpt>
      <trkpt lat="43.09618" lon="2.03566">
        <ele>308</ele>
        <time>2023-09-10T12:04:54Z</time>
      </trkpt>
      <trkpt lat="43.09619" lon="2.03567">
        <ele>308</ele>
        <time>2023-09-10T12:04:55Z</time>
      </trkpt>
      <trkpt lat="43.0962" lon="2.03567">
        <ele>308</ele>
        <time>2023-09-10T12:04:56Z</time>
      </trkpt>
      <trkpt lat="43.09621" lon="2.03568">
        <ele>308</ele>
        <time>2023-09-10T12:04:57Z</time>
      </trkpt>
      <trkpt lat="43.09622" lon="2.03568">
        <ele>308</ele>
        <time>2023-09-10T12:04:58Z</time>
      </trkpt>
      <trkpt lat="43.09623" lon="2.03569">
        <ele>308</ele>
        <time>2023-09-10T12:04:59Z</time>
      </trkpt>
      <trkpt lat="43.09624" lon="2.03569">
        <ele>308</ele>
        <time>2023-09-10T12:05:00Z</time>
      </trkpt>
      <trkpt lat="43.09625" lon="2.0357">
        <ele>308</ele>
        <time>2023-09-10T12:05:01Z</time>
      </trkpt>
      <trkpt lat="43.09626" lon="2.0357">
        <ele>308</ele>
        <time>2023-09-10T12:05:02Z</time>
      </trkpt>
      <trkpt lat="43.09627" lon="2.03571">
        <ele>308</ele>
        <time>2023-09-10T12:05:03Z</time>
      </trkpt>
      <trkpt lat="43.09628" lon="2.03572">
        <ele>308</ele>
        <time>2023-09-10T12:05:04Z</time>
      </trkpt>
      <trkpt lat="43.09629" lon="2.03572">
        <ele>308</ele>
        <time>2023-09-10T12:05:05Z</time>
      </trkpt>
      <trkpt lat="43.09629" lon="2.03573">
        <ele>308</ele>
        <time>2023-09-10T12:05:06Z</time>
      </trkpt>
      <trkpt lat="43.0963" lon="2.03574">
        <ele>308</ele>
        <time>2023-09-10T12:05:07Z</time>
      </trkpt>
      <trkpt lat="43.09631" lon="2.03574">
        <ele>308</ele>
        <time>2023-09-10T12:05:08Z</time>
      </trkpt>
      <trkpt lat="43.09632" lon="2.03575">
        <ele>308</ele>
        <time>2023-09-10T12:05:09Z</time>
      </trkpt>
      <trkpt lat="43.09633" lon="2.03575">
        <ele>308</ele>
        <time>2023-09-10T12:05:10Z</time>
      </trkpt>
      <trkpt lat="43.09634" lon="2.03576">
        <ele>308</ele>
        <time>2023-09-10T12:05:11Z</time>
      </trkpt>
      <trkpt lat="43.09635" lon="2.03576">
        <ele>308</ele>
        <time>2023-09-10T12:05:12Z</time>
      </trkpt>
      <trkpt lat="43.09636" lon="2.03577">
        <ele>308</ele>
        <time>2023-09-10T12:05:13Z</time>
      </trkpt>
      <trkpt lat="43.09637" lon="2.03577">
        <ele>308</ele>
        <time>2023-09-10T12:05:14Z</time>
      </trkpt>
      <trkpt lat="43.09637" lon="2.03578">
        <ele>309</ele>
        <time>2023-09-10T12:05:15Z</time>
      </trkpt>
      <trkpt lat="43.09638" lon="2.03578">
        <ele>309</ele>
        <time>2023-09-10T12:05:16Z</time>
      </trkpt>
      <trkpt lat="43.09639" lon="2.03578">
        <ele>309</ele>
        <time>2023-09-10T12:05:17Z</time>
      </trkpt>
      <trkpt lat="43.0964" lon="2.03579">
        <ele>309</ele>
        <time>2023-09-10T12:05:18Z</time>
      </trkpt>
      <trkpt lat="43.09641" lon="2.03579">
        <ele>309</ele>
        <time>2023-09-10T12:05:19Z</time>
      </trkpt>
      <trkpt lat="43.09642" lon="2.0358">
        <ele>309</ele>
        <time>2023-09-10T12:05:20Z</time>
      </trkpt>
      <trkpt lat="43.09643" lon="2.0358">
        <ele>309</ele>
        <time>2023-09-10T12:05:21Z</time>
      </trkpt>
      <trkpt lat="43.09644" lon="2.03581">
        <ele>309</ele>
        <time>2023-09-10T12:05:22Z</time>
      </trkpt>
      <trkpt lat="43.09645" lon="2.03581">
        <ele>309</ele>
        <time>2023-09-10T12:05:23Z</time>
      </trkpt>
      <trkpt lat="43.09646" lon="2.03582">
        <ele>309</ele>
        <time>2023-09-10T12:05:24Z</time>
      </trkpt>
      <trkpt lat="43.09647" lon="2.03583">
        <ele>309</ele>
        <time>2023-09-10T12:05:25Z</time>
      </trkpt>
      <trkpt lat="43.09648" lon="2.03583">
        <ele>309</ele>
        <time>2023-09-10T12:05:26Z</time>
      </trkpt>
      <trkpt lat="43.09649" lon="2.03584">
        <ele>309</ele>
        <time>2023-09-10T12:05:27Z</time>
      </trkpt>
      <trkpt lat="43.0965" lon="2.03584">
        <ele>309</ele>
        <time>2023-09-10T12:05:28Z</time>
      </trkpt>
      <trkpt lat="43.09651" lon="2.03585">
        <ele>309</ele>
        <time>2023-09-10T12:05:29Z</time>
      </trkpt>
      <trkpt lat="43.09652" lon="2.03585">
        <ele>310</ele>
        <time>2023-09-10T12:05:30Z</time>
      </trkpt>
      <trkpt lat="43.09653" lon="2.03585">
        <ele>310</ele>
        <time>2023-09-10T12:05:31Z</time>
      </trkpt>
      <trkpt lat="43.09654" lon="2.03586">
        <ele>310</ele>
        <time>2023-09-10T12:05:32Z</time>
      </trkpt>
      <trkpt lat="43.09654" lon="2.03586">
        <ele>310</ele>
        <time>2023-09-10T12:05:33Z</time>
      </trkpt>
      <trkpt lat="43.09655" lon="2.03587">
        <ele>310</ele>
        <time>2023-09-10T12:05:34Z</time>
      </trkpt>
      <trkpt lat="43.09656" lon="2.03587">
        <ele>310</ele>
        <time>2023-09-10T12:05:35Z</time>
      </trkpt>
      <trkpt lat="43.09657" lon="2.03587">
        <ele>310</ele>
        <time>2023-09-10T12:05:36Z</time>
      </trkpt>
      <trkpt lat="43.09658" lon="2.03588">
        <ele>310</ele>
        <time>2023-09-10T12:05:37Z</time>
      </trkpt>
      <trkpt lat="43.09659" lon="2.03588">
        <ele>310</ele>
        <time>2023-09-10T12:05:38Z</time>
      </trkpt>
      <trkpt lat="43.0966" lon="2.03589">
        <ele>310</ele>
        <time>2023-09-10T12:05:39Z</time>
      </trkpt>
      <trkpt lat="43.0966" lon="2.03589">
        <ele>311</ele>
        <time>2023-09-10T12:05:40Z</time>
      </trkpt>
      <trkpt lat="43.09661" lon="2.03589">
        <ele>311</ele>
        <time>2023-09-10T12:05:41Z</time>
      </trkpt>
      <trkpt lat="43.09662" lon="2.0359">
        <ele>311</ele>
        <time>2023-09-10T12:05:42Z</time>
      </trkpt>
      <trkpt lat="43.09663" lon="2.0359">
        <ele>311</ele>
        <time>2023-09-10T12:05:43Z</time>
      </trkpt>
      <trkpt lat="43.09664" lon="2.03591">
        <ele>311</ele>
        <time>2023-09-10T12:05:44Z</time>
      </trkpt>
      <trkpt lat="43.09664" lon="2.03591">
        <ele>311</ele>
        <time>2023-09-10T12:05:45Z</time>
      </trkpt>
      <trkpt lat="43.09665" lon="2.03592">
        <ele>311</ele>
        <time>2023-09-10T12:05:46Z</time>
      </trkpt>
      <trkpt lat="43.09666" lon="2.03592">
        <ele>311</ele>
        <time>2023-09-10T12:05:47Z</time>
      </trkpt>
      <trkpt lat="43.09667" lon="2.03593">
        <ele>311</ele>
        <time>2023-09-10T12:05:48Z</time>
      </trkpt>
      <trkpt lat="43.09667" lon="2.03593">
        <ele>311</ele>
        <time>2023-09-10T12:05:49Z</time>
      </trkpt>
      <trkpt lat="43.09668" lon="2.03594">
        <ele>312</ele>
        <time>2023-09-10T12:05:50Z</time>
      </trkpt>
      <trkpt lat="43.09669" lon="2.03594">
        <ele>312</ele>
        <time>2023-09-10T12:05:51Z</time>
      </trkpt>
      <trkpt lat="43.0967" lon="2.03594">
        <ele>312</ele>
        <time>2023-09-10T12:05:52Z</time>
      </trkpt>
      <trkpt lat="43.0967" lon="2.03595">
        <ele>312</ele>
        <time>2023-09-10T12:05:53Z</time>
      </trkpt>
      <trkpt lat="43.09671" lon="2.03595">
        <ele>312</ele>
        <time>2023-09-10T12:05:54Z</time>
      </trkpt>
      <trkpt lat="43.09672" lon="2.03595">
        <ele>312</ele>
        <time>2023-09-10T12:05:55Z</time>
      </trkpt>
      <trkpt lat="43.09673" lon="2.03595">
        <ele>312</ele>
        <time>2023-09-10T12:05:56Z</time>
      </trkpt>
      <trkpt lat="43.09674" lon="2.03596">
        <ele>312</ele>
        <time>2023-09-10T12:05:57Z</time>
      </trkpt>
      <trkpt lat="43.09674" lon="2.03596">
        <ele>312</ele>
        <time>2023-09-10T12:05:58Z</time>
      </trkpt>
      <trkpt lat="43.09675" lon="2.03597">
        <ele>312</ele>
        <time>2023-09-10T12:05:59Z</time>
      </trkpt>
      <trkpt lat="43.09676" lon="2.03597">
        <ele>313</ele>
        <time>2023-09-10T12:06:00Z</time>
      </trkpt>
      <trkpt lat="43.09676" lon="2.03597">
        <ele>313</ele>
        <time>2023-09-10T12:06:01Z</time>
      </trkpt>
      <trkpt lat="43.09677" lon="2.03597">
        <ele>313</ele>
        <time>2023-09-10T12:06:02Z</time>
      </trkpt>
      <trkpt lat="43.09678" lon="2.03598">
        <ele>313</ele>
        <time>2023-09-10T12:06:03Z</time>
      </trkpt>
      <trkpt lat="43.09678" lon="2.03598">
        <ele>313</ele>
        <time>2023-09-10T12:06:04Z</time>
      </trkpt>
      <trkpt lat="43.09679" lon="2.03598">
        <ele>313</ele>
        <time>2023-09-10T12:06:05Z</time>
      </trkpt>
      <trkpt lat="43.0968" lon="2.03599">
        <ele>313</ele>
        <time>2023-09-10T12:06:06Z</time>
      </trkpt>
      <trkpt lat="43.09681" lon="2.03599">
        <ele>313</ele>
        <time>2023-09-10T12:06:07Z</time>
      </trkpt>
      <trkpt lat="43.09681" lon="2.036">
        <ele>313</ele>
        <time>2023-09-10T12:06:08Z</time>
      </trkpt>
      <trkpt lat="43.09682" lon="2.036">
        <ele>313</ele>
        <time>2023-09-10T12:06:09Z</time>
      </trkpt>
      <trkpt lat="43.09683" lon="2.036">
        <ele>314</ele>
        <time>2023-09-10T12:06:10Z</time>
      </trkpt>
      <trkpt lat="43.09684" lon="2.03601">
        <ele>314</ele>
        <time>2023-09-10T12:06:11Z</time>
      </trkpt>
      <trkpt lat="43.09685" lon="2.03601">
        <ele>314</ele>
        <time>2023-09-10T12:06:12Z</time>
      </trkpt>
      <trkpt lat="43.09685" lon="2.03601">
        <ele>314</ele>
        <time>2023-09-10T12:06:13Z</time>
      </trkpt>
      <trkpt lat="43.09686" lon="2.03601">
        <ele>314</ele>
        <time>2023-09-10T12:06:14Z</time>
      </trkpt>
      <trkpt lat="43.09687" lon="2.03602">
        <ele>314</ele>
        <time>2023-09-10T12:06:15Z</time>
      </trkpt>
      <trkpt lat="43.09688" lon="2.03602">
        <ele>314</ele>
        <time>2023-09-10T12:06:16Z</time>
      </trkpt>
      <trkpt lat="43.09689" lon="2.03603">
        <ele>314</ele>
        <time>2023-09-10T12:06:17Z</time>
      </trkpt>
      <trkpt lat="43.0969" lon="2.03603">
        <ele>314</ele>
        <time>2023-09-10T12:06:18Z</time>
      </trkpt>
      <trkpt lat="43.09691" lon="2.03603">
        <ele>314</ele>
        <time>2023-09-10T12:06:19Z</time>
      </trkpt>
      <trkpt lat="43.09692" lon="2.03604">
        <ele>315</ele>
        <time>2023-09-10T12:06:20Z</time>
      </trkpt>
      <trkpt lat="43.09693" lon="2.03604">
        <ele>315</ele>
        <time>2023-09-10T12:06:21Z</time>
      </trkpt>
      <trkpt lat="43.09694" lon="2.03605">
        <ele>315</ele>
        <time>2023-09-10T12:06:22Z</time>
      </trkpt>
      <trkpt lat="43.09694" lon="2.03605">
        <ele>315</ele>
        <time>2023-09-10T12:06:23Z</time>
      </trkpt>
      <trkpt lat="43.09695" lon="2.03606">
        <ele>315</ele>
        <time>2023-09-10T12:06:24Z</time>
      </trkpt>
      <trkpt lat="43.09696" lon="2.03606">
        <ele>315</ele>
        <time>2023-09-10T12:06:25Z</time>
      </trkpt>
      <trkpt lat="43.09697" lon="2.03607">
        <ele>315</ele>
        <time>2023-09-10T12:06:26Z</time>
      </trkpt>
      <trkpt lat="43.09697" lon="2.03607">
        <ele>315</ele>
        <time>2023-09-10T12:06:27Z</time>
      </trkpt>
      <trkpt lat="43.09698" lon="2.03608">
        <ele>315</ele>
        <time>2023-09-10T12:06:28Z</time>
      </trkpt>
      <trkpt lat="43.09698" lon="2.03608">
        <ele>315</ele>
        <time>2023-09-10T12:06:29Z</time>
      </trkpt>
      <trkpt lat="43.09699" lon="2.03609">
        <ele>316</ele>
        <time>2023-09-10T12:06:30Z</time>
      </trkpt>
      <trkpt lat="43.097" lon="2.03609">
        <ele>316</ele>
        <time>2023-09-10T12:06:31Z</time>
      </trkpt>
      <trkpt lat="43.097" lon="2.0361">
        <ele>316</ele>
        <time>2023-09-10T12:06:32Z</time>
      </trkpt>
      <trkpt lat="43.09701" lon="2.0361">
        <ele>316</ele>
        <time>2023-09-10T12:06:33Z</time>
      </trkpt>
      <trkpt lat="43.09702" lon="2.0361">
        <ele>316</ele>
        <time>2023-09-10T12:06:34Z</time>
      </trkpt>
      <trkpt lat="43.09703" lon="2.03611">
        <ele>316</ele>
        <time>2023-09-10T12:06:35Z</time>
      </trkpt>
      <trkpt lat="43.09704" lon="2.03611">
        <ele>316</ele>
        <time>2023-09-10T12:06:36Z</time>
      </trkpt>
      <trkpt lat="43.09705" lon="2.03612">
        <ele>316</ele>
        <time>2023-09-10T12:06:37Z</time>
      </trkpt>
      <trkpt lat="43.09706" lon="2.03612">
        <ele>316</ele>
        <time>2023-09-10T12:06:38Z</time>
      </trkpt>
      <trkpt lat="43.09707" lon="2.03612">
        <ele>316</ele>
        <time>2023-09-10T12:06:39Z</time>
      </trkpt>
      <trkpt lat="43.09707" lon="2.03613">
        <ele>317</ele>
        <time>2023-09-10T12:06:40Z</time>
      </trkpt>
      <trkpt lat="43.09708" lon="2.03613">
        <ele>317</ele>
        <time>2023-09-10T12:06:41Z</time>
      </trkpt>
      <trkpt lat="43.09709" lon="2.03613">
        <ele>317</ele>
        <time>2023-09-10T12:06:42Z</time>
      </trkpt>
      <trkpt lat="43.0971" lon="2.03614">
        <ele>317</ele>
        <time>2023-09-10T12:06:43Z</time>
      </trkpt>
      <trkpt lat="43.09711" lon="2.03614">
        <ele>317</ele>
        <time>2023-09-10T12:06:44Z</time>
      </trkpt>
      <trkpt lat="43.09712" lon="2.03615">
        <ele>317</ele>
        <time>2023-09-10T12:06:45Z</time>
      </trkpt>
      <trkpt lat="43.09712" lon="2.03615">
        <ele>317</ele>
        <time>2023-09-10T12:06:46Z</time>
      </trkpt>
      <trkpt lat="43.09713" lon="2.03615">
        <ele>317</ele>
        <time>2023-09-10T12:06:47Z</time>
      </trkpt>
      <trkpt lat="43.09714" lon="2.03616">
        <ele>317</ele>
        <time>2023-09-10T12:06:48Z</time>
      </trkpt>
      <trkpt lat="43.09715" lon="2.03616">
        <ele>317</ele>
        <time>2023-09-10T12:06:49Z</time>
      </trkpt>
      <trkpt lat="43.09715" lon="2.03617">
        <ele>318</ele>
        <time>2023-09-10T12:06:50Z</time>
      </trkpt>
      <trkpt lat="43.09716" lon="2.03617">
        <ele>318</ele>
        <time>2023-09-10T12:06:51Z</time>
      </trkpt>
      <trkpt lat="43.09717" lon="2.03617">
        <ele>318</ele>
        <time>2023-09-10T12:06:52Z</time>
      </trkpt>
      <trkpt lat="43.09718" lon="2.03618">
        <ele>318</ele>
        <time>2023-09-10T12:06:53Z</time>
      </trkpt>
      <trkpt lat="43.09719" lon="2.03618">
        <ele>318</ele>
        <time>2023-09-10T12:06:54Z</time>
      </trkpt>
      <trkpt lat="43.09719" lon="2.03619">
        <ele>318</ele>
        <time>2023-09-10T12:06:55Z</time>
      </trkpt>
      <trkpt lat="43.0972" lon="2.03619">
        <ele>318</ele>
        <time>2023-09-10T12:06:56Z</time>
      </trkpt>
      <trkpt lat="43.09721" lon="2.03619">
        <ele>318</ele>
        <time>2023-09-10T12:06:57Z</time>
      </trkpt>
      <trkpt lat="43.09722" lon="2.0362">
        <ele>318</ele>
        <time>2023-09-10T12:06:58Z</time>
      </trkpt>
      <trkpt lat="43.09723" lon="2.0362">
        <ele>318</ele>
        <time>2023-09-10T12:06:59Z</time>
      </trkpt>
      <trkpt lat="43.09723" lon="2.0362">
        <ele>319</ele>
        <time>2023-09-10T12:07:00Z</time>
      </trkpt>
      <trkpt lat="43.09724" lon="2.03621">
        <ele>319</ele>
        <time>2023-09-10T12:07:01Z</time>
      </trkpt>
      <trkpt lat="43.09725" lon="2.03621">
        <ele>319</ele>
        <time>2023-09-10T12:07:02Z</time>
      </trkpt>
      <trkpt lat="43.09726" lon="2.03622">
        <ele>319</ele>
        <time>2023-09-10T12:07:03Z</time>
      </trkpt>
      <trkpt lat="43.09726" lon="2.03622">
        <ele>319</ele>
        <time>2023-09-10T12:07:04Z</time>
      </trkpt>
      <trkpt lat="43.09727" lon="2.03622">
        <ele>320</ele>
        <time>2023-09-10T12:07:05Z</time>
      </trkpt>
      <trkpt lat="43.09728" lon="2.03623">
        <ele>320</ele>
        <time>2023-09-10T12:07:06Z</time>
      </trkpt>
      <trkpt lat="43.09729" lon="2.03623">
        <ele>320</ele>
        <time>2023-09-10T12:07:07Z</time>
      </trkpt>
      <trkpt lat="43.0973" lon="2.03624">
        <ele>320</ele>
        <time>2023-09-10T12:07:08Z</time>
      </trkpt>
      <trkpt lat="43.0973" lon="2.03624">
        <ele>320</ele>
        <time>2023-09-10T12:07:09Z</time>
      </trkpt>
      <trkpt lat="43.09731" lon="2.03625">
        <ele>320</ele>
        <time>2023-09-10T12:07:10Z</time>
      </trkpt>
      <trkpt lat="43.09732" lon="2.03625">
        <ele>320</ele>
        <time>2023-09-10T12:07:11Z</time>
      </trkpt>
      <trkpt lat="43.09733" lon="2.03626">
        <ele>320</ele>
        <time>2023-09-10T12:07:12Z</time>
      </trkpt>
      <trkpt lat="43.09734" lon="2.03626">
        <ele>320</ele>
        <time>2023-09-10T12:07:13Z</time>
      </trkpt>
      <trkpt lat="43.09734" lon="2.03627">
        <ele>320</ele>
        <time>2023-09-10T12:07:14Z</time>
      </trkpt>
      <trkpt lat="43.09735" lon="2.03627">
        <ele>321</ele>
        <time>2023-09-10T12:07:15Z</time>
      </trkpt>
      <trkpt lat="43.09736" lon="2.03628">
        <ele>321</ele>
        <time>2023-09-10T12:07:16Z</time>
      </trkpt>
      <trkpt lat="43.09737" lon="2.03628">
        <ele>321</ele>
        <time>2023-09-10T12:07:17Z</time>
      </trkpt>
      <trkpt lat="43.09738" lon="2.03629">
        <ele>321</ele>
        <time>2023-09-10T12:07:18Z</time>
      </trkpt>
      <trkpt lat="43.09738" lon="2.03629">
        <ele>321</ele>
        <time>2023-09-10T12:07:19Z</time>
      </trkpt>
      <trkpt lat="43.09739" lon="2.0363">
        <ele>322</ele>
        <time>2023-09-10T12:07:20Z</time>
      </trkpt>
      <trkpt lat="43.0974" lon="2.0363">
        <ele>322</ele>
        <time>2023-09-10T12:07:21Z</time>
      </trkpt>
      <trkpt lat="43.09741" lon="2.0363">
        <ele>322</ele>
        <time>2023-09-10T12:07:22Z</time>
      </trkpt>
      <trkpt lat="43.09742" lon="2.03631">
        <ele>322</ele>
        <time>2023-09-10T12:07:23Z</time>
      </trkpt>
      <trkpt lat="43.09742" lon="2.03631">
        <ele>322</ele>
        <time>2023-09-10T12:07:24Z</time>
      </trkpt>
      <trkpt lat="43.09743" lon="2.03632">
        <ele>322</ele>
        <time>2023-09-10T12:07:25Z</time>
      </trkpt>
      <trkpt lat="43.09744" lon="2.03633">
        <ele>322</ele>
        <time>2023-09-10T12:07:26Z</time>
      </trkpt>
      <trkpt lat="43.09745" lon="2.03633">
        <ele>322</ele>
        <time>2023-09-10T12:07:27Z</time>
      </trkpt>
      <trkpt lat="43.09746" lon="2.03633">
        <ele>322</ele>
        <time>2023-09-10T12:07:28Z</time>
      </trkpt>
      <trkpt lat="43.09747" lon="2.03634">
        <ele>322</ele>
        <time>2023-09-10T12:07:29Z</time>
      </trkpt>
      <trkpt lat="43.09748" lon="2.03634">
        <ele>323</ele>
        <time>2023-09-10T12:07:30Z</time>
      </trkpt>
      <trkpt lat="43.09749" lon="2.03635">
        <ele>323</ele>
        <time>2023-09-10T12:07:31Z</time>
      </trkpt>
      <trkpt lat="43.0975" lon="2.03635">
        <ele>323</ele>
        <time>2023-09-10T12:07:32Z</time>
      </trkpt>
      <trkpt lat="43.09751" lon="2.03635">
        <ele>323</ele>
        <time>2023-09-10T12:07:33Z</time>
      </trkpt>
      <trkpt lat="43.09752" lon="2.03636">
        <ele>323</ele>
        <time>2023-09-10T12:07:34Z</time>
      </trkpt>
      <trkpt lat="43.09753" lon="2.03636">
        <ele>324</ele>
        <time>2023-09-10T12:07:35Z</time>
      </trkpt>
      <trkpt lat="43.09754" lon="2.03637">
        <ele>324</ele>
        <time>2023-09-10T12:07:36Z</time>
      </trkpt>
      <trkpt lat="43.09755" lon="2.03638">
        <ele>324</ele>
        <time>2023-09-10T12:07:37Z</time>
      </trkpt>
      <trkpt lat="43.09756" lon="2.03638">
        <ele>324</ele>
        <time>2023-09-10T12:07:38Z</time>
      </trkpt>
      <trkpt lat="43.09757" lon="2.03639">
        <ele>324</ele>
        <time>2023-09-10T12:07:39Z</time>
      </trkpt>
      <trkpt lat="43.09757" lon="2.03639">
        <ele>324</ele>
        <time>2023-09-10T12:07:40Z</time>
      </trkpt>
      <trkpt lat="43.09758" lon="2.0364">
        <ele>324</ele>
        <time>2023-09-10T12:07:41Z</time>
      </trkpt>
      <trkpt lat="43.09759" lon="2.03641">
        <ele>324</ele>
        <time>2023-09-10T12:07:42Z</time>
      </trkpt>
      <trkpt lat="43.0976" lon="2.03641">
        <ele>324</ele>
        <time>2023-09-10T12:07:43Z</time>
      </trkpt>
      <trkpt lat="43.09761" lon="2.03641">
        <ele>324</ele>
        <time>2023-09-10T12:07:44Z</time>
      </trkpt>
      <trkpt lat="43.09761" lon="2.03642">
        <ele>325</ele>
        <time>2023-09-10T12:07:45Z</time>
      </trkpt>
      <trkpt lat="43.09762" lon="2.03642">
        <ele>325</ele>
        <time>2023-09-10T12:07:46Z</time>
      </trkpt>
      <trkpt lat="43.09763" lon="2.03643">
        <ele>325</ele>
        <time>2023-09-10T12:07:47Z</time>
      </trkpt>
      <trkpt lat="43.09764" lon="2.03643">
        <ele>325</ele>
        <time>2023-09-10T12:07:48Z</time>
      </trkpt>
      <trkpt lat="43.09765" lon="2.03643">
        <ele>325</ele>
        <time>2023-09-10T12:07:49Z</time>
      </trkpt>
      <trkpt lat="43.09766" lon="2.03644">
        <ele>326</ele>
        <time>2023-09-10T12:07:50Z</time>
      </trkpt>
      <trkpt lat="43.09767" lon="2.03644">
        <ele>326</ele>
        <time>2023-09-10T12:07:51Z</time>
      </trkpt>
      <trkpt lat="43.09767" lon="2.03645">
        <ele>326</ele>
        <time>2023-09-10T12:07:52Z</time>
      </trkpt>
      <trkpt lat="43.09768" lon="2.03645">
        <ele>326</ele>
        <time>2023-09-10T12:07:53Z</time>
      </trkpt>
      <trkpt lat="43.09769" lon="2.03645">
        <ele>326</ele>
        <time>2023-09-10T12:07:54Z</time>
      </trkpt>
      <trkpt lat="43.0977" lon="2.03645">
        <ele>326</ele>
        <time>2023-09-10T12:07:55Z</time>
      </trkpt>
      <trkpt lat="43.09771" lon="2.03646">
        <ele>326</ele>
        <time>2023-09-10T12:07:56Z</time>
      </trkpt>
      <trkpt lat="43.09772" lon="2.03646">
        <ele>326</ele>
        <time>2023-09-10T12:07:57Z</time>
      </trkpt>
      <trkpt lat="43.09773" lon="2.03646">
        <ele>326</ele>
        <time>2023-09-10T12:07:58Z</time>
      </trkpt>
      <trkpt lat="43.09774" lon="2.03647">
        <ele>326</ele>
        <time>2023-09-10T12:07:59Z</time>
      </trkpt>
      <trkpt lat="43.09775" lon="2.03647">
        <ele>326</ele>
        <time>2023-09-10T12:08:00Z</time>
      </trkpt>
      <trkpt lat="43.09775" lon="2.03647">
        <ele>326</ele>
        <time>2023-09-10T12:08:01Z</time>
      </trkpt>
      <trkpt lat="43.09776" lon="2.03648">
        <ele>326</ele>
        <time>2023-09-10T12:08:02Z</time>
      </trkpt>
      <trkpt lat="43.09777" lon="2.03648">
        <ele>326</ele>
        <time>2023-09-10T12:08:03Z</time>
      </trkpt>
      <trkpt lat="43.09778" lon="2.03649">
        <ele>326</ele>
        <time>2023-09-10T12:08:04Z</time>
      </trkpt>
      <trkpt lat="43.09778" lon="2.03649">
        <ele>326</ele>
        <time>2023-09-10T12:08:05Z</time>
      </trkpt>
      <trkpt lat="43.09779" lon="2.0365">
        <ele>326</ele>
        <time>2023-09-10T12:08:06Z</time>
      </trkpt>
      <trkpt lat="43.0978" lon="2.03651">
        <ele>326</ele>
        <time>2023-09-10T12:08:07Z</time>
      </trkpt>
      <trkpt lat="43.0978" lon="2.03651">
        <ele>326</ele>
        <time>2023-09-10T12:08:08Z</time>
      </trkpt>
      <trkpt lat="43.09781" lon="2.03652">
        <ele>326</ele>
        <time>2023-09-10T12:08:09Z</time>
      </trkpt>
      <trkpt lat="43.09782" lon="2.03653">
        <ele>326</ele>
        <time>2023-09-10T12:08:10Z</time>
      </trkpt>
      <trkpt lat="43.09782" lon="2.03653">
        <ele>326</ele>
        <time>2023-09-10T12:08:11Z</time>
      </trkpt>
      <trkpt lat="43.09783" lon="2.03654">
        <ele>326</ele>
        <time>2023-09-10T12:08:12Z</time>
      </trkpt>
      <trkpt lat="43.09783" lon="2.03654">
        <ele>326</ele>
        <time>2023-09-10T12:08:13Z</time>
      </trkpt>
      <trkpt lat="43.09784" lon="2.03655">
        <ele>326</ele>
        <time>2023-09-10T12:08:14Z</time>
      </trkpt>
      <trkpt lat="43.09784" lon="2.03655">
        <ele>326</ele>
        <time>2023-09-10T12:08:15Z</time>
      </trkpt>
      <trkpt lat="43.09784" lon="2.03656">
        <ele>325</ele>
        <time>2023-09-10T12:08:16Z</time>
      </trkpt>
      <trkpt lat="43.09785" lon="2.03656">
        <ele>325</ele>
        <time>2023-09-10T12:08:17Z</time>
      </trkpt>
      <trkpt lat="43.09785" lon="2.03657">
        <ele>325</ele>
        <time>2023-09-10T12:08:18Z</time>
      </trkpt>
      <trkpt lat="43.09786" lon="2.03657">
        <ele>325</ele>
        <time>2023-09-10T12:08:19Z</time>
      </trkpt>
      <trkpt lat="43.09786" lon="2.03658">
        <ele>325</ele>
        <time>2023-09-10T12:08:20Z</time>
      </trkpt>
      <trkpt lat="43.09787" lon="2.03659">
        <ele>325</ele>
        <time>2023-09-10T12:08:21Z</time>
      </trkpt>
      <trkpt lat="43.09788" lon="2.03659">
        <ele>325</ele>
        <time>2023-09-10T12:08:22Z</time>
      </trkpt>
      <trkpt lat="43.09788" lon="2.0366">
        <ele>325</ele>
        <time>2023-09-10T12:08:23Z</time>
      </trkpt>
      <trkpt lat="43.09789" lon="2.0366">
        <ele>325</ele>
        <time>2023-09-10T12:08:24Z</time>
      </trkpt>
      <trkpt lat="43.09789" lon="2.03661">
        <ele>325</ele>
        <time>2023-09-10T12:08:25Z</time>
      </trkpt>
      <trkpt lat="43.0979" lon="2.03661">
        <ele>324</ele>
        <time>2023-09-10T12:08:26Z</time>
      </trkpt>
      <trkpt lat="43.0979" lon="2.03662">
        <ele>324</ele>
        <time>2023-09-10T12:08:27Z</time>
      </trkpt>
      <trkpt lat="43.09791" lon="2.03662">
        <ele>324</ele>
        <time>2023-09-10T12:08:28Z</time>
      </trkpt>
      <trkpt lat="43.09791" lon="2.03662">
        <ele>324</ele>
        <time>2023-09-10T12:08:29Z</time>
      </trkpt>
      <trkpt lat="43.09792" lon="2.03663">
        <ele>324</ele>
        <time>2023-09-10T12:08:30Z</time>
      </trkpt>
      <trkpt lat="43.09793" lon="2.03663">
        <ele>324</ele>
        <time>2023-09-10T12:08:31Z</time>
      </trkpt>
      <trkpt lat="43.09794" lon="2.03663">
        <ele>324</ele>
        <time>2023-09-10T12:08:32Z</time>
      </trkpt>
      <trkpt lat="43.09794" lon="2.03664">
        <ele>324</ele>
        <time>2023-09-10T12:08:33Z</time>
      </trkpt>
      <trkpt lat="43.09795" lon="2.03664">
        <ele>324</ele>
        <time>2023-09-10T12:08:34Z</time>
      </trkpt>
      <trkpt lat="43.09796" lon="2.03665">
        <ele>324</ele>
        <time>2023-09-10T12:08:35Z</time>
      </trkpt>
      <trkpt lat="43.09796" lon="2.03665">
        <ele>323</ele>
        <time>2023-09-10T12:08:36Z</time>
      </trkpt>
      <trkpt lat="43.09797" lon="2.03666">
        <ele>323</ele>
        <time>2023-09-10T12:08:37Z</time>
      </trkpt>
      <trkpt lat="43.09797" lon="2.03666">
        <ele>323</ele>
        <time>2023-09-10T12:08:38Z</time>
      </trkpt>
      <trkpt lat="43.09798" lon="2.03667">
        <ele>323</ele>
        <time>2023-09-10T12:08:39Z</time>
      </trkpt>
      <trkpt lat="43.09799" lon="2.03668">
        <ele>323</ele>
        <time>2023-09-10T12:08:40Z</time>
      </trkpt>
      <trkpt lat="43.09799" lon="2.03668">
        <ele>323</ele>
        <time>2023-09-10T12:08:41Z</time>
      </trkpt>
      <trkpt lat="43.098" lon="2.03669">
        <ele>323</ele>
        <time>2023-09-10T12:08:42Z</time>
      </trkpt>
      <trkpt lat="43.09801" lon="2.0367">
        <ele>323</ele>
        <time>2023-09-10T12:08:43Z</time>
      </trkpt>
      <trkpt lat="43.09801" lon="2.0367">
        <ele>323</ele>
        <time>2023-09-10T12:08:44Z</time>
      </trkpt>
      <trkpt lat="43.09802" lon="2.03671">
        <ele>323</ele>
        <time>2023-09-10T12:08:45Z</time>
      </trkpt>
      <trkpt lat="43.09803" lon="2.03672">
        <ele>322</ele>
        <time>2023-09-10T12:08:46Z</time>
      </trkpt>
      <trkpt lat="43.09803" lon="2.03673">
        <ele>322</ele>
        <time>2023-09-10T12:08:47Z</time>
      </trkpt>
      <trkpt lat="43.09804" lon="2.03673">
        <ele>322</ele>
        <time>2023-09-10T12:08:48Z</time>
      </trkpt>
      <trkpt lat="43.09805" lon="2.03674">
        <ele>322</ele>
        <time>2023-09-10T12:08:49Z</time>
      </trkpt>
      <trkpt lat="43.09805" lon="2.03675">
        <ele>322</ele>
        <time>2023-09-10T12:08:50Z</time>
      </trkpt>
      <trkpt lat="43.09806" lon="2.03675">
        <ele>321</ele>
        <time>2023-09-10T12:08:51Z</time>
      </trkpt>
      <trkpt lat="43.09807" lon="2.03676">
        <ele>321</ele>
        <time>2023-09-10T12:08:52Z</time>
      </trkpt>
      <trkpt lat="43.09808" lon="2.03677">
        <ele>321</ele>
        <time>2023-09-10T12:08:53Z</time>
      </trkpt>
      <trkpt lat="43.09808" lon="2.03677">
        <ele>321</ele>
        <time>2023-09-10T12:08:54Z</time>
      </trkpt>
      <trkpt lat="43.09809" lon="2.03678">
        <ele>321</ele>
        <time>2023-09-10T12:08:55Z</time>
      </trkpt>
      <trkpt lat="43.0981" lon="2.03678">
        <ele>320</ele>
        <time>2023-09-10T12:08:56Z</time>
      </trkpt>
      <trkpt lat="43.0981" lon="2.03679">
        <ele>320</ele>
        <time>2023-09-10T12:08:57Z</time>
      </trkpt>
      <trkpt lat="43.09811" lon="2.03679">
        <ele>320</ele>
        <time>2023-09-10T12:08:58Z</time>
      </trkpt>
      <trkpt lat="43.09812" lon="2.0368">
        <ele>320</ele>
        <time>2023-09-10T12:08:59Z</time>
      </trkpt>
      <trkpt lat="43.09812" lon="2.03681">
        <ele>320</ele>
        <time>2023-09-10T12:09:00Z</time>
      </trkpt>
      <trkpt lat="43.09813" lon="2.03681">
        <ele>320</ele>
        <time>2023-09-10T12:09:01Z</time>
      </trkpt>
      <trkpt lat="43.09814" lon="2.03682">
        <ele>320</ele>
        <time>2023-09-10T12:09:02Z</time>
      </trkpt>
      <trkpt lat="43.09814" lon="2.03683">
        <ele>320</ele>
        <time>2023-09-10T12:09:03Z</time>
      </trkpt>
      <trkpt lat="43.09815" lon="2.03684">
        <ele>320</ele>
        <time>2023-09-10T12:09:04Z</time>
      </trkpt>
      <trkpt lat="43.09815" lon="2.03685">
        <ele>320</ele>
        <time>2023-09-10T12:09:05Z</time>
      </trkpt>
      <trkpt lat="43.09816" lon="2.03685">
        <ele>319</ele>
        <time>2023-09-10T12:09:06Z</time>
      </trkpt>
      <trkpt lat="43.09817" lon="2.03686">
        <ele>319</ele>
        <time>2023-09-10T12:09:07Z</time>
      </trkpt>
      <trkpt lat="43.09817" lon="2.03687">
        <ele>319</ele>
        <time>2023-09-10T12:09:08Z</time>
      </trkpt>
      <trkpt lat="43.09818" lon="2.03688">
        <ele>319</ele>
        <time>2023-09-10T12:09:09Z</time>
      </trkpt>
      <trkpt lat="43.09819" lon="2.03688">
        <ele>319</ele>
        <time>2023-09-10T12:09:10Z</time>
      </trkpt>
      <trkpt lat="43.0982" lon="2.03689">
        <ele>319</ele>
        <time>2023-09-10T12:09:11Z</time>
      </trkpt>
      <trkpt lat="43.09821" lon="2.0369">
        <ele>319</ele>
        <time>2023-09-10T12:09:12Z</time>
      </trkpt>
      <trkpt lat="43.09821" lon="2.03691">
        <ele>319</ele>
        <time>2023-09-10T12:09:13Z</time>
      </trkpt>
      <trkpt lat="43.09822" lon="2.03691">
        <ele>319</ele>
        <time>2023-09-10T12:09:14Z</time>
      </trkpt>
      <trkpt lat="43.09823" lon="2.03692">
        <ele>319</ele>
        <time>2023-09-10T12:09:15Z</time>
      </trkpt>
      <trkpt lat="43.09824" lon="2.03693">
        <ele>318</ele>
        <time>2023-09-10T12:09:16Z</time>
      </trkpt>
      <trkpt lat="43.09825" lon="2.03693">
        <ele>318</ele>
        <time>2023-09-10T12:09:17Z</time>
      </trkpt>
      <trkpt lat="43.09825" lon="2.03694">
        <ele>318</ele>
        <time>2023-09-10T12:09:18Z</time>
      </trkpt>
      <trkpt lat="43.09826" lon="2.03695">
        <ele>318</ele>
        <time>2023-09-10T12:09:19Z</time>
      </trkpt>
      <trkpt lat="43.09827" lon="2.03696">
        <ele>318</ele>
        <time>2023-09-10T12:09:20Z</time>
      </trkpt>
      <trkpt lat="43.09828" lon="2.03697">
        <ele>318</ele>
        <time>2023-09-10T12:09:21Z</time>
      </trkpt>
      <trkpt lat="43.09828" lon="2.03697">
        <ele>318</ele>
        <time>2023-09-10T12:09:22Z</time>
      </trkpt>
      <trkpt lat="43.09829" lon="2.03698">
        <ele>318</ele>
        <time>2023-09-10T12:09:23Z</time>
      </trkpt>
      <trkpt lat="43.0983" lon="2.03699">
        <ele>318</ele>
        <time>2023-09-10T12:09:24Z</time>
      </trkpt>
      <trkpt lat="43.09831" lon="2.037">
        <ele>318</ele>
        <time>2023-09-10T12:09:25Z</time>
      </trkpt>
      <trkpt lat="43.09832" lon="2.037">
        <ele>317</ele>
        <time>2023-09-10T12:09:26Z</time>
      </trkpt>
      <trkpt lat="43.09832" lon="2.03701">
        <ele>317</ele>
        <time>2023-09-10T12:09:27Z</time>
      </trkpt>
      <trkpt lat="43.09833" lon="2.03702">
        <ele>317</ele>
        <time>2023-09-10T12:09:28Z</time>
      </trkpt>
      <trkpt lat="43.09834" lon="2.03703">
        <ele>317</ele>
        <time>2023-09-10T12:09:29Z</time>
      </trkpt>
      <trkpt lat="43.09835" lon="2.03704">
        <ele>317</ele>
        <time>2023-09-10T12:09:30Z</time>
      </trkpt>
      <trkpt lat="43.09836" lon="2.03704">
        <ele>316</ele>
        <time>2023-09-10T12:09:31Z</time>
      </trkpt>
      <trkpt lat="43.09837" lon="2.03705">
        <ele>316</ele>
        <time>2023-09-10T12:09:32Z</time>
      </trkpt>
      <trkpt lat="43.09837" lon="2.03706">
        <ele>316</ele>
        <time>2023-09-10T12:09:33Z</time>
      </trkpt>
      <trkpt lat="43.09838" lon="2.03707">
        <ele>316</ele>
        <time>2023-09-10T12:09:34Z</time>
      </trkpt>
      <trkpt lat="43.09839" lon="2.03707">
        <ele>316</ele>
        <time>2023-09-10T12:09:35Z</time>
      </trkpt>
      <trkpt lat="43.0984" lon="2.03708">
        <ele>316</ele>
        <time>2023-09-10T12:09:36Z</time>
      </trkpt>
      <trkpt lat="43.09841" lon="2.03709">
        <ele>316</ele>
        <time>2023-09-10T12:09:37Z</time>
      </trkpt>
      <trkpt lat="43.09842" lon="2.0371">
        <ele>316</ele>
        <time>2023-09-10T12:09:38Z</time>
      </trkpt>
      <trkpt lat="43.09843" lon="2.03711">
        <ele>316</ele>
        <time>2023-09-10T12:09:39Z</time>
      </trkpt>
      <trkpt lat="43.09844" lon="2.03711">
        <ele>316</ele>
        <time>2023-09-10T12:09:40Z</time>
      </trkpt>
      <trkpt lat="43.09845" lon="2.03712">
        <ele>316</ele>
        <time>2023-09-10T12:09:41Z</time>
      </trkpt>
      <trkpt lat="43.09846" lon="2.03713">
        <ele>316</ele>
        <time>2023-09-10T12:09:42Z</time>
      </trkpt>
      <trkpt lat="43.09847" lon="2.03714">
        <ele>316</ele>
        <time>2023-09-10T12:09:43Z</time>
      </trkpt>
      <trkpt lat="43.09848" lon="2.03714">
        <ele>316</ele>
        <time>2023-09-10T12:09:44Z</time>
      </trkpt>
      <trkpt lat="43.09849" lon="2.03715">
        <ele>316</ele>
        <time>2023-09-10T12:09:45Z</time>
      </trkpt>
      <trkpt lat="43.0985" lon="2.03716">
        <ele>315</ele>
        <time>2023-09-10T12:09:46Z</time>
      </trkpt>
      <trkpt lat="43.09851" lon="2.03716">
        <ele>315</ele>
        <time>2023-09-10T12:09:47Z</time>
      </trkpt>
      <trkpt lat="43.09851" lon="2.03717">
        <ele>315</ele>
        <time>2023-09-10T12:09:48Z</time>
      </trkpt>
      <trkpt lat="43.09852" lon="2.03718">
        <ele>315</ele>
        <time>2023-09-10T12:09:49Z</time>
      </trkpt>
      <trkpt lat="43.09853" lon="2.03719">
        <ele>315</ele>
        <time>2023-09-10T12:09:50Z</time>
      </trkpt>
      <trkpt lat="43.09853" lon="2.03719">
        <ele>315</ele>
        <time>2023-09-10T12:09:51Z</time>
      </trkpt>
      <trkpt lat="43.09854" lon="2.0372">
        <ele>315</ele>
        <time>2023-09-10T12:09:52Z</time>
      </trkpt>
      <trkpt lat="43.09854" lon="2.03721">
        <ele>315</ele>
        <time>2023-09-10T12:09:53Z</time>
      </trkpt>
      <trkpt lat="43.09855" lon="2.03722">
        <ele>315</ele>
        <time>2023-09-10T12:09:54Z</time>
      </trkpt>
      <trkpt lat="43.09856" lon="2.03722">
        <ele>315</ele>
        <time>2023-09-10T12:09:55Z</time>
      </trkpt>
      <trkpt lat="43.09857" lon="2.03723">
        <ele>315</ele>
        <time>2023-09-10T12:09:56Z</time>
      </trkpt>
      <trkpt lat="43.09857" lon="2.03724">
        <ele>315</ele>
        <time>2023-09-10T12:09:57Z</time>
      </trkpt>
      <trkpt lat="43.09858" lon="2.03725">
        <ele>315</ele>
        <time>2023-09-10T12:09:58Z</time>
      </trkpt>
      <trkpt lat="43.09859" lon="2.03726">
        <ele>315</ele>
        <time>2023-09-10T12:09:59Z</time>
      </trkpt>
      <trkpt lat="43.0986" lon="2.03726">
        <ele>315</ele>
        <time>2023-09-10T12:10:00Z</time>
      </trkpt>
      <trkpt lat="43.09861" lon="2.03727">
        <ele>314</ele>
        <time>2023-09-10T12:10:01Z</time>
      </trkpt>
      <trkpt lat="43.09861" lon="2.03728">
        <ele>314</ele>
        <time>2023-09-10T12:10:02Z</time>
      </trkpt>
      <trkpt lat="43.09862" lon="2.03728">
        <ele>314</ele>
        <time>2023-09-10T12:10:03Z</time>
      </trkpt>
      <trkpt lat="43.09863" lon="2.03729">
        <ele>314</ele>
        <time>2023-09-10T12:10:04Z</time>
      </trkpt>
      <trkpt lat="43.09863" lon="2.0373">
        <ele>314</ele>
        <time>2023-09-10T12:10:05Z</time>
      </trkpt>
      <trkpt lat="43.09864" lon="2.03731">
        <ele>314</ele>
        <time>2023-09-10T12:10:06Z</time>
      </trkpt>
      <trkpt lat="43.09865" lon="2.03731">
        <ele>314</ele>
        <time>2023-09-10T12:10:07Z</time>
      </trkpt>
      <trkpt lat="43.09866" lon="2.03732">
        <ele>314</ele>
        <time>2023-09-10T12:10:08Z</time>
      </trkpt>
      <trkpt lat="43.09867" lon="2.03733">
        <ele>314</ele>
        <time>2023-09-10T12:10:09Z</time>
      </trkpt>
      <trkpt lat="43.09867" lon="2.03734">
        <ele>314</ele>
        <time>2023-09-10T12:10:10Z</time>
      </trkpt>
      <trkpt lat="43.09868" lon="2.03734">
        <ele>314</ele>
        <time>2023-09-10T12:10:11Z</time>
      </trkpt>
      <trkpt lat="43.09869" lon="2.03735">
        <ele>314</ele>
        <time>2023-09-10T12:10:12Z</time>
      </trkpt>
      <trkpt lat="43.0987" lon="2.03736">
        <ele>314</ele>
        <time>2023-09-10T12:10:13Z</time>
      </trkpt>
      <trkpt lat="43.0987" lon="2.03737">
        <ele>314</ele>
        <time>2023-09-10T12:10:14Z</time>
      </trkpt>
      <trkpt lat="43.09871" lon="2.03738">
        <ele>314</ele>
        <time>2023-09-10T12:10:15Z</time>
      </trkpt>
      <trkpt lat="43.09872" lon="2.03739">
        <ele>313</ele>
        <time>2023-09-10T12:10:16Z</time>
      </trkpt>
      <trkpt lat="43.09873" lon="2.03739">
        <ele>313</ele>
        <time>2023-09-10T12:10:17Z</time>
      </trkpt>
      <trkpt lat="43.09873" lon="2.0374">
        <ele>313</ele>
        <time>2023-09-10T12:10:18Z</time>
      </trkpt>
      <trkpt lat="43.09874" lon="2.03741">
        <ele>313</ele>
        <time>2023-09-10T12:10:19Z</time>
      </trkpt>
      <trkpt lat="43.09875" lon="2.03742">
        <ele>313</ele>
        <time>2023-09-10T12:10:20Z</time>
      </trkpt>
      <trkpt lat="43.09876" lon="2.03742">
        <ele>312</ele>
        <time>2023-09-10T12:10:21Z</time>
      </trkpt>
      <trkpt lat="43.09876" lon="2.03743">
        <ele>312</ele>
        <time>2023-09-10T12:10:22Z</time>
      </trkpt>
      <trkpt lat="43.09877" lon="2.03744">
        <ele>312</ele>
        <time>2023-09-10T12:10:23Z</time>
      </trkpt>
      <trkpt lat="43.09878" lon="2.03744">
        <ele>312</ele>
        <time>2023-09-10T12:10:24Z</time>
      </trkpt>
      <trkpt lat="43.09878" lon="2.03745">
        <ele>312</ele>
        <time>2023-09-10T12:10:25Z</time>
      </trkpt>
      <trkpt lat="43.09879" lon="2.03746">
        <ele>312</ele>
        <time>2023-09-10T12:10:26Z</time>
      </trkpt>
      <trkpt lat="43.0988" lon="2.03746">
        <ele>312</ele>
        <time>2023-09-10T12:10:27Z</time>
      </trkpt>
      <trkpt lat="43.09881" lon="2.03747">
        <ele>312</ele>
        <time>2023-09-10T12:10:28Z</time>
      </trkpt>
      <trkpt lat="43.09881" lon="2.03747">
        <ele>312</ele>
        <time>2023-09-10T12:10:29Z</time>
      </trkpt>
      <trkpt lat="43.09882" lon="2.03747">
        <ele>312</ele>
        <time>2023-09-10T12:10:30Z</time>
      </trkpt>
      <trkpt lat="43.09883" lon="2.03748">
        <ele>311</ele>
        <time>2023-09-10T12:10:31Z</time>
      </trkpt>
      <trkpt lat="43.09884" lon="2.03748">
        <ele>311</ele>
        <time>2023-09-10T12:10:32Z</time>
      </trkpt>
      <trkpt lat="43.09884" lon="2.03749">
        <ele>311</ele>
        <time>2023-09-10T12:10:33Z</time>
      </trkpt>
      <trkpt lat="43.09885" lon="2.0375">
        <ele>311</ele>
        <time>2023-09-10T12:10:34Z</time>
      </trkpt>
      <trkpt lat="43.09886" lon="2.03751">
        <ele>311</ele>
        <time>2023-09-10T12:10:35Z</time>
      </trkpt>
      <trkpt lat="43.09887" lon="2.03751">
        <ele>311</ele>
        <time>2023-09-10T12:10:36Z</time>
      </trkpt>
      <trkpt lat="43.09887" lon="2.03752">
        <ele>311</ele>
        <time>2023-09-10T12:10:37Z</time>
      </trkpt>
      <trkpt lat="43.09888" lon="2.03753">
        <ele>311</ele>
        <time>2023-09-10T12:10:38Z</time>
      </trkpt>
      <trkpt lat="43.09889" lon="2.03754">
        <ele>311</ele>
        <time>2023-09-10T12:10:39Z</time>
      </trkpt>
      <trkpt lat="43.09889" lon="2.03755">
        <ele>311</ele>
        <time>2023-09-10T12:10:40Z</time>
      </trkpt>
      <trkpt lat="43.0989" lon="2.03756">
        <ele>310</ele>
        <time>2023-09-10T12:10:41Z</time>
      </trkpt>
      <trkpt lat="43.09891" lon="2.03757">
        <ele>310</ele>
        <time>2023-09-10T12:10:42Z</time>
      </trkpt>
      <trkpt lat="43.09891" lon="2.03758">
        <ele>310</ele>
        <time>2023-09-10T12:10:43Z</time>
      </trkpt>
      <trkpt lat="43.09892" lon="2.03759">
        <ele>310</ele>
        <time>2023-09-10T12:10:44Z</time>
      </trkpt>
      <trkpt lat="43.09892" lon="2.03759">
        <ele>310</ele>
        <time>2023-09-10T12:10:45Z</time>
      </trkpt>
      <trkpt lat="43.09893" lon="2.0376">
        <ele>310</ele>
        <time>2023-09-10T12:10:46Z</time>
      </trkpt>
      <trkpt lat="43.09894" lon="2.03761">
        <ele>310</ele>
        <time>2023-09-10T12:10:47Z</time>
      </trkpt>
      <trkpt lat="43.09895" lon="2.03761">
        <ele>310</ele>
        <time>2023-09-10T12:10:48Z</time>
      </trkpt>
      <trkpt lat="43.09895" lon="2.03762">
        <ele>310</ele>
        <time>2023-09-10T12:10:49Z</time>
      </trkpt>
      <trkpt lat="43.09896" lon="2.03763">
        <ele>310</ele>
        <time>2023-09-10T12:10:50Z</time>
      </trkpt>
      <trkpt lat="43.09897" lon="2.03763">
        <ele>309</ele>
        <time>2023-09-10T12:10:51Z</time>
      </trkpt>
      <trkpt lat="43.09897" lon="2.03764">
        <ele>309</ele>
        <time>2023-09-10T12:10:52Z</time>
      </trkpt>
      <trkpt lat="43.09898" lon="2.03764">
        <ele>309</ele>
        <time>2023-09-10T12:10:53Z</time>
      </trkpt>
      <trkpt lat="43.09899" lon="2.03765">
        <ele>309</ele>
        <time>2023-09-10T12:10:54Z</time>
      </trkpt>
      <trkpt lat="43.09899" lon="2.03766">
        <ele>309</ele>
        <time>2023-09-10T12:10:55Z</time>
      </trkpt>
      <trkpt lat="43.099" lon="2.03767">
        <ele>309</ele>
        <time>2023-09-10T12:10:56Z</time>
      </trkpt>
      <trkpt lat="43.099" lon="2.03768">
        <ele>309</ele>
        <time>2023-09-10T12:10:57Z</time>
      </trkpt>
      <trkpt lat="43.09901" lon="2.03769">
        <ele>309</ele>
        <time>2023-09-10T12:10:58Z</time>
      </trkpt>
      <trkpt lat="43.09902" lon="2.0377">
        <ele>309</ele>
        <time>2023-09-10T12:10:59Z</time>
      </trkpt>
      <trkpt lat="43.09902" lon="2.03771">
        <ele>309</ele>
        <time>2023-09-10T12:11:00Z</time>
      </trkpt>
      <trkpt lat="43.09903" lon="2.03772">
        <ele>308</ele>
        <time>2023-09-10T12:11:01Z</time>
      </trkpt>
      <trkpt lat="43.09903" lon="2.03772">
        <ele>308</ele>
        <time>2023-09-10T12:11:02Z</time>
      </trkpt>
      <trkpt lat="43.09904" lon="2.03773">
        <ele>308</ele>
        <time>2023-09-10T12:11:03Z</time>
      </trkpt>
      <trkpt lat="43.09905" lon="2.03774">
        <ele>308</ele>
        <time>2023-09-10T12:11:04Z</time>
      </trkpt>
      <trkpt lat="43.09906" lon="2.03775">
        <ele>308</ele>
        <time>2023-09-10T12:11:05Z</time>
      </trkpt>
      <trkpt lat="43.09906" lon="2.03776">
        <ele>307</ele>
        <time>2023-09-10T12:11:06Z</time>
      </trkpt>
      <trkpt lat="43.09907" lon="2.03777">
        <ele>307</ele>
        <time>2023-09-10T12:11:07Z</time>
      </trkpt>
      <trkpt lat="43.09908" lon="2.03778">
        <ele>307</ele>
        <time>2023-09-10T12:11:08Z</time>
      </trkpt>
      <trkpt lat="43.09909" lon="2.03779">
        <ele>307</ele>
        <time>2023-09-10T12:11:09Z</time>
      </trkpt>
      <trkpt lat="43.09909" lon="2.0378">
        <ele>307</ele>
        <time>2023-09-10T12:11:10Z</time>
      </trkpt>
      <trkpt lat="43.0991" lon="2.03781">
        <ele>307</ele>
        <time>2023-09-10T12:11:11Z</time>
      </trkpt>
      <trkpt lat="43.09911" lon="2.03782">
        <ele>307</ele>
        <time>2023-09-10T12:11:12Z</time>
      </trkpt>
      <trkpt lat="43.09912" lon="2.03783">
        <ele>307</ele>
        <time>2023-09-10T12:11:13Z</time>
      </trkpt>
      <trkpt lat="43.09913" lon="2.03784">
        <ele>307</ele>
        <time>2023-09-10T12:11:14Z</time>
      </trkpt>
      <trkpt lat="43.09913" lon="2.03785">
        <ele>307</ele>
        <time>2023-09-10T12:11:15Z</time>
      </trkpt>
      <trkpt lat="43.09914" lon="2.03786">
        <ele>307</ele>
        <time>2023-09-10T12:11:16Z</time>
      </trkpt>
      <trkpt lat="43.09915" lon="2.03787">
        <ele>307</ele>
        <time>2023-09-10T12:11:17Z</time>
      </trkpt>
      <trkpt lat="43.09916" lon="2.03787">
        <ele>307</ele>
        <time>2023-09-10T12:11:18Z</time>
      </trkpt>
      <trkpt lat="43.09917" lon="2.03788">
        <ele>307</ele>
        <time>2023-09-10T12:11:19Z</time>
      </trkpt>
      <trkpt lat="43.09918" lon="2.03789">
        <ele>307</ele>
        <time>2023-09-10T12:11:20Z</time>
      </trkpt>
      <trkpt lat="43.09919" lon="2.03789">
        <ele>306</ele>
        <time>2023-09-10T12:11:21Z</time>
      </trkpt>
      <trkpt lat="43.0992" lon="2.0379">
        <ele>306</ele>
        <time>2023-09-10T12:11:22Z</time>
      </trkpt>
      <trkpt lat="43.09921" lon="2.03791">
        <ele>306</ele>
        <time>2023-09-10T12:11:23Z</time>
      </trkpt>
      <trkpt lat="43.09922" lon="2.03792">
        <ele>306</ele>
        <time>2023-09-10T12:11:24Z</time>
      </trkpt>
      <trkpt lat="43.09923" lon="2.03793">
        <ele>306</ele>
        <time>2023-09-10T12:11:25Z</time>
      </trkpt>
      <trkpt lat="43.09923" lon="2.03794">
        <ele>306</ele>
        <time>2023-09-10T12:11:26Z</time>
      </trkpt>
      <trkpt lat="43.09924" lon="2.03795">
        <ele>306</ele>
        <time>2023-09-10T12:11:27Z</time>
      </trkpt>
      <trkpt lat="43.09925" lon="2.03796">
        <ele>306</ele>
        <time>2023-09-10T12:11:28Z</time>
      </trkpt>
      <trkpt lat="43.09926" lon="2.03797">
        <ele>306</ele>
        <time>2023-09-10T12:11:29Z</time>
      </trkpt>
      <trkpt lat="43.09927" lon="2.03798">
        <ele>306</ele>
        <time>2023-09-10T12:11:30Z</time>
      </trkpt>
      <trkpt lat="43.09928" lon="2.03799">
        <ele>306</ele>
        <time>2023-09-10T12:11:31Z</time>
      </trkpt>
      <trkpt lat="43.09929" lon="2.038">
        <ele>306</ele>
        <time>2023-09-10T12:11:32Z</time>
      </trkpt>
      <trkpt lat="43.0993" lon="2.03802">
        <ele>306</ele>
        <time>2023-09-10T12:11:33Z</time>
      </trkpt>
      <trkpt lat="43.0993" lon="2.03803">
        <ele>306</ele>
        <time>2023-09-10T12:11:34Z</time>
      </trkpt>
      <trkpt lat="43.09931" lon="2.03804">
        <ele>306</ele>
        <time>2023-09-10T12:11:35Z</time>
      </trkpt>
      <trkpt lat="43.09931" lon="2.03805">
        <ele>306</ele>
        <time>2023-09-10T12:11:36Z</time>
      </trkpt>
      <trkpt lat="43.09932" lon="2.03806">
        <ele>306</ele>
        <time>2023-09-10T12:11:37Z</time>
      </trkpt>
      <trkpt lat="43.09932" lon="2.03807">
        <ele>306</ele>
        <time>2023-09-10T12:11:38Z</time>
      </trkpt>
      <trkpt lat="43.09933" lon="2.03808">
        <ele>306</ele>
        <time>2023-09-10T12:11:39Z</time>
      </trkpt>
      <trkpt lat="43.09933" lon="2.03809">
        <ele>306</ele>
        <time>2023-09-10T12:11:40Z</time>
      </trkpt>
      <trkpt lat="43.09933" lon="2.0381">
        <ele>306</ele>
        <time>2023-09-10T12:11:41Z</time>
      </trkpt>
      <trkpt lat="43.09934" lon="2.03811">
        <ele>306</ele>
        <time>2023-09-10T12:11:42Z</time>
      </trkpt>
      <trkpt lat="43.09934" lon="2.03812">
        <ele>306</ele>
        <time>2023-09-10T12:11:43Z</time>
      </trkpt>
      <trkpt lat="43.09935" lon="2.03813">
        <ele>306</ele>
        <time>2023-09-10T12:11:44Z</time>
      </trkpt>
      <trkpt lat="43.09935" lon="2.03814">
        <ele>306</ele>
        <time>2023-09-10T12:11:45Z</time>
      </trkpt>
      <trkpt lat="43.09936" lon="2.03814">
        <ele>306</ele>
        <time>2023-09-10T12:11:46Z</time>
      </trkpt>
      <trkpt lat="43.09936" lon="2.03815">
        <ele>306</ele>
        <time>2023-09-10T12:11:47Z</time>
      </trkpt>
      <trkpt lat="43.09937" lon="2.03816">
        <ele>306</ele>
        <time>2023-09-10T12:11:48Z</time>
      </trkpt>
      <trkpt lat="43.09938" lon="2.03817">
        <ele>306</ele>
        <time>2023-09-10T12:11:49Z</time>
      </trkpt>
      <trkpt lat="43.09938" lon="2.03818">
        <ele>307</ele>
        <time>2023-09-10T12:11:50Z</time>
      </trkpt>
      <trkpt lat="43.09939" lon="2.03819">
        <ele>307</ele>
        <time>2023-09-10T12:11:51Z</time>
      </trkpt>
      <trkpt lat="43.0994" lon="2.0382">
        <ele>307</ele>
        <time>2023-09-10T12:11:52Z</time>
      </trkpt>
      <trkpt lat="43.0994" lon="2.03821">
        <ele>307</ele>
        <time>2023-09-10T12:11:53Z</time>
      </trkpt>
      <trkpt lat="43.09941" lon="2.03821">
        <ele>307</ele>
        <time>2023-09-10T12:11:54Z</time>
      </trkpt>
      <trkpt lat="43.09941" lon="2.03822">
        <ele>307</ele>
        <time>2023-09-10T12:11:55Z</time>
      </trkpt>
      <trkpt lat="43.09942" lon="2.03823">
        <ele>307</ele>
        <time>2023-09-10T12:11:56Z</time>
      </trkpt>
      <trkpt lat="43.09942" lon="2.03824">
        <ele>307</ele>
        <time>2023-09-10T12:11:57Z</time>
      </trkpt>
      <trkpt lat="43.09942" lon="2.03825">
        <ele>307</ele>
        <time>2023-09-10T12:11:58Z</time>
      </trkpt>
      <trkpt lat="43.09943" lon="2.03826">
        <ele>307</ele>
        <time>2023-09-10T12:11:59Z</time>
      </trkpt>
      <trkpt lat="43.09943" lon="2.03828">
        <ele>308</ele>
        <time>2023-09-10T12:12:00Z</time>
      </trkpt>
      <trkpt lat="43.09944" lon="2.03829">
        <ele>308</ele>
        <time>2023-09-10T12:12:01Z</time>
      </trkpt>
      <trkpt lat="43.09944" lon="2.0383">
        <ele>308</ele>
        <time>2023-09-10T12:12:02Z</time>
      </trkpt>
      <trkpt lat="43.09945" lon="2.03831">
        <ele>308</ele>
        <time>2023-09-10T12:12:03Z</time>
      </trkpt>
      <trkpt lat="43.09945" lon="2.03832">
        <ele>308</ele>
        <time>2023-09-10T12:12:04Z</time>
      </trkpt>
      <trkpt lat="43.09946" lon="2.03833">
        <ele>308</ele>
        <time>2023-09-10T12:12:05Z</time>
      </trkpt>
      <trkpt lat="43.09946" lon="2.03834">
        <ele>308</ele>
        <time>2023-09-10T12:12:06Z</time>
      </trkpt>
      <trkpt lat="43.09946" lon="2.03835">
        <ele>308</ele>
        <time>2023-09-10T12:12:07Z</time>
      </trkpt>
      <trkpt lat="43.09947" lon="2.03836">
        <ele>308</ele>
        <time>2023-09-10T12:12:08Z</time>
      </trkpt>
      <trkpt lat="43.09947" lon="2.03837">
        <ele>308</ele>
        <time>2023-09-10T12:12:09Z</time>
      </trkpt>
      <trkpt lat="43.09947" lon="2.03838">
        <ele>309</ele>
        <time>2023-09-10T12:12:10Z</time>
      </trkpt>
      <trkpt lat="43.09948" lon="2.03839">
        <ele>309</ele>
        <time>2023-09-10T12:12:11Z</time>
      </trkpt>
      <trkpt lat="43.09948" lon="2.03841">
        <ele>309</ele>
        <time>2023-09-10T12:12:12Z</time>
      </trkpt>
      <trkpt lat="43.09948" lon="2.03842">
        <ele>309</ele>
        <time>2023-09-10T12:12:13Z</time>
      </trkpt>
      <trkpt lat="43.09948" lon="2.03843">
        <ele>309</ele>
        <time>2023-09-10T12:12:14Z</time>
      </trkpt>
      <trkpt lat="43.09949" lon="2.03844">
        <ele>310</ele>
        <time>2023-09-10T12:12:15Z</time>
      </trkpt>
      <trkpt lat="43.09949" lon="2.03845">
        <ele>310</ele>
        <time>2023-09-10T12:12:16Z</time>
      </trkpt>
      <trkpt lat="43.09949" lon="2.03846">
        <ele>310</ele>
        <time>2023-09-10T12:12:17Z</time>
      </trkpt>
      <trkpt lat="43.0995" lon="2.03847">
        <ele>310</ele>
        <time>2023-09-10T12:12:18Z</time>
      </trkpt>
      <trkpt lat="43.0995" lon="2.03848">
        <ele>310</ele>
        <time>2023-09-10T12:12:19Z</time>
      </trkpt>
      <trkpt lat="43.09951" lon="2.03849">
        <ele>310</ele>
        <time>2023-09-10T12:12:20Z</time>
      </trkpt>
      <trkpt lat="43.09951" lon="2.0385">
        <ele>310</ele>
        <time>2023-09-10T12:12:21Z</time>
      </trkpt>
      <trkpt lat="43.09952" lon="2.03851">
        <ele>310</ele>
        <time>2023-09-10T12:12:22Z</time>
      </trkpt>
      <trkpt lat="43.09952" lon="2.03852">
        <ele>310</ele>
        <time>2023-09-10T12:12:23Z</time>
      </trkpt>
      <trkpt lat="43.09953" lon="2.03853">
        <ele>310</ele>
        <time>2023-09-10T12:12:24Z</time>
      </trkpt>
      <trkpt lat="43.09953" lon="2.03854">
        <ele>311</ele>
        <time>2023-09-10T12:12:25Z</time>
      </trkpt>
      <trkpt lat="43.09954" lon="2.03855">
        <ele>311</ele>
        <time>2023-09-10T12:12:26Z</time>
      </trkpt>
      <trkpt lat="43.09954" lon="2.03856">
        <ele>311</ele>
        <time>2023-09-10T12:12:27Z</time>
      </trkpt>
      <trkpt lat="43.09955" lon="2.03857">
        <ele>311</ele>
        <time>2023-09-10T12:12:28Z</time>
      </trkpt>
      <trkpt lat="43.09955" lon="2.03859">
        <ele>311</ele>
        <time>2023-09-10T12:12:29Z</time>
      </trkpt>
      <trkpt lat="43.09956" lon="2.0386">
        <ele>311</ele>
        <time>2023-09-10T12:12:30Z</time>
      </trkpt>
      <trkpt lat="43.09957" lon="2.03861">
        <ele>311</ele>
        <time>2023-09-10T12:12:31Z</time>
      </trkpt>
      <trkpt lat="43.09957" lon="2.03862">
        <ele>311</ele>
        <time>2023-09-10T12:12:32Z</time>
      </trkpt>
      <trkpt lat="43.09958" lon="2.03863">
        <ele>311</ele>
        <time>2023-09-10T12:12:33Z</time>
      </trkpt>
      <trkpt lat="43.09959" lon="2.03865">
        <ele>311</ele>
        <time>2023-09-10T12:12:34Z</time>
      </trkpt>
      <trkpt lat="43.09959" lon="2.03866">
        <ele>311</ele>
        <time>2023-09-10T12:12:35Z</time>
      </trkpt>
      <trkpt lat="43.0996" lon="2.03867">
        <ele>311</ele>
        <time>2023-09-10T12:12:36Z</time>
      </trkpt>
      <trkpt lat="43.09961" lon="2.03868">
        <ele>311</ele>
        <time>2023-09-10T12:12:37Z</time>
      </trkpt>
      <trkpt lat="43.09961" lon="2.03869">
        <ele>311</ele>
        <time>2023-09-10T12:12:38Z</time>
      </trkpt>
      <trkpt lat="43.09962" lon="2.03871">
        <ele>311</ele>
        <time>2023-09-10T12:12:39Z</time>
      </trkpt>
      <trkpt lat="43.09962" lon="2.03872">
        <ele>312</ele>
        <time>2023-09-10T12:12:40Z</time>
      </trkpt>
      <trkpt lat="43.09963" lon="2.03873">
        <ele>312</ele>
        <time>2023-09-10T12:12:41Z</time>
      </trkpt>
      <trkpt lat="43.09963" lon="2.03874">
        <ele>312</ele>
        <time>2023-09-10T12:12:42Z</time>
      </trkpt>
      <trkpt lat="43.09964" lon="2.03875">
        <ele>312</ele>
        <time>2023-09-10T12:12:43Z</time>
      </trkpt>
      <trkpt lat="43.09964" lon="2.03876">
        <ele>312</ele>
        <time>2023-09-10T12:12:44Z</time>
      </trkpt>
      <trkpt lat="43.09965" lon="2.03877">
        <ele>312</ele>
        <time>2023-09-10T12:12:45Z</time>
      </trkpt>
      <trkpt lat="43.09966" lon="2.03878">
        <ele>312</ele>
        <time>2023-09-10T12:12:46Z</time>
      </trkpt>
      <trkpt lat="43.09966" lon="2.03879">
        <ele>312</ele>
        <time>2023-09-10T12:12:47Z</time>
      </trkpt>
      <trkpt lat="43.09967" lon="2.0388">
        <ele>312</ele>
        <time>2023-09-10T12:12:48Z</time>
      </trkpt>
      <trkpt lat="43.09968" lon="2.03881">
        <ele>312</ele>
        <time>2023-09-10T12:12:49Z</time>
      </trkpt>
      <trkpt lat="43.09969" lon="2.03882">
        <ele>313</ele>
        <time>2023-09-10T12:12:50Z</time>
      </trkpt>
      <trkpt lat="43.0997" lon="2.03883">
        <ele>313</ele>
        <time>2023-09-10T12:12:51Z</time>
      </trkpt>
      <trkpt lat="43.0997" lon="2.03884">
        <ele>313</ele>
        <time>2023-09-10T12:12:52Z</time>
      </trkpt>
      <trkpt lat="43.09971" lon="2.03885">
        <ele>313</ele>
        <time>2023-09-10T12:12:53Z</time>
      </trkpt>
      <trkpt lat="43.09972" lon="2.03885">
        <ele>313</ele>
        <time>2023-09-10T12:12:54Z</time>
      </trkpt>
      <trkpt lat="43.09973" lon="2.03886">
        <ele>313</ele>
        <time>2023-09-10T12:12:55Z</time>
      </trkpt>
      <trkpt lat="43.09973" lon="2.03887">
        <ele>313</ele>
        <time>2023-09-10T12:12:56Z</time>
      </trkpt>
      <trkpt lat="43.09974" lon="2.03887">
        <ele>313</ele>
        <time>2023-09-10T12:12:57Z</time>
      </trkpt>
      <trkpt lat="43.09975" lon="2.03888">
        <ele>313</ele>
        <time>2023-09-10T12:12:58Z</time>
      </trkpt>
      <trkpt lat="43.09976" lon="2.03889">
        <ele>313</ele>
        <time>2023-09-10T12:12:59Z</time>
      </trkpt>
      <trkpt lat="43.09977" lon="2.0389">
        <ele>314</ele>
        <time>2023-09-10T12:13:00Z</time>
      </trkpt>
      <trkpt lat="43.09978" lon="2.03891">
        <ele>314</ele>
        <time>2023-09-10T12:13:01Z</time>
      </trkpt>
      <trkpt lat="43.09978" lon="2.03892">
        <ele>314</ele>
        <time>2023-09-10T12:13:02Z</time>
      </trkpt>
      <trkpt lat="43.09979" lon="2.03893">
        <ele>314</ele>
        <time>2023-09-10T12:13:03Z</time>
      </trkpt>
      <trkpt lat="43.0998" lon="2.03893">
        <ele>314</ele>
        <time>2023-09-10T12:13:04Z</time>
      </trkpt>
      <trkpt lat="43.09981" lon="2.03894">
        <ele>314</ele>
        <time>2023-09-10T12:13:05Z</time>
      </trkpt>
      <trkpt lat="43.09982" lon="2.03895">
        <ele>314</ele>
        <time>2023-09-10T12:13:06Z</time>
      </trkpt>
      <trkpt lat="43.09983" lon="2.03896">
        <ele>314</ele>
        <time>2023-09-10T12:13:07Z</time>
      </trkpt>
      <trkpt lat="43.09984" lon="2.03898">
        <ele>314</ele>
        <time>2023-09-10T12:13:08Z</time>
      </trkpt>
      <trkpt lat="43.09984" lon="2.03899">
        <ele>314</ele>
        <time>2023-09-10T12:13:09Z</time>
      </trkpt>
      <trkpt lat="43.09985" lon="2.039">
        <ele>314</ele>
        <time>2023-09-10T12:13:10Z</time>
      </trkpt>
      <trkpt lat="43.09986" lon="2.03901">
        <ele>314</ele>
        <time>2023-09-10T12:13:11Z</time>
      </trkpt>
      <trkpt lat="43.09987" lon="2.03902">
        <ele>314</ele>
        <time>2023-09-10T12:13:12Z</time>
      </trkpt>
      <trkpt lat="43.09988" lon="2.03903">
        <ele>314</ele>
        <time>2023-09-10T12:13:13Z</time>
      </trkpt>
      <trkpt lat="43.09989" lon="2.03904">
        <ele>314</ele>
        <time>2023-09-10T12:13:14Z</time>
      </trkpt>
      <trkpt lat="43.09989" lon="2.03905">
        <ele>314</ele>
        <time>2023-09-10T12:13:15Z</time>
      </trkpt>
      <trkpt lat="43.0999" lon="2.03905">
        <ele>314</ele>
        <time>2023-09-10T12:13:16Z</time>
      </trkpt>
      <trkpt lat="43.0999" lon="2.03906">
        <ele>314</ele>
        <time>2023-09-10T12:13:17Z</time>
      </trkpt>
      <trkpt lat="43.09991" lon="2.03907">
        <ele>314</ele>
        <time>2023-09-10T12:13:18Z</time>
      </trkpt>
      <trkpt lat="43.09991" lon="2.03907">
        <ele>314</ele>
        <time>2023-09-10T12:13:19Z</time>
      </trkpt>
      <trkpt lat="43.09991" lon="2.03907">
        <ele>315</ele>
        <time>2023-09-10T12:13:20Z</time>
      </trkpt>
      <trkpt lat="43.09991" lon="2.03908">
        <ele>315</ele>
        <time>2023-09-10T12:13:21Z</time>
      </trkpt>
      <trkpt lat="43.09992" lon="2.03909">
        <ele>315</ele>
        <time>2023-09-10T12:13:22Z</time>
      </trkpt>
      <trkpt lat="43.09992" lon="2.03909">
        <ele>315</ele>
        <time>2023-09-10T12:13:23Z</time>
      </trkpt>
      <trkpt lat="43.09993" lon="2.0391">
        <ele>315</ele>
        <time>2023-09-10T12:13:24Z</time>
      </trkpt>
      <trkpt lat="43.09993" lon="2.03911">
        <ele>315</ele>
        <time>2023-09-10T12:13:25Z</time>
      </trkpt>
      <trkpt lat="43.09993" lon="2.03912">
        <ele>315</ele>
        <time>2023-09-10T12:13:26Z</time>
      </trkpt>
      <trkpt lat="43.09994" lon="2.03913">
        <ele>315</ele>
        <time>2023-09-10T12:13:27Z</time>
      </trkpt>
      <trkpt lat="43.09994" lon="2.03914">
        <ele>315</ele>
        <time>2023-09-10T12:13:28Z</time>
      </trkpt>
      <trkpt lat="43.09994" lon="2.03915">
        <ele>315</ele>
        <time>2023-09-10T12:13:29Z</time>
      </trkpt>
      <trkpt lat="43.09995" lon="2.03916">
        <ele>315</ele>
        <time>2023-09-10T12:13:30Z</time>
      </trkpt>
      <trkpt lat="43.09995" lon="2.03918">
        <ele>315</ele>
        <time>2023-09-10T12:13:31Z</time>
      </trkpt>
      <trkpt lat="43.09996" lon="2.03919">
        <ele>315</ele>
        <time>2023-09-10T12:13:32Z</time>
      </trkpt>
      <trkpt lat="43.09996" lon="2.0392">
        <ele>315</ele>
        <time>2023-09-10T12:13:33Z</time>
      </trkpt>
      <trkpt lat="43.09997" lon="2.03921">
        <ele>315</ele>
        <time>2023-09-10T12:13:34Z</time>
      </trkpt>
      <trkpt lat="43.09997" lon="2.03923">
        <ele>315</ele>
        <time>2023-09-10T12:13:35Z</time>
      </trkpt>
      <trkpt lat="43.09998" lon="2.03924">
        <ele>315</ele>
        <time>2023-09-10T12:13:36Z</time>
      </trkpt>
      <trkpt lat="43.09999" lon="2.03925">
        <ele>315</ele>
        <time>2023-09-10T12:13:37Z</time>
      </trkpt>
      <trkpt lat="43.1" lon="2.03926">
        <ele>315</ele>
        <time>2023-09-10T12:13:38Z</time>
      </trkpt>
      <trkpt lat="43.10001" lon="2.03927">
        <ele>315</ele>
        <time>2023-09-10T12:13:39Z</time>
      </trkpt>
      <trkpt lat="43.10002" lon="2.03928">
        <ele>315</ele>
        <time>2023-09-10T12:13:40Z</time>
      </trkpt>
      <trkpt lat="43.10003" lon="2.0393">
        <ele>315</ele>
        <time>2023-09-10T12:13:41Z</time>
      </trkpt>
      <trkpt lat="43.10004" lon="2.03931">
        <ele>315</ele>
        <time>2023-09-10T12:13:42Z</time>
      </trkpt>
      <trkpt lat="43.10004" lon="2.03932">
        <ele>315</ele>
        <time>2023-09-10T12:13:43Z</time>
      </trkpt>
      <trkpt lat="43.10005" lon="2.03933">
        <ele>315</ele>
        <time>2023-09-10T12:13:44Z</time>
      </trkpt>
      <trkpt lat="43.10006" lon="2.03935">
        <ele>315</ele>
        <time>2023-09-10T12:13:45Z</time>
      </trkpt>
      <trkpt lat="43.10007" lon="2.03936">
        <ele>314</ele>
        <time>2023-09-10T12:13:46Z</time>
      </trkpt>
      <trkpt lat="43.10008" lon="2.03936">
        <ele>314</ele>
        <time>2023-09-10T12:13:47Z</time>
      </trkpt>
      <trkpt lat="43.10009" lon="2.03938">
        <ele>314</ele>
        <time>2023-09-10T12:13:48Z</time>
      </trkpt>
      <trkpt lat="43.1001" lon="2.03939">
        <ele>314</ele>
        <time>2023-09-10T12:13:49Z</time>
      </trkpt>
      <trkpt lat="43.10011" lon="2.0394">
        <ele>314</ele>
        <time>2023-09-10T12:13:50Z</time>
      </trkpt>
      <trkpt lat="43.10011" lon="2.03941">
        <ele>314</ele>
        <time>2023-09-10T12:13:51Z</time>
      </trkpt>
      <trkpt lat="43.10012" lon="2.03943">
        <ele>314</ele>
        <time>2023-09-10T12:13:52Z</time>
      </trkpt>
      <trkpt lat="43.10012" lon="2.03944">
        <ele>314</ele>
        <time>2023-09-10T12:13:53Z</time>
      </trkpt>
      <trkpt lat="43.10012" lon="2.03945">
        <ele>314</ele>
        <time>2023-09-10T12:13:54Z</time>
      </trkpt>
      <trkpt lat="43.10013" lon="2.03946">
        <ele>314</ele>
        <time>2023-09-10T12:13:55Z</time>
      </trkpt>
      <trkpt lat="43.10014" lon="2.03948">
        <ele>314</ele>
        <time>2023-09-10T12:13:56Z</time>
      </trkpt>
      <trkpt lat="43.10015" lon="2.03949">
        <ele>314</ele>
        <time>2023-09-10T12:13:57Z</time>
      </trkpt>
      <trkpt lat="43.10015" lon="2.0395">
        <ele>314</ele>
        <time>2023-09-10T12:13:58Z</time>
      </trkpt>
      <trkpt lat="43.10016" lon="2.03951">
        <ele>314</ele>
        <time>2023-09-10T12:13:59Z</time>
      </trkpt>
      <trkpt lat="43.10016" lon="2.03952">
        <ele>314</ele>
        <time>2023-09-10T12:14:00Z</time>
      </trkpt>
      <trkpt lat="43.10016" lon="2.03954">
        <ele>314</ele>
        <time>2023-09-10T12:14:01Z</time>
      </trkpt>
      <trkpt lat="43.10017" lon="2.03955">
        <ele>314</ele>
        <time>2023-09-10T12:14:02Z</time>
      </trkpt>
      <trkpt lat="43.10017" lon="2.03956">
        <ele>314</ele>
        <time>2023-09-10T12:14:03Z</time>
      </trkpt>
      <trkpt lat="43.10018" lon="2.03957">
        <ele>314</ele>
        <time>2023-09-10T12:14:04Z</time>
      </trkpt>
      <trkpt lat="43.10018" lon="2.03958">
        <ele>314</ele>
        <time>2023-09-10T12:14:05Z</time>
      </trkpt>
      <trkpt lat="43.10019" lon="2.0396">
        <ele>313</ele>
        <time>2023-09-10T12:14:06Z</time>
      </trkpt>
      <trkpt lat="43.10019" lon="2.03961">
        <ele>313</ele>
        <time>2023-09-10T12:14:07Z</time>
      </trkpt>
      <trkpt lat="43.1002" lon="2.03962">
        <ele>313</ele>
        <time>2023-09-10T12:14:08Z</time>
      </trkpt>
      <trkpt lat="43.1002" lon="2.03963">
        <ele>313</ele>
        <time>2023-09-10T12:14:09Z</time>
      </trkpt>
      <trkpt lat="43.10021" lon="2.03965">
        <ele>313</ele>
        <time>2023-09-10T12:14:10Z</time>
      </trkpt>
      <trkpt lat="43.10022" lon="2.03966">
        <ele>313</ele>
        <time>2023-09-10T12:14:11Z</time>
      </trkpt>
      <trkpt lat="43.10023" lon="2.03967">
        <ele>313</ele>
        <time>2023-09-10T12:14:12Z</time>
      </trkpt>
      <trkpt lat="43.10023" lon="2.03969">
        <ele>313</ele>
        <time>2023-09-10T12:14:13Z</time>
      </trkpt>
      <trkpt lat="43.10024" lon="2.0397">
        <ele>313</ele>
        <time>2023-09-10T12:14:14Z</time>
      </trkpt>
      <trkpt lat="43.10024" lon="2.03971">
        <ele>313</ele>
        <time>2023-09-10T12:14:15Z</time>
      </trkpt>
      <trkpt lat="43.10025" lon="2.03972">
        <ele>313</ele>
        <time>2023-09-10T12:14:16Z</time>
      </trkpt>
      <trkpt lat="43.10025" lon="2.03973">
        <ele>313</ele>
        <time>2023-09-10T12:14:17Z</time>
      </trkpt>
      <trkpt lat="43.10026" lon="2.03974">
        <ele>313</ele>
        <time>2023-09-10T12:14:18Z</time>
      </trkpt>
      <trkpt lat="43.10026" lon="2.03975">
        <ele>313</ele>
        <time>2023-09-10T12:14:19Z</time>
      </trkpt>
      <trkpt lat="43.10027" lon="2.03976">
        <ele>313</ele>
        <time>2023-09-10T12:14:20Z</time>
      </trkpt>
      <trkpt lat="43.10027" lon="2.03978">
        <ele>313</ele>
        <time>2023-09-10T12:14:21Z</time>
      </trkpt>
      <trkpt lat="43.10027" lon="2.03979">
        <ele>313</ele>
        <time>2023-09-10T12:14:22Z</time>
      </trkpt>
      <trkpt lat="43.10028" lon="2.03981">
        <ele>313</ele>
        <time>2023-09-10T12:14:23Z</time>
      </trkpt>
      <trkpt lat="43.10028" lon="2.03982">
        <ele>313</ele>
        <time>2023-09-10T12:14:24Z</time>
      </trkpt>
      <trkpt lat="43.10029" lon="2.03983">
        <ele>313</ele>
        <time>2023-09-10T12:14:25Z</time>
      </trkpt>
      <trkpt lat="43.10029" lon="2.03985">
        <ele>312</ele>
        <time>2023-09-10T12:14:26Z</time>
      </trkpt>
      <trkpt lat="43.1003" lon="2.03986">
        <ele>312</ele>
        <time>2023-09-10T12:14:27Z</time>
      </trkpt>
      <trkpt lat="43.10031" lon="2.03987">
        <ele>312</ele>
        <time>2023-09-10T12:14:28Z</time>
      </trkpt>
      <trkpt lat="43.10031" lon="2.03989">
        <ele>312</ele>
        <time>2023-09-10T12:14:29Z</time>
      </trkpt>
      <trkpt lat="43.10032" lon="2.0399">
        <ele>312</ele>
        <time>2023-09-10T12:14:30Z</time>
      </trkpt>
      <trkpt lat="43.10032" lon="2.03991">
        <ele>312</ele>
        <time>2023-09-10T12:14:31Z</time>
      </trkpt>
      <trkpt lat="43.10033" lon="2.03992">
        <ele>312</ele>
        <time>2023-09-10T12:14:32Z</time>
      </trkpt>
      <trkpt lat="43.10033" lon="2.03993">
        <ele>312</ele>
        <time>2023-09-10T12:14:33Z</time>
      </trkpt>
      <trkpt lat="43.10034" lon="2.03994">
        <ele>312</ele>
        <time>2023-09-10T12:14:34Z</time>
      </trkpt>
      <trkpt lat="43.10035" lon="2.03996">
        <ele>312</ele>
        <time>2023-09-10T12:14:35Z</time>
      </trkpt>
      <trkpt lat="43.10035" lon="2.03997">
        <ele>311</ele>
        <time>2023-09-10T12:14:36Z</time>
      </trkpt>
      <trkpt lat="43.10036" lon="2.03998">
        <ele>311</ele>
        <time>2023-09-10T12:14:37Z</time>
      </trkpt>
      <trkpt lat="43.10036" lon="2.03999">
        <ele>311</ele>
        <time>2023-09-10T12:14:38Z</time>
      </trkpt>
      <trkpt lat="43.10037" lon="2.04">
        <ele>311</ele>
        <time>2023-09-10T12:14:39Z</time>
      </trkpt>
      <trkpt lat="43.10038" lon="2.04001">
        <ele>311</ele>
        <time>2023-09-10T12:14:40Z</time>
      </trkpt>
      <trkpt lat="43.10038" lon="2.04002">
        <ele>311</ele>
        <time>2023-09-10T12:14:41Z</time>
      </trkpt>
      <trkpt lat="43.10039" lon="2.04004">
        <ele>311</ele>
        <time>2023-09-10T12:14:42Z</time>
      </trkpt>
      <trkpt lat="43.1004" lon="2.04005">
        <ele>311</ele>
        <time>2023-09-10T12:14:43Z</time>
      </trkpt>
      <trkpt lat="43.10041" lon="2.04006">
        <ele>311</ele>
        <time>2023-09-10T12:14:44Z</time>
      </trkpt>
      <trkpt lat="43.10042" lon="2.04007">
        <ele>311</ele>
        <time>2023-09-10T12:14:45Z</time>
      </trkpt>
      <trkpt lat="43.10042" lon="2.04008">
        <ele>311</ele>
        <time>2023-09-10T12:14:46Z</time>
      </trkpt>
      <trkpt lat="43.10043" lon="2.04009">
        <ele>311</ele>
        <time>2023-09-10T12:14:47Z</time>
      </trkpt>
      <trkpt lat="43.10044" lon="2.04011">
        <ele>311</ele>
        <time>2023-09-10T12:14:48Z</time>
      </trkpt>
      <trkpt lat="43.10045" lon="2.04012">
        <ele>311</ele>
        <time>2023-09-10T12:14:49Z</time>
      </trkpt>
      <trkpt lat="43.10045" lon="2.04013">
        <ele>311</ele>
        <time>2023-09-10T12:14:50Z</time>
      </trkpt>
      <trkpt lat="43.10046" lon="2.04014">
        <ele>311</ele>
        <time>2023-09-10T12:14:51Z</time>
      </trkpt>
      <trkpt lat="43.10047" lon="2.04015">
        <ele>311</ele>
        <time>2023-09-10T12:14:52Z</time>
      </trkpt>
      <trkpt lat="43.10047" lon="2.04016">
        <ele>311</ele>
        <time>2023-09-10T12:14:53Z</time>
      </trkpt>
      <trkpt lat="43.10048" lon="2.04017">
        <ele>311</ele>
        <time>2023-09-10T12:14:54Z</time>
      </trkpt>
      <trkpt lat="43.10049" lon="2.04018">
        <ele>311</ele>
        <time>2023-09-10T12:14:55Z</time>
      </trkpt>
      <trkpt lat="43.1005" lon="2.0402">
        <ele>311</ele>
        <time>2023-09-10T12:14:56Z</time>
      </trkpt>
      <trkpt lat="43.1005" lon="2.04021">
        <ele>311</ele>
        <time>2023-09-10T12:14:57Z</time>
      </trkpt>
      <trkpt lat="43.10051" lon="2.04022">
        <ele>311</ele>
        <time>2023-09-10T12:14:58Z</time>
      </trkpt>
      <trkpt lat="43.10052" lon="2.04023">
        <ele>311</ele>
        <time>2023-09-10T12:14:59Z</time>
      </trkpt>
      <trkpt lat="43.10053" lon="2.04024">
        <ele>311</ele>
        <time>2023-09-10T12:15:00Z</time>
      </trkpt>
      <trkpt lat="43.10053" lon="2.04026">
        <ele>311</ele>
        <time>2023-09-10T12:15:01Z</time>
      </trkpt>
      <trkpt lat="43.10054" lon="2.04027">
        <ele>311</ele>
        <time>2023-09-10T12:15:02Z</time>
      </trkpt>
      <trkpt lat="43.10055" lon="2.04028">
        <ele>311</ele>
        <time>2023-09-10T12:15:03Z</time>
      </trkpt>
      <trkpt lat="43.10056" lon="2.04029">
        <ele>311</ele>
        <time>2023-09-10T12:15:04Z</time>
      </trkpt>
      <trkpt lat="43.10057" lon="2.0403">
        <ele>311</ele>
        <time>2023-09-10T12:15:05Z</time>
      </trkpt>
      <trkpt lat="43.10059" lon="2.04031">
        <ele>310</ele>
        <time>2023-09-10T12:15:06Z</time>
      </trkpt>
      <trkpt lat="43.1006" lon="2.04032">
        <ele>310</ele>
        <time>2023-09-10T12:15:07Z</time>
      </trkpt>
      <trkpt lat="43.10061" lon="2.04033">
        <ele>310</ele>
        <time>2023-09-10T12:15:08Z</time>
      </trkpt>
      <trkpt lat="43.10062" lon="2.04033">
        <ele>310</ele>
        <time>2023-09-10T12:15:09Z</time>
      </trkpt>
      <trkpt lat="43.10063" lon="2.04034">
        <ele>310</ele>
        <time>2023-09-10T12:15:10Z</time>
      </trkpt>
      <trkpt lat="43.10064" lon="2.04035">
        <ele>310</ele>
        <time>2023-09-10T12:15:11Z</time>
      </trkpt>
      <trkpt lat="43.10065" lon="2.04036">
        <ele>310</ele>
        <time>2023-09-10T12:15:12Z</time>
      </trkpt>
      <trkpt lat="43.10066" lon="2.04036">
        <ele>310</ele>
        <time>2023-09-10T12:15:13Z</time>
      </trkpt>
      <trkpt lat="43.10067" lon="2.04037">
        <ele>310</ele>
        <time>2023-09-10T12:15:14Z</time>
      </trkpt>
      <trkpt lat="43.10068" lon="2.04038">
        <ele>310</ele>
        <time>2023-09-10T12:15:15Z</time>
      </trkpt>
      <trkpt lat="43.10069" lon="2.04039">
        <ele>310</ele>
        <time>2023-09-10T12:15:16Z</time>
      </trkpt>
      <trkpt lat="43.10069" lon="2.0404">
        <ele>310</ele>
        <time>2023-09-10T12:15:17Z</time>
      </trkpt>
      <trkpt lat="43.1007" lon="2.04041">
        <ele>310</ele>
        <time>2023-09-10T12:15:18Z</time>
      </trkpt>
      <trkpt lat="43.10071" lon="2.04042">
        <ele>310</ele>
        <time>2023-09-10T12:15:19Z</time>
      </trkpt>
      <trkpt lat="43.10072" lon="2.04043">
        <ele>310</ele>
        <time>2023-09-10T12:15:20Z</time>
      </trkpt>
      <trkpt lat="43.10073" lon="2.04045">
        <ele>310</ele>
        <time>2023-09-10T12:15:21Z</time>
      </trkpt>
      <trkpt lat="43.10073" lon="2.04046">
        <ele>310</ele>
        <time>2023-09-10T12:15:22Z</time>
      </trkpt>
      <trkpt lat="43.10074" lon="2.04047">
        <ele>310</ele>
        <time>2023-09-10T12:15:23Z</time>
      </trkpt>
      <trkpt lat="43.10074" lon="2.04048">
        <ele>310</ele>
        <time>2023-09-10T12:15:24Z</time>
      </trkpt>
      <trkpt lat="43.10075" lon="2.04049">
        <ele>310</ele>
        <time>2023-09-10T12:15:25Z</time>
      </trkpt>
      <trkpt lat="43.10076" lon="2.0405">
        <ele>310</ele>
        <time>2023-09-10T12:15:26Z</time>
      </trkpt>
      <trkpt lat="43.10076" lon="2.04051">
        <ele>310</ele>
        <time>2023-09-10T12:15:27Z</time>
      </trkpt>
      <trkpt lat="43.10077" lon="2.04052">
        <ele>310</ele>
        <time>2023-09-10T12:15:28Z</time>
      </trkpt>
      <trkpt lat="43.10078" lon="2.04053">
        <ele>310</ele>
        <time>2023-09-10T12:15:29Z</time>
      </trkpt>
      <trkpt lat="43.10078" lon="2.04054">
        <ele>310</ele>
        <time>2023-09-10T12:15:30Z</time>
      </trkpt>
      <trkpt lat="43.10079" lon="2.04055">
        <ele>310</ele>
        <time>2023-09-10T12:15:31Z</time>
      </trkpt>
      <trkpt lat="43.10079" lon="2.04057">
        <ele>310</ele>
        <time>2023-09-10T12:15:32Z</time>
      </trkpt>
      <trkpt lat="43.1008" lon="2.04058">
        <ele>310</ele>
        <time>2023-09-10T12:15:33Z</time>
      </trkpt>
      <trkpt lat="43.10081" lon="2.0406">
        <ele>310</ele>
        <time>2023-09-10T12:15:34Z</time>
      </trkpt>
      <trkpt lat="43.10082" lon="2.04062">
        <ele>311</ele>
        <time>2023-09-10T12:15:35Z</time>
      </trkpt>
      <trkpt lat="43.10083" lon="2.04063">
        <ele>311</ele>
        <time>2023-09-10T12:15:36Z</time>
      </trkpt>
      <trkpt lat="43.10083" lon="2.04065">
        <ele>311</ele>
        <time>2023-09-10T12:15:37Z</time>
      </trkpt>
      <trkpt lat="43.10084" lon="2.04065">
        <ele>311</ele>
        <time>2023-09-10T12:15:38Z</time>
      </trkpt>
      <trkpt lat="43.10085" lon="2.04066">
        <ele>311</ele>
        <time>2023-09-10T12:15:39Z</time>
      </trkpt>
      <trkpt lat="43.10085" lon="2.04067">
        <ele>311</ele>
        <time>2023-09-10T12:15:40Z</time>
      </trkpt>
      <trkpt lat="43.10086" lon="2.04067">
        <ele>311</ele>
        <time>2023-09-10T12:15:41Z</time>
      </trkpt>
      <trkpt lat="43.10087" lon="2.04068">
        <ele>311</ele>
        <time>2023-09-10T12:15:42Z</time>
      </trkpt>
      <trkpt lat="43.10087" lon="2.04069">
        <ele>311</ele>
        <time>2023-09-10T12:15:43Z</time>
      </trkpt>
      <trkpt lat="43.10088" lon="2.04069">
        <ele>311</ele>
        <time>2023-09-10T12:15:44Z</time>
      </trkpt>
      <trkpt lat="43.10089" lon="2.0407">
        <ele>312</ele>
        <time>2023-09-10T12:15:45Z</time>
      </trkpt>
      <trkpt lat="43.1009" lon="2.04071">
        <ele>312</ele>
        <time>2023-09-10T12:15:46Z</time>
      </trkpt>
      <trkpt lat="43.10091" lon="2.04071">
        <ele>312</ele>
        <time>2023-09-10T12:15:47Z</time>
      </trkpt>
      <trkpt lat="43.10092" lon="2.04072">
        <ele>312</ele>
        <time>2023-09-10T12:15:48Z</time>
      </trkpt>
      <trkpt lat="43.10093" lon="2.04073">
        <ele>312</ele>
        <time>2023-09-10T12:15:49Z</time>
      </trkpt>
      <trkpt lat="43.10093" lon="2.04074">
        <ele>312</ele>
        <time>2023-09-10T12:15:50Z</time>
      </trkpt>
      <trkpt lat="43.10094" lon="2.04075">
        <ele>312</ele>
        <time>2023-09-10T12:15:51Z</time>
      </trkpt>
      <trkpt lat="43.10094" lon="2.04076">
        <ele>312</ele>
        <time>2023-09-10T12:15:52Z</time>
      </trkpt>
      <trkpt lat="43.10095" lon="2.04077">
        <ele>312</ele>
        <time>2023-09-10T12:15:53Z</time>
      </trkpt>
      <trkpt lat="43.10095" lon="2.04078">
        <ele>312</ele>
        <time>2023-09-10T12:15:54Z</time>
      </trkpt>
      <trkpt lat="43.10096" lon="2.04079">
        <ele>312</ele>
        <time>2023-09-10T12:15:55Z</time>
      </trkpt>
      <trkpt lat="43.10096" lon="2.0408">
        <ele>312</ele>
        <time>2023-09-10T12:15:56Z</time>
      </trkpt>
      <trkpt lat="43.10097" lon="2.04081">
        <ele>312</ele>
        <time>2023-09-10T12:15:57Z</time>
      </trkpt>
      <trkpt lat="43.10097" lon="2.04082">
        <ele>312</ele>
        <time>2023-09-10T12:15:58Z</time>
      </trkpt>
      <trkpt lat="43.10098" lon="2.04084">
        <ele>312</ele>
        <time>2023-09-10T12:15:59Z</time>
      </trkpt>
      <trkpt lat="43.10099" lon="2.04085">
        <ele>312</ele>
        <time>2023-09-10T12:16:00Z</time>
      </trkpt>
      <trkpt lat="43.10099" lon="2.04086">
        <ele>312</ele>
        <time>2023-09-10T12:16:01Z</time>
      </trkpt>
      <trkpt lat="43.101" lon="2.04087">
        <ele>312</ele>
        <time>2023-09-10T12:16:02Z</time>
      </trkpt>
      <trkpt lat="43.10101" lon="2.04088">
        <ele>312</ele>
        <time>2023-09-10T12:16:03Z</time>
      </trkpt>
      <trkpt lat="43.10102" lon="2.04089">
        <ele>312</ele>
        <time>2023-09-10T12:16:04Z</time>
      </trkpt>
      <trkpt lat="43.10102" lon="2.0409">
        <ele>312</ele>
        <time>2023-09-10T12:16:05Z</time>
      </trkpt>
      <trkpt lat="43.10103" lon="2.04091">
        <ele>312</ele>
        <time>2023-09-10T12:16:06Z</time>
      </trkpt>
      <trkpt lat="43.10104" lon="2.04092">
        <ele>312</ele>
        <time>2023-09-10T12:16:07Z</time>
      </trkpt>
      <trkpt lat="43.10105" lon="2.04093">
        <ele>312</ele>
        <time>2023-09-10T12:16:08Z</time>
      </trkpt>
      <trkpt lat="43.10106" lon="2.04093">
        <ele>312</ele>
        <time>2023-09-10T12:16:09Z</time>
      </trkpt>
      <trkpt lat="43.10107" lon="2.04094">
        <ele>312</ele>
        <time>2023-09-10T12:16:10Z</time>
      </trkpt>
      <trkpt lat="43.10108" lon="2.04095">
        <ele>312</ele>
        <time>2023-09-10T12:16:11Z</time>
      </trkpt>
      <trkpt lat="43.1011" lon="2.04097">
        <ele>312</ele>
        <time>2023-09-10T12:16:12Z</time>
      </trkpt>
      <trkpt lat="43.10111" lon="2.04098">
        <ele>312</ele>
        <time>2023-09-10T12:16:13Z</time>
      </trkpt>
      <trkpt lat="43.10112" lon="2.04099">
        <ele>312</ele>
        <time>2023-09-10T12:16:14Z</time>
      </trkpt>
      <trkpt lat="43.10113" lon="2.041">
        <ele>312</ele>
        <time>2023-09-10T12:16:15Z</time>
      </trkpt>
      <trkpt lat="43.10114" lon="2.04101">
        <ele>312</ele>
        <time>2023-09-10T12:16:16Z</time>
      </trkpt>
      <trkpt lat="43.10115" lon="2.04101">
        <ele>312</ele>
        <time>2023-09-10T12:16:17Z</time>
      </trkpt>
      <trkpt lat="43.10116" lon="2.04102">
        <ele>312</ele>
        <time>2023-09-10T12:16:18Z</time>
      </trkpt>
      <trkpt lat="43.10116" lon="2.04103">
        <ele>312</ele>
        <time>2023-09-10T12:16:19Z</time>
      </trkpt>
      <trkpt lat="43.10117" lon="2.04103">
        <ele>312</ele>
        <time>2023-09-10T12:16:20Z</time>
      </trkpt>
      <trkpt lat="43.10118" lon="2.04104">
        <ele>312</ele>
        <time>2023-09-10T12:16:21Z</time>
      </trkpt>
      <trkpt lat="43.10118" lon="2.04105">
        <ele>312</ele>
        <time>2023-09-10T12:16:22Z</time>
      </trkpt>
      <trkpt lat="43.10119" lon="2.04106">
        <ele>312</ele>
        <time>2023-09-10T12:16:23Z</time>
      </trkpt>
      <trkpt lat="43.10119" lon="2.04107">
        <ele>312</ele>
        <time>2023-09-10T12:16:24Z</time>
      </trkpt>
      <trkpt lat="43.10119" lon="2.04108">
        <ele>313</ele>
        <time>2023-09-10T12:16:25Z</time>
      </trkpt>
      <trkpt lat="43.1012" lon="2.04109">
        <ele>313</ele>
        <time>2023-09-10T12:16:26Z</time>
      </trkpt>
      <trkpt lat="43.10121" lon="2.0411">
        <ele>313</ele>
        <time>2023-09-10T12:16:27Z</time>
      </trkpt>
      <trkpt lat="43.10121" lon="2.04111">
        <ele>313</ele>
        <time>2023-09-10T12:16:28Z</time>
      </trkpt>
      <trkpt lat="43.10122" lon="2.04112">
        <ele>313</ele>
        <time>2023-09-10T12:16:29Z</time>
      </trkpt>
      <trkpt lat="43.10123" lon="2.04113">
        <ele>313</ele>
        <time>2023-09-10T12:16:30Z</time>
      </trkpt>
      <trkpt lat="43.10123" lon="2.04115">
        <ele>313</ele>
        <time>2023-09-10T12:16:31Z</time>
      </trkpt>
      <trkpt lat="43.10124" lon="2.04116">
        <ele>313</ele>
        <time>2023-09-10T12:16:32Z</time>
      </trkpt>
      <trkpt lat="43.10124" lon="2.04117">
        <ele>313</ele>
        <time>2023-09-10T12:16:33Z</time>
      </trkpt>
      <trkpt lat="43.10125" lon="2.04118">
        <ele>313</ele>
        <time>2023-09-10T12:16:34Z</time>
      </trkpt>
      <trkpt lat="43.10125" lon="2.04119">
        <ele>313</ele>
        <time>2023-09-10T12:16:35Z</time>
      </trkpt>
      <trkpt lat="43.10125" lon="2.04121">
        <ele>313</ele>
        <time>2023-09-10T12:16:36Z</time>
      </trkpt>
      <trkpt lat="43.10126" lon="2.04122">
        <ele>313</ele>
        <time>2023-09-10T12:16:37Z</time>
      </trkpt>
      <trkpt lat="43.10126" lon="2.04123">
        <ele>313</ele>
        <time>2023-09-10T12:16:38Z</time>
      </trkpt>
      <trkpt lat="43.10126" lon="2.04125">
        <ele>313</ele>
        <time>2023-09-10T12:16:39Z</time>
      </trkpt>
      <trkpt lat="43.10127" lon="2.04126">
        <ele>313</ele>
        <time>2023-09-10T12:16:40Z</time>
      </trkpt>
      <trkpt lat="43.10127" lon="2.04127">
        <ele>313</ele>
        <time>2023-09-10T12:16:41Z</time>
      </trkpt>
      <trkpt lat="43.10128" lon="2.04128">
        <ele>313</ele>
        <time>2023-09-10T12:16:42Z</time>
      </trkpt>
      <trkpt lat="43.10129" lon="2.04129">
        <ele>313</ele>
        <time>2023-09-10T12:16:43Z</time>
      </trkpt>
      <trkpt lat="43.1013" lon="2.04131">
        <ele>313</ele>
        <time>2023-09-10T12:16:44Z</time>
      </trkpt>
      <trkpt lat="43.1013" lon="2.04132">
        <ele>313</ele>
        <time>2023-09-10T12:16:45Z</time>
      </trkpt>
      <trkpt lat="43.10131" lon="2.04133">
        <ele>313</ele>
        <time>2023-09-10T12:16:46Z</time>
      </trkpt>
      <trkpt lat="43.10132" lon="2.04134">
        <ele>313</ele>
        <time>2023-09-10T12:16:47Z</time>
      </trkpt>
      <trkpt lat="43.10132" lon="2.04135">
        <ele>313</ele>
        <time>2023-09-10T12:16:48Z</time>
      </trkpt>
      <trkpt lat="43.10133" lon="2.04136">
        <ele>313</ele>
        <time>2023-09-10T12:16:49Z</time>
      </trkpt>
      <trkpt lat="43.10133" lon="2.04137">
        <ele>313</ele>
        <time>2023-09-10T12:16:50Z</time>
      </trkpt>
      <trkpt lat="43.10134" lon="2.04139">
        <ele>312</ele>
        <time>2023-09-10T12:16:51Z</time>
      </trkpt>
      <trkpt lat="43.10134" lon="2.0414">
        <ele>312</ele>
        <time>2023-09-10T12:16:52Z</time>
      </trkpt>
      <trkpt lat="43.10134" lon="2.04141">
        <ele>312</ele>
        <time>2023-09-10T12:16:53Z</time>
      </trkpt>
      <trkpt lat="43.10135" lon="2.04142">
        <ele>312</ele>
        <time>2023-09-10T12:16:54Z</time>
      </trkpt>
      <trkpt lat="43.10135" lon="2.04144">
        <ele>312</ele>
        <time>2023-09-10T12:16:55Z</time>
      </trkpt>
      <trkpt lat="43.10136" lon="2.04145">
        <ele>312</ele>
        <time>2023-09-10T12:16:56Z</time>
      </trkpt>
      <trkpt lat="43.10136" lon="2.04146">
        <ele>312</ele>
        <time>2023-09-10T12:16:57Z</time>
      </trkpt>
      <trkpt lat="43.10137" lon="2.04147">
        <ele>312</ele>
        <time>2023-09-10T12:16:58Z</time>
      </trkpt>
      <trkpt lat="43.10137" lon="2.04149">
        <ele>312</ele>
        <time>2023-09-10T12:16:59Z</time>
      </trkpt>
      <trkpt lat="43.10138" lon="2.0415">
        <ele>312</ele>
        <time>2023-09-10T12:17:00Z</time>
      </trkpt>
      <trkpt lat="43.10138" lon="2.04151">
        <ele>311</ele>
        <time>2023-09-10T12:17:01Z</time>
      </trkpt>
      <trkpt lat="43.10139" lon="2.04152">
        <ele>311</ele>
        <time>2023-09-10T12:17:02Z</time>
      </trkpt>
      <trkpt lat="43.1014" lon="2.04153">
        <ele>311</ele>
        <time>2023-09-10T12:17:03Z</time>
      </trkpt>
      <trkpt lat="43.10141" lon="2.04154">
        <ele>311</ele>
        <time>2023-09-10T12:17:04Z</time>
      </trkpt>
      <trkpt lat="43.10142" lon="2.04155">
        <ele>311</ele>
        <time>2023-09-10T12:17:05Z</time>
      </trkpt>
      <trkpt lat="43.10143" lon="2.04155">
        <ele>311</ele>
        <time>2023-09-10T12:17:06Z</time>
      </trkpt>
      <trkpt lat="43.10144" lon="2.04155">
        <ele>311</ele>
        <time>2023-09-10T12:17:07Z</time>
      </trkpt>
      <trkpt lat="43.10144" lon="2.04155">
        <ele>311</ele>
        <time>2023-09-10T12:17:08Z</time>
      </trkpt>
      <trkpt lat="43.10145" lon="2.04155">
        <ele>311</ele>
        <time>2023-09-10T12:17:09Z</time>
      </trkpt>
      <trkpt lat="43.10146" lon="2.04155">
        <ele>311</ele>
        <time>2023-09-10T12:17:10Z</time>
      </trkpt>
      <trkpt lat="43.10147" lon="2.04155">
        <ele>311</ele>
        <time>2023-09-10T12:17:11Z</time>
      </trkpt>
      <trkpt lat="43.10148" lon="2.04155">
        <ele>311</ele>
        <time>2023-09-10T12:17:12Z</time>
      </trkpt>
      <trkpt lat="43.10149" lon="2.04155">
        <ele>311</ele>
        <time>2023-09-10T12:17:13Z</time>
      </trkpt>
      <trkpt lat="43.1015" lon="2.04154">
        <ele>311</ele>
        <time>2023-09-10T12:17:14Z</time>
      </trkpt>
      <trkpt lat="43.10151" lon="2.04154">
        <ele>311</ele>
        <time>2023-09-10T12:17:15Z</time>
      </trkpt>
      <trkpt lat="43.10152" lon="2.04153">
        <ele>311</ele>
        <time>2023-09-10T12:17:16Z</time>
      </trkpt>
      <trkpt lat="43.10153" lon="2.04153">
        <ele>311</ele>
        <time>2023-09-10T12:17:17Z</time>
      </trkpt>
      <trkpt lat="43.10153" lon="2.04152">
        <ele>311</ele>
        <time>2023-09-10T12:17:18Z</time>
      </trkpt>
      <trkpt lat="43.10154" lon="2.04151">
        <ele>311</ele>
        <time>2023-09-10T12:17:19Z</time>
      </trkpt>
      <trkpt lat="43.10155" lon="2.04151">
        <ele>311</ele>
        <time>2023-09-10T12:17:20Z</time>
      </trkpt>
      <trkpt lat="43.10155" lon="2.0415">
        <ele>311</ele>
        <time>2023-09-10T12:17:21Z</time>
      </trkpt>
      <trkpt lat="43.10156" lon="2.0415">
        <ele>311</ele>
        <time>2023-09-10T12:17:22Z</time>
      </trkpt>
      <trkpt lat="43.10156" lon="2.04149">
        <ele>311</ele>
        <time>2023-09-10T12:17:23Z</time>
      </trkpt>
      <trkpt lat="43.10157" lon="2.04148">
        <ele>311</ele>
        <time>2023-09-10T12:17:24Z</time>
      </trkpt>
      <trkpt lat="43.10157" lon="2.04148">
        <ele>311</ele>
        <time>2023-09-10T12:17:25Z</time>
      </trkpt>
      <trkpt lat="43.10158" lon="2.04148">
        <ele>311</ele>
        <time>2023-09-10T12:17:26Z</time>
      </trkpt>
      <trkpt lat="43.10158" lon="2.04148">
        <ele>311</ele>
        <time>2023-09-10T12:17:27Z</time>
      </trkpt>
      <trkpt lat="43.10158" lon="2.04148">
        <ele>311</ele>
        <time>2023-09-10T12:17:28Z</time>
      </trkpt>
      <trkpt lat="43.10158" lon="2.04148">
        <ele>311</ele>
        <time>2023-09-10T12:17:29Z</time>
      </trkpt>
      <trkpt lat="43.10159" lon="2.04148">
        <ele>312</ele>
        <time>2023-09-10T12:17:30Z</time>
      </trkpt>
      <trkpt lat="43.10159" lon="2.04148">
        <ele>312</ele>
        <time>2023-09-10T12:17:31Z</time>
      </trkpt>
      <trkpt lat="43.1016" lon="2.04148">
        <ele>312</ele>
        <time>2023-09-10T12:17:32Z</time>
      </trkpt>
      <trkpt lat="43.1016" lon="2.04147">
        <ele>312</ele>
        <time>2023-09-10T12:17:33Z</time>
      </trkpt>
      <trkpt lat="43.10161" lon="2.04147">
        <ele>312</ele>
        <time>2023-09-10T12:17:34Z</time>
      </trkpt>
      <trkpt lat="43.10161" lon="2.04146">
        <ele>312</ele>
        <time>2023-09-10T12:17:35Z</time>
      </trkpt>
      <trkpt lat="43.10162" lon="2.04146">
        <ele>312</ele>
        <time>2023-09-10T12:17:36Z</time>
      </trkpt>
      <trkpt lat="43.10162" lon="2.04145">
        <ele>312</ele>
        <time>2023-09-10T12:17:37Z</time>
      </trkpt>
      <trkpt lat="43.10163" lon="2.04145">
        <ele>312</ele>
        <time>2023-09-10T12:17:38Z</time>
      </trkpt>
      <trkpt lat="43.10163" lon="2.04144">
        <ele>312</ele>
        <time>2023-09-10T12:17:39Z</time>
      </trkpt>
      <trkpt lat="43.10163" lon="2.04144">
        <ele>313</ele>
        <time>2023-09-10T12:17:40Z</time>
      </trkpt>
      <trkpt lat="43.10164" lon="2.04143">
        <ele>313</ele>
        <time>2023-09-10T12:17:41Z</time>
      </trkpt>
      <trkpt lat="43.10165" lon="2.04143">
        <ele>313</ele>
        <time>2023-09-10T12:17:42Z</time>
      </trkpt>
      <trkpt lat="43.10165" lon="2.04142">
        <ele>313</ele>
        <time>2023-09-10T12:17:43Z</time>
      </trkpt>
      <trkpt lat="43.10166" lon="2.04142">
        <ele>313</ele>
        <time>2023-09-10T12:17:44Z</time>
      </trkpt>
      <trkpt lat="43.10167" lon="2.04142">
        <ele>313</ele>
        <time>2023-09-10T12:17:45Z</time>
      </trkpt>
      <trkpt lat="43.10168" lon="2.04141">
        <ele>313</ele>
        <time>2023-09-10T12:17:46Z</time>
      </trkpt>
      <trkpt lat="43.10169" lon="2.04141">
        <ele>313</ele>
        <time>2023-09-10T12:17:47Z</time>
      </trkpt>
      <trkpt lat="43.1017" lon="2.0414">
        <ele>313</ele>
        <time>2023-09-10T12:17:48Z</time>
      </trkpt>
      <trkpt lat="43.10171" lon="2.0414">
        <ele>313</ele>
        <time>2023-09-10T12:17:49Z</time>
      </trkpt>
      <trkpt lat="43.10172" lon="2.04139">
        <ele>314</ele>
        <time>2023-09-10T12:17:50Z</time>
      </trkpt>
      <trkpt lat="43.10173" lon="2.04139">
        <ele>314</ele>
        <time>2023-09-10T12:17:51Z</time>
      </trkpt>
      <trkpt lat="43.10174" lon="2.04138">
        <ele>314</ele>
        <time>2023-09-10T12:17:52Z</time>
      </trkpt>
      <trkpt lat="43.10175" lon="2.04138">
        <ele>314</ele>
        <time>2023-09-10T12:17:53Z</time>
      </trkpt>
      <trkpt lat="43.10176" lon="2.04137">
        <ele>314</ele>
        <time>2023-09-10T12:17:54Z</time>
      </trkpt>
      <trkpt lat="43.10177" lon="2.04136">
        <ele>315</ele>
        <time>2023-09-10T12:17:55Z</time>
      </trkpt>
      <trkpt lat="43.10178" lon="2.04135">
        <ele>315</ele>
        <time>2023-09-10T12:17:56Z</time>
      </trkpt>
      <trkpt lat="43.1018" lon="2.04135">
        <ele>315</ele>
        <time>2023-09-10T12:17:57Z</time>
      </trkpt>
      <trkpt lat="43.10181" lon="2.04134">
        <ele>315</ele>
        <time>2023-09-10T12:17:58Z</time>
      </trkpt>
      <trkpt lat="43.10182" lon="2.04133">
        <ele>315</ele>
        <time>2023-09-10T12:17:59Z</time>
      </trkpt>
      <trkpt lat="43.10183" lon="2.04132">
        <ele>315</ele>
        <time>2023-09-10T12:18:00Z</time>
      </trkpt>
      <trkpt lat="43.10184" lon="2.04132">
        <ele>315</ele>
        <time>2023-09-10T12:18:01Z</time>
      </trkpt>
      <trkpt lat="43.10185" lon="2.04131">
        <ele>315</ele>
        <time>2023-09-10T12:18:02Z</time>
      </trkpt>
      <trkpt lat="43.10186" lon="2.0413">
        <ele>315</ele>
        <time>2023-09-10T12:18:03Z</time>
      </trkpt>
      <trkpt lat="43.10188" lon="2.04129">
        <ele>315</ele>
        <time>2023-09-10T12:18:04Z</time>
      </trkpt>
      <trkpt lat="43.10189" lon="2.04128">
        <ele>316</ele>
        <time>2023-09-10T12:18:05Z</time>
      </trkpt>
      <trkpt lat="43.1019" lon="2.04128">
        <ele>316</ele>
        <time>2023-09-10T12:18:06Z</time>
      </trkpt>
      <trkpt lat="43.10191" lon="2.04127">
        <ele>316</ele>
        <time>2023-09-10T12:18:07Z</time>
      </trkpt>
      <trkpt lat="43.10192" lon="2.04126">
        <ele>316</ele>
        <time>2023-09-10T12:18:08Z</time>
      </trkpt>
      <trkpt lat="43.10193" lon="2.04125">
        <ele>316</ele>
        <time>2023-09-10T12:18:09Z</time>
      </trkpt>
      <trkpt lat="43.10193" lon="2.04125">
        <ele>316</ele>
        <time>2023-09-10T12:18:10Z</time>
      </trkpt>
      <trkpt lat="43.10194" lon="2.04124">
        <ele>316</ele>
        <time>2023-09-10T12:18:11Z</time>
      </trkpt>
      <trkpt lat="43.10195" lon="2.04123">
        <ele>316</ele>
        <time>2023-09-10T12:18:12Z</time>
      </trkpt>
      <trkpt lat="43.10196" lon="2.04123">
        <ele>316</ele>
        <time>2023-09-10T12:18:13Z</time>
      </trkpt>
      <trkpt lat="43.10197" lon="2.04122">
        <ele>316</ele>
        <time>2023-09-10T12:18:14Z</time>
      </trkpt>
      <trkpt lat="43.10198" lon="2.04121">
        <ele>317</ele>
        <time>2023-09-10T12:18:15Z</time>
      </trkpt>
      <trkpt lat="43.10198" lon="2.0412">
        <ele>317</ele>
        <time>2023-09-10T12:18:16Z</time>
      </trkpt>
      <trkpt lat="43.10199" lon="2.04119">
        <ele>317</ele>
        <time>2023-09-10T12:18:17Z</time>
      </trkpt>
      <trkpt lat="43.102" lon="2.04118">
        <ele>317</ele>
        <time>2023-09-10T12:18:18Z</time>
      </trkpt>
      <trkpt lat="43.10201" lon="2.04117">
        <ele>317</ele>
        <time>2023-09-10T12:18:19Z</time>
      </trkpt>
      <trkpt lat="43.10202" lon="2.04116">
        <ele>317</ele>
        <time>2023-09-10T12:18:20Z</time>
      </trkpt>
      <trkpt lat="43.10203" lon="2.04115">
        <ele>317</ele>
        <time>2023-09-10T12:18:21Z</time>
      </trkpt>
      <trkpt lat="43.10204" lon="2.04114">
        <ele>317</ele>
        <time>2023-09-10T12:18:22Z</time>
      </trkpt>
      <trkpt lat="43.10205" lon="2.04113">
        <ele>317</ele>
        <time>2023-09-10T12:18:23Z</time>
      </trkpt>
      <trkpt lat="43.10206" lon="2.04112">
        <ele>317</ele>
        <time>2023-09-10T12:18:24Z</time>
      </trkpt>
      <trkpt lat="43.10206" lon="2.04111">
        <ele>317</ele>
        <time>2023-09-10T12:18:25Z</time>
      </trkpt>
      <trkpt lat="43.10207" lon="2.0411">
        <ele>317</ele>
        <time>2023-09-10T12:18:26Z</time>
      </trkpt>
      <trkpt lat="43.10208" lon="2.04109">
        <ele>317</ele>
        <time>2023-09-10T12:18:27Z</time>
      </trkpt>
      <trkpt lat="43.10209" lon="2.04109">
        <ele>317</ele>
        <time>2023-09-10T12:18:28Z</time>
      </trkpt>
      <trkpt lat="43.1021" lon="2.04108">
        <ele>317</ele>
        <time>2023-09-10T12:18:29Z</time>
      </trkpt>
      <trkpt lat="43.10211" lon="2.04107">
        <ele>318</ele>
        <time>2023-09-10T12:18:30Z</time>
      </trkpt>
      <trkpt lat="43.10212" lon="2.04107">
        <ele>318</ele>
        <time>2023-09-10T12:18:31Z</time>
      </trkpt>
      <trkpt lat="43.10213" lon="2.04106">
        <ele>318</ele>
        <time>2023-09-10T12:18:32Z</time>
      </trkpt>
      <trkpt lat="43.10213" lon="2.04105">
        <ele>318</ele>
        <time>2023-09-10T12:18:33Z</time>
      </trkpt>
      <trkpt lat="43.10214" lon="2.04104">
        <ele>318</ele>
        <time>2023-09-10T12:18:34Z</time>
      </trkpt>
      <trkpt lat="43.10215" lon="2.04104">
        <ele>318</ele>
        <time>2023-09-10T12:18:35Z</time>
      </trkpt>
      <trkpt lat="43.10216" lon="2.04103">
        <ele>318</ele>
        <time>2023-09-10T12:18:36Z</time>
      </trkpt>
      <trkpt lat="43.10217" lon="2.04102">
        <ele>318</ele>
        <time>2023-09-10T12:18:37Z</time>
      </trkpt>
      <trkpt lat="43.10218" lon="2.04101">
        <ele>318</ele>
        <time>2023-09-10T12:18:38Z</time>
      </trkpt>
      <trkpt lat="43.10219" lon="2.041">
        <ele>318</ele>
        <time>2023-09-10T12:18:39Z</time>
      </trkpt>
      <trkpt lat="43.1022" lon="2.04099">
        <ele>318</ele>
        <time>2023-09-10T12:18:40Z</time>
      </trkpt>
      <trkpt lat="43.1022" lon="2.04098">
        <ele>318</ele>
        <time>2023-09-10T12:18:41Z</time>
      </trkpt>
      <trkpt lat="43.10221" lon="2.04097">
        <ele>318</ele>
        <time>2023-09-10T12:18:42Z</time>
      </trkpt>
      <trkpt lat="43.10222" lon="2.04096">
        <ele>318</ele>
        <time>2023-09-10T12:18:43Z</time>
      </trkpt>
      <trkpt lat="43.10223" lon="2.04095">
        <ele>318</ele>
        <time>2023-09-10T12:18:44Z</time>
      </trkpt>
      <trkpt lat="43.10224" lon="2.04095">
        <ele>319</ele>
        <time>2023-09-10T12:18:45Z</time>
      </trkpt>
      <trkpt lat="43.10225" lon="2.04094">
        <ele>319</ele>
        <time>2023-09-10T12:18:46Z</time>
      </trkpt>
      <trkpt lat="43.10225" lon="2.04093">
        <ele>319</ele>
        <time>2023-09-10T12:18:47Z</time>
      </trkpt>
      <trkpt lat="43.10226" lon="2.04091">
        <ele>319</ele>
        <time>2023-09-10T12:18:48Z</time>
      </trkpt>
      <trkpt lat="43.10227" lon="2.0409">
        <ele>319</ele>
        <time>2023-09-10T12:18:49Z</time>
      </trkpt>
      <trkpt lat="43.10228" lon="2.04089">
        <ele>319</ele>
        <time>2023-09-10T12:18:50Z</time>
      </trkpt>
      <trkpt lat="43.10228" lon="2.04088">
        <ele>319</ele>
        <time>2023-09-10T12:18:51Z</time>
      </trkpt>
      <trkpt lat="43.10229" lon="2.04087">
        <ele>319</ele>
        <time>2023-09-10T12:18:52Z</time>
      </trkpt>
      <trkpt lat="43.1023" lon="2.04087">
        <ele>319</ele>
        <time>2023-09-10T12:18:53Z</time>
      </trkpt>
      <trkpt lat="43.1023" lon="2.04086">
        <ele>319</ele>
        <time>2023-09-10T12:18:54Z</time>
      </trkpt>
      <trkpt lat="43.10231" lon="2.04085">
        <ele>319</ele>
        <time>2023-09-10T12:18:55Z</time>
      </trkpt>
      <trkpt lat="43.10232" lon="2.04084">
        <ele>319</ele>
        <time>2023-09-10T12:18:56Z</time>
      </trkpt>
      <trkpt lat="43.10233" lon="2.04083">
        <ele>319</ele>
        <time>2023-09-10T12:18:57Z</time>
      </trkpt>
      <trkpt lat="43.10233" lon="2.04082">
        <ele>319</ele>
        <time>2023-09-10T12:18:58Z</time>
      </trkpt>
      <trkpt lat="43.10234" lon="2.04081">
        <ele>319</ele>
        <time>2023-09-10T12:18:59Z</time>
      </trkpt>
      <trkpt lat="43.10235" lon="2.0408">
        <ele>318</ele>
        <time>2023-09-10T12:19:13Z</time>
      </trkpt>
      <trkpt lat="43.10236" lon="2.0408">
        <ele>318</ele>
        <time>2023-09-10T12:19:14Z</time>
      </trkpt>
      <trkpt lat="43.10236" lon="2.0408">
        <ele>318</ele>
        <time>2023-09-10T12:19:15Z</time>
      </trkpt>
      <trkpt lat="43.10237" lon="2.04079">
        <ele>318</ele>
        <time>2023-09-10T12:19:16Z</time>
      </trkpt>
      <trkpt lat="43.10237" lon="2.04079">
        <ele>318</ele>
        <time>2023-09-10T12:19:17Z</time>
      </trkpt>
      <trkpt lat="43.10238" lon="2.04078">
        <ele>318</ele>
        <time>2023-09-10T12:19:18Z</time>
      </trkpt>
      <trkpt lat="43.10238" lon="2.04078">
        <ele>318</ele>
        <time>2023-09-10T12:19:19Z</time>
      </trkpt>
      <trkpt lat="43.10239" lon="2.04077">
        <ele>318</ele>
        <time>2023-09-10T12:19:20Z</time>
      </trkpt>
      <trkpt lat="43.10239" lon="2.04076">
        <ele>318</ele>
        <time>2023-09-10T12:19:21Z</time>
      </trkpt>
      <trkpt lat="43.1024" lon="2.04076">
        <ele>318</ele>
        <time>2023-09-10T12:19:22Z</time>
      </trkpt>
      <trkpt lat="43.10241" lon="2.04075">
        <ele>318</ele>
        <time>2023-09-10T12:19:23Z</time>
      </trkpt>
      <trkpt lat="43.10241" lon="2.04074">
        <ele>318</ele>
        <time>2023-09-10T12:19:24Z</time>
      </trkpt>
      <trkpt lat="43.10242" lon="2.04073">
        <ele>318</ele>
        <time>2023-09-10T12:19:25Z</time>
      </trkpt>
      <trkpt lat="43.10242" lon="2.04072">
        <ele>318</ele>
        <time>2023-09-10T12:19:26Z</time>
      </trkpt>
      <trkpt lat="43.10243" lon="2.04072">
        <ele>318</ele>
        <time>2023-09-10T12:19:27Z</time>
      </trkpt>
      <trkpt lat="43.10243" lon="2.04071">
        <ele>318</ele>
        <time>2023-09-10T12:19:28Z</time>
      </trkpt>
      <trkpt lat="43.10244" lon="2.0407">
        <ele>318</ele>
        <time>2023-09-10T12:19:29Z</time>
      </trkpt>
      <trkpt lat="43.10245" lon="2.0407">
        <ele>318</ele>
        <time>2023-09-10T12:19:30Z</time>
      </trkpt>
      <trkpt lat="43.10246" lon="2.04069">
        <ele>318</ele>
        <time>2023-09-10T12:19:31Z</time>
      </trkpt>
      <trkpt lat="43.10247" lon="2.04069">
        <ele>318</ele>
        <time>2023-09-10T12:19:32Z</time>
      </trkpt>
      <trkpt lat="43.10248" lon="2.04068">
        <ele>318</ele>
        <time>2023-09-10T12:19:33Z</time>
      </trkpt>
      <trkpt lat="43.10249" lon="2.04068">
        <ele>318</ele>
        <time>2023-09-10T12:19:34Z</time>
      </trkpt>
      <trkpt lat="43.1025" lon="2.04068">
        <ele>318</ele>
        <time>2023-09-10T12:19:35Z</time>
      </trkpt>
      <trkpt lat="43.10251" lon="2.04068">
        <ele>318</ele>
        <time>2023-09-10T12:19:36Z</time>
      </trkpt>
      <trkpt lat="43.10251" lon="2.04067">
        <ele>318</ele>
        <time>2023-09-10T12:19:37Z</time>
      </trkpt>
      <trkpt lat="43.10253" lon="2.04067">
        <ele>318</ele>
        <time>2023-09-10T12:19:38Z</time>
      </trkpt>
      <trkpt lat="43.10254" lon="2.04067">
        <ele>318</ele>
        <time>2023-09-10T12:19:39Z</time>
      </trkpt>
      <trkpt lat="43.10255" lon="2.04067">
        <ele>318</ele>
        <time>2023-09-10T12:19:40Z</time>
      </trkpt>
      <trkpt lat="43.10256" lon="2.04067">
        <ele>317</ele>
        <time>2023-09-10T12:19:41Z</time>
      </trkpt>
      <trkpt lat="43.10257" lon="2.04066">
        <ele>317</ele>
        <time>2023-09-10T12:19:42Z</time>
      </trkpt>
      <trkpt lat="43.10258" lon="2.04066">
        <ele>317</ele>
        <time>2023-09-10T12:19:43Z</time>
      </trkpt>
      <trkpt lat="43.10259" lon="2.04066">
        <ele>317</ele>
        <time>2023-09-10T12:19:44Z</time>
      </trkpt>
      <trkpt lat="43.1026" lon="2.04066">
        <ele>317</ele>
        <time>2023-09-10T12:19:45Z</time>
      </trkpt>
      <trkpt lat="43.10262" lon="2.04066">
        <ele>317</ele>
        <time>2023-09-10T12:19:55Z</time>
      </trkpt>
      <trkpt lat="43.10263" lon="2.04066">
        <ele>316</ele>
        <time>2023-09-10T12:19:56Z</time>
      </trkpt>
      <trkpt lat="43.10263" lon="2.04066">
        <ele>316</ele>
        <time>2023-09-10T12:19:57Z</time>
      </trkpt>
      <trkpt lat="43.10264" lon="2.04066">
        <ele>316</ele>
        <time>2023-09-10T12:19:58Z</time>
      </trkpt>
      <trkpt lat="43.10265" lon="2.04066">
        <ele>316</ele>
        <time>2023-09-10T12:19:59Z</time>
      </trkpt>
      <trkpt lat="43.10265" lon="2.04066">
        <ele>316</ele>
        <time>2023-09-10T12:20:00Z</time>
      </trkpt>
      <trkpt lat="43.10266" lon="2.04066">
        <ele>316</ele>
        <time>2023-09-10T12:20:01Z</time>
      </trkpt>
      <trkpt lat="43.10267" lon="2.04066">
        <ele>316</ele>
        <time>2023-09-10T12:20:02Z</time>
      </trkpt>
      <trkpt lat="43.10268" lon="2.04066">
        <ele>316</ele>
        <time>2023-09-10T12:20:03Z</time>
      </trkpt>
      <trkpt lat="43.10269" lon="2.04066">
        <ele>316</ele>
        <time>2023-09-10T12:20:04Z</time>
      </trkpt>
      <trkpt lat="43.1027" lon="2.04066">
        <ele>316</ele>
        <time>2023-09-10T12:20:05Z</time>
      </trkpt>
      <trkpt lat="43.10271" lon="2.04066">
        <ele>315</ele>
        <time>2023-09-10T12:20:06Z</time>
      </trkpt>
      <trkpt lat="43.10272" lon="2.04067">
        <ele>315</ele>
        <time>2023-09-10T12:20:07Z</time>
      </trkpt>
      <trkpt lat="43.10273" lon="2.04067">
        <ele>315</ele>
        <time>2023-09-10T12:20:08Z</time>
      </trkpt>
      <trkpt lat="43.10274" lon="2.04067">
        <ele>315</ele>
        <time>2023-09-10T12:20:09Z</time>
      </trkpt>
      <trkpt lat="43.10275" lon="2.04067">
        <ele>315</ele>
        <time>2023-09-10T12:20:10Z</time>
      </trkpt>
      <trkpt lat="43.10276" lon="2.04066">
        <ele>315</ele>
        <time>2023-09-10T12:20:11Z</time>
      </trkpt>
      <trkpt lat="43.10277" lon="2.04066">
        <ele>315</ele>
        <time>2023-09-10T12:20:12Z</time>
      </trkpt>
      <trkpt lat="43.10278" lon="2.04066">
        <ele>315</ele>
        <time>2023-09-10T12:20:13Z</time>
      </trkpt>
      <trkpt lat="43.10279" lon="2.04066">
        <ele>315</ele>
        <time>2023-09-10T12:20:14Z</time>
      </trkpt>
      <trkpt lat="43.1028" lon="2.04066">
        <ele>315</ele>
        <time>2023-09-10T12:20:15Z</time>
      </trkpt>
      <trkpt lat="43.10281" lon="2.04067">
        <ele>314</ele>
        <time>2023-09-10T12:20:16Z</time>
      </trkpt>
      <trkpt lat="43.10282" lon="2.04067">
        <ele>314</ele>
        <time>2023-09-10T12:20:17Z</time>
      </trkpt>
      <trkpt lat="43.10283" lon="2.04067">
        <ele>314</ele>
        <time>2023-09-10T12:20:18Z</time>
      </trkpt>
      <trkpt lat="43.10285" lon="2.04067">
        <ele>314</ele>
        <time>2023-09-10T12:20:19Z</time>
      </trkpt>
      <trkpt lat="43.10286" lon="2.04067">
        <ele>314</ele>
        <time>2023-09-10T12:20:20Z</time>
      </trkpt>
      <trkpt lat="43.10287" lon="2.04067">
        <ele>314</ele>
        <time>2023-09-10T12:20:21Z</time>
      </trkpt>
      <trkpt lat="43.10288" lon="2.04067">
        <ele>314</ele>
        <time>2023-09-10T12:20:22Z</time>
      </trkpt>
      <trkpt lat="43.10289" lon="2.04067">
        <ele>314</ele>
        <time>2023-09-10T12:20:23Z</time>
      </trkpt>
      <trkpt lat="43.1029" lon="2.04067">
        <ele>314</ele>
        <time>2023-09-10T12:20:24Z</time>
      </trkpt>
      <trkpt lat="43.10291" lon="2.04067">
        <ele>314</ele>
        <time>2023-09-10T12:20:25Z</time>
      </trkpt>
      <trkpt lat="43.10292" lon="2.04067">
        <ele>313</ele>
        <time>2023-09-10T12:20:26Z</time>
      </trkpt>
      <trkpt lat="43.10293" lon="2.04068">
        <ele>313</ele>
        <time>2023-09-10T12:20:27Z</time>
      </trkpt>
      <trkpt lat="43.10294" lon="2.04068">
        <ele>313</ele>
        <time>2023-09-10T12:20:28Z</time>
      </trkpt>
      <trkpt lat="43.10295" lon="2.04068">
        <ele>313</ele>
        <time>2023-09-10T12:20:29Z</time>
      </trkpt>
      <trkpt lat="43.10296" lon="2.04069">
        <ele>313</ele>
        <time>2023-09-10T12:20:30Z</time>
      </trkpt>
      <trkpt lat="43.10297" lon="2.04069">
        <ele>312</ele>
        <time>2023-09-10T12:20:31Z</time>
      </trkpt>
      <trkpt lat="43.10298" lon="2.0407">
        <ele>312</ele>
        <time>2023-09-10T12:20:32Z</time>
      </trkpt>
      <trkpt lat="43.10299" lon="2.0407">
        <ele>312</ele>
        <time>2023-09-10T12:20:33Z</time>
      </trkpt>
      <trkpt lat="43.103" lon="2.04071">
        <ele>312</ele>
        <time>2023-09-10T12:20:34Z</time>
      </trkpt>
      <trkpt lat="43.10301" lon="2.04071">
        <ele>312</ele>
        <time>2023-09-10T12:20:35Z</time>
      </trkpt>
      <trkpt lat="43.10302" lon="2.04071">
        <ele>312</ele>
        <time>2023-09-10T12:20:36Z</time>
      </trkpt>
      <trkpt lat="43.10303" lon="2.04072">
        <ele>312</ele>
        <time>2023-09-10T12:20:37Z</time>
      </trkpt>
      <trkpt lat="43.10304" lon="2.04072">
        <ele>312</ele>
        <time>2023-09-10T12:20:38Z</time>
      </trkpt>
      <trkpt lat="43.10305" lon="2.04072">
        <ele>312</ele>
        <time>2023-09-10T12:20:39Z</time>
      </trkpt>
      <trkpt lat="43.10306" lon="2.04073">
        <ele>312</ele>
        <time>2023-09-10T12:20:40Z</time>
      </trkpt>
      <trkpt lat="43.10307" lon="2.04073">
        <ele>311</ele>
        <time>2023-09-10T12:20:41Z</time>
      </trkpt>
      <trkpt lat="43.10308" lon="2.04073">
        <ele>311</ele>
        <time>2023-09-10T12:20:42Z</time>
      </trkpt>
      <trkpt lat="43.10309" lon="2.04074">
        <ele>311</ele>
        <time>2023-09-10T12:20:43Z</time>
      </trkpt>
      <trkpt lat="43.1031" lon="2.04074">
        <ele>311</ele>
        <time>2023-09-10T12:20:44Z</time>
      </trkpt>
      <trkpt lat="43.10311" lon="2.04074">
        <ele>311</ele>
        <time>2023-09-10T12:20:45Z</time>
      </trkpt>
      <trkpt lat="43.10312" lon="2.04074">
        <ele>311</ele>
        <time>2023-09-10T12:20:46Z</time>
      </trkpt>
      <trkpt lat="43.10313" lon="2.04075">
        <ele>311</ele>
        <time>2023-09-10T12:20:47Z</time>
      </trkpt>
      <trkpt lat="43.10314" lon="2.04075">
        <ele>311</ele>
        <time>2023-09-10T12:20:48Z</time>
      </trkpt>
      <trkpt lat="43.10315" lon="2.04076">
        <ele>311</ele>
        <time>2023-09-10T12:20:49Z</time>
      </trkpt>
      <trkpt lat="43.10316" lon="2.04077">
        <ele>311</ele>
        <time>2023-09-10T12:20:50Z</time>
      </trkpt>
      <trkpt lat="43.10317" lon="2.04077">
        <ele>310</ele>
        <time>2023-09-10T12:20:51Z</time>
      </trkpt>
      <trkpt lat="43.10318" lon="2.04078">
        <ele>310</ele>
        <time>2023-09-10T12:20:52Z</time>
      </trkpt>
      <trkpt lat="43.10319" lon="2.04079">
        <ele>310</ele>
        <time>2023-09-10T12:20:53Z</time>
      </trkpt>
      <trkpt lat="43.1032" lon="2.0408">
        <ele>310</ele>
        <time>2023-09-10T12:20:54Z</time>
      </trkpt>
      <trkpt lat="43.1032" lon="2.04081">
        <ele>310</ele>
        <time>2023-09-10T12:20:55Z</time>
      </trkpt>
      <trkpt lat="43.10321" lon="2.04082">
        <ele>310</ele>
        <time>2023-09-10T12:20:56Z</time>
      </trkpt>
      <trkpt lat="43.10322" lon="2.04082">
        <ele>310</ele>
        <time>2023-09-10T12:20:57Z</time>
      </trkpt>
      <trkpt lat="43.10324" lon="2.04083">
        <ele>310</ele>
        <time>2023-09-10T12:20:58Z</time>
      </trkpt>
      <trkpt lat="43.10325" lon="2.04084">
        <ele>310</ele>
        <time>2023-09-10T12:20:59Z</time>
      </trkpt>
      <trkpt lat="43.10326" lon="2.04084">
        <ele>310</ele>
        <time>2023-09-10T12:21:00Z</time>
      </trkpt>
      <trkpt lat="43.10327" lon="2.04085">
        <ele>310</ele>
        <time>2023-09-10T12:21:01Z</time>
      </trkpt>
      <trkpt lat="43.10328" lon="2.04085">
        <ele>310</ele>
        <time>2023-09-10T12:21:02Z</time>
      </trkpt>
      <trkpt lat="43.10329" lon="2.04086">
        <ele>310</ele>
        <time>2023-09-10T12:21:03Z</time>
      </trkpt>
      <trkpt lat="43.1033" lon="2.04086">
        <ele>310</ele>
        <time>2023-09-10T12:21:04Z</time>
      </trkpt>
      <trkpt lat="43.10331" lon="2.04087">
        <ele>310</ele>
        <time>2023-09-10T12:21:05Z</time>
      </trkpt>
      <trkpt lat="43.10332" lon="2.04087">
        <ele>309</ele>
        <time>2023-09-10T12:21:06Z</time>
      </trkpt>
      <trkpt lat="43.10332" lon="2.04088">
        <ele>309</ele>
        <time>2023-09-10T12:21:07Z</time>
      </trkpt>
      <trkpt lat="43.10333" lon="2.04088">
        <ele>309</ele>
        <time>2023-09-10T12:21:08Z</time>
      </trkpt>
      <trkpt lat="43.10334" lon="2.04089">
        <ele>309</ele>
        <time>2023-09-10T12:21:09Z</time>
      </trkpt>
      <trkpt lat="43.10335" lon="2.04089">
        <ele>309</ele>
        <time>2023-09-10T12:21:10Z</time>
      </trkpt>
      <trkpt lat="43.10336" lon="2.0409">
        <ele>309</ele>
        <time>2023-09-10T12:21:11Z</time>
      </trkpt>
      <trkpt lat="43.10337" lon="2.0409">
        <ele>309</ele>
        <time>2023-09-10T12:21:12Z</time>
      </trkpt>
      <trkpt lat="43.10338" lon="2.04091">
        <ele>309</ele>
        <time>2023-09-10T12:21:13Z</time>
      </trkpt>
      <trkpt lat="43.10339" lon="2.04091">
        <ele>309</ele>
        <time>2023-09-10T12:21:14Z</time>
      </trkpt>
      <trkpt lat="43.1034" lon="2.04091">
        <ele>309</ele>
        <time>2023-09-10T12:21:15Z</time>
      </trkpt>
      <trkpt lat="43.10341" lon="2.04092">
        <ele>309</ele>
        <time>2023-09-10T12:21:16Z</time>
      </trkpt>
      <trkpt lat="43.10342" lon="2.04092">
        <ele>309</ele>
        <time>2023-09-10T12:21:17Z</time>
      </trkpt>
      <trkpt lat="43.10343" lon="2.04092">
        <ele>309</ele>
        <time>2023-09-10T12:21:18Z</time>
      </trkpt>
      <trkpt lat="43.10344" lon="2.04092">
        <ele>309</ele>
        <time>2023-09-10T12:21:19Z</time>
      </trkpt>
      <trkpt lat="43.10345" lon="2.04092">
        <ele>309</ele>
        <time>2023-09-10T12:21:20Z</time>
      </trkpt>
      <trkpt lat="43.10346" lon="2.04092">
        <ele>308</ele>
        <time>2023-09-10T12:21:21Z</time>
      </trkpt>
      <trkpt lat="43.10347" lon="2.04092">
        <ele>308</ele>
        <time>2023-09-10T12:21:22Z</time>
      </trkpt>
      <trkpt lat="43.10348" lon="2.04092">
        <ele>308</ele>
        <time>2023-09-10T12:21:23Z</time>
      </trkpt>
      <trkpt lat="43.10349" lon="2.04092">
        <ele>308</ele>
        <time>2023-09-10T12:21:24Z</time>
      </trkpt>
      <trkpt lat="43.1035" lon="2.04093">
        <ele>308</ele>
        <time>2023-09-10T12:21:25Z</time>
      </trkpt>
      <trkpt lat="43.10351" lon="2.04093">
        <ele>308</ele>
        <time>2023-09-10T12:21:26Z</time>
      </trkpt>
      <trkpt lat="43.10352" lon="2.04093">
        <ele>308</ele>
        <time>2023-09-10T12:21:27Z</time>
      </trkpt>
      <trkpt lat="43.10353" lon="2.04093">
        <ele>308</ele>
        <time>2023-09-10T12:21:28Z</time>
      </trkpt>
      <trkpt lat="43.10354" lon="2.04093">
        <ele>308</ele>
        <time>2023-09-10T12:21:29Z</time>
      </trkpt>
      <trkpt lat="43.10355" lon="2.04093">
        <ele>308</ele>
        <time>2023-09-10T12:21:30Z</time>
      </trkpt>
      <trkpt lat="43.10356" lon="2.04094">
        <ele>307</ele>
        <time>2023-09-10T12:21:31Z</time>
      </trkpt>
      <trkpt lat="43.10357" lon="2.04094">
        <ele>307</ele>
        <time>2023-09-10T12:21:32Z</time>
      </trkpt>
      <trkpt lat="43.10358" lon="2.04094">
        <ele>307</ele>
        <time>2023-09-10T12:21:33Z</time>
      </trkpt>
      <trkpt lat="43.10359" lon="2.04094">
        <ele>307</ele>
        <time>2023-09-10T12:21:34Z</time>
      </trkpt>
      <trkpt lat="43.1036" lon="2.04094">
        <ele>307</ele>
        <time>2023-09-10T12:21:35Z</time>
      </trkpt>
      <trkpt lat="43.10361" lon="2.04094">
        <ele>307</ele>
        <time>2023-09-10T12:21:36Z</time>
      </trkpt>
      <trkpt lat="43.10362" lon="2.04094">
        <ele>307</ele>
        <time>2023-09-10T12:21:37Z</time>
      </trkpt>
      <trkpt lat="43.10363" lon="2.04095">
        <ele>307</ele>
        <time>2023-09-10T12:21:38Z</time>
      </trkpt>
      <trkpt lat="43.10364" lon="2.04095">
        <ele>307</ele>
        <time>2023-09-10T12:21:39Z</time>
      </trkpt>
      <trkpt lat="43.10365" lon="2.04095">
        <ele>307</ele>
        <time>2023-09-10T12:21:40Z</time>
      </trkpt>
      <trkpt lat="43.10366" lon="2.04095">
        <ele>307</ele>
        <time>2023-09-10T12:21:41Z</time>
      </trkpt>
      <trkpt lat="43.10367" lon="2.04095">
        <ele>307</ele>
        <time>2023-09-10T12:21:42Z</time>
      </trkpt>
      <trkpt lat="43.10368" lon="2.04095">
        <ele>307</ele>
        <time>2023-09-10T12:21:43Z</time>
      </trkpt>
      <trkpt lat="43.10369" lon="2.04095">
        <ele>307</ele>
        <time>2023-09-10T12:21:44Z</time>
      </trkpt>
      <trkpt lat="43.1037" lon="2.04095">
        <ele>307</ele>
        <time>2023-09-10T12:21:45Z</time>
      </trkpt>
      <trkpt lat="43.10371" lon="2.04095">
        <ele>306</ele>
        <time>2023-09-10T12:21:46Z</time>
      </trkpt>
      <trkpt lat="43.10371" lon="2.04095">
        <ele>306</ele>
        <time>2023-09-10T12:21:47Z</time>
      </trkpt>
      <trkpt lat="43.10372" lon="2.04095">
        <ele>306</ele>
        <time>2023-09-10T12:21:48Z</time>
      </trkpt>
      <trkpt lat="43.10373" lon="2.04095">
        <ele>306</ele>
        <time>2023-09-10T12:21:49Z</time>
      </trkpt>
      <trkpt lat="43.10374" lon="2.04095">
        <ele>306</ele>
        <time>2023-09-10T12:21:50Z</time>
      </trkpt>
      <trkpt lat="43.10375" lon="2.04095">
        <ele>306</ele>
        <time>2023-09-10T12:21:51Z</time>
      </trkpt>
      <trkpt lat="43.10376" lon="2.04095">
        <ele>306</ele>
        <time>2023-09-10T12:21:52Z</time>
      </trkpt>
      <trkpt lat="43.10377" lon="2.04095">
        <ele>306</ele>
        <time>2023-09-10T12:21:53Z</time>
      </trkpt>
      <trkpt lat="43.10378" lon="2.04095">
        <ele>306</ele>
        <time>2023-09-10T12:21:54Z</time>
      </trkpt>
      <trkpt lat="43.10379" lon="2.04094">
        <ele>306</ele>
        <time>2023-09-10T12:21:55Z</time>
      </trkpt>
      <trkpt lat="43.1038" lon="2.04095">
        <ele>305</ele>
        <time>2023-09-10T12:21:56Z</time>
      </trkpt>
      <trkpt lat="43.10381" lon="2.04095">
        <ele>305</ele>
        <time>2023-09-10T12:21:57Z</time>
      </trkpt>
      <trkpt lat="43.10382" lon="2.04095">
        <ele>305</ele>
        <time>2023-09-10T12:21:58Z</time>
      </trkpt>
      <trkpt lat="43.10383" lon="2.04095">
        <ele>305</ele>
        <time>2023-09-10T12:21:59Z</time>
      </trkpt>
      <trkpt lat="43.10383" lon="2.04095">
        <ele>305</ele>
        <time>2023-09-10T12:22:00Z</time>
      </trkpt>
      <trkpt lat="43.10384" lon="2.04095">
        <ele>305</ele>
        <time>2023-09-10T12:22:01Z</time>
      </trkpt>
      <trkpt lat="43.10385" lon="2.04095">
        <ele>305</ele>
        <time>2023-09-10T12:22:02Z</time>
      </trkpt>
      <trkpt lat="43.10386" lon="2.04095">
        <ele>305</ele>
        <time>2023-09-10T12:22:03Z</time>
      </trkpt>
      <trkpt lat="43.10387" lon="2.04095">
        <ele>305</ele>
        <time>2023-09-10T12:22:04Z</time>
      </trkpt>
      <trkpt lat="43.10388" lon="2.04095">
        <ele>305</ele>
        <time>2023-09-10T12:22:05Z</time>
      </trkpt>
      <trkpt lat="43.10389" lon="2.04095">
        <ele>304</ele>
        <time>2023-09-10T12:22:06Z</time>
      </trkpt>
      <trkpt lat="43.1039" lon="2.04095">
        <ele>304</ele>
        <time>2023-09-10T12:22:07Z</time>
      </trkpt>
      <trkpt lat="43.10392" lon="2.04095">
        <ele>304</ele>
        <time>2023-09-10T12:22:08Z</time>
      </trkpt>
      <trkpt lat="43.10393" lon="2.04095">
        <ele>304</ele>
        <time>2023-09-10T12:22:09Z</time>
      </trkpt>
      <trkpt lat="43.10394" lon="2.04095">
        <ele>304</ele>
        <time>2023-09-10T12:22:10Z</time>
      </trkpt>
      <trkpt lat="43.10395" lon="2.04095">
        <ele>304</ele>
        <time>2023-09-10T12:22:11Z</time>
      </trkpt>
      <trkpt lat="43.10396" lon="2.04095">
        <ele>304</ele>
        <time>2023-09-10T12:22:12Z</time>
      </trkpt>
      <trkpt lat="43.10397" lon="2.04095">
        <ele>304</ele>
        <time>2023-09-10T12:22:13Z</time>
      </trkpt>
      <trkpt lat="43.10398" lon="2.04095">
        <ele>304</ele>
        <time>2023-09-10T12:22:14Z</time>
      </trkpt>
      <trkpt lat="43.10399" lon="2.04095">
        <ele>304</ele>
        <time>2023-09-10T12:22:15Z</time>
      </trkpt>
      <trkpt lat="43.104" lon="2.04095">
        <ele>304</ele>
        <time>2023-09-10T12:22:16Z</time>
      </trkpt>
      <trkpt lat="43.10401" lon="2.04094">
        <ele>304</ele>
        <time>2023-09-10T12:22:17Z</time>
      </trkpt>
      <trkpt lat="43.10402" lon="2.04094">
        <ele>304</ele>
        <time>2023-09-10T12:22:18Z</time>
      </trkpt>
      <trkpt lat="43.10402" lon="2.04094">
        <ele>304</ele>
        <time>2023-09-10T12:22:19Z</time>
      </trkpt>
      <trkpt lat="43.10403" lon="2.04094">
        <ele>304</ele>
        <time>2023-09-10T12:22:20Z</time>
      </trkpt>
      <trkpt lat="43.10404" lon="2.04094">
        <ele>303</ele>
        <time>2023-09-10T12:22:21Z</time>
      </trkpt>
      <trkpt lat="43.10405" lon="2.04094">
        <ele>303</ele>
        <time>2023-09-10T12:22:22Z</time>
      </trkpt>
      <trkpt lat="43.10406" lon="2.04095">
        <ele>303</ele>
        <time>2023-09-10T12:22:23Z</time>
      </trkpt>
      <trkpt lat="43.10407" lon="2.04095">
        <ele>303</ele>
        <time>2023-09-10T12:22:24Z</time>
      </trkpt>
      <trkpt lat="43.10408" lon="2.04095">
        <ele>303</ele>
        <time>2023-09-10T12:22:25Z</time>
      </trkpt>
      <trkpt lat="43.10409" lon="2.04095">
        <ele>303</ele>
        <time>2023-09-10T12:22:26Z</time>
      </trkpt>
      <trkpt lat="43.10411" lon="2.04095">
        <ele>303</ele>
        <time>2023-09-10T12:22:27Z</time>
      </trkpt>
      <trkpt lat="43.10412" lon="2.04095">
        <ele>303</ele>
        <time>2023-09-10T12:22:28Z</time>
      </trkpt>
      <trkpt lat="43.10413" lon="2.04095">
        <ele>303</ele>
        <time>2023-09-10T12:22:29Z</time>
      </trkpt>
      <trkpt lat="43.10414" lon="2.04095">
        <ele>303</ele>
        <time>2023-09-10T12:22:30Z</time>
      </trkpt>
      <trkpt lat="43.10415" lon="2.04095">
        <ele>303</ele>
        <time>2023-09-10T12:22:31Z</time>
      </trkpt>
      <trkpt lat="43.10416" lon="2.04095">
        <ele>303</ele>
        <time>2023-09-10T12:22:32Z</time>
      </trkpt>
      <trkpt lat="43.10417" lon="2.04095">
        <ele>303</ele>
        <time>2023-09-10T12:22:33Z</time>
      </trkpt>
      <trkpt lat="43.10418" lon="2.04095">
        <ele>303</ele>
        <time>2023-09-10T12:22:34Z</time>
      </trkpt>
      <trkpt lat="43.10419" lon="2.04095">
        <ele>303</ele>
        <time>2023-09-10T12:22:35Z</time>
      </trkpt>
      <trkpt lat="43.1042" lon="2.04095">
        <ele>302</ele>
        <time>2023-09-10T12:22:36Z</time>
      </trkpt>
      <trkpt lat="43.10421" lon="2.04095">
        <ele>302</ele>
        <time>2023-09-10T12:22:37Z</time>
      </trkpt>
      <trkpt lat="43.10423" lon="2.04095">
        <ele>302</ele>
        <time>2023-09-10T12:22:38Z</time>
      </trkpt>
      <trkpt lat="43.10424" lon="2.04096">
        <ele>302</ele>
        <time>2023-09-10T12:22:39Z</time>
      </trkpt>
      <trkpt lat="43.10425" lon="2.04096">
        <ele>302</ele>
        <time>2023-09-10T12:22:40Z</time>
      </trkpt>
      <trkpt lat="43.10426" lon="2.04096">
        <ele>302</ele>
        <time>2023-09-10T12:22:41Z</time>
      </trkpt>
      <trkpt lat="43.10427" lon="2.04096">
        <ele>302</ele>
        <time>2023-09-10T12:22:42Z</time>
      </trkpt>
      <trkpt lat="43.10429" lon="2.04096">
        <ele>302</ele>
        <time>2023-09-10T12:22:43Z</time>
      </trkpt>
      <trkpt lat="43.1043" lon="2.04095">
        <ele>302</ele>
        <time>2023-09-10T12:22:44Z</time>
      </trkpt>
      <trkpt lat="43.10431" lon="2.04095">
        <ele>302</ele>
        <time>2023-09-10T12:22:45Z</time>
      </trkpt>
      <trkpt lat="43.10432" lon="2.04095">
        <ele>302</ele>
        <time>2023-09-10T12:22:46Z</time>
      </trkpt>
      <trkpt lat="43.10433" lon="2.04095">
        <ele>302</ele>
        <time>2023-09-10T12:22:47Z</time>
      </trkpt>
      <trkpt lat="43.10434" lon="2.04095">
        <ele>302</ele>
        <time>2023-09-10T12:22:48Z</time>
      </trkpt>
      <trkpt lat="43.10435" lon="2.04095">
        <ele>302</ele>
        <time>2023-09-10T12:22:49Z</time>
      </trkpt>
      <trkpt lat="43.10436" lon="2.04095">
        <ele>302</ele>
        <time>2023-09-10T12:22:50Z</time>
      </trkpt>
      <trkpt lat="43.10437" lon="2.04095">
        <ele>301</ele>
        <time>2023-09-10T12:22:51Z</time>
      </trkpt>
      <trkpt lat="43.10438" lon="2.04095">
        <ele>301</ele>
        <time>2023-09-10T12:22:52Z</time>
      </trkpt>
      <trkpt lat="43.1044" lon="2.04096">
        <ele>301</ele>
        <time>2023-09-10T12:22:53Z</time>
      </trkpt>
      <trkpt lat="43.10441" lon="2.04096">
        <ele>301</ele>
        <time>2023-09-10T12:22:54Z</time>
      </trkpt>
      <trkpt lat="43.10442" lon="2.04096">
        <ele>301</ele>
        <time>2023-09-10T12:22:55Z</time>
      </trkpt>
      <trkpt lat="43.10443" lon="2.04096">
        <ele>301</ele>
        <time>2023-09-10T12:22:56Z</time>
      </trkpt>
      <trkpt lat="43.10444" lon="2.04096">
        <ele>301</ele>
        <time>2023-09-10T12:22:57Z</time>
      </trkpt>
      <trkpt lat="43.10445" lon="2.04096">
        <ele>301</ele>
        <time>2023-09-10T12:22:58Z</time>
      </trkpt>
      <trkpt lat="43.10446" lon="2.04096">
        <ele>301</ele>
        <time>2023-09-10T12:22:59Z</time>
      </trkpt>
      <trkpt lat="43.10447" lon="2.04096">
        <ele>301</ele>
        <time>2023-09-10T12:23:00Z</time>
      </trkpt>
      <trkpt lat="43.10448" lon="2.04096">
        <ele>301</ele>
        <time>2023-09-10T12:23:01Z</time>
      </trkpt>
      <trkpt lat="43.10449" lon="2.04096">
        <ele>301</ele>
        <time>2023-09-10T12:23:02Z</time>
      </trkpt>
      <trkpt lat="43.1045" lon="2.04096">
        <ele>301</ele>
        <time>2023-09-10T12:23:03Z</time>
      </trkpt>
      <trkpt lat="43.10451" lon="2.04096">
        <ele>301</ele>
        <time>2023-09-10T12:23:04Z</time>
      </trkpt>
      <trkpt lat="43.10452" lon="2.04096">
        <ele>301</ele>
        <time>2023-09-10T12:23:05Z</time>
      </trkpt>
      <trkpt lat="43.10453" lon="2.04096">
        <ele>301</ele>
        <time>2023-09-10T12:23:06Z</time>
      </trkpt>
      <trkpt lat="43.10454" lon="2.04096">
        <ele>301</ele>
        <time>2023-09-10T12:23:07Z</time>
      </trkpt>
      <trkpt lat="43.10456" lon="2.04096">
        <ele>301</ele>
        <time>2023-09-10T12:23:08Z</time>
      </trkpt>
      <trkpt lat="43.10457" lon="2.04096">
        <ele>301</ele>
        <time>2023-09-10T12:23:09Z</time>
      </trkpt>
      <trkpt lat="43.10458" lon="2.04096">
        <ele>301</ele>
        <time>2023-09-10T12:23:10Z</time>
      </trkpt>
      <trkpt lat="43.10459" lon="2.04096">
        <ele>300</ele>
        <time>2023-09-10T12:23:11Z</time>
      </trkpt>
      <trkpt lat="43.1046" lon="2.04097">
        <ele>300</ele>
        <time>2023-09-10T12:23:12Z</time>
      </trkpt>
      <trkpt lat="43.10461" lon="2.04097">
        <ele>300</ele>
        <time>2023-09-10T12:23:13Z</time>
      </trkpt>
      <trkpt lat="43.10463" lon="2.04097">
        <ele>300</ele>
        <time>2023-09-10T12:23:14Z</time>
      </trkpt>
      <trkpt lat="43.10464" lon="2.04097">
        <ele>300</ele>
        <time>2023-09-10T12:23:15Z</time>
      </trkpt>
      <trkpt lat="43.10465" lon="2.04097">
        <ele>300</ele>
        <time>2023-09-10T12:23:16Z</time>
      </trkpt>
      <trkpt lat="43.10466" lon="2.04097">
        <ele>300</ele>
        <time>2023-09-10T12:23:17Z</time>
      </trkpt>
      <trkpt lat="43.10467" lon="2.04097">
        <ele>300</ele>
        <time>2023-09-10T12:23:18Z</time>
      </trkpt>
      <trkpt lat="43.10468" lon="2.04097">
        <ele>300</ele>
        <time>2023-09-10T12:23:19Z</time>
      </trkpt>
      <trkpt lat="43.10469" lon="2.04097">
        <ele>300</ele>
        <time>2023-09-10T12:23:20Z</time>
      </trkpt>
      <trkpt lat="43.1047" lon="2.04097">
        <ele>300</ele>
        <time>2023-09-10T12:23:21Z</time>
      </trkpt>
      <trkpt lat="43.10471" lon="2.04097">
        <ele>300</ele>
        <time>2023-09-10T12:23:22Z</time>
      </trkpt>
      <trkpt lat="43.10472" lon="2.04097">
        <ele>300</ele>
        <time>2023-09-10T12:23:23Z</time>
      </trkpt>
      <trkpt lat="43.10473" lon="2.04097">
        <ele>300</ele>
        <time>2023-09-10T12:23:24Z</time>
      </trkpt>
      <trkpt lat="43.10474" lon="2.04097">
        <ele>300</ele>
        <time>2023-09-10T12:23:25Z</time>
      </trkpt>
      <trkpt lat="43.10475" lon="2.04097">
        <ele>300</ele>
        <time>2023-09-10T12:23:26Z</time>
      </trkpt>
      <trkpt lat="43.10476" lon="2.04097">
        <ele>300</ele>
        <time>2023-09-10T12:23:27Z</time>
      </trkpt>
      <trkpt lat="43.10477" lon="2.04097">
        <ele>300</ele>
        <time>2023-09-10T12:23:28Z</time>
      </trkpt>
      <trkpt lat="43.10478" lon="2.04097">
        <ele>300</ele>
        <time>2023-09-10T12:23:29Z</time>
      </trkpt>
      <trkpt lat="43.10479" lon="2.04097">
        <ele>300</ele>
        <time>2023-09-10T12:23:30Z</time>
      </trkpt>
      <trkpt lat="43.1048" lon="2.04097">
        <ele>300</ele>
        <time>2023-09-10T12:23:31Z</time>
      </trkpt>
      <trkpt lat="43.10481" lon="2.04097">
        <ele>300</ele>
        <time>2023-09-10T12:23:32Z</time>
      </trkpt>
      <trkpt lat="43.10482" lon="2.04097">
        <ele>300</ele>
        <time>2023-09-10T12:23:33Z</time>
      </trkpt>
      <trkpt lat="43.10483" lon="2.04097">
        <ele>300</ele>
        <time>2023-09-10T12:23:34Z</time>
      </trkpt>
      <trkpt lat="43.10484" lon="2.04097">
        <ele>300</ele>
        <time>2023-09-10T12:23:35Z</time>
      </trkpt>
      <trkpt lat="43.10486" lon="2.04097">
        <ele>300</ele>
        <time>2023-09-10T12:23:36Z</time>
      </trkpt>
      <trkpt lat="43.10487" lon="2.04097">
        <ele>300</ele>
        <time>2023-09-10T12:23:37Z</time>
      </trkpt>
      <trkpt lat="43.10488" lon="2.04097">
        <ele>300</ele>
        <time>2023-09-10T12:23:38Z</time>
      </trkpt>
      <trkpt lat="43.10489" lon="2.04097">
        <ele>300</ele>
        <time>2023-09-10T12:23:39Z</time>
      </trkpt>
      <trkpt lat="43.1049" lon="2.04096">
        <ele>300</ele>
        <time>2023-09-10T12:23:40Z</time>
      </trkpt>
      <trkpt lat="43.10491" lon="2.04096">
        <ele>300</ele>
        <time>2023-09-10T12:23:41Z</time>
      </trkpt>
      <trkpt lat="43.10492" lon="2.04096">
        <ele>300</ele>
        <time>2023-09-10T12:23:42Z</time>
      </trkpt>
      <trkpt lat="43.10492" lon="2.04095">
        <ele>300</ele>
        <time>2023-09-10T12:23:43Z</time>
      </trkpt>
      <trkpt lat="43.10493" lon="2.04095">
        <ele>300</ele>
        <time>2023-09-10T12:23:44Z</time>
      </trkpt>
      <trkpt lat="43.10494" lon="2.04095">
        <ele>300</ele>
        <time>2023-09-10T12:23:45Z</time>
      </trkpt>
      <trkpt lat="43.10496" lon="2.04095">
        <ele>299</ele>
        <time>2023-09-10T12:23:46Z</time>
      </trkpt>
      <trkpt lat="43.10497" lon="2.04095">
        <ele>299</ele>
        <time>2023-09-10T12:23:47Z</time>
      </trkpt>
      <trkpt lat="43.10498" lon="2.04095">
        <ele>299</ele>
        <time>2023-09-10T12:23:48Z</time>
      </trkpt>
      <trkpt lat="43.10499" lon="2.04095">
        <ele>299</ele>
        <time>2023-09-10T12:23:49Z</time>
      </trkpt>
      <trkpt lat="43.105" lon="2.04095">
        <ele>299</ele>
        <time>2023-09-10T12:23:50Z</time>
      </trkpt>
      <trkpt lat="43.10501" lon="2.04095">
        <ele>299</ele>
        <time>2023-09-10T12:23:51Z</time>
      </trkpt>
      <trkpt lat="43.10502" lon="2.04095">
        <ele>299</ele>
        <time>2023-09-10T12:23:52Z</time>
      </trkpt>
      <trkpt lat="43.10503" lon="2.04095">
        <ele>299</ele>
        <time>2023-09-10T12:23:53Z</time>
      </trkpt>
      <trkpt lat="43.10505" lon="2.04095">
        <ele>299</ele>
        <time>2023-09-10T12:23:54Z</time>
      </trkpt>
      <trkpt lat="43.10506" lon="2.04096">
        <ele>299</ele>
        <time>2023-09-10T12:23:55Z</time>
      </trkpt>
      <trkpt lat="43.10507" lon="2.04096">
        <ele>299</ele>
        <time>2023-09-10T12:23:56Z</time>
      </trkpt>
      <trkpt lat="43.10508" lon="2.04096">
        <ele>299</ele>
        <time>2023-09-10T12:23:57Z</time>
      </trkpt>
      <trkpt lat="43.1051" lon="2.04096">
        <ele>299</ele>
        <time>2023-09-10T12:23:58Z</time>
      </trkpt>
      <trkpt lat="43.10511" lon="2.04096">
        <ele>299</ele>
        <time>2023-09-10T12:23:59Z</time>
      </trkpt>
      <trkpt lat="43.10512" lon="2.04096">
        <ele>299</ele>
        <time>2023-09-10T12:24:00Z</time>
      </trkpt>
      <trkpt lat="43.10513" lon="2.04096">
        <ele>299</ele>
        <time>2023-09-10T12:24:01Z</time>
      </trkpt>
      <trkpt lat="43.10514" lon="2.04096">
        <ele>299</ele>
        <time>2023-09-10T12:24:02Z</time>
      </trkpt>
      <trkpt lat="43.10516" lon="2.04096">
        <ele>299</ele>
        <time>2023-09-10T12:24:03Z</time>
      </trkpt>
      <trkpt lat="43.10517" lon="2.04096">
        <ele>299</ele>
        <time>2023-09-10T12:24:04Z</time>
      </trkpt>
      <trkpt lat="43.10518" lon="2.04096">
        <ele>299</ele>
        <time>2023-09-10T12:24:05Z</time>
      </trkpt>
      <trkpt lat="43.10519" lon="2.04096">
        <ele>299</ele>
        <time>2023-09-10T12:24:06Z</time>
      </trkpt>
      <trkpt lat="43.10521" lon="2.04096">
        <ele>299</ele>
        <time>2023-09-10T12:24:07Z</time>
      </trkpt>
      <trkpt lat="43.10522" lon="2.04096">
        <ele>299</ele>
        <time>2023-09-10T12:24:08Z</time>
      </trkpt>
      <trkpt lat="43.10523" lon="2.04096">
        <ele>299</ele>
        <time>2023-09-10T12:24:09Z</time>
      </trkpt>
      <trkpt lat="43.10524" lon="2.04096">
        <ele>299</ele>
        <time>2023-09-10T12:24:10Z</time>
      </trkpt>
      <trkpt lat="43.10525" lon="2.04096">
        <ele>299</ele>
        <time>2023-09-10T12:24:11Z</time>
      </trkpt>
      <trkpt lat="43.10526" lon="2.04096">
        <ele>299</ele>
        <time>2023-09-10T12:24:12Z</time>
      </trkpt>
      <trkpt lat="43.10528" lon="2.04096">
        <ele>299</ele>
        <time>2023-09-10T12:24:13Z</time>
      </trkpt>
      <trkpt lat="43.10529" lon="2.04097">
        <ele>299</ele>
        <time>2023-09-10T12:24:14Z</time>
      </trkpt>
      <trkpt lat="43.1053" lon="2.04097">
        <ele>299</ele>
        <time>2023-09-10T12:24:15Z</time>
      </trkpt>
      <trkpt lat="43.10531" lon="2.04097">
        <ele>299</ele>
        <time>2023-09-10T12:24:16Z</time>
      </trkpt>
      <trkpt lat="43.10532" lon="2.04097">
        <ele>299</ele>
        <time>2023-09-10T12:24:17Z</time>
      </trkpt>
      <trkpt lat="43.10533" lon="2.04097">
        <ele>299</ele>
        <time>2023-09-10T12:24:18Z</time>
      </trkpt>
      <trkpt lat="43.10535" lon="2.04097">
        <ele>299</ele>
        <time>2023-09-10T12:24:19Z</time>
      </trkpt>
      <trkpt lat="43.10536" lon="2.04097">
        <ele>299</ele>
        <time>2023-09-10T12:24:20Z</time>
      </trkpt>
      <trkpt lat="43.10537" lon="2.04097">
        <ele>299</ele>
        <time>2023-09-10T12:24:21Z</time>
      </trkpt>
      <trkpt lat="43.10538" lon="2.04098">
        <ele>299</ele>
        <time>2023-09-10T12:24:22Z</time>
      </trkpt>
      <trkpt lat="43.10539" lon="2.04098">
        <ele>299</ele>
        <time>2023-09-10T12:24:23Z</time>
      </trkpt>
      <trkpt lat="43.1054" lon="2.04098">
        <ele>299</ele>
        <time>2023-09-10T12:24:24Z</time>
      </trkpt>
      <trkpt lat="43.10541" lon="2.04098">
        <ele>300</ele>
        <time>2023-09-10T12:24:25Z</time>
      </trkpt>
      <trkpt lat="43.10542" lon="2.04098">
        <ele>300</ele>
        <time>2023-09-10T12:24:26Z</time>
      </trkpt>
      <trkpt lat="43.10544" lon="2.04098">
        <ele>300</ele>
        <time>2023-09-10T12:24:27Z</time>
      </trkpt>
      <trkpt lat="43.10545" lon="2.04098">
        <ele>300</ele>
        <time>2023-09-10T12:24:28Z</time>
      </trkpt>
      <trkpt lat="43.10546" lon="2.04098">
        <ele>300</ele>
        <time>2023-09-10T12:24:29Z</time>
      </trkpt>
      <trkpt lat="43.10547" lon="2.04098">
        <ele>300</ele>
        <time>2023-09-10T12:24:30Z</time>
      </trkpt>
      <trkpt lat="43.10548" lon="2.04098">
        <ele>300</ele>
        <time>2023-09-10T12:24:31Z</time>
      </trkpt>
      <trkpt lat="43.10549" lon="2.04098">
        <ele>300</ele>
        <time>2023-09-10T12:24:32Z</time>
      </trkpt>
      <trkpt lat="43.1055" lon="2.04098">
        <ele>300</ele>
        <time>2023-09-10T12:24:33Z</time>
      </trkpt>
      <trkpt lat="43.10551" lon="2.04098">
        <ele>300</ele>
        <time>2023-09-10T12:24:34Z</time>
      </trkpt>
      <trkpt lat="43.10553" lon="2.04098">
        <ele>300</ele>
        <time>2023-09-10T12:24:35Z</time>
      </trkpt>
      <trkpt lat="43.10554" lon="2.04099">
        <ele>300</ele>
        <time>2023-09-10T12:24:36Z</time>
      </trkpt>
      <trkpt lat="43.10555" lon="2.04099">
        <ele>300</ele>
        <time>2023-09-10T12:24:37Z</time>
      </trkpt>
      <trkpt lat="43.10556" lon="2.04099">
        <ele>300</ele>
        <time>2023-09-10T12:24:38Z</time>
      </trkpt>
      <trkpt lat="43.10557" lon="2.04099">
        <ele>300</ele>
        <time>2023-09-10T12:24:39Z</time>
      </trkpt>
      <trkpt lat="43.10558" lon="2.04099">
        <ele>300</ele>
        <time>2023-09-10T12:24:40Z</time>
      </trkpt>
      <trkpt lat="43.1056" lon="2.04099">
        <ele>300</ele>
        <time>2023-09-10T12:24:41Z</time>
      </trkpt>
      <trkpt lat="43.10561" lon="2.04099">
        <ele>300</ele>
        <time>2023-09-10T12:24:42Z</time>
      </trkpt>
      <trkpt lat="43.10562" lon="2.04099">
        <ele>300</ele>
        <time>2023-09-10T12:24:43Z</time>
      </trkpt>
      <trkpt lat="43.10563" lon="2.04099">
        <ele>300</ele>
        <time>2023-09-10T12:24:44Z</time>
      </trkpt>
      <trkpt lat="43.10564" lon="2.04099">
        <ele>300</ele>
        <time>2023-09-10T12:24:45Z</time>
      </trkpt>
      <trkpt lat="43.10565" lon="2.04099">
        <ele>300</ele>
        <time>2023-09-10T12:24:46Z</time>
      </trkpt>
      <trkpt lat="43.10567" lon="2.04099">
        <ele>300</ele>
        <time>2023-09-10T12:24:47Z</time>
      </trkpt>
      <trkpt lat="43.10568" lon="2.04099">
        <ele>300</ele>
        <time>2023-09-10T12:24:48Z</time>
      </trkpt>
      <trkpt lat="43.10569" lon="2.04099">
        <ele>300</ele>
        <time>2023-09-10T12:24:49Z</time>
      </trkpt>
      <trkpt lat="43.1057" lon="2.04099">
        <ele>300</ele>
        <time>2023-09-10T12:24:50Z</time>
      </trkpt>
      <trkpt lat="43.10571" lon="2.04099">
        <ele>300</ele>
        <time>2023-09-10T12:24:51Z</time>
      </trkpt>
      <trkpt lat="43.10572" lon="2.04099">
        <ele>300</ele>
        <time>2023-09-10T12:24:52Z</time>
      </trkpt>
      <trkpt lat="43.10573" lon="2.04099">
        <ele>300</ele>
        <time>2023-09-10T12:24:53Z</time>
      </trkpt>
      <trkpt lat="43.10574" lon="2.04099">
        <ele>300</ele>
        <time>2023-09-10T12:24:54Z</time>
      </trkpt>
      <trkpt lat="43.10575" lon="2.041">
        <ele>300</ele>
        <time>2023-09-10T12:24:55Z</time>
      </trkpt>
      <trkpt lat="43.10576" lon="2.041">
        <ele>300</ele>
        <time>2023-09-10T12:24:56Z</time>
      </trkpt>
      <trkpt lat="43.10577" lon="2.041">
        <ele>300</ele>
        <time>2023-09-10T12:24:57Z</time>
      </trkpt>
      <trkpt lat="43.10579" lon="2.041">
        <ele>300</ele>
        <time>2023-09-10T12:24:58Z</time>
      </trkpt>
      <trkpt lat="43.1058" lon="2.041">
        <ele>300</ele>
        <time>2023-09-10T12:24:59Z</time>
      </trkpt>
      <trkpt lat="43.10581" lon="2.041">
        <ele>300</ele>
        <time>2023-09-10T12:25:00Z</time>
      </trkpt>
      <trkpt lat="43.10582" lon="2.041">
        <ele>300</ele>
        <time>2023-09-10T12:25:01Z</time>
      </trkpt>
      <trkpt lat="43.10584" lon="2.041">
        <ele>300</ele>
        <time>2023-09-10T12:25:02Z</time>
      </trkpt>
      <trkpt lat="43.10585" lon="2.041">
        <ele>300</ele>
        <time>2023-09-10T12:25:03Z</time>
      </trkpt>
      <trkpt lat="43.10586" lon="2.041">
        <ele>300</ele>
        <time>2023-09-10T12:25:04Z</time>
      </trkpt>
      <trkpt lat="43.10587" lon="2.041">
        <ele>300</ele>
        <time>2023-09-10T12:25:05Z</time>
      </trkpt>
      <trkpt lat="43.10588" lon="2.041">
        <ele>301</ele>
        <time>2023-09-10T12:25:12Z</time>
      </trkpt>
      <trkpt lat="43.10588" lon="2.041">
        <ele>301</ele>
        <time>2023-09-10T12:25:13Z</time>
      </trkpt>
      <trkpt lat="43.10589" lon="2.041">
        <ele>301</ele>
        <time>2023-09-10T12:25:14Z</time>
      </trkpt>
      <trkpt lat="43.10589" lon="2.041">
        <ele>301</ele>
        <time>2023-09-10T12:25:15Z</time>
      </trkpt>
      <trkpt lat="43.1059" lon="2.041">
        <ele>301</ele>
        <time>2023-09-10T12:25:16Z</time>
      </trkpt>
      <trkpt lat="43.10591" lon="2.041">
        <ele>301</ele>
        <time>2023-09-10T12:25:17Z</time>
      </trkpt>
      <trkpt lat="43.10592" lon="2.041">
        <ele>301</ele>
        <time>2023-09-10T12:25:18Z</time>
      </trkpt>
      <trkpt lat="43.10593" lon="2.041">
        <ele>301</ele>
        <time>2023-09-10T12:25:19Z</time>
      </trkpt>
      <trkpt lat="43.10594" lon="2.04101">
        <ele>301</ele>
        <time>2023-09-10T12:25:20Z</time>
      </trkpt>
      <trkpt lat="43.10595" lon="2.04101">
        <ele>301</ele>
        <time>2023-09-10T12:25:21Z</time>
      </trkpt>
      <trkpt lat="43.10596" lon="2.04101">
        <ele>301</ele>
        <time>2023-09-10T12:25:22Z</time>
      </trkpt>
      <trkpt lat="43.10597" lon="2.04101">
        <ele>301</ele>
        <time>2023-09-10T12:25:23Z</time>
      </trkpt>
      <trkpt lat="43.10598" lon="2.04102">
        <ele>301</ele>
        <time>2023-09-10T12:25:24Z</time>
      </trkpt>
      <trkpt lat="43.10599" lon="2.04102">
        <ele>301</ele>
        <time>2023-09-10T12:25:25Z</time>
      </trkpt>
      <trkpt lat="43.10601" lon="2.04102">
        <ele>301</ele>
        <time>2023-09-10T12:25:26Z</time>
      </trkpt>
      <trkpt lat="43.10602" lon="2.04102">
        <ele>301</ele>
        <time>2023-09-10T12:25:27Z</time>
      </trkpt>
      <trkpt lat="43.10603" lon="2.04102">
        <ele>301</ele>
        <time>2023-09-10T12:25:28Z</time>
      </trkpt>
      <trkpt lat="43.10605" lon="2.04102">
        <ele>301</ele>
        <time>2023-09-10T12:25:29Z</time>
      </trkpt>
      <trkpt lat="43.10606" lon="2.04102">
        <ele>301</ele>
        <time>2023-09-10T12:25:30Z</time>
      </trkpt>
      <trkpt lat="43.10607" lon="2.04102">
        <ele>301</ele>
        <time>2023-09-10T12:25:31Z</time>
      </trkpt>
      <trkpt lat="43.10608" lon="2.04102">
        <ele>301</ele>
        <time>2023-09-10T12:25:32Z</time>
      </trkpt>
      <trkpt lat="43.1061" lon="2.04102">
        <ele>301</ele>
        <time>2023-09-10T12:25:33Z</time>
      </trkpt>
      <trkpt lat="43.10611" lon="2.04102">
        <ele>301</ele>
        <time>2023-09-10T12:25:34Z</time>
      </trkpt>
      <trkpt lat="43.10612" lon="2.04103">
        <ele>302</ele>
        <time>2023-09-10T12:25:35Z</time>
      </trkpt>
      <trkpt lat="43.10613" lon="2.04103">
        <ele>302</ele>
        <time>2023-09-10T12:25:36Z</time>
      </trkpt>
      <trkpt lat="43.10614" lon="2.04103">
        <ele>302</ele>
        <time>2023-09-10T12:25:37Z</time>
      </trkpt>
      <trkpt lat="43.10615" lon="2.04103">
        <ele>302</ele>
        <time>2023-09-10T12:25:38Z</time>
      </trkpt>
      <trkpt lat="43.10617" lon="2.04104">
        <ele>302</ele>
        <time>2023-09-10T12:25:39Z</time>
      </trkpt>
      <trkpt lat="43.10618" lon="2.04104">
        <ele>302</ele>
        <time>2023-09-10T12:25:40Z</time>
      </trkpt>
      <trkpt lat="43.10619" lon="2.04105">
        <ele>302</ele>
        <time>2023-09-10T12:25:41Z</time>
      </trkpt>
      <trkpt lat="43.1062" lon="2.04105">
        <ele>302</ele>
        <time>2023-09-10T12:25:42Z</time>
      </trkpt>
      <trkpt lat="43.10621" lon="2.04105">
        <ele>302</ele>
        <time>2023-09-10T12:25:43Z</time>
      </trkpt>
      <trkpt lat="43.10622" lon="2.04106">
        <ele>302</ele>
        <time>2023-09-10T12:25:44Z</time>
      </trkpt>
      <trkpt lat="43.10623" lon="2.04106">
        <ele>302</ele>
        <time>2023-09-10T12:25:45Z</time>
      </trkpt>
      <trkpt lat="43.10624" lon="2.04106">
        <ele>302</ele>
        <time>2023-09-10T12:25:46Z</time>
      </trkpt>
      <trkpt lat="43.10625" lon="2.04106">
        <ele>302</ele>
        <time>2023-09-10T12:25:47Z</time>
      </trkpt>
      <trkpt lat="43.10625" lon="2.04106">
        <ele>302</ele>
        <time>2023-09-10T12:25:48Z</time>
      </trkpt>
      <trkpt lat="43.10626" lon="2.04106">
        <ele>302</ele>
        <time>2023-09-10T12:25:49Z</time>
      </trkpt>
      <trkpt lat="43.10626" lon="2.04107">
        <ele>303</ele>
        <time>2023-09-10T12:25:50Z</time>
      </trkpt>
      <trkpt lat="43.10627" lon="2.04107">
        <ele>303</ele>
        <time>2023-09-10T12:25:51Z</time>
      </trkpt>
      <trkpt lat="43.10628" lon="2.04107">
        <ele>303</ele>
        <time>2023-09-10T12:25:52Z</time>
      </trkpt>
      <trkpt lat="43.10629" lon="2.04107">
        <ele>303</ele>
        <time>2023-09-10T12:25:53Z</time>
      </trkpt>
      <trkpt lat="43.1063" lon="2.04107">
        <ele>303</ele>
        <time>2023-09-10T12:25:54Z</time>
      </trkpt>
      <trkpt lat="43.10631" lon="2.04107">
        <ele>303</ele>
        <time>2023-09-10T12:25:55Z</time>
      </trkpt>
      <trkpt lat="43.10632" lon="2.04107">
        <ele>303</ele>
        <time>2023-09-10T12:25:56Z</time>
      </trkpt>
      <trkpt lat="43.10633" lon="2.04107">
        <ele>303</ele>
        <time>2023-09-10T12:25:57Z</time>
      </trkpt>
      <trkpt lat="43.10635" lon="2.04107">
        <ele>305</ele>
        <time>2023-09-10T12:25:58Z</time>
      </trkpt>
      <trkpt lat="43.10638" lon="2.04108">
        <ele>305</ele>
        <time>2023-09-10T12:26:09Z</time>
      </trkpt>
      <trkpt lat="43.10638" lon="2.04108">
        <ele>305</ele>
        <time>2023-09-10T12:26:10Z</time>
      </trkpt>
      <trkpt lat="43.10639" lon="2.04107">
        <ele>305</ele>
        <time>2023-09-10T12:26:11Z</time>
      </trkpt>
      <trkpt lat="43.10639" lon="2.04107">
        <ele>305</ele>
        <time>2023-09-10T12:26:12Z</time>
      </trkpt>
      <trkpt lat="43.10639" lon="2.04106">
        <ele>305</ele>
        <time>2023-09-10T12:26:13Z</time>
      </trkpt>
      <trkpt lat="43.1064" lon="2.04106">
        <ele>305</ele>
        <time>2023-09-10T12:26:14Z</time>
      </trkpt>
      <trkpt lat="43.1064" lon="2.04105">
        <ele>305</ele>
        <time>2023-09-10T12:26:15Z</time>
      </trkpt>
      <trkpt lat="43.10641" lon="2.04104">
        <ele>306</ele>
        <time>2023-09-10T12:26:16Z</time>
      </trkpt>
      <trkpt lat="43.10641" lon="2.04104">
        <ele>306</ele>
        <time>2023-09-10T12:26:17Z</time>
      </trkpt>
      <trkpt lat="43.10642" lon="2.04103">
        <ele>306</ele>
        <time>2023-09-10T12:26:18Z</time>
      </trkpt>
      <trkpt lat="43.10642" lon="2.04102">
        <ele>306</ele>
        <time>2023-09-10T12:26:19Z</time>
      </trkpt>
      <trkpt lat="43.10642" lon="2.04099">
        <ele>306</ele>
        <time>2023-09-10T12:26:30Z</time>
      </trkpt>
      <trkpt lat="43.10642" lon="2.04098">
        <ele>306</ele>
        <time>2023-09-10T12:26:31Z</time>
      </trkpt>
      <trkpt lat="43.10642" lon="2.04097">
        <ele>306</ele>
        <time>2023-09-10T12:26:32Z</time>
      </trkpt>
      <trkpt lat="43.10642" lon="2.04096">
        <ele>306</ele>
        <time>2023-09-10T12:26:33Z</time>
      </trkpt>
      <trkpt lat="43.10642" lon="2.04095">
        <ele>306</ele>
        <time>2023-09-10T12:26:34Z</time>
      </trkpt>
      <trkpt lat="43.10642" lon="2.04093">
        <ele>306</ele>
        <time>2023-09-10T12:26:35Z</time>
      </trkpt>
      <trkpt lat="43.10641" lon="2.04092">
        <ele>306</ele>
        <time>2023-09-10T12:26:36Z</time>
      </trkpt>
      <trkpt lat="43.10641" lon="2.04091">
        <ele>306</ele>
        <time>2023-09-10T12:26:37Z</time>
      </trkpt>
      <trkpt lat="43.10641" lon="2.0409">
        <ele>306</ele>
        <time>2023-09-10T12:26:38Z</time>
      </trkpt>
      <trkpt lat="43.10641" lon="2.04088">
        <ele>306</ele>
        <time>2023-09-10T12:26:45Z</time>
      </trkpt>
      <trkpt lat="43.10642" lon="2.04087">
        <ele>306</ele>
        <time>2023-09-10T12:26:46Z</time>
      </trkpt>
      <trkpt lat="43.10642" lon="2.04086">
        <ele>306</ele>
        <time>2023-09-10T12:26:47Z</time>
      </trkpt>
      <trkpt lat="43.10642" lon="2.04085">
        <ele>306</ele>
        <time>2023-09-10T12:26:48Z</time>
      </trkpt>
      <trkpt lat="43.10642" lon="2.04084">
        <ele>306</ele>
        <time>2023-09-10T12:26:49Z</time>
      </trkpt>
      <trkpt lat="43.10641" lon="2.04082">
        <ele>306</ele>
        <time>2023-09-10T12:26:50Z</time>
      </trkpt>
      <trkpt lat="43.10641" lon="2.04081">
        <ele>306</ele>
        <time>2023-09-10T12:26:51Z</time>
      </trkpt>
      <trkpt lat="43.10641" lon="2.0408">
        <ele>306</ele>
        <time>2023-09-10T12:26:52Z</time>
      </trkpt>
      <trkpt lat="43.10641" lon="2.04079">
        <ele>306</ele>
        <time>2023-09-10T12:26:53Z</time>
      </trkpt>
      <trkpt lat="43.10641" lon="2.04077">
        <ele>306</ele>
        <time>2023-09-10T12:26:54Z</time>
      </trkpt>
      <trkpt lat="43.10641" lon="2.04076">
        <ele>306</ele>
        <time>2023-09-10T12:26:55Z</time>
      </trkpt>
      <trkpt lat="43.10641" lon="2.04074">
        <ele>307</ele>
        <time>2023-09-10T12:26:56Z</time>
      </trkpt>
      <trkpt lat="43.1064" lon="2.04073">
        <ele>307</ele>
        <time>2023-09-10T12:26:57Z</time>
      </trkpt>
      <trkpt lat="43.1064" lon="2.04071">
        <ele>307</ele>
        <time>2023-09-10T12:26:58Z</time>
      </trkpt>
      <trkpt lat="43.1064" lon="2.0407">
        <ele>307</ele>
        <time>2023-09-10T12:26:59Z</time>
      </trkpt>
      <trkpt lat="43.1064" lon="2.04069">
        <ele>307</ele>
        <time>2023-09-10T12:27:00Z</time>
      </trkpt>
      <trkpt lat="43.10639" lon="2.04067">
        <ele>307</ele>
        <time>2023-09-10T12:27:01Z</time>
      </trkpt>
      <trkpt lat="43.10639" lon="2.04066">
        <ele>307</ele>
        <time>2023-09-10T12:27:02Z</time>
      </trkpt>
      <trkpt lat="43.10639" lon="2.04065">
        <ele>307</ele>
        <time>2023-09-10T12:27:03Z</time>
      </trkpt>
      <trkpt lat="43.10639" lon="2.04064">
        <ele>307</ele>
        <time>2023-09-10T12:27:04Z</time>
      </trkpt>
      <trkpt lat="43.10639" lon="2.04062">
        <ele>307</ele>
        <time>2023-09-10T12:27:05Z</time>
      </trkpt>
      <trkpt lat="43.10639" lon="2.04061">
        <ele>307</ele>
        <time>2023-09-10T12:27:06Z</time>
      </trkpt>
      <trkpt lat="43.10639" lon="2.0406">
        <ele>307</ele>
        <time>2023-09-10T12:27:07Z</time>
      </trkpt>
      <trkpt lat="43.10639" lon="2.04058">
        <ele>307</ele>
        <time>2023-09-10T12:27:08Z</time>
      </trkpt>
      <trkpt lat="43.10639" lon="2.04057">
        <ele>307</ele>
        <time>2023-09-10T12:27:09Z</time>
      </trkpt>
      <trkpt lat="43.10639" lon="2.04055">
        <ele>307</ele>
        <time>2023-09-10T12:27:10Z</time>
      </trkpt>
      <trkpt lat="43.10639" lon="2.04054">
        <ele>307</ele>
        <time>2023-09-10T12:27:11Z</time>
      </trkpt>
      <trkpt lat="43.10639" lon="2.04052">
        <ele>307</ele>
        <time>2023-09-10T12:27:12Z</time>
      </trkpt>
      <trkpt lat="43.10639" lon="2.04051">
        <ele>307</ele>
        <time>2023-09-10T12:27:13Z</time>
      </trkpt>
      <trkpt lat="43.10639" lon="2.0405">
        <ele>307</ele>
        <time>2023-09-10T12:27:14Z</time>
      </trkpt>
      <trkpt lat="43.10639" lon="2.04048">
        <ele>307</ele>
        <time>2023-09-10T12:27:15Z</time>
      </trkpt>
      <trkpt lat="43.10639" lon="2.04047">
        <ele>307</ele>
        <time>2023-09-10T12:27:16Z</time>
      </trkpt>
      <trkpt lat="43.10639" lon="2.04045">
        <ele>307</ele>
        <time>2023-09-10T12:27:17Z</time>
      </trkpt>
      <trkpt lat="43.10639" lon="2.04044">
        <ele>307</ele>
        <time>2023-09-10T12:27:18Z</time>
      </trkpt>
      <trkpt lat="43.10639" lon="2.04043">
        <ele>307</ele>
        <time>2023-09-10T12:27:19Z</time>
      </trkpt>
      <trkpt lat="43.10638" lon="2.04041">
        <ele>307</ele>
        <time>2023-09-10T12:27:20Z</time>
      </trkpt>
      <trkpt lat="43.10638" lon="2.0404">
        <ele>307</ele>
        <time>2023-09-10T12:27:21Z</time>
      </trkpt>
      <trkpt lat="43.10638" lon="2.04038">
        <ele>306</ele>
        <time>2023-09-10T12:27:22Z</time>
      </trkpt>
      <trkpt lat="43.10638" lon="2.04037">
        <ele>306</ele>
        <time>2023-09-10T12:27:23Z</time>
      </trkpt>
      <trkpt lat="43.10638" lon="2.04036">
        <ele>306</ele>
        <time>2023-09-10T12:27:24Z</time>
      </trkpt>
      <trkpt lat="43.10637" lon="2.04034">
        <ele>306</ele>
        <time>2023-09-10T12:27:25Z</time>
      </trkpt>
      <trkpt lat="43.10637" lon="2.04033">
        <ele>306</ele>
        <time>2023-09-10T12:27:26Z</time>
      </trkpt>
      <trkpt lat="43.10637" lon="2.04031">
        <ele>306</ele>
        <time>2023-09-10T12:27:27Z</time>
      </trkpt>
      <trkpt lat="43.10637" lon="2.0403">
        <ele>306</ele>
        <time>2023-09-10T12:27:28Z</time>
      </trkpt>
      <trkpt lat="43.10637" lon="2.04028">
        <ele>306</ele>
        <time>2023-09-10T12:27:29Z</time>
      </trkpt>
      <trkpt lat="43.10637" lon="2.04027">
        <ele>306</ele>
        <time>2023-09-10T12:27:30Z</time>
      </trkpt>
      <trkpt lat="43.10637" lon="2.04026">
        <ele>306</ele>
        <time>2023-09-10T12:27:31Z</time>
      </trkpt>
      <trkpt lat="43.10637" lon="2.04024">
        <ele>306</ele>
        <time>2023-09-10T12:27:32Z</time>
      </trkpt>
      <trkpt lat="43.10637" lon="2.04023">
        <ele>306</ele>
        <time>2023-09-10T12:27:33Z</time>
      </trkpt>
      <trkpt lat="43.10637" lon="2.04021">
        <ele>306</ele>
        <time>2023-09-10T12:27:44Z</time>
      </trkpt>
      <trkpt lat="43.10637" lon="2.0402">
        <ele>306</ele>
        <time>2023-09-10T12:27:45Z</time>
      </trkpt>
      <trkpt lat="43.10637" lon="2.04019">
        <ele>306</ele>
        <time>2023-09-10T12:27:46Z</time>
      </trkpt>
      <trkpt lat="43.10636" lon="2.04019">
        <ele>305</ele>
        <time>2023-09-10T12:27:47Z</time>
      </trkpt>
      <trkpt lat="43.10636" lon="2.04018">
        <ele>305</ele>
        <time>2023-09-10T12:27:48Z</time>
      </trkpt>
      <trkpt lat="43.10636" lon="2.04016">
        <ele>305</ele>
        <time>2023-09-10T12:27:49Z</time>
      </trkpt>
      <trkpt lat="43.10636" lon="2.04015">
        <ele>305</ele>
        <time>2023-09-10T12:27:50Z</time>
      </trkpt>
      <trkpt lat="43.10636" lon="2.04013">
        <ele>305</ele>
        <time>2023-09-10T12:27:51Z</time>
      </trkpt>
      <trkpt lat="43.10636" lon="2.04012">
        <ele>305</ele>
        <time>2023-09-10T12:27:52Z</time>
      </trkpt>
      <trkpt lat="43.10636" lon="2.0401">
        <ele>305</ele>
        <time>2023-09-10T12:27:53Z</time>
      </trkpt>
      <trkpt lat="43.10636" lon="2.04009">
        <ele>305</ele>
        <time>2023-09-10T12:27:54Z</time>
      </trkpt>
      <trkpt lat="43.10636" lon="2.04007">
        <ele>305</ele>
        <time>2023-09-10T12:27:55Z</time>
      </trkpt>
      <trkpt lat="43.10636" lon="2.04006">
        <ele>305</ele>
        <time>2023-09-10T12:27:56Z</time>
      </trkpt>
      <trkpt lat="43.10636" lon="2.04005">
        <ele>305</ele>
        <time>2023-09-10T12:27:57Z</time>
      </trkpt>
      <trkpt lat="43.10635" lon="2.04003">
        <ele>305</ele>
        <time>2023-09-10T12:27:58Z</time>
      </trkpt>
      <trkpt lat="43.10635" lon="2.04002">
        <ele>305</ele>
        <time>2023-09-10T12:27:59Z</time>
      </trkpt>
      <trkpt lat="43.10635" lon="2.04001">
        <ele>305</ele>
        <time>2023-09-10T12:28:00Z</time>
      </trkpt>
      <trkpt lat="43.10635" lon="2.03999">
        <ele>305</ele>
        <time>2023-09-10T12:28:01Z</time>
      </trkpt>
      <trkpt lat="43.10634" lon="2.03998">
        <ele>305</ele>
        <time>2023-09-10T12:28:02Z</time>
      </trkpt>
      <trkpt lat="43.10634" lon="2.03996">
        <ele>305</ele>
        <time>2023-09-10T12:28:03Z</time>
      </trkpt>
      <trkpt lat="43.10634" lon="2.03995">
        <ele>305</ele>
        <time>2023-09-10T12:28:04Z</time>
      </trkpt>
      <trkpt lat="43.10634" lon="2.03993">
        <ele>305</ele>
        <time>2023-09-10T12:28:05Z</time>
      </trkpt>
      <trkpt lat="43.10634" lon="2.03992">
        <ele>305</ele>
        <time>2023-09-10T12:28:06Z</time>
      </trkpt>
      <trkpt lat="43.10634" lon="2.03991">
        <ele>304</ele>
        <time>2023-09-10T12:28:07Z</time>
      </trkpt>
      <trkpt lat="43.10633" lon="2.03989">
        <ele>304</ele>
        <time>2023-09-10T12:28:08Z</time>
      </trkpt>
      <trkpt lat="43.10633" lon="2.03988">
        <ele>304</ele>
        <time>2023-09-10T12:28:09Z</time>
      </trkpt>
      <trkpt lat="43.10633" lon="2.03986">
        <ele>304</ele>
        <time>2023-09-10T12:28:10Z</time>
      </trkpt>
      <trkpt lat="43.10633" lon="2.03985">
        <ele>304</ele>
        <time>2023-09-10T12:28:11Z</time>
      </trkpt>
      <trkpt lat="43.10632" lon="2.03983">
        <ele>304</ele>
        <time>2023-09-10T12:28:12Z</time>
      </trkpt>
      <trkpt lat="43.10632" lon="2.03982">
        <ele>304</ele>
        <time>2023-09-10T12:28:13Z</time>
      </trkpt>
      <trkpt lat="43.10632" lon="2.0398">
        <ele>304</ele>
        <time>2023-09-10T12:28:14Z</time>
      </trkpt>
      <trkpt lat="43.10632" lon="2.03979">
        <ele>304</ele>
        <time>2023-09-10T12:28:15Z</time>
      </trkpt>
      <trkpt lat="43.10632" lon="2.03977">
        <ele>304</ele>
        <time>2023-09-10T12:28:16Z</time>
      </trkpt>
      <trkpt lat="43.10632" lon="2.03976">
        <ele>304</ele>
        <time>2023-09-10T12:28:17Z</time>
      </trkpt>
      <trkpt lat="43.10632" lon="2.03974">
        <ele>304</ele>
        <time>2023-09-10T12:28:18Z</time>
      </trkpt>
      <trkpt lat="43.10632" lon="2.03973">
        <ele>304</ele>
        <time>2023-09-10T12:28:19Z</time>
      </trkpt>
      <trkpt lat="43.10632" lon="2.03971">
        <ele>304</ele>
        <time>2023-09-10T12:28:20Z</time>
      </trkpt>
      <trkpt lat="43.10631" lon="2.0397">
        <ele>304</ele>
        <time>2023-09-10T12:28:21Z</time>
      </trkpt>
      <trkpt lat="43.10631" lon="2.03968">
        <ele>304</ele>
        <time>2023-09-10T12:28:22Z</time>
      </trkpt>
      <trkpt lat="43.10631" lon="2.03966">
        <ele>304</ele>
        <time>2023-09-10T12:28:23Z</time>
      </trkpt>
      <trkpt lat="43.10631" lon="2.03965">
        <ele>304</ele>
        <time>2023-09-10T12:28:24Z</time>
      </trkpt>
      <trkpt lat="43.10631" lon="2.03963">
        <ele>304</ele>
        <time>2023-09-10T12:28:25Z</time>
      </trkpt>
      <trkpt lat="43.10631" lon="2.03962">
        <ele>304</ele>
        <time>2023-09-10T12:28:26Z</time>
      </trkpt>
      <trkpt lat="43.10631" lon="2.0396">
        <ele>303</ele>
        <time>2023-09-10T12:28:27Z</time>
      </trkpt>
      <trkpt lat="43.10631" lon="2.03959">
        <ele>303</ele>
        <time>2023-09-10T12:28:28Z</time>
      </trkpt>
      <trkpt lat="43.10631" lon="2.03957">
        <ele>303</ele>
        <time>2023-09-10T12:28:29Z</time>
      </trkpt>
      <trkpt lat="43.10631" lon="2.03955">
        <ele>303</ele>
        <time>2023-09-10T12:28:30Z</time>
      </trkpt>
      <trkpt lat="43.10631" lon="2.03953">
        <ele>303</ele>
        <time>2023-09-10T12:28:31Z</time>
      </trkpt>
      <trkpt lat="43.10631" lon="2.03952">
        <ele>303</ele>
        <time>2023-09-10T12:28:32Z</time>
      </trkpt>
      <trkpt lat="43.10632" lon="2.0395">
        <ele>303</ele>
        <time>2023-09-10T12:28:33Z</time>
      </trkpt>
      <trkpt lat="43.10632" lon="2.03948">
        <ele>303</ele>
        <time>2023-09-10T12:28:34Z</time>
      </trkpt>
      <trkpt lat="43.10633" lon="2.03947">
        <ele>303</ele>
        <time>2023-09-10T12:28:35Z</time>
      </trkpt>
      <trkpt lat="43.10633" lon="2.03945">
        <ele>303</ele>
        <time>2023-09-10T12:28:36Z</time>
      </trkpt>
      <trkpt lat="43.10634" lon="2.03944">
        <ele>303</ele>
        <time>2023-09-10T12:28:37Z</time>
      </trkpt>
      <trkpt lat="43.10635" lon="2.03943">
        <ele>303</ele>
        <time>2023-09-10T12:28:38Z</time>
      </trkpt>
      <trkpt lat="43.10635" lon="2.03943">
        <ele>303</ele>
        <time>2023-09-10T12:28:39Z</time>
      </trkpt>
      <trkpt lat="43.10636" lon="2.03942">
        <ele>303</ele>
        <time>2023-09-10T12:28:40Z</time>
      </trkpt>
      <trkpt lat="43.10637" lon="2.03941">
        <ele>303</ele>
        <time>2023-09-10T12:28:41Z</time>
      </trkpt>
      <trkpt lat="43.10637" lon="2.03941">
        <ele>303</ele>
        <time>2023-09-10T12:28:42Z</time>
      </trkpt>
      <trkpt lat="43.10638" lon="2.0394">
        <ele>303</ele>
        <time>2023-09-10T12:28:43Z</time>
      </trkpt>
      <trkpt lat="43.10639" lon="2.03938">
        <ele>303</ele>
        <time>2023-09-10T12:28:44Z</time>
      </trkpt>
      <trkpt lat="43.1064" lon="2.03937">
        <ele>303</ele>
        <time>2023-09-10T12:28:45Z</time>
      </trkpt>
      <trkpt lat="43.1064" lon="2.03936">
        <ele>303</ele>
        <time>2023-09-10T12:28:46Z</time>
      </trkpt>
      <trkpt lat="43.10641" lon="2.03935">
        <ele>303</ele>
        <time>2023-09-10T12:28:47Z</time>
      </trkpt>
      <trkpt lat="43.10642" lon="2.03934">
        <ele>303</ele>
        <time>2023-09-10T12:28:48Z</time>
      </trkpt>
      <trkpt lat="43.10643" lon="2.03933">
        <ele>303</ele>
        <time>2023-09-10T12:28:49Z</time>
      </trkpt>
      <trkpt lat="43.10644" lon="2.03932">
        <ele>303</ele>
        <time>2023-09-10T12:28:50Z</time>
      </trkpt>
      <trkpt lat="43.10644" lon="2.0393">
        <ele>303</ele>
        <time>2023-09-10T12:28:51Z</time>
      </trkpt>
      <trkpt lat="43.10645" lon="2.03929">
        <ele>303</ele>
        <time>2023-09-10T12:28:52Z</time>
      </trkpt>
      <trkpt lat="43.10646" lon="2.03928">
        <ele>303</ele>
        <time>2023-09-10T12:28:53Z</time>
      </trkpt>
      <trkpt lat="43.10647" lon="2.03927">
        <ele>303</ele>
        <time>2023-09-10T12:28:54Z</time>
      </trkpt>
      <trkpt lat="43.10647" lon="2.03925">
        <ele>303</ele>
        <time>2023-09-10T12:28:55Z</time>
      </trkpt>
      <trkpt lat="43.10648" lon="2.03924">
        <ele>303</ele>
        <time>2023-09-10T12:28:56Z</time>
      </trkpt>
      <trkpt lat="43.10648" lon="2.03923">
        <ele>303</ele>
        <time>2023-09-10T12:28:57Z</time>
      </trkpt>
      <trkpt lat="43.10649" lon="2.03921">
        <ele>303</ele>
        <time>2023-09-10T12:28:58Z</time>
      </trkpt>
      <trkpt lat="43.1065" lon="2.0392">
        <ele>303</ele>
        <time>2023-09-10T12:28:59Z</time>
      </trkpt>
      <trkpt lat="43.10651" lon="2.03919">
        <ele>303</ele>
        <time>2023-09-10T12:29:00Z</time>
      </trkpt>
      <trkpt lat="43.10651" lon="2.03918">
        <ele>304</ele>
        <time>2023-09-10T12:29:01Z</time>
      </trkpt>
      <trkpt lat="43.10652" lon="2.03917">
        <ele>304</ele>
        <time>2023-09-10T12:29:02Z</time>
      </trkpt>
      <trkpt lat="43.10653" lon="2.03917">
        <ele>304</ele>
        <time>2023-09-10T12:29:03Z</time>
      </trkpt>
      <trkpt lat="43.10654" lon="2.03916">
        <ele>304</ele>
        <time>2023-09-10T12:29:04Z</time>
      </trkpt>
      <trkpt lat="43.10655" lon="2.03915">
        <ele>304</ele>
        <time>2023-09-10T12:29:05Z</time>
      </trkpt>
      <trkpt lat="43.10656" lon="2.03914">
        <ele>304</ele>
        <time>2023-09-10T12:29:06Z</time>
      </trkpt>
      <trkpt lat="43.10657" lon="2.03913">
        <ele>304</ele>
        <time>2023-09-10T12:29:07Z</time>
      </trkpt>
      <trkpt lat="43.10658" lon="2.03912">
        <ele>304</ele>
        <time>2023-09-10T12:29:08Z</time>
      </trkpt>
      <trkpt lat="43.10658" lon="2.03911">
        <ele>304</ele>
        <time>2023-09-10T12:29:09Z</time>
      </trkpt>
      <trkpt lat="43.10659" lon="2.0391">
        <ele>304</ele>
        <time>2023-09-10T12:29:10Z</time>
      </trkpt>
      <trkpt lat="43.1066" lon="2.03909">
        <ele>304</ele>
        <time>2023-09-10T12:29:11Z</time>
      </trkpt>
      <trkpt lat="43.10661" lon="2.03908">
        <ele>304</ele>
        <time>2023-09-10T12:29:12Z</time>
      </trkpt>
      <trkpt lat="43.10661" lon="2.03907">
        <ele>304</ele>
        <time>2023-09-10T12:29:13Z</time>
      </trkpt>
      <trkpt lat="43.10662" lon="2.03905">
        <ele>304</ele>
        <time>2023-09-10T12:29:14Z</time>
      </trkpt>
      <trkpt lat="43.10663" lon="2.03904">
        <ele>304</ele>
        <time>2023-09-10T12:29:15Z</time>
      </trkpt>
      <trkpt lat="43.10664" lon="2.03903">
        <ele>304</ele>
        <time>2023-09-10T12:29:16Z</time>
      </trkpt>
      <trkpt lat="43.10665" lon="2.03902">
        <ele>304</ele>
        <time>2023-09-10T12:29:17Z</time>
      </trkpt>
      <trkpt lat="43.10665" lon="2.03901">
        <ele>304</ele>
        <time>2023-09-10T12:29:18Z</time>
      </trkpt>
      <trkpt lat="43.10666" lon="2.039">
        <ele>304</ele>
        <time>2023-09-10T12:29:19Z</time>
      </trkpt>
      <trkpt lat="43.10667" lon="2.03899">
        <ele>304</ele>
        <time>2023-09-10T12:29:20Z</time>
      </trkpt>
      <trkpt lat="43.10668" lon="2.03898">
        <ele>304</ele>
        <time>2023-09-10T12:29:21Z</time>
      </trkpt>
      <trkpt lat="43.10669" lon="2.03897">
        <ele>304</ele>
        <time>2023-09-10T12:29:22Z</time>
      </trkpt>
      <trkpt lat="43.1067" lon="2.03896">
        <ele>304</ele>
        <time>2023-09-10T12:29:23Z</time>
      </trkpt>
      <trkpt lat="43.10671" lon="2.03895">
        <ele>304</ele>
        <time>2023-09-10T12:29:24Z</time>
      </trkpt>
      <trkpt lat="43.10672" lon="2.03895">
        <ele>304</ele>
        <time>2023-09-10T12:29:25Z</time>
      </trkpt>
      <trkpt lat="43.10673" lon="2.03894">
        <ele>304</ele>
        <time>2023-09-10T12:29:26Z</time>
      </trkpt>
      <trkpt lat="43.10673" lon="2.03893">
        <ele>304</ele>
        <time>2023-09-10T12:29:27Z</time>
      </trkpt>
      <trkpt lat="43.10674" lon="2.03892">
        <ele>304</ele>
        <time>2023-09-10T12:29:28Z</time>
      </trkpt>
      <trkpt lat="43.10675" lon="2.03891">
        <ele>304</ele>
        <time>2023-09-10T12:29:29Z</time>
      </trkpt>
      <trkpt lat="43.10676" lon="2.0389">
        <ele>304</ele>
        <time>2023-09-10T12:29:30Z</time>
      </trkpt>
      <trkpt lat="43.10677" lon="2.03889">
        <ele>304</ele>
        <time>2023-09-10T12:29:31Z</time>
      </trkpt>
      <trkpt lat="43.10677" lon="2.03888">
        <ele>304</ele>
        <time>2023-09-10T12:29:32Z</time>
      </trkpt>
      <trkpt lat="43.10678" lon="2.03886">
        <ele>304</ele>
        <time>2023-09-10T12:29:33Z</time>
      </trkpt>
      <trkpt lat="43.10679" lon="2.03885">
        <ele>304</ele>
        <time>2023-09-10T12:29:34Z</time>
      </trkpt>
      <trkpt lat="43.1068" lon="2.03884">
        <ele>304</ele>
        <time>2023-09-10T12:29:35Z</time>
      </trkpt>
      <trkpt lat="43.10681" lon="2.03883">
        <ele>304</ele>
        <time>2023-09-10T12:29:36Z</time>
      </trkpt>
      <trkpt lat="43.10681" lon="2.03882">
        <ele>304</ele>
        <time>2023-09-10T12:29:37Z</time>
      </trkpt>
      <trkpt lat="43.10682" lon="2.03881">
        <ele>304</ele>
        <time>2023-09-10T12:29:38Z</time>
      </trkpt>
      <trkpt lat="43.10683" lon="2.0388">
        <ele>304</ele>
        <time>2023-09-10T12:29:39Z</time>
      </trkpt>
      <trkpt lat="43.10684" lon="2.03879">
        <ele>304</ele>
        <time>2023-09-10T12:29:40Z</time>
      </trkpt>
      <trkpt lat="43.10685" lon="2.03878">
        <ele>305</ele>
        <time>2023-09-10T12:29:41Z</time>
      </trkpt>
      <trkpt lat="43.10686" lon="2.03877">
        <ele>305</ele>
        <time>2023-09-10T12:29:42Z</time>
      </trkpt>
      <trkpt lat="43.10687" lon="2.03876">
        <ele>305</ele>
        <time>2023-09-10T12:29:43Z</time>
      </trkpt>
      <trkpt lat="43.10687" lon="2.03875">
        <ele>305</ele>
        <time>2023-09-10T12:29:44Z</time>
      </trkpt>
      <trkpt lat="43.10688" lon="2.03874">
        <ele>305</ele>
        <time>2023-09-10T12:29:45Z</time>
      </trkpt>
      <trkpt lat="43.10689" lon="2.03874">
        <ele>305</ele>
        <time>2023-09-10T12:29:46Z</time>
      </trkpt>
      <trkpt lat="43.1069" lon="2.03873">
        <ele>305</ele>
        <time>2023-09-10T12:29:47Z</time>
      </trkpt>
      <trkpt lat="43.10691" lon="2.03872">
        <ele>305</ele>
        <time>2023-09-10T12:29:48Z</time>
      </trkpt>
      <trkpt lat="43.10692" lon="2.03871">
        <ele>305</ele>
        <time>2023-09-10T12:29:49Z</time>
      </trkpt>
      <trkpt lat="43.10693" lon="2.0387">
        <ele>305</ele>
        <time>2023-09-10T12:29:50Z</time>
      </trkpt>
      <trkpt lat="43.10694" lon="2.03868">
        <ele>305</ele>
        <time>2023-09-10T12:29:51Z</time>
      </trkpt>
      <trkpt lat="43.10694" lon="2.03867">
        <ele>305</ele>
        <time>2023-09-10T12:29:52Z</time>
      </trkpt>
      <trkpt lat="43.10695" lon="2.03866">
        <ele>305</ele>
        <time>2023-09-10T12:29:53Z</time>
      </trkpt>
      <trkpt lat="43.10696" lon="2.03865">
        <ele>305</ele>
        <time>2023-09-10T12:29:54Z</time>
      </trkpt>
      <trkpt lat="43.10697" lon="2.03865">
        <ele>305</ele>
        <time>2023-09-10T12:29:55Z</time>
      </trkpt>
      <trkpt lat="43.10698" lon="2.03864">
        <ele>305</ele>
        <time>2023-09-10T12:29:56Z</time>
      </trkpt>
      <trkpt lat="43.10699" lon="2.03863">
        <ele>305</ele>
        <time>2023-09-10T12:29:57Z</time>
      </trkpt>
      <trkpt lat="43.107" lon="2.03862">
        <ele>305</ele>
        <time>2023-09-10T12:29:58Z</time>
      </trkpt>
      <trkpt lat="43.10701" lon="2.03861">
        <ele>305</ele>
        <time>2023-09-10T12:29:59Z</time>
      </trkpt>
      <trkpt lat="43.10702" lon="2.0386">
        <ele>305</ele>
        <time>2023-09-10T12:30:00Z</time>
      </trkpt>
      <trkpt lat="43.10703" lon="2.03859">
        <ele>306</ele>
        <time>2023-09-10T12:30:01Z</time>
      </trkpt>
      <trkpt lat="43.10704" lon="2.03858">
        <ele>306</ele>
        <time>2023-09-10T12:30:02Z</time>
      </trkpt>
      <trkpt lat="43.10705" lon="2.03857">
        <ele>306</ele>
        <time>2023-09-10T12:30:03Z</time>
      </trkpt>
      <trkpt lat="43.10706" lon="2.03857">
        <ele>306</ele>
        <time>2023-09-10T12:30:04Z</time>
      </trkpt>
      <trkpt lat="43.10707" lon="2.03856">
        <ele>306</ele>
        <time>2023-09-10T12:30:05Z</time>
      </trkpt>
      <trkpt lat="43.10708" lon="2.03856">
        <ele>306</ele>
        <time>2023-09-10T12:30:06Z</time>
      </trkpt>
      <trkpt lat="43.10709" lon="2.03855">
        <ele>306</ele>
        <time>2023-09-10T12:30:07Z</time>
      </trkpt>
      <trkpt lat="43.1071" lon="2.03855">
        <ele>306</ele>
        <time>2023-09-10T12:30:08Z</time>
      </trkpt>
      <trkpt lat="43.10711" lon="2.03854">
        <ele>306</ele>
        <time>2023-09-10T12:30:09Z</time>
      </trkpt>
      <trkpt lat="43.10712" lon="2.03853">
        <ele>306</ele>
        <time>2023-09-10T12:30:10Z</time>
      </trkpt>
      <trkpt lat="43.10713" lon="2.03853">
        <ele>306</ele>
        <time>2023-09-10T12:30:11Z</time>
      </trkpt>
      <trkpt lat="43.10713" lon="2.03852">
        <ele>306</ele>
        <time>2023-09-10T12:30:12Z</time>
      </trkpt>
      <trkpt lat="43.10714" lon="2.03851">
        <ele>306</ele>
        <time>2023-09-10T12:30:13Z</time>
      </trkpt>
      <trkpt lat="43.10715" lon="2.03851">
        <ele>306</ele>
        <time>2023-09-10T12:30:14Z</time>
      </trkpt>
      <trkpt lat="43.10716" lon="2.0385">
        <ele>306</ele>
        <time>2023-09-10T12:30:15Z</time>
      </trkpt>
      <trkpt lat="43.10717" lon="2.03849">
        <ele>306</ele>
        <time>2023-09-10T12:30:16Z</time>
      </trkpt>
      <trkpt lat="43.10718" lon="2.03848">
        <ele>306</ele>
        <time>2023-09-10T12:30:17Z</time>
      </trkpt>
      <trkpt lat="43.10719" lon="2.03847">
        <ele>306</ele>
        <time>2023-09-10T12:30:18Z</time>
      </trkpt>
      <trkpt lat="43.1072" lon="2.03847">
        <ele>306</ele>
        <time>2023-09-10T12:30:19Z</time>
      </trkpt>
      <trkpt lat="43.10722" lon="2.03846">
        <ele>306</ele>
        <time>2023-09-10T12:30:20Z</time>
      </trkpt>
      <trkpt lat="43.10723" lon="2.03845">
        <ele>307</ele>
        <time>2023-09-10T12:30:21Z</time>
      </trkpt>
      <trkpt lat="43.10724" lon="2.03845">
        <ele>307</ele>
        <time>2023-09-10T12:30:22Z</time>
      </trkpt>
      <trkpt lat="43.10725" lon="2.03844">
        <ele>307</ele>
        <time>2023-09-10T12:30:23Z</time>
      </trkpt>
      <trkpt lat="43.10726" lon="2.03843">
        <ele>307</ele>
        <time>2023-09-10T12:30:24Z</time>
      </trkpt>
      <trkpt lat="43.10727" lon="2.03843">
        <ele>307</ele>
        <time>2023-09-10T12:30:25Z</time>
      </trkpt>
      <trkpt lat="43.10728" lon="2.03842">
        <ele>307</ele>
        <time>2023-09-10T12:30:26Z</time>
      </trkpt>
      <trkpt lat="43.10729" lon="2.03841">
        <ele>307</ele>
        <time>2023-09-10T12:30:27Z</time>
      </trkpt>
      <trkpt lat="43.1073" lon="2.03841">
        <ele>307</ele>
        <time>2023-09-10T12:30:28Z</time>
      </trkpt>
      <trkpt lat="43.10731" lon="2.0384">
        <ele>307</ele>
        <time>2023-09-10T12:30:29Z</time>
      </trkpt>
      <trkpt lat="43.10732" lon="2.0384">
        <ele>307</ele>
        <time>2023-09-10T12:30:30Z</time>
      </trkpt>
      <trkpt lat="43.10733" lon="2.03839">
        <ele>307</ele>
        <time>2023-09-10T12:30:31Z</time>
      </trkpt>
      <trkpt lat="43.10734" lon="2.03839">
        <ele>307</ele>
        <time>2023-09-10T12:30:32Z</time>
      </trkpt>
      <trkpt lat="43.10735" lon="2.03838">
        <ele>307</ele>
        <time>2023-09-10T12:30:33Z</time>
      </trkpt>
      <trkpt lat="43.10736" lon="2.03838">
        <ele>307</ele>
        <time>2023-09-10T12:30:34Z</time>
      </trkpt>
      <trkpt lat="43.10737" lon="2.03837">
        <ele>307</ele>
        <time>2023-09-10T12:30:35Z</time>
      </trkpt>
      <trkpt lat="43.10738" lon="2.03837">
        <ele>308</ele>
        <time>2023-09-10T12:30:36Z</time>
      </trkpt>
      <trkpt lat="43.10739" lon="2.03836">
        <ele>308</ele>
        <time>2023-09-10T12:30:37Z</time>
      </trkpt>
      <trkpt lat="43.1074" lon="2.03836">
        <ele>308</ele>
        <time>2023-09-10T12:30:38Z</time>
      </trkpt>
      <trkpt lat="43.10741" lon="2.03835">
        <ele>308</ele>
        <time>2023-09-10T12:30:39Z</time>
      </trkpt>
      <trkpt lat="43.10743" lon="2.03835">
        <ele>308</ele>
        <time>2023-09-10T12:30:40Z</time>
      </trkpt>
      <trkpt lat="43.10744" lon="2.03834">
        <ele>308</ele>
        <time>2023-09-10T12:30:41Z</time>
      </trkpt>
      <trkpt lat="43.10745" lon="2.03834">
        <ele>308</ele>
        <time>2023-09-10T12:30:42Z</time>
      </trkpt>
      <trkpt lat="43.10746" lon="2.03834">
        <ele>308</ele>
        <time>2023-09-10T12:30:43Z</time>
      </trkpt>
      <trkpt lat="43.10747" lon="2.03833">
        <ele>308</ele>
        <time>2023-09-10T12:30:44Z</time>
      </trkpt>
      <trkpt lat="43.10748" lon="2.03833">
        <ele>308</ele>
        <time>2023-09-10T12:30:45Z</time>
      </trkpt>
      <trkpt lat="43.10749" lon="2.03833">
        <ele>309</ele>
        <time>2023-09-10T12:30:46Z</time>
      </trkpt>
      <trkpt lat="43.1075" lon="2.03832">
        <ele>309</ele>
        <time>2023-09-10T12:30:47Z</time>
      </trkpt>
      <trkpt lat="43.10751" lon="2.03832">
        <ele>309</ele>
        <time>2023-09-10T12:30:48Z</time>
      </trkpt>
      <trkpt lat="43.10752" lon="2.03831">
        <ele>309</ele>
        <time>2023-09-10T12:30:49Z</time>
      </trkpt>
      <trkpt lat="43.10753" lon="2.03831">
        <ele>309</ele>
        <time>2023-09-10T12:30:50Z</time>
      </trkpt>
      <trkpt lat="43.10754" lon="2.0383">
        <ele>309</ele>
        <time>2023-09-10T12:30:51Z</time>
      </trkpt>
      <trkpt lat="43.10756" lon="2.0383">
        <ele>309</ele>
        <time>2023-09-10T12:30:52Z</time>
      </trkpt>
      <trkpt lat="43.10757" lon="2.03829">
        <ele>309</ele>
        <time>2023-09-10T12:30:53Z</time>
      </trkpt>
      <trkpt lat="43.10758" lon="2.03829">
        <ele>309</ele>
        <time>2023-09-10T12:30:54Z</time>
      </trkpt>
      <trkpt lat="43.10759" lon="2.03828">
        <ele>309</ele>
        <time>2023-09-10T12:30:55Z</time>
      </trkpt>
      <trkpt lat="43.1076" lon="2.03828">
        <ele>309</ele>
        <time>2023-09-10T12:30:56Z</time>
      </trkpt>
      <trkpt lat="43.10761" lon="2.03827">
        <ele>309</ele>
        <time>2023-09-10T12:30:57Z</time>
      </trkpt>
      <trkpt lat="43.10762" lon="2.03826">
        <ele>309</ele>
        <time>2023-09-10T12:30:58Z</time>
      </trkpt>
      <trkpt lat="43.10763" lon="2.03825">
        <ele>309</ele>
        <time>2023-09-10T12:30:59Z</time>
      </trkpt>
      <trkpt lat="43.10764" lon="2.03825">
        <ele>309</ele>
        <time>2023-09-10T12:31:00Z</time>
      </trkpt>
      <trkpt lat="43.10764" lon="2.03824">
        <ele>310</ele>
        <time>2023-09-10T12:31:01Z</time>
      </trkpt>
      <trkpt lat="43.10765" lon="2.03823">
        <ele>310</ele>
        <time>2023-09-10T12:31:02Z</time>
      </trkpt>
      <trkpt lat="43.10766" lon="2.03823">
        <ele>310</ele>
        <time>2023-09-10T12:31:03Z</time>
      </trkpt>
      <trkpt lat="43.10767" lon="2.03823">
        <ele>310</ele>
        <time>2023-09-10T12:31:04Z</time>
      </trkpt>
      <trkpt lat="43.10768" lon="2.03822">
        <ele>310</ele>
        <time>2023-09-10T12:31:05Z</time>
      </trkpt>
      <trkpt lat="43.10769" lon="2.03822">
        <ele>310</ele>
        <time>2023-09-10T12:31:06Z</time>
      </trkpt>
      <trkpt lat="43.1077" lon="2.03821">
        <ele>310</ele>
        <time>2023-09-10T12:31:07Z</time>
      </trkpt>
      <trkpt lat="43.10771" lon="2.03821">
        <ele>310</ele>
        <time>2023-09-10T12:31:08Z</time>
      </trkpt>
      <trkpt lat="43.10772" lon="2.0382">
        <ele>310</ele>
        <time>2023-09-10T12:31:09Z</time>
      </trkpt>
      <trkpt lat="43.10774" lon="2.0382">
        <ele>310</ele>
        <time>2023-09-10T12:31:10Z</time>
      </trkpt>
      <trkpt lat="43.10775" lon="2.03819">
        <ele>310</ele>
        <time>2023-09-10T12:31:11Z</time>
      </trkpt>
      <trkpt lat="43.10776" lon="2.03818">
        <ele>310</ele>
        <time>2023-09-10T12:31:12Z</time>
      </trkpt>
      <trkpt lat="43.10777" lon="2.03818">
        <ele>310</ele>
        <time>2023-09-10T12:31:13Z</time>
      </trkpt>
      <trkpt lat="43.10778" lon="2.03817">
        <ele>310</ele>
        <time>2023-09-10T12:31:14Z</time>
      </trkpt>
      <trkpt lat="43.10778" lon="2.03817">
        <ele>310</ele>
        <time>2023-09-10T12:31:15Z</time>
      </trkpt>
      <trkpt lat="43.10779" lon="2.03816">
        <ele>310</ele>
        <time>2023-09-10T12:31:16Z</time>
      </trkpt>
      <trkpt lat="43.1078" lon="2.03816">
        <ele>310</ele>
        <time>2023-09-10T12:31:17Z</time>
      </trkpt>
      <trkpt lat="43.10781" lon="2.03815">
        <ele>310</ele>
        <time>2023-09-10T12:31:18Z</time>
      </trkpt>
      <trkpt lat="43.10782" lon="2.03815">
        <ele>310</ele>
        <time>2023-09-10T12:31:19Z</time>
      </trkpt>
      <trkpt lat="43.10783" lon="2.03814">
        <ele>310</ele>
        <time>2023-09-10T12:31:20Z</time>
      </trkpt>
      <trkpt lat="43.10784" lon="2.03814">
        <ele>310</ele>
        <time>2023-09-10T12:31:21Z</time>
      </trkpt>
      <trkpt lat="43.10785" lon="2.03813">
        <ele>310</ele>
        <time>2023-09-10T12:31:22Z</time>
      </trkpt>
      <trkpt lat="43.10786" lon="2.03813">
        <ele>310</ele>
        <time>2023-09-10T12:31:23Z</time>
      </trkpt>
      <trkpt lat="43.10787" lon="2.03812">
        <ele>310</ele>
        <time>2023-09-10T12:31:24Z</time>
      </trkpt>
      <trkpt lat="43.10789" lon="2.03812">
        <ele>310</ele>
        <time>2023-09-10T12:31:25Z</time>
      </trkpt>
      <trkpt lat="43.1079" lon="2.03811">
        <ele>311</ele>
        <time>2023-09-10T12:31:26Z</time>
      </trkpt>
      <trkpt lat="43.10791" lon="2.03811">
        <ele>311</ele>
        <time>2023-09-10T12:31:27Z</time>
      </trkpt>
      <trkpt lat="43.10792" lon="2.0381">
        <ele>311</ele>
        <time>2023-09-10T12:31:28Z</time>
      </trkpt>
      <trkpt lat="43.10793" lon="2.03809">
        <ele>311</ele>
        <time>2023-09-10T12:31:29Z</time>
      </trkpt>
      <trkpt lat="43.10794" lon="2.03809">
        <ele>311</ele>
        <time>2023-09-10T12:31:30Z</time>
      </trkpt>
      <trkpt lat="43.10795" lon="2.03808">
        <ele>311</ele>
        <time>2023-09-10T12:31:31Z</time>
      </trkpt>
      <trkpt lat="43.10796" lon="2.03807">
        <ele>311</ele>
        <time>2023-09-10T12:31:32Z</time>
      </trkpt>
      <trkpt lat="43.10797" lon="2.03806">
        <ele>311</ele>
        <time>2023-09-10T12:31:33Z</time>
      </trkpt>
      <trkpt lat="43.10798" lon="2.03805">
        <ele>311</ele>
        <time>2023-09-10T12:31:34Z</time>
      </trkpt>
      <trkpt lat="43.10798" lon="2.03804">
        <ele>311</ele>
        <time>2023-09-10T12:31:35Z</time>
      </trkpt>
      <trkpt lat="43.10799" lon="2.03803">
        <ele>311</ele>
        <time>2023-09-10T12:31:36Z</time>
      </trkpt>
      <trkpt lat="43.108" lon="2.03802">
        <ele>311</ele>
        <time>2023-09-10T12:31:37Z</time>
      </trkpt>
      <trkpt lat="43.10801" lon="2.03801">
        <ele>311</ele>
        <time>2023-09-10T12:31:38Z</time>
      </trkpt>
      <trkpt lat="43.10801" lon="2.038">
        <ele>311</ele>
        <time>2023-09-10T12:31:39Z</time>
      </trkpt>
      <trkpt lat="43.10802" lon="2.03799">
        <ele>311</ele>
        <time>2023-09-10T12:31:40Z</time>
      </trkpt>
      <trkpt lat="43.10803" lon="2.03798">
        <ele>311</ele>
        <time>2023-09-10T12:31:41Z</time>
      </trkpt>
      <trkpt lat="43.10804" lon="2.03796">
        <ele>310</ele>
        <time>2023-09-10T12:31:42Z</time>
      </trkpt>
      <trkpt lat="43.10804" lon="2.03795">
        <ele>310</ele>
        <time>2023-09-10T12:31:43Z</time>
      </trkpt>
      <trkpt lat="43.10805" lon="2.03794">
        <ele>310</ele>
        <time>2023-09-10T12:31:44Z</time>
      </trkpt>
      <trkpt lat="43.10806" lon="2.03793">
        <ele>310</ele>
        <time>2023-09-10T12:31:45Z</time>
      </trkpt>
      <trkpt lat="43.10807" lon="2.03792">
        <ele>310</ele>
        <time>2023-09-10T12:31:46Z</time>
      </trkpt>
      <trkpt lat="43.10807" lon="2.03791">
        <ele>310</ele>
        <time>2023-09-10T12:31:47Z</time>
      </trkpt>
      <trkpt lat="43.10808" lon="2.0379">
        <ele>310</ele>
        <time>2023-09-10T12:31:48Z</time>
      </trkpt>
      <trkpt lat="43.10809" lon="2.03789">
        <ele>310</ele>
        <time>2023-09-10T12:31:49Z</time>
      </trkpt>
      <trkpt lat="43.10809" lon="2.03788">
        <ele>310</ele>
        <time>2023-09-10T12:31:50Z</time>
      </trkpt>
      <trkpt lat="43.1081" lon="2.03786">
        <ele>310</ele>
        <time>2023-09-10T12:31:51Z</time>
      </trkpt>
      <trkpt lat="43.1081" lon="2.03785">
        <ele>310</ele>
        <time>2023-09-10T12:31:52Z</time>
      </trkpt>
      <trkpt lat="43.10811" lon="2.03784">
        <ele>310</ele>
        <time>2023-09-10T12:31:53Z</time>
      </trkpt>
      <trkpt lat="43.10812" lon="2.03783">
        <ele>310</ele>
        <time>2023-09-10T12:31:54Z</time>
      </trkpt>
      <trkpt lat="43.10812" lon="2.03781">
        <ele>310</ele>
        <time>2023-09-10T12:31:55Z</time>
      </trkpt>
      <trkpt lat="43.10813" lon="2.0378">
        <ele>310</ele>
        <time>2023-09-10T12:31:56Z</time>
      </trkpt>
      <trkpt lat="43.10814" lon="2.03779">
        <ele>310</ele>
        <time>2023-09-10T12:31:57Z</time>
      </trkpt>
      <trkpt lat="43.10814" lon="2.03778">
        <ele>310</ele>
        <time>2023-09-10T12:31:58Z</time>
      </trkpt>
      <trkpt lat="43.10815" lon="2.03776">
        <ele>310</ele>
        <time>2023-09-10T12:31:59Z</time>
      </trkpt>
      <trkpt lat="43.10816" lon="2.03775">
        <ele>310</ele>
        <time>2023-09-10T12:32:00Z</time>
      </trkpt>
      <trkpt lat="43.10816" lon="2.03774">
        <ele>310</ele>
        <time>2023-09-10T12:32:01Z</time>
      </trkpt>
      <trkpt lat="43.10817" lon="2.03772">
        <ele>310</ele>
        <time>2023-09-10T12:32:02Z</time>
      </trkpt>
      <trkpt lat="43.10817" lon="2.03771">
        <ele>310</ele>
        <time>2023-09-10T12:32:03Z</time>
      </trkpt>
      <trkpt lat="43.10818" lon="2.03769">
        <ele>310</ele>
        <time>2023-09-10T12:32:04Z</time>
      </trkpt>
      <trkpt lat="43.10818" lon="2.03767">
        <ele>310</ele>
        <time>2023-09-10T12:32:05Z</time>
      </trkpt>
      <trkpt lat="43.10818" lon="2.03766">
        <ele>310</ele>
        <time>2023-09-10T12:32:06Z</time>
      </trkpt>
      <trkpt lat="43.10819" lon="2.03764">
        <ele>310</ele>
        <time>2023-09-10T12:32:07Z</time>
      </trkpt>
      <trkpt lat="43.10819" lon="2.03762">
        <ele>310</ele>
        <time>2023-09-10T12:32:08Z</time>
      </trkpt>
      <trkpt lat="43.1082" lon="2.03761">
        <ele>310</ele>
        <time>2023-09-10T12:32:09Z</time>
      </trkpt>
      <trkpt lat="43.1082" lon="2.03759">
        <ele>310</ele>
        <time>2023-09-10T12:32:10Z</time>
      </trkpt>
      <trkpt lat="43.10821" lon="2.03758">
        <ele>310</ele>
        <time>2023-09-10T12:32:11Z</time>
      </trkpt>
      <trkpt lat="43.10821" lon="2.03757">
        <ele>309</ele>
        <time>2023-09-10T12:32:12Z</time>
      </trkpt>
      <trkpt lat="43.10822" lon="2.03755">
        <ele>309</ele>
        <time>2023-09-10T12:32:13Z</time>
      </trkpt>
      <trkpt lat="43.10822" lon="2.03754">
        <ele>309</ele>
        <time>2023-09-10T12:32:14Z</time>
      </trkpt>
      <trkpt lat="43.10823" lon="2.03753">
        <ele>309</ele>
        <time>2023-09-10T12:32:15Z</time>
      </trkpt>
      <trkpt lat="43.10823" lon="2.03752">
        <ele>309</ele>
        <time>2023-09-10T12:32:16Z</time>
      </trkpt>
      <trkpt lat="43.10824" lon="2.03751">
        <ele>309</ele>
        <time>2023-09-10T12:32:17Z</time>
      </trkpt>
      <trkpt lat="43.10824" lon="2.0375">
        <ele>309</ele>
        <time>2023-09-10T12:32:18Z</time>
      </trkpt>
      <trkpt lat="43.10824" lon="2.03748">
        <ele>309</ele>
        <time>2023-09-10T12:32:19Z</time>
      </trkpt>
      <trkpt lat="43.10825" lon="2.03747">
        <ele>309</ele>
        <time>2023-09-10T12:32:20Z</time>
      </trkpt>
      <trkpt lat="43.10825" lon="2.03746">
        <ele>309</ele>
        <time>2023-09-10T12:32:21Z</time>
      </trkpt>
      <trkpt lat="43.10825" lon="2.03745">
        <ele>308</ele>
        <time>2023-09-10T12:32:22Z</time>
      </trkpt>
      <trkpt lat="43.10825" lon="2.03743">
        <ele>308</ele>
        <time>2023-09-10T12:32:23Z</time>
      </trkpt>
      <trkpt lat="43.10826" lon="2.03742">
        <ele>308</ele>
        <time>2023-09-10T12:32:24Z</time>
      </trkpt>
      <trkpt lat="43.10826" lon="2.0374">
        <ele>308</ele>
        <time>2023-09-10T12:32:25Z</time>
      </trkpt>
      <trkpt lat="43.10826" lon="2.03739">
        <ele>308</ele>
        <time>2023-09-10T12:32:26Z</time>
      </trkpt>
      <trkpt lat="43.10826" lon="2.03737">
        <ele>308</ele>
        <time>2023-09-10T12:32:27Z</time>
      </trkpt>
      <trkpt lat="43.10826" lon="2.03736">
        <ele>308</ele>
        <time>2023-09-10T12:32:28Z</time>
      </trkpt>
      <trkpt lat="43.10826" lon="2.03734">
        <ele>308</ele>
        <time>2023-09-10T12:32:29Z</time>
      </trkpt>
      <trkpt lat="43.10826" lon="2.03733">
        <ele>308</ele>
        <time>2023-09-10T12:32:30Z</time>
      </trkpt>
      <trkpt lat="43.10827" lon="2.03731">
        <ele>308</ele>
        <time>2023-09-10T12:32:31Z</time>
      </trkpt>
      <trkpt lat="43.10827" lon="2.03729">
        <ele>308</ele>
        <time>2023-09-10T12:32:32Z</time>
      </trkpt>
      <trkpt lat="43.10827" lon="2.03728">
        <ele>308</ele>
        <time>2023-09-10T12:32:33Z</time>
      </trkpt>
      <trkpt lat="43.10827" lon="2.03726">
        <ele>308</ele>
        <time>2023-09-10T12:32:34Z</time>
      </trkpt>
      <trkpt lat="43.10827" lon="2.03725">
        <ele>308</ele>
        <time>2023-09-10T12:32:35Z</time>
      </trkpt>
      <trkpt lat="43.10827" lon="2.03723">
        <ele>308</ele>
        <time>2023-09-10T12:32:36Z</time>
      </trkpt>
      <trkpt lat="43.10827" lon="2.03721">
        <ele>308</ele>
        <time>2023-09-10T12:32:37Z</time>
      </trkpt>
      <trkpt lat="43.10827" lon="2.0372">
        <ele>308</ele>
        <time>2023-09-10T12:32:38Z</time>
      </trkpt>
      <trkpt lat="43.10827" lon="2.03718">
        <ele>308</ele>
        <time>2023-09-10T12:32:39Z</time>
      </trkpt>
      <trkpt lat="43.10827" lon="2.03717">
        <ele>308</ele>
        <time>2023-09-10T12:32:40Z</time>
      </trkpt>
      <trkpt lat="43.10827" lon="2.03716">
        <ele>308</ele>
        <time>2023-09-10T12:32:41Z</time>
      </trkpt>
      <trkpt lat="43.10827" lon="2.03714">
        <ele>308</ele>
        <time>2023-09-10T12:32:42Z</time>
      </trkpt>
      <trkpt lat="43.10827" lon="2.03713">
        <ele>308</ele>
        <time>2023-09-10T12:32:43Z</time>
      </trkpt>
      <trkpt lat="43.10828" lon="2.03711">
        <ele>308</ele>
        <time>2023-09-10T12:32:44Z</time>
      </trkpt>
      <trkpt lat="43.10828" lon="2.0371">
        <ele>308</ele>
        <time>2023-09-10T12:32:45Z</time>
      </trkpt>
      <trkpt lat="43.10828" lon="2.03708">
        <ele>308</ele>
        <time>2023-09-10T12:32:46Z</time>
      </trkpt>
      <trkpt lat="43.10828" lon="2.03707">
        <ele>308</ele>
        <time>2023-09-10T12:32:47Z</time>
      </trkpt>
      <trkpt lat="43.10828" lon="2.03705">
        <ele>308</ele>
        <time>2023-09-10T12:32:48Z</time>
      </trkpt>
      <trkpt lat="43.10828" lon="2.03704">
        <ele>308</ele>
        <time>2023-09-10T12:32:49Z</time>
      </trkpt>
      <trkpt lat="43.10828" lon="2.03702">
        <ele>308</ele>
        <time>2023-09-10T12:32:50Z</time>
      </trkpt>
      <trkpt lat="43.10828" lon="2.037">
        <ele>308</ele>
        <time>2023-09-10T12:32:51Z</time>
      </trkpt>
      <trkpt lat="43.10828" lon="2.03699">
        <ele>307</ele>
        <time>2023-09-10T12:32:52Z</time>
      </trkpt>
      <trkpt lat="43.10828" lon="2.03697">
        <ele>307</ele>
        <time>2023-09-10T12:32:53Z</time>
      </trkpt>
      <trkpt lat="43.10828" lon="2.03696">
        <ele>307</ele>
        <time>2023-09-10T12:32:54Z</time>
      </trkpt>
      <trkpt lat="43.10828" lon="2.03694">
        <ele>307</ele>
        <time>2023-09-10T12:32:55Z</time>
      </trkpt>
      <trkpt lat="43.10828" lon="2.03693">
        <ele>307</ele>
        <time>2023-09-10T12:32:56Z</time>
      </trkpt>
      <trkpt lat="43.10828" lon="2.03691">
        <ele>307</ele>
        <time>2023-09-10T12:32:57Z</time>
      </trkpt>
      <trkpt lat="43.10828" lon="2.0369">
        <ele>307</ele>
        <time>2023-09-10T12:32:58Z</time>
      </trkpt>
      <trkpt lat="43.10828" lon="2.03688">
        <ele>307</ele>
        <time>2023-09-10T12:32:59Z</time>
      </trkpt>
      <trkpt lat="43.10828" lon="2.03687">
        <ele>307</ele>
        <time>2023-09-10T12:33:00Z</time>
      </trkpt>
      <trkpt lat="43.10828" lon="2.03685">
        <ele>307</ele>
        <time>2023-09-10T12:33:01Z</time>
      </trkpt>
      <trkpt lat="43.10828" lon="2.03684">
        <ele>307</ele>
        <time>2023-09-10T12:33:02Z</time>
      </trkpt>
      <trkpt lat="43.10827" lon="2.03682">
        <ele>307</ele>
        <time>2023-09-10T12:33:03Z</time>
      </trkpt>
      <trkpt lat="43.10827" lon="2.03681">
        <ele>307</ele>
        <time>2023-09-10T12:33:04Z</time>
      </trkpt>
      <trkpt lat="43.10827" lon="2.03679">
        <ele>307</ele>
        <time>2023-09-10T12:33:05Z</time>
      </trkpt>
      <trkpt lat="43.10826" lon="2.03678">
        <ele>307</ele>
        <time>2023-09-10T12:33:06Z</time>
      </trkpt>
      <trkpt lat="43.10826" lon="2.03676">
        <ele>307</ele>
        <time>2023-09-10T12:33:07Z</time>
      </trkpt>
      <trkpt lat="43.10826" lon="2.03675">
        <ele>307</ele>
        <time>2023-09-10T12:33:08Z</time>
      </trkpt>
      <trkpt lat="43.10826" lon="2.03673">
        <ele>307</ele>
        <time>2023-09-10T12:33:09Z</time>
      </trkpt>
      <trkpt lat="43.10826" lon="2.03672">
        <ele>307</ele>
        <time>2023-09-10T12:33:10Z</time>
      </trkpt>
      <trkpt lat="43.10826" lon="2.0367">
        <ele>307</ele>
        <time>2023-09-10T12:33:11Z</time>
      </trkpt>
      <trkpt lat="43.10825" lon="2.03669">
        <ele>307</ele>
        <time>2023-09-10T12:33:12Z</time>
      </trkpt>
      <trkpt lat="43.10825" lon="2.03667">
        <ele>307</ele>
        <time>2023-09-10T12:33:13Z</time>
      </trkpt>
      <trkpt lat="43.10825" lon="2.03666">
        <ele>307</ele>
        <time>2023-09-10T12:33:14Z</time>
      </trkpt>
      <trkpt lat="43.10825" lon="2.03664">
        <ele>307</ele>
        <time>2023-09-10T12:33:15Z</time>
      </trkpt>
      <trkpt lat="43.10825" lon="2.03662">
        <ele>307</ele>
        <time>2023-09-10T12:33:16Z</time>
      </trkpt>
      <trkpt lat="43.10825" lon="2.03661">
        <ele>307</ele>
        <time>2023-09-10T12:33:17Z</time>
      </trkpt>
      <trkpt lat="43.10825" lon="2.03659">
        <ele>307</ele>
        <time>2023-09-10T12:33:18Z</time>
      </trkpt>
      <trkpt lat="43.10825" lon="2.03657">
        <ele>307</ele>
        <time>2023-09-10T12:33:19Z</time>
      </trkpt>
      <trkpt lat="43.10825" lon="2.03656">
        <ele>307</ele>
        <time>2023-09-10T12:33:20Z</time>
      </trkpt>
      <trkpt lat="43.10825" lon="2.03654">
        <ele>307</ele>
        <time>2023-09-10T12:33:21Z</time>
      </trkpt>
      <trkpt lat="43.10825" lon="2.03653">
        <ele>307</ele>
        <time>2023-09-10T12:33:22Z</time>
      </trkpt>
      <trkpt lat="43.10825" lon="2.03651">
        <ele>307</ele>
        <time>2023-09-10T12:33:23Z</time>
      </trkpt>
      <trkpt lat="43.10825" lon="2.0365">
        <ele>307</ele>
        <time>2023-09-10T12:33:24Z</time>
      </trkpt>
      <trkpt lat="43.10824" lon="2.03648">
        <ele>307</ele>
        <time>2023-09-10T12:33:25Z</time>
      </trkpt>
      <trkpt lat="43.10824" lon="2.03647">
        <ele>307</ele>
        <time>2023-09-10T12:33:26Z</time>
      </trkpt>
      <trkpt lat="43.10824" lon="2.03645">
        <ele>307</ele>
        <time>2023-09-10T12:33:27Z</time>
      </trkpt>
      <trkpt lat="43.10824" lon="2.03644">
        <ele>307</ele>
        <time>2023-09-10T12:33:28Z</time>
      </trkpt>
      <trkpt lat="43.10824" lon="2.03642">
        <ele>307</ele>
        <time>2023-09-10T12:33:29Z</time>
      </trkpt>
      <trkpt lat="43.10823" lon="2.03641">
        <ele>307</ele>
        <time>2023-09-10T12:33:30Z</time>
      </trkpt>
      <trkpt lat="43.10823" lon="2.0364">
        <ele>307</ele>
        <time>2023-09-10T12:33:31Z</time>
      </trkpt>
      <trkpt lat="43.10823" lon="2.03638">
        <ele>307</ele>
        <time>2023-09-10T12:33:32Z</time>
      </trkpt>
      <trkpt lat="43.10823" lon="2.03637">
        <ele>307</ele>
        <time>2023-09-10T12:33:33Z</time>
      </trkpt>
      <trkpt lat="43.10822" lon="2.03635">
        <ele>307</ele>
        <time>2023-09-10T12:33:34Z</time>
      </trkpt>
      <trkpt lat="43.10822" lon="2.03634">
        <ele>307</ele>
        <time>2023-09-10T12:33:35Z</time>
      </trkpt>
      <trkpt lat="43.10822" lon="2.03633">
        <ele>307</ele>
        <time>2023-09-10T12:33:36Z</time>
      </trkpt>
      <trkpt lat="43.10822" lon="2.03631">
        <ele>307</ele>
        <time>2023-09-10T12:33:37Z</time>
      </trkpt>
      <trkpt lat="43.10822" lon="2.03629">
        <ele>307</ele>
        <time>2023-09-10T12:33:38Z</time>
      </trkpt>
      <trkpt lat="43.10822" lon="2.03628">
        <ele>307</ele>
        <time>2023-09-10T12:33:39Z</time>
      </trkpt>
      <trkpt lat="43.10822" lon="2.03626">
        <ele>307</ele>
        <time>2023-09-10T12:33:40Z</time>
      </trkpt>
      <trkpt lat="43.10821" lon="2.03625">
        <ele>307</ele>
        <time>2023-09-10T12:33:41Z</time>
      </trkpt>
      <trkpt lat="43.10821" lon="2.03623">
        <ele>307</ele>
        <time>2023-09-10T12:33:42Z</time>
      </trkpt>
      <trkpt lat="43.10821" lon="2.03622">
        <ele>307</ele>
        <time>2023-09-10T12:33:43Z</time>
      </trkpt>
      <trkpt lat="43.1082" lon="2.0362">
        <ele>307</ele>
        <time>2023-09-10T12:33:44Z</time>
      </trkpt>
      <trkpt lat="43.1082" lon="2.03619">
        <ele>307</ele>
        <time>2023-09-10T12:33:45Z</time>
      </trkpt>
      <trkpt lat="43.1082" lon="2.03617">
        <ele>307</ele>
        <time>2023-09-10T12:33:46Z</time>
      </trkpt>
      <trkpt lat="43.10819" lon="2.03616">
        <ele>307</ele>
        <time>2023-09-10T12:33:47Z</time>
      </trkpt>
      <trkpt lat="43.10819" lon="2.03614">
        <ele>307</ele>
        <time>2023-09-10T12:33:48Z</time>
      </trkpt>
      <trkpt lat="43.10819" lon="2.03612">
        <ele>307</ele>
        <time>2023-09-10T12:33:49Z</time>
      </trkpt>
      <trkpt lat="43.10818" lon="2.03611">
        <ele>307</ele>
        <time>2023-09-10T12:33:50Z</time>
      </trkpt>
      <trkpt lat="43.10818" lon="2.03609">
        <ele>307</ele>
        <time>2023-09-10T12:33:51Z</time>
      </trkpt>
      <trkpt lat="43.10818" lon="2.03608">
        <ele>307</ele>
        <time>2023-09-10T12:33:52Z</time>
      </trkpt>
      <trkpt lat="43.10817" lon="2.03607">
        <ele>307</ele>
        <time>2023-09-10T12:33:53Z</time>
      </trkpt>
      <trkpt lat="43.10817" lon="2.03605">
        <ele>307</ele>
        <time>2023-09-10T12:33:54Z</time>
      </trkpt>
      <trkpt lat="43.10817" lon="2.03604">
        <ele>307</ele>
        <time>2023-09-10T12:33:55Z</time>
      </trkpt>
      <trkpt lat="43.10816" lon="2.03602">
        <ele>307</ele>
        <time>2023-09-10T12:33:56Z</time>
      </trkpt>
      <trkpt lat="43.10816" lon="2.036">
        <ele>307</ele>
        <time>2023-09-10T12:33:57Z</time>
      </trkpt>
      <trkpt lat="43.10816" lon="2.03599">
        <ele>307</ele>
        <time>2023-09-10T12:33:58Z</time>
      </trkpt>
      <trkpt lat="43.10816" lon="2.03597">
        <ele>307</ele>
        <time>2023-09-10T12:33:59Z</time>
      </trkpt>
      <trkpt lat="43.10816" lon="2.03595">
        <ele>307</ele>
        <time>2023-09-10T12:34:00Z</time>
      </trkpt>
      <trkpt lat="43.10816" lon="2.03594">
        <ele>307</ele>
        <time>2023-09-10T12:34:01Z</time>
      </trkpt>
      <trkpt lat="43.10816" lon="2.03592">
        <ele>307</ele>
        <time>2023-09-10T12:34:02Z</time>
      </trkpt>
      <trkpt lat="43.10815" lon="2.03588">
        <ele>307</ele>
        <time>2023-09-10T12:34:12Z</time>
      </trkpt>
      <trkpt lat="43.10816" lon="2.03588">
        <ele>307</ele>
        <time>2023-09-10T12:34:13Z</time>
      </trkpt>
      <trkpt lat="43.10816" lon="2.03587">
        <ele>307</ele>
        <time>2023-09-10T12:34:14Z</time>
      </trkpt>
      <trkpt lat="43.10816" lon="2.03586">
        <ele>307</ele>
        <time>2023-09-10T12:34:15Z</time>
      </trkpt>
      <trkpt lat="43.10816" lon="2.03586">
        <ele>307</ele>
        <time>2023-09-10T12:34:16Z</time>
      </trkpt>
      <trkpt lat="43.10817" lon="2.03585">
        <ele>307</ele>
        <time>2023-09-10T12:34:17Z</time>
      </trkpt>
      <trkpt lat="43.10817" lon="2.03585">
        <ele>307</ele>
        <time>2023-09-10T12:34:18Z</time>
      </trkpt>
      <trkpt lat="43.10818" lon="2.03584">
        <ele>307</ele>
        <time>2023-09-10T12:34:19Z</time>
      </trkpt>
      <trkpt lat="43.10818" lon="2.03584">
        <ele>307</ele>
        <time>2023-09-10T12:34:20Z</time>
      </trkpt>
      <trkpt lat="43.10818" lon="2.03583">
        <ele>307</ele>
        <time>2023-09-10T12:34:21Z</time>
      </trkpt>
      <trkpt lat="43.10818" lon="2.03582">
        <ele>307</ele>
        <time>2023-09-10T12:34:22Z</time>
      </trkpt>
      <trkpt lat="43.10818" lon="2.03581">
        <ele>307</ele>
        <time>2023-09-10T12:34:23Z</time>
      </trkpt>
      <trkpt lat="43.10817" lon="2.03581">
        <ele>307</ele>
        <time>2023-09-10T12:34:24Z</time>
      </trkpt>
      <trkpt lat="43.10817" lon="2.0358">
        <ele>307</ele>
        <time>2023-09-10T12:34:25Z</time>
      </trkpt>
      <trkpt lat="43.10816" lon="2.03579">
        <ele>307</ele>
        <time>2023-09-10T12:34:26Z</time>
      </trkpt>
      <trkpt lat="43.10815" lon="2.03579">
        <ele>307</ele>
        <time>2023-09-10T12:34:27Z</time>
      </trkpt>
      <trkpt lat="43.10814" lon="2.03578">
        <ele>307</ele>
        <time>2023-09-10T12:34:28Z</time>
      </trkpt>
      <trkpt lat="43.10813" lon="2.03577">
        <ele>307</ele>
        <time>2023-09-10T12:34:29Z</time>
      </trkpt>
      <trkpt lat="43.10812" lon="2.03576">
        <ele>307</ele>
        <time>2023-09-10T12:34:30Z</time>
      </trkpt>
      <trkpt lat="43.10812" lon="2.03576">
        <ele>307</ele>
        <time>2023-09-10T12:34:31Z</time>
      </trkpt>
      <trkpt lat="43.10811" lon="2.03575">
        <ele>307</ele>
        <time>2023-09-10T12:34:32Z</time>
      </trkpt>
      <trkpt lat="43.10811" lon="2.03573">
        <ele>307</ele>
        <time>2023-09-10T12:34:33Z</time>
      </trkpt>
      <trkpt lat="43.1081" lon="2.03572">
        <ele>307</ele>
        <time>2023-09-10T12:34:34Z</time>
      </trkpt>
      <trkpt lat="43.1081" lon="2.03571">
        <ele>307</ele>
        <time>2023-09-10T12:34:35Z</time>
      </trkpt>
      <trkpt lat="43.1081" lon="2.03569">
        <ele>307</ele>
        <time>2023-09-10T12:34:36Z</time>
      </trkpt>
      <trkpt lat="43.1081" lon="2.03568">
        <ele>307</ele>
        <time>2023-09-10T12:34:37Z</time>
      </trkpt>
      <trkpt lat="43.1081" lon="2.03566">
        <ele>307</ele>
        <time>2023-09-10T12:34:38Z</time>
      </trkpt>
      <trkpt lat="43.1081" lon="2.03565">
        <ele>307</ele>
        <time>2023-09-10T12:34:39Z</time>
      </trkpt>
      <trkpt lat="43.10809" lon="2.03563">
        <ele>307</ele>
        <time>2023-09-10T12:34:40Z</time>
      </trkpt>
      <trkpt lat="43.10809" lon="2.03561">
        <ele>307</ele>
        <time>2023-09-10T12:34:41Z</time>
      </trkpt>
      <trkpt lat="43.10809" lon="2.0356">
        <ele>307</ele>
        <time>2023-09-10T12:34:42Z</time>
      </trkpt>
      <trkpt lat="43.10809" lon="2.03558">
        <ele>307</ele>
        <time>2023-09-10T12:34:43Z</time>
      </trkpt>
      <trkpt lat="43.10808" lon="2.03556">
        <ele>307</ele>
        <time>2023-09-10T12:34:44Z</time>
      </trkpt>
      <trkpt lat="43.10808" lon="2.03555">
        <ele>307</ele>
        <time>2023-09-10T12:34:45Z</time>
      </trkpt>
      <trkpt lat="43.10808" lon="2.03553">
        <ele>307</ele>
        <time>2023-09-10T12:34:46Z</time>
      </trkpt>
      <trkpt lat="43.10808" lon="2.03551">
        <ele>307</ele>
        <time>2023-09-10T12:34:47Z</time>
      </trkpt>
      <trkpt lat="43.10807" lon="2.0355">
        <ele>307</ele>
        <time>2023-09-10T12:34:48Z</time>
      </trkpt>
      <trkpt lat="43.10807" lon="2.03548">
        <ele>307</ele>
        <time>2023-09-10T12:34:49Z</time>
      </trkpt>
      <trkpt lat="43.10807" lon="2.03546">
        <ele>307</ele>
        <time>2023-09-10T12:34:50Z</time>
      </trkpt>
      <trkpt lat="43.10806" lon="2.03545">
        <ele>307</ele>
        <time>2023-09-10T12:34:51Z</time>
      </trkpt>
      <trkpt lat="43.10806" lon="2.03543">
        <ele>307</ele>
        <time>2023-09-10T12:34:52Z</time>
      </trkpt>
      <trkpt lat="43.10806" lon="2.03542">
        <ele>307</ele>
        <time>2023-09-10T12:34:53Z</time>
      </trkpt>
      <trkpt lat="43.10805" lon="2.0354">
        <ele>307</ele>
        <time>2023-09-10T12:34:54Z</time>
      </trkpt>
      <trkpt lat="43.10805" lon="2.03538">
        <ele>307</ele>
        <time>2023-09-10T12:34:55Z</time>
      </trkpt>
      <trkpt lat="43.10805" lon="2.03537">
        <ele>307</ele>
        <time>2023-09-10T12:34:56Z</time>
      </trkpt>
      <trkpt lat="43.10805" lon="2.03535">
        <ele>307</ele>
        <time>2023-09-10T12:34:57Z</time>
      </trkpt>
      <trkpt lat="43.10804" lon="2.03533">
        <ele>307</ele>
        <time>2023-09-10T12:34:58Z</time>
      </trkpt>
      <trkpt lat="43.10804" lon="2.03532">
        <ele>307</ele>
        <time>2023-09-10T12:34:59Z</time>
      </trkpt>
      <trkpt lat="43.10804" lon="2.0353">
        <ele>307</ele>
        <time>2023-09-10T12:35:00Z</time>
      </trkpt>
      <trkpt lat="43.10803" lon="2.03529">
        <ele>307</ele>
        <time>2023-09-10T12:35:01Z</time>
      </trkpt>
      <trkpt lat="43.10803" lon="2.03527">
        <ele>307</ele>
        <time>2023-09-10T12:35:02Z</time>
      </trkpt>
      <trkpt lat="43.10802" lon="2.03526">
        <ele>307</ele>
        <time>2023-09-10T12:35:03Z</time>
      </trkpt>
      <trkpt lat="43.10802" lon="2.03524">
        <ele>307</ele>
        <time>2023-09-10T12:35:04Z</time>
      </trkpt>
      <trkpt lat="43.10802" lon="2.03523">
        <ele>307</ele>
        <time>2023-09-10T12:35:05Z</time>
      </trkpt>
      <trkpt lat="43.10801" lon="2.03521">
        <ele>307</ele>
        <time>2023-09-10T12:35:06Z</time>
      </trkpt>
      <trkpt lat="43.10801" lon="2.0352">
        <ele>307</ele>
        <time>2023-09-10T12:35:07Z</time>
      </trkpt>
      <trkpt lat="43.108" lon="2.03518">
        <ele>307</ele>
        <time>2023-09-10T12:35:08Z</time>
      </trkpt>
      <trkpt lat="43.108" lon="2.03517">
        <ele>307</ele>
        <time>2023-09-10T12:35:09Z</time>
      </trkpt>
      <trkpt lat="43.108" lon="2.03515">
        <ele>307</ele>
        <time>2023-09-10T12:35:10Z</time>
      </trkpt>
      <trkpt lat="43.10799" lon="2.03514">
        <ele>307</ele>
        <time>2023-09-10T12:35:11Z</time>
      </trkpt>
      <trkpt lat="43.10799" lon="2.03512">
        <ele>307</ele>
        <time>2023-09-10T12:35:12Z</time>
      </trkpt>
      <trkpt lat="43.10799" lon="2.0351">
        <ele>307</ele>
        <time>2023-09-10T12:35:13Z</time>
      </trkpt>
      <trkpt lat="43.10799" lon="2.03509">
        <ele>307</ele>
        <time>2023-09-10T12:35:14Z</time>
      </trkpt>
      <trkpt lat="43.10799" lon="2.03507">
        <ele>307</ele>
        <time>2023-09-10T12:35:15Z</time>
      </trkpt>
      <trkpt lat="43.10798" lon="2.03505">
        <ele>307</ele>
        <time>2023-09-10T12:35:16Z</time>
      </trkpt>
      <trkpt lat="43.10798" lon="2.03504">
        <ele>307</ele>
        <time>2023-09-10T12:35:17Z</time>
      </trkpt>
      <trkpt lat="43.10798" lon="2.03502">
        <ele>307</ele>
        <time>2023-09-10T12:35:18Z</time>
      </trkpt>
      <trkpt lat="43.10797" lon="2.03501">
        <ele>307</ele>
        <time>2023-09-10T12:35:19Z</time>
      </trkpt>
      <trkpt lat="43.10797" lon="2.03499">
        <ele>307</ele>
        <time>2023-09-10T12:35:20Z</time>
      </trkpt>
      <trkpt lat="43.10796" lon="2.03498">
        <ele>308</ele>
        <time>2023-09-10T12:35:21Z</time>
      </trkpt>
      <trkpt lat="43.10796" lon="2.03496">
        <ele>308</ele>
        <time>2023-09-10T12:35:22Z</time>
      </trkpt>
      <trkpt lat="43.10796" lon="2.03494">
        <ele>308</ele>
        <time>2023-09-10T12:35:23Z</time>
      </trkpt>
      <trkpt lat="43.10795" lon="2.03493">
        <ele>308</ele>
        <time>2023-09-10T12:35:24Z</time>
      </trkpt>
      <trkpt lat="43.10795" lon="2.03491">
        <ele>308</ele>
        <time>2023-09-10T12:35:25Z</time>
      </trkpt>
      <trkpt lat="43.10794" lon="2.0349">
        <ele>308</ele>
        <time>2023-09-10T12:35:26Z</time>
      </trkpt>
      <trkpt lat="43.10794" lon="2.03488">
        <ele>308</ele>
        <time>2023-09-10T12:35:27Z</time>
      </trkpt>
      <trkpt lat="43.10793" lon="2.03486">
        <ele>308</ele>
        <time>2023-09-10T12:35:28Z</time>
      </trkpt>
      <trkpt lat="43.10793" lon="2.03485">
        <ele>308</ele>
        <time>2023-09-10T12:35:29Z</time>
      </trkpt>
      <trkpt lat="43.10792" lon="2.03484">
        <ele>308</ele>
        <time>2023-09-10T12:35:30Z</time>
      </trkpt>
      <trkpt lat="43.10792" lon="2.03482">
        <ele>308</ele>
        <time>2023-09-10T12:35:31Z</time>
      </trkpt>
      <trkpt lat="43.10791" lon="2.0348">
        <ele>308</ele>
        <time>2023-09-10T12:35:32Z</time>
      </trkpt>
      <trkpt lat="43.10791" lon="2.03478">
        <ele>308</ele>
        <time>2023-09-10T12:35:33Z</time>
      </trkpt>
      <trkpt lat="43.1079" lon="2.03477">
        <ele>308</ele>
        <time>2023-09-10T12:35:34Z</time>
      </trkpt>
      <trkpt lat="43.1079" lon="2.03475">
        <ele>308</ele>
        <time>2023-09-10T12:35:35Z</time>
      </trkpt>
      <trkpt lat="43.1079" lon="2.03473">
        <ele>308</ele>
        <time>2023-09-10T12:35:36Z</time>
      </trkpt>
      <trkpt lat="43.10789" lon="2.03472">
        <ele>308</ele>
        <time>2023-09-10T12:35:37Z</time>
      </trkpt>
      <trkpt lat="43.10789" lon="2.0347">
        <ele>308</ele>
        <time>2023-09-10T12:35:38Z</time>
      </trkpt>
      <trkpt lat="43.10788" lon="2.03468">
        <ele>308</ele>
        <time>2023-09-10T12:35:39Z</time>
      </trkpt>
      <trkpt lat="43.10788" lon="2.03466">
        <ele>308</ele>
        <time>2023-09-10T12:35:40Z</time>
      </trkpt>
      <trkpt lat="43.10788" lon="2.03465">
        <ele>308</ele>
        <time>2023-09-10T12:35:41Z</time>
      </trkpt>
      <trkpt lat="43.10787" lon="2.03463">
        <ele>308</ele>
        <time>2023-09-10T12:35:42Z</time>
      </trkpt>
      <trkpt lat="43.10787" lon="2.03462">
        <ele>308</ele>
        <time>2023-09-10T12:35:43Z</time>
      </trkpt>
      <trkpt lat="43.10786" lon="2.0346">
        <ele>308</ele>
        <time>2023-09-10T12:35:44Z</time>
      </trkpt>
      <trkpt lat="43.10786" lon="2.03459">
        <ele>308</ele>
        <time>2023-09-10T12:35:45Z</time>
      </trkpt>
      <trkpt lat="43.10786" lon="2.03457">
        <ele>309</ele>
        <time>2023-09-10T12:35:46Z</time>
      </trkpt>
      <trkpt lat="43.10785" lon="2.03456">
        <ele>309</ele>
        <time>2023-09-10T12:35:47Z</time>
      </trkpt>
      <trkpt lat="43.10785" lon="2.03454">
        <ele>309</ele>
        <time>2023-09-10T12:35:48Z</time>
      </trkpt>
      <trkpt lat="43.10784" lon="2.03452">
        <ele>309</ele>
        <time>2023-09-10T12:35:49Z</time>
      </trkpt>
      <trkpt lat="43.10784" lon="2.03451">
        <ele>309</ele>
        <time>2023-09-10T12:35:50Z</time>
      </trkpt>
      <trkpt lat="43.10783" lon="2.03449">
        <ele>309</ele>
        <time>2023-09-10T12:35:51Z</time>
      </trkpt>
      <trkpt lat="43.10783" lon="2.03447">
        <ele>309</ele>
        <time>2023-09-10T12:35:52Z</time>
      </trkpt>
      <trkpt lat="43.10782" lon="2.03446">
        <ele>309</ele>
        <time>2023-09-10T12:35:53Z</time>
      </trkpt>
      <trkpt lat="43.10782" lon="2.03444">
        <ele>309</ele>
        <time>2023-09-10T12:35:54Z</time>
      </trkpt>
      <trkpt lat="43.10781" lon="2.03442">
        <ele>309</ele>
        <time>2023-09-10T12:35:55Z</time>
      </trkpt>
      <trkpt lat="43.10781" lon="2.0344">
        <ele>309</ele>
        <time>2023-09-10T12:35:56Z</time>
      </trkpt>
      <trkpt lat="43.10781" lon="2.03439">
        <ele>309</ele>
        <time>2023-09-10T12:35:57Z</time>
      </trkpt>
      <trkpt lat="43.1078" lon="2.03437">
        <ele>309</ele>
        <time>2023-09-10T12:35:58Z</time>
      </trkpt>
      <trkpt lat="43.1078" lon="2.03435">
        <ele>309</ele>
        <time>2023-09-10T12:35:59Z</time>
      </trkpt>
      <trkpt lat="43.1078" lon="2.03434">
        <ele>309</ele>
        <time>2023-09-10T12:36:00Z</time>
      </trkpt>
      <trkpt lat="43.10779" lon="2.03432">
        <ele>310</ele>
        <time>2023-09-10T12:36:01Z</time>
      </trkpt>
      <trkpt lat="43.10779" lon="2.0343">
        <ele>310</ele>
        <time>2023-09-10T12:36:02Z</time>
      </trkpt>
      <trkpt lat="43.10779" lon="2.03429">
        <ele>310</ele>
        <time>2023-09-10T12:36:03Z</time>
      </trkpt>
      <trkpt lat="43.10778" lon="2.03427">
        <ele>310</ele>
        <time>2023-09-10T12:36:04Z</time>
      </trkpt>
      <trkpt lat="43.10778" lon="2.03426">
        <ele>310</ele>
        <time>2023-09-10T12:36:05Z</time>
      </trkpt>
      <trkpt lat="43.10778" lon="2.03424">
        <ele>310</ele>
        <time>2023-09-10T12:36:06Z</time>
      </trkpt>
      <trkpt lat="43.10777" lon="2.03423">
        <ele>310</ele>
        <time>2023-09-10T12:36:07Z</time>
      </trkpt>
      <trkpt lat="43.10777" lon="2.03421">
        <ele>310</ele>
        <time>2023-09-10T12:36:08Z</time>
      </trkpt>
      <trkpt lat="43.10776" lon="2.03419">
        <ele>310</ele>
        <time>2023-09-10T12:36:09Z</time>
      </trkpt>
      <trkpt lat="43.10776" lon="2.03418">
        <ele>310</ele>
        <time>2023-09-10T12:36:10Z</time>
      </trkpt>
      <trkpt lat="43.10775" lon="2.03416">
        <ele>310</ele>
        <time>2023-09-10T12:36:11Z</time>
      </trkpt>
      <trkpt lat="43.10775" lon="2.03414">
        <ele>310</ele>
        <time>2023-09-10T12:36:12Z</time>
      </trkpt>
      <trkpt lat="43.10774" lon="2.03412">
        <ele>310</ele>
        <time>2023-09-10T12:36:13Z</time>
      </trkpt>
      <trkpt lat="43.10774" lon="2.03411">
        <ele>310</ele>
        <time>2023-09-10T12:36:14Z</time>
      </trkpt>
      <trkpt lat="43.10773" lon="2.03409">
        <ele>310</ele>
        <time>2023-09-10T12:36:15Z</time>
      </trkpt>
      <trkpt lat="43.10773" lon="2.03407">
        <ele>310</ele>
        <time>2023-09-10T12:36:16Z</time>
      </trkpt>
      <trkpt lat="43.10772" lon="2.03405">
        <ele>310</ele>
        <time>2023-09-10T12:36:17Z</time>
      </trkpt>
      <trkpt lat="43.10772" lon="2.03404">
        <ele>310</ele>
        <time>2023-09-10T12:36:18Z</time>
      </trkpt>
      <trkpt lat="43.10771" lon="2.03402">
        <ele>310</ele>
        <time>2023-09-10T12:36:19Z</time>
      </trkpt>
      <trkpt lat="43.10771" lon="2.034">
        <ele>310</ele>
        <time>2023-09-10T12:36:20Z</time>
      </trkpt>
      <trkpt lat="43.1077" lon="2.03399">
        <ele>310</ele>
        <time>2023-09-10T12:36:21Z</time>
      </trkpt>
      <trkpt lat="43.1077" lon="2.03397">
        <ele>310</ele>
        <time>2023-09-10T12:36:22Z</time>
      </trkpt>
      <trkpt lat="43.1077" lon="2.03395">
        <ele>310</ele>
        <time>2023-09-10T12:36:23Z</time>
      </trkpt>
      <trkpt lat="43.10769" lon="2.03394">
        <ele>310</ele>
        <time>2023-09-10T12:36:24Z</time>
      </trkpt>
      <trkpt lat="43.10769" lon="2.03392">
        <ele>310</ele>
        <time>2023-09-10T12:36:25Z</time>
      </trkpt>
      <trkpt lat="43.10769" lon="2.0339">
        <ele>310</ele>
        <time>2023-09-10T12:36:26Z</time>
      </trkpt>
      <trkpt lat="43.10768" lon="2.03389">
        <ele>310</ele>
        <time>2023-09-10T12:36:27Z</time>
      </trkpt>
      <trkpt lat="43.10767" lon="2.03387">
        <ele>310</ele>
        <time>2023-09-10T12:36:28Z</time>
      </trkpt>
      <trkpt lat="43.10767" lon="2.03386">
        <ele>310</ele>
        <time>2023-09-10T12:36:29Z</time>
      </trkpt>
      <trkpt lat="43.10767" lon="2.03384">
        <ele>310</ele>
        <time>2023-09-10T12:36:30Z</time>
      </trkpt>
      <trkpt lat="43.10766" lon="2.03383">
        <ele>311</ele>
        <time>2023-09-10T12:36:31Z</time>
      </trkpt>
      <trkpt lat="43.10766" lon="2.03382">
        <ele>311</ele>
        <time>2023-09-10T12:36:32Z</time>
      </trkpt>
      <trkpt lat="43.10765" lon="2.0338">
        <ele>311</ele>
        <time>2023-09-10T12:36:33Z</time>
      </trkpt>
      <trkpt lat="43.10765" lon="2.03379">
        <ele>311</ele>
        <time>2023-09-10T12:36:34Z</time>
      </trkpt>
      <trkpt lat="43.10764" lon="2.03377">
        <ele>311</ele>
        <time>2023-09-10T12:36:35Z</time>
      </trkpt>
      <trkpt lat="43.10764" lon="2.03375">
        <ele>311</ele>
        <time>2023-09-10T12:36:36Z</time>
      </trkpt>
      <trkpt lat="43.10763" lon="2.03373">
        <ele>311</ele>
        <time>2023-09-10T12:36:37Z</time>
      </trkpt>
      <trkpt lat="43.10763" lon="2.03371">
        <ele>311</ele>
        <time>2023-09-10T12:36:38Z</time>
      </trkpt>
      <trkpt lat="43.10762" lon="2.03369">
        <ele>311</ele>
        <time>2023-09-10T12:36:39Z</time>
      </trkpt>
      <trkpt lat="43.10762" lon="2.03368">
        <ele>311</ele>
        <time>2023-09-10T12:36:40Z</time>
      </trkpt>
      <trkpt lat="43.10762" lon="2.03366">
        <ele>311</ele>
        <time>2023-09-10T12:36:41Z</time>
      </trkpt>
      <trkpt lat="43.10761" lon="2.03364">
        <ele>311</ele>
        <time>2023-09-10T12:36:42Z</time>
      </trkpt>
      <trkpt lat="43.10761" lon="2.03363">
        <ele>311</ele>
        <time>2023-09-10T12:36:43Z</time>
      </trkpt>
      <trkpt lat="43.10761" lon="2.03361">
        <ele>311</ele>
        <time>2023-09-10T12:36:44Z</time>
      </trkpt>
      <trkpt lat="43.1076" lon="2.03359">
        <ele>311</ele>
        <time>2023-09-10T12:36:45Z</time>
      </trkpt>
      <trkpt lat="43.1076" lon="2.03358">
        <ele>312</ele>
        <time>2023-09-10T12:36:46Z</time>
      </trkpt>
      <trkpt lat="43.1076" lon="2.03356">
        <ele>312</ele>
        <time>2023-09-10T12:36:47Z</time>
      </trkpt>
      <trkpt lat="43.10759" lon="2.03355">
        <ele>312</ele>
        <time>2023-09-10T12:36:48Z</time>
      </trkpt>
      <trkpt lat="43.10759" lon="2.03353">
        <ele>312</ele>
        <time>2023-09-10T12:36:49Z</time>
      </trkpt>
      <trkpt lat="43.10759" lon="2.03351">
        <ele>312</ele>
        <time>2023-09-10T12:36:50Z</time>
      </trkpt>
      <trkpt lat="43.10758" lon="2.0335">
        <ele>312</ele>
        <time>2023-09-10T12:36:51Z</time>
      </trkpt>
      <trkpt lat="43.10758" lon="2.03348">
        <ele>312</ele>
        <time>2023-09-10T12:36:52Z</time>
      </trkpt>
      <trkpt lat="43.10758" lon="2.03346">
        <ele>312</ele>
        <time>2023-09-10T12:36:53Z</time>
      </trkpt>
      <trkpt lat="43.10757" lon="2.03345">
        <ele>312</ele>
        <time>2023-09-10T12:36:54Z</time>
      </trkpt>
      <trkpt lat="43.10757" lon="2.03343">
        <ele>312</ele>
        <time>2023-09-10T12:36:55Z</time>
      </trkpt>
      <trkpt lat="43.10756" lon="2.03342">
        <ele>312</ele>
        <time>2023-09-10T12:36:56Z</time>
      </trkpt>
      <trkpt lat="43.10756" lon="2.0334">
        <ele>312</ele>
        <time>2023-09-10T12:36:57Z</time>
      </trkpt>
      <trkpt lat="43.10756" lon="2.03338">
        <ele>312</ele>
        <time>2023-09-10T12:36:58Z</time>
      </trkpt>
      <trkpt lat="43.10755" lon="2.03337">
        <ele>312</ele>
        <time>2023-09-10T12:36:59Z</time>
      </trkpt>
      <trkpt lat="43.10755" lon="2.03335">
        <ele>312</ele>
        <time>2023-09-10T12:37:00Z</time>
      </trkpt>
      <trkpt lat="43.10755" lon="2.03333">
        <ele>312</ele>
        <time>2023-09-10T12:37:01Z</time>
      </trkpt>
      <trkpt lat="43.10754" lon="2.03332">
        <ele>312</ele>
        <time>2023-09-10T12:37:02Z</time>
      </trkpt>
      <trkpt lat="43.10754" lon="2.0333">
        <ele>312</ele>
        <time>2023-09-10T12:37:03Z</time>
      </trkpt>
      <trkpt lat="43.10753" lon="2.03328">
        <ele>312</ele>
        <time>2023-09-10T12:37:04Z</time>
      </trkpt>
      <trkpt lat="43.10753" lon="2.03327">
        <ele>312</ele>
        <time>2023-09-10T12:37:05Z</time>
      </trkpt>
      <trkpt lat="43.10753" lon="2.03325">
        <ele>313</ele>
        <time>2023-09-10T12:37:06Z</time>
      </trkpt>
      <trkpt lat="43.10752" lon="2.03324">
        <ele>313</ele>
        <time>2023-09-10T12:37:07Z</time>
      </trkpt>
      <trkpt lat="43.10752" lon="2.03322">
        <ele>313</ele>
        <time>2023-09-10T12:37:08Z</time>
      </trkpt>
      <trkpt lat="43.10751" lon="2.0332">
        <ele>313</ele>
        <time>2023-09-10T12:37:09Z</time>
      </trkpt>
      <trkpt lat="43.10751" lon="2.03319">
        <ele>313</ele>
        <time>2023-09-10T12:37:10Z</time>
      </trkpt>
      <trkpt lat="43.1075" lon="2.03317">
        <ele>313</ele>
        <time>2023-09-10T12:37:11Z</time>
      </trkpt>
      <trkpt lat="43.10749" lon="2.03316">
        <ele>313</ele>
        <time>2023-09-10T12:37:12Z</time>
      </trkpt>
      <trkpt lat="43.10749" lon="2.03314">
        <ele>313</ele>
        <time>2023-09-10T12:37:13Z</time>
      </trkpt>
      <trkpt lat="43.10748" lon="2.03313">
        <ele>313</ele>
        <time>2023-09-10T12:37:14Z</time>
      </trkpt>
      <trkpt lat="43.10747" lon="2.03311">
        <ele>313</ele>
        <time>2023-09-10T12:37:15Z</time>
      </trkpt>
      <trkpt lat="43.10747" lon="2.0331">
        <ele>313</ele>
        <time>2023-09-10T12:37:16Z</time>
      </trkpt>
      <trkpt lat="43.10746" lon="2.03309">
        <ele>313</ele>
        <time>2023-09-10T12:37:17Z</time>
      </trkpt>
      <trkpt lat="43.10745" lon="2.03307">
        <ele>313</ele>
        <time>2023-09-10T12:37:18Z</time>
      </trkpt>
      <trkpt lat="43.10744" lon="2.03306">
        <ele>313</ele>
        <time>2023-09-10T12:37:19Z</time>
      </trkpt>
      <trkpt lat="43.10743" lon="2.03305">
        <ele>313</ele>
        <time>2023-09-10T12:37:20Z</time>
      </trkpt>
      <trkpt lat="43.10742" lon="2.03304">
        <ele>314</ele>
        <time>2023-09-10T12:37:21Z</time>
      </trkpt>
      <trkpt lat="43.10741" lon="2.03303">
        <ele>314</ele>
        <time>2023-09-10T12:37:22Z</time>
      </trkpt>
      <trkpt lat="43.1074" lon="2.03302">
        <ele>314</ele>
        <time>2023-09-10T12:37:23Z</time>
      </trkpt>
      <trkpt lat="43.10739" lon="2.03302">
        <ele>314</ele>
        <time>2023-09-10T12:37:24Z</time>
      </trkpt>
      <trkpt lat="43.10738" lon="2.03301">
        <ele>314</ele>
        <time>2023-09-10T12:37:25Z</time>
      </trkpt>
      <trkpt lat="43.10737" lon="2.033">
        <ele>314</ele>
        <time>2023-09-10T12:37:26Z</time>
      </trkpt>
      <trkpt lat="43.10736" lon="2.033">
        <ele>314</ele>
        <time>2023-09-10T12:37:27Z</time>
      </trkpt>
      <trkpt lat="43.10735" lon="2.03299">
        <ele>314</ele>
        <time>2023-09-10T12:37:28Z</time>
      </trkpt>
      <trkpt lat="43.10733" lon="2.03299">
        <ele>314</ele>
        <time>2023-09-10T12:37:29Z</time>
      </trkpt>
      <trkpt lat="43.10732" lon="2.03298">
        <ele>314</ele>
        <time>2023-09-10T12:37:30Z</time>
      </trkpt>
      <trkpt lat="43.10731" lon="2.03298">
        <ele>314</ele>
        <time>2023-09-10T12:37:31Z</time>
      </trkpt>
      <trkpt lat="43.1073" lon="2.03298">
        <ele>314</ele>
        <time>2023-09-10T12:37:32Z</time>
      </trkpt>
      <trkpt lat="43.10729" lon="2.03298">
        <ele>314</ele>
        <time>2023-09-10T12:37:33Z</time>
      </trkpt>
      <trkpt lat="43.10728" lon="2.03297">
        <ele>314</ele>
        <time>2023-09-10T12:37:34Z</time>
      </trkpt>
      <trkpt lat="43.10727" lon="2.03297">
        <ele>314</ele>
        <time>2023-09-10T12:37:35Z</time>
      </trkpt>
      <trkpt lat="43.10725" lon="2.03296">
        <ele>314</ele>
        <time>2023-09-10T12:37:36Z</time>
      </trkpt>
      <trkpt lat="43.10724" lon="2.03296">
        <ele>314</ele>
        <time>2023-09-10T12:37:37Z</time>
      </trkpt>
      <trkpt lat="43.10723" lon="2.03295">
        <ele>314</ele>
        <time>2023-09-10T12:37:38Z</time>
      </trkpt>
      <trkpt lat="43.10722" lon="2.03295">
        <ele>314</ele>
        <time>2023-09-10T12:37:39Z</time>
      </trkpt>
      <trkpt lat="43.10721" lon="2.03294">
        <ele>314</ele>
        <time>2023-09-10T12:37:40Z</time>
      </trkpt>
      <trkpt lat="43.1072" lon="2.03294">
        <ele>315</ele>
        <time>2023-09-10T12:37:41Z</time>
      </trkpt>
      <trkpt lat="43.10719" lon="2.03294">
        <ele>315</ele>
        <time>2023-09-10T12:37:42Z</time>
      </trkpt>
      <trkpt lat="43.10717" lon="2.03293">
        <ele>315</ele>
        <time>2023-09-10T12:37:43Z</time>
      </trkpt>
      <trkpt lat="43.10716" lon="2.03293">
        <ele>315</ele>
        <time>2023-09-10T12:37:44Z</time>
      </trkpt>
      <trkpt lat="43.10715" lon="2.03293">
        <ele>315</ele>
        <time>2023-09-10T12:37:45Z</time>
      </trkpt>
      <trkpt lat="43.10714" lon="2.03292">
        <ele>315</ele>
        <time>2023-09-10T12:37:46Z</time>
      </trkpt>
      <trkpt lat="43.10713" lon="2.03292">
        <ele>315</ele>
        <time>2023-09-10T12:37:47Z</time>
      </trkpt>
      <trkpt lat="43.10712" lon="2.03292">
        <ele>315</ele>
        <time>2023-09-10T12:37:48Z</time>
      </trkpt>
      <trkpt lat="43.10711" lon="2.03291">
        <ele>315</ele>
        <time>2023-09-10T12:37:49Z</time>
      </trkpt>
      <trkpt lat="43.1071" lon="2.03291">
        <ele>315</ele>
        <time>2023-09-10T12:37:50Z</time>
      </trkpt>
      <trkpt lat="43.10708" lon="2.03291">
        <ele>316</ele>
        <time>2023-09-10T12:37:51Z</time>
      </trkpt>
      <trkpt lat="43.10707" lon="2.0329">
        <ele>316</ele>
        <time>2023-09-10T12:37:52Z</time>
      </trkpt>
      <trkpt lat="43.10706" lon="2.0329">
        <ele>316</ele>
        <time>2023-09-10T12:37:53Z</time>
      </trkpt>
      <trkpt lat="43.10705" lon="2.03289">
        <ele>316</ele>
        <time>2023-09-10T12:37:54Z</time>
      </trkpt>
      <trkpt lat="43.10704" lon="2.03289">
        <ele>316</ele>
        <time>2023-09-10T12:37:55Z</time>
      </trkpt>
      <trkpt lat="43.10703" lon="2.03288">
        <ele>316</ele>
        <time>2023-09-10T12:37:56Z</time>
      </trkpt>
      <trkpt lat="43.10702" lon="2.03287">
        <ele>316</ele>
        <time>2023-09-10T12:37:57Z</time>
      </trkpt>
      <trkpt lat="43.10701" lon="2.03286">
        <ele>316</ele>
        <time>2023-09-10T12:37:58Z</time>
      </trkpt>
      <trkpt lat="43.10701" lon="2.03285">
        <ele>316</ele>
        <time>2023-09-10T12:37:59Z</time>
      </trkpt>
      <trkpt lat="43.107" lon="2.03283">
        <ele>316</ele>
        <time>2023-09-10T12:38:00Z</time>
      </trkpt>
      <trkpt lat="43.107" lon="2.03281">
        <ele>319</ele>
        <time>2023-09-10T12:40:19Z</time>
      </trkpt>
      <trkpt lat="43.107" lon="2.0328">
        <ele>319</ele>
        <time>2023-09-10T12:40:20Z</time>
      </trkpt>
      <trkpt lat="43.10699" lon="2.03279">
        <ele>319</ele>
        <time>2023-09-10T12:40:21Z</time>
      </trkpt>
      <trkpt lat="43.10699" lon="2.03278">
        <ele>319</ele>
        <time>2023-09-10T12:40:22Z</time>
      </trkpt>
      <trkpt lat="43.10699" lon="2.03277">
        <ele>319</ele>
        <time>2023-09-10T12:40:23Z</time>
      </trkpt>
      <trkpt lat="43.107" lon="2.03276">
        <ele>319</ele>
        <time>2023-09-10T12:40:24Z</time>
      </trkpt>
      <trkpt lat="43.107" lon="2.03274">
        <ele>319</ele>
        <time>2023-09-10T12:40:25Z</time>
      </trkpt>
      <trkpt lat="43.107" lon="2.03273">
        <ele>319</ele>
        <time>2023-09-10T12:40:26Z</time>
      </trkpt>
      <trkpt lat="43.107" lon="2.03272">
        <ele>319</ele>
        <time>2023-09-10T12:40:27Z</time>
      </trkpt>
      <trkpt lat="43.10701" lon="2.0327">
        <ele>319</ele>
        <time>2023-09-10T12:40:28Z</time>
      </trkpt>
      <trkpt lat="43.10701" lon="2.03269">
        <ele>319</ele>
        <time>2023-09-10T12:40:29Z</time>
      </trkpt>
      <trkpt lat="43.10701" lon="2.03268">
        <ele>319</ele>
        <time>2023-09-10T12:40:30Z</time>
      </trkpt>
      <trkpt lat="43.10702" lon="2.03267">
        <ele>319</ele>
        <time>2023-09-10T12:40:31Z</time>
      </trkpt>
      <trkpt lat="43.10702" lon="2.03265">
        <ele>319</ele>
        <time>2023-09-10T12:40:32Z</time>
      </trkpt>
      <trkpt lat="43.10702" lon="2.03264">
        <ele>319</ele>
        <time>2023-09-10T12:40:33Z</time>
      </trkpt>
      <trkpt lat="43.10702" lon="2.03263">
        <ele>319</ele>
        <time>2023-09-10T12:40:34Z</time>
      </trkpt>
      <trkpt lat="43.10703" lon="2.03261">
        <ele>319</ele>
        <time>2023-09-10T12:40:35Z</time>
      </trkpt>
      <trkpt lat="43.10703" lon="2.0326">
        <ele>319</ele>
        <time>2023-09-10T12:40:36Z</time>
      </trkpt>
      <trkpt lat="43.10703" lon="2.03258">
        <ele>319</ele>
        <time>2023-09-10T12:40:37Z</time>
      </trkpt>
      <trkpt lat="43.10703" lon="2.03256">
        <ele>319</ele>
        <time>2023-09-10T12:40:38Z</time>
      </trkpt>
      <trkpt lat="43.10704" lon="2.03255">
        <ele>319</ele>
        <time>2023-09-10T12:40:39Z</time>
      </trkpt>
      <trkpt lat="43.10704" lon="2.03253">
        <ele>319</ele>
        <time>2023-09-10T12:40:40Z</time>
      </trkpt>
      <trkpt lat="43.10704" lon="2.03251">
        <ele>319</ele>
        <time>2023-09-10T12:40:41Z</time>
      </trkpt>
      <trkpt lat="43.10705" lon="2.0325">
        <ele>319</ele>
        <time>2023-09-10T12:40:42Z</time>
      </trkpt>
      <trkpt lat="43.10705" lon="2.03248">
        <ele>319</ele>
        <time>2023-09-10T12:40:43Z</time>
      </trkpt>
      <trkpt lat="43.10706" lon="2.03247">
        <ele>319</ele>
        <time>2023-09-10T12:40:44Z</time>
      </trkpt>
      <trkpt lat="43.10706" lon="2.03245">
        <ele>319</ele>
        <time>2023-09-10T12:40:45Z</time>
      </trkpt>
      <trkpt lat="43.10707" lon="2.03244">
        <ele>320</ele>
        <time>2023-09-10T12:40:46Z</time>
      </trkpt>
      <trkpt lat="43.10707" lon="2.03242">
        <ele>320</ele>
        <time>2023-09-10T12:40:47Z</time>
      </trkpt>
      <trkpt lat="43.10707" lon="2.03241">
        <ele>320</ele>
        <time>2023-09-10T12:40:48Z</time>
      </trkpt>
      <trkpt lat="43.10708" lon="2.03239">
        <ele>320</ele>
        <time>2023-09-10T12:40:49Z</time>
      </trkpt>
      <trkpt lat="43.10708" lon="2.03238">
        <ele>320</ele>
        <time>2023-09-10T12:40:50Z</time>
      </trkpt>
      <trkpt lat="43.10708" lon="2.03236">
        <ele>320</ele>
        <time>2023-09-10T12:40:51Z</time>
      </trkpt>
      <trkpt lat="43.10708" lon="2.03234">
        <ele>320</ele>
        <time>2023-09-10T12:40:52Z</time>
      </trkpt>
      <trkpt lat="43.10709" lon="2.03233">
        <ele>320</ele>
        <time>2023-09-10T12:40:53Z</time>
      </trkpt>
      <trkpt lat="43.10709" lon="2.03231">
        <ele>320</ele>
        <time>2023-09-10T12:40:54Z</time>
      </trkpt>
      <trkpt lat="43.10709" lon="2.03229">
        <ele>320</ele>
        <time>2023-09-10T12:40:55Z</time>
      </trkpt>
      <trkpt lat="43.10709" lon="2.03228">
        <ele>320</ele>
        <time>2023-09-10T12:40:56Z</time>
      </trkpt>
      <trkpt lat="43.10709" lon="2.03226">
        <ele>320</ele>
        <time>2023-09-10T12:40:57Z</time>
      </trkpt>
      <trkpt lat="43.10709" lon="2.03224">
        <ele>320</ele>
        <time>2023-09-10T12:40:58Z</time>
      </trkpt>
      <trkpt lat="43.10709" lon="2.03223">
        <ele>320</ele>
        <time>2023-09-10T12:40:59Z</time>
      </trkpt>
      <trkpt lat="43.10709" lon="2.03221">
        <ele>320</ele>
        <time>2023-09-10T12:41:00Z</time>
      </trkpt>
      <trkpt lat="43.1071" lon="2.0322">
        <ele>320</ele>
        <time>2023-09-10T12:41:01Z</time>
      </trkpt>
      <trkpt lat="43.1071" lon="2.03218">
        <ele>320</ele>
        <time>2023-09-10T12:41:02Z</time>
      </trkpt>
      <trkpt lat="43.1071" lon="2.03217">
        <ele>320</ele>
        <time>2023-09-10T12:41:03Z</time>
      </trkpt>
      <trkpt lat="43.1071" lon="2.03215">
        <ele>320</ele>
        <time>2023-09-10T12:41:04Z</time>
      </trkpt>
      <trkpt lat="43.1071" lon="2.03214">
        <ele>320</ele>
        <time>2023-09-10T12:41:05Z</time>
      </trkpt>
      <trkpt lat="43.1071" lon="2.03212">
        <ele>320</ele>
        <time>2023-09-10T12:41:06Z</time>
      </trkpt>
      <trkpt lat="43.1071" lon="2.03211">
        <ele>320</ele>
        <time>2023-09-10T12:41:07Z</time>
      </trkpt>
      <trkpt lat="43.1071" lon="2.03209">
        <ele>320</ele>
        <time>2023-09-10T12:41:08Z</time>
      </trkpt>
      <trkpt lat="43.10711" lon="2.03208">
        <ele>320</ele>
        <time>2023-09-10T12:41:09Z</time>
      </trkpt>
      <trkpt lat="43.10711" lon="2.03207">
        <ele>320</ele>
        <time>2023-09-10T12:41:10Z</time>
      </trkpt>
      <trkpt lat="43.10711" lon="2.03205">
        <ele>320</ele>
        <time>2023-09-10T12:41:11Z</time>
      </trkpt>
      <trkpt lat="43.10712" lon="2.03204">
        <ele>320</ele>
        <time>2023-09-10T12:41:12Z</time>
      </trkpt>
      <trkpt lat="43.10712" lon="2.03203">
        <ele>320</ele>
        <time>2023-09-10T12:41:13Z</time>
      </trkpt>
      <trkpt lat="43.10713" lon="2.03201">
        <ele>320</ele>
        <time>2023-09-10T12:41:14Z</time>
      </trkpt>
      <trkpt lat="43.10713" lon="2.032">
        <ele>320</ele>
        <time>2023-09-10T12:41:15Z</time>
      </trkpt>
      <trkpt lat="43.10713" lon="2.03198">
        <ele>321</ele>
        <time>2023-09-10T12:41:16Z</time>
      </trkpt>
      <trkpt lat="43.10714" lon="2.03197">
        <ele>321</ele>
        <time>2023-09-10T12:41:17Z</time>
      </trkpt>
      <trkpt lat="43.10714" lon="2.03195">
        <ele>321</ele>
        <time>2023-09-10T12:41:18Z</time>
      </trkpt>
      <trkpt lat="43.10714" lon="2.03194">
        <ele>321</ele>
        <time>2023-09-10T12:41:19Z</time>
      </trkpt>
      <trkpt lat="43.10714" lon="2.03192">
        <ele>321</ele>
        <time>2023-09-10T12:41:20Z</time>
      </trkpt>
      <trkpt lat="43.10715" lon="2.0319">
        <ele>321</ele>
        <time>2023-09-10T12:41:21Z</time>
      </trkpt>
      <trkpt lat="43.10715" lon="2.03189">
        <ele>321</ele>
        <time>2023-09-10T12:41:22Z</time>
      </trkpt>
      <trkpt lat="43.10715" lon="2.03187">
        <ele>321</ele>
        <time>2023-09-10T12:41:23Z</time>
      </trkpt>
      <trkpt lat="43.10715" lon="2.03185">
        <ele>321</ele>
        <time>2023-09-10T12:41:24Z</time>
      </trkpt>
      <trkpt lat="43.10716" lon="2.03184">
        <ele>321</ele>
        <time>2023-09-10T12:41:25Z</time>
      </trkpt>
      <trkpt lat="43.10716" lon="2.03182">
        <ele>321</ele>
        <time>2023-09-10T12:41:26Z</time>
      </trkpt>
      <trkpt lat="43.10716" lon="2.0318">
        <ele>321</ele>
        <time>2023-09-10T12:41:27Z</time>
      </trkpt>
      <trkpt lat="43.10717" lon="2.03179">
        <ele>321</ele>
        <time>2023-09-10T12:41:28Z</time>
      </trkpt>
      <trkpt lat="43.10717" lon="2.03177">
        <ele>321</ele>
        <time>2023-09-10T12:41:29Z</time>
      </trkpt>
      <trkpt lat="43.10717" lon="2.03175">
        <ele>321</ele>
        <time>2023-09-10T12:41:30Z</time>
      </trkpt>
      <trkpt lat="43.10717" lon="2.03174">
        <ele>321</ele>
        <time>2023-09-10T12:41:31Z</time>
      </trkpt>
      <trkpt lat="43.10717" lon="2.03172">
        <ele>321</ele>
        <time>2023-09-10T12:41:32Z</time>
      </trkpt>
      <trkpt lat="43.10718" lon="2.03171">
        <ele>321</ele>
        <time>2023-09-10T12:41:33Z</time>
      </trkpt>
      <trkpt lat="43.10718" lon="2.0317">
        <ele>321</ele>
        <time>2023-09-10T12:41:34Z</time>
      </trkpt>
      <trkpt lat="43.10718" lon="2.03168">
        <ele>321</ele>
        <time>2023-09-10T12:41:35Z</time>
      </trkpt>
      <trkpt lat="43.10718" lon="2.03167">
        <ele>321</ele>
        <time>2023-09-10T12:41:36Z</time>
      </trkpt>
      <trkpt lat="43.10718" lon="2.03165">
        <ele>321</ele>
        <time>2023-09-10T12:41:37Z</time>
      </trkpt>
      <trkpt lat="43.10719" lon="2.03164">
        <ele>321</ele>
        <time>2023-09-10T12:41:38Z</time>
      </trkpt>
      <trkpt lat="43.10719" lon="2.03163">
        <ele>321</ele>
        <time>2023-09-10T12:41:39Z</time>
      </trkpt>
      <trkpt lat="43.10719" lon="2.03161">
        <ele>321</ele>
        <time>2023-09-10T12:41:40Z</time>
      </trkpt>
      <trkpt lat="43.10719" lon="2.0316">
        <ele>321</ele>
        <time>2023-09-10T12:41:41Z</time>
      </trkpt>
      <trkpt lat="43.10719" lon="2.03158">
        <ele>321</ele>
        <time>2023-09-10T12:41:42Z</time>
      </trkpt>
      <trkpt lat="43.10719" lon="2.03156">
        <ele>321</ele>
        <time>2023-09-10T12:41:43Z</time>
      </trkpt>
      <trkpt lat="43.1072" lon="2.03155">
        <ele>321</ele>
        <time>2023-09-10T12:41:44Z</time>
      </trkpt>
      <trkpt lat="43.1072" lon="2.03153">
        <ele>321</ele>
        <time>2023-09-10T12:41:45Z</time>
      </trkpt>
      <trkpt lat="43.1072" lon="2.03152">
        <ele>321</ele>
        <time>2023-09-10T12:41:46Z</time>
      </trkpt>
      <trkpt lat="43.1072" lon="2.0315">
        <ele>321</ele>
        <time>2023-09-10T12:41:47Z</time>
      </trkpt>
      <trkpt lat="43.1072" lon="2.03149">
        <ele>321</ele>
        <time>2023-09-10T12:41:48Z</time>
      </trkpt>
      <trkpt lat="43.10721" lon="2.03147">
        <ele>321</ele>
        <time>2023-09-10T12:41:49Z</time>
      </trkpt>
      <trkpt lat="43.10721" lon="2.03146">
        <ele>321</ele>
        <time>2023-09-10T12:41:50Z</time>
      </trkpt>
      <trkpt lat="43.10721" lon="2.03144">
        <ele>321</ele>
        <time>2023-09-10T12:41:51Z</time>
      </trkpt>
      <trkpt lat="43.10721" lon="2.03142">
        <ele>321</ele>
        <time>2023-09-10T12:41:52Z</time>
      </trkpt>
      <trkpt lat="43.10721" lon="2.03141">
        <ele>321</ele>
        <time>2023-09-10T12:41:53Z</time>
      </trkpt>
      <trkpt lat="43.10721" lon="2.03139">
        <ele>321</ele>
        <time>2023-09-10T12:41:54Z</time>
      </trkpt>
      <trkpt lat="43.10721" lon="2.03137">
        <ele>321</ele>
        <time>2023-09-10T12:41:55Z</time>
      </trkpt>
      <trkpt lat="43.10721" lon="2.03136">
        <ele>322</ele>
        <time>2023-09-10T12:41:56Z</time>
      </trkpt>
      <trkpt lat="43.10721" lon="2.03134">
        <ele>322</ele>
        <time>2023-09-10T12:41:57Z</time>
      </trkpt>
      <trkpt lat="43.10721" lon="2.03133">
        <ele>322</ele>
        <time>2023-09-10T12:41:58Z</time>
      </trkpt>
      <trkpt lat="43.10721" lon="2.03131">
        <ele>322</ele>
        <time>2023-09-10T12:41:59Z</time>
      </trkpt>
      <trkpt lat="43.10721" lon="2.0313">
        <ele>322</ele>
        <time>2023-09-10T12:42:00Z</time>
      </trkpt>
      <trkpt lat="43.10721" lon="2.03128">
        <ele>322</ele>
        <time>2023-09-10T12:42:01Z</time>
      </trkpt>
      <trkpt lat="43.10721" lon="2.03127">
        <ele>322</ele>
        <time>2023-09-10T12:42:02Z</time>
      </trkpt>
      <trkpt lat="43.10721" lon="2.03125">
        <ele>322</ele>
        <time>2023-09-10T12:42:03Z</time>
      </trkpt>
      <trkpt lat="43.10721" lon="2.03123">
        <ele>322</ele>
        <time>2023-09-10T12:42:04Z</time>
      </trkpt>
      <trkpt lat="43.10721" lon="2.03122">
        <ele>322</ele>
        <time>2023-09-10T12:42:05Z</time>
      </trkpt>
      <trkpt lat="43.10721" lon="2.0312">
        <ele>322</ele>
        <time>2023-09-10T12:42:06Z</time>
      </trkpt>
      <trkpt lat="43.10722" lon="2.03118">
        <ele>322</ele>
        <time>2023-09-10T12:42:07Z</time>
      </trkpt>
      <trkpt lat="43.10722" lon="2.03117">
        <ele>322</ele>
        <time>2023-09-10T12:42:08Z</time>
      </trkpt>
      <trkpt lat="43.10722" lon="2.03115">
        <ele>322</ele>
        <time>2023-09-10T12:42:09Z</time>
      </trkpt>
      <trkpt lat="43.10722" lon="2.03114">
        <ele>322</ele>
        <time>2023-09-10T12:42:10Z</time>
      </trkpt>
      <trkpt lat="43.10722" lon="2.03113">
        <ele>322</ele>
        <time>2023-09-10T12:42:11Z</time>
      </trkpt>
      <trkpt lat="43.10722" lon="2.03111">
        <ele>322</ele>
        <time>2023-09-10T12:42:12Z</time>
      </trkpt>
      <trkpt lat="43.10722" lon="2.0311">
        <ele>322</ele>
        <time>2023-09-10T12:42:13Z</time>
      </trkpt>
      <trkpt lat="43.10722" lon="2.03108">
        <ele>322</ele>
        <time>2023-09-10T12:42:14Z</time>
      </trkpt>
      <trkpt lat="43.10721" lon="2.03106">
        <ele>322</ele>
        <time>2023-09-10T12:42:15Z</time>
      </trkpt>
      <trkpt lat="43.10721" lon="2.03104">
        <ele>322</ele>
        <time>2023-09-10T12:42:16Z</time>
      </trkpt>
      <trkpt lat="43.10721" lon="2.03102">
        <ele>322</ele>
        <time>2023-09-10T12:42:17Z</time>
      </trkpt>
      <trkpt lat="43.10721" lon="2.031">
        <ele>322</ele>
        <time>2023-09-10T12:42:18Z</time>
      </trkpt>
      <trkpt lat="43.1072" lon="2.03098">
        <ele>322</ele>
        <time>2023-09-10T12:42:19Z</time>
      </trkpt>
      <trkpt lat="43.1072" lon="2.03097">
        <ele>322</ele>
        <time>2023-09-10T12:42:20Z</time>
      </trkpt>
      <trkpt lat="43.1072" lon="2.03095">
        <ele>322</ele>
        <time>2023-09-10T12:42:21Z</time>
      </trkpt>
      <trkpt lat="43.1072" lon="2.03093">
        <ele>322</ele>
        <time>2023-09-10T12:42:22Z</time>
      </trkpt>
      <trkpt lat="43.10719" lon="2.03092">
        <ele>322</ele>
        <time>2023-09-10T12:42:23Z</time>
      </trkpt>
      <trkpt lat="43.10719" lon="2.0309">
        <ele>322</ele>
        <time>2023-09-10T12:42:24Z</time>
      </trkpt>
      <trkpt lat="43.10719" lon="2.03088">
        <ele>322</ele>
        <time>2023-09-10T12:42:25Z</time>
      </trkpt>
      <trkpt lat="43.10719" lon="2.03087">
        <ele>322</ele>
        <time>2023-09-10T12:42:26Z</time>
      </trkpt>
      <trkpt lat="43.10719" lon="2.03085">
        <ele>322</ele>
        <time>2023-09-10T12:42:27Z</time>
      </trkpt>
      <trkpt lat="43.10719" lon="2.03084">
        <ele>322</ele>
        <time>2023-09-10T12:42:28Z</time>
      </trkpt>
      <trkpt lat="43.10718" lon="2.03082">
        <ele>322</ele>
        <time>2023-09-10T12:42:29Z</time>
      </trkpt>
      <trkpt lat="43.10718" lon="2.03081">
        <ele>322</ele>
        <time>2023-09-10T12:42:30Z</time>
      </trkpt>
      <trkpt lat="43.10718" lon="2.0308">
        <ele>322</ele>
        <time>2023-09-10T12:42:31Z</time>
      </trkpt>
      <trkpt lat="43.10718" lon="2.03078">
        <ele>322</ele>
        <time>2023-09-10T12:42:32Z</time>
      </trkpt>
      <trkpt lat="43.10718" lon="2.03077">
        <ele>322</ele>
        <time>2023-09-10T12:42:33Z</time>
      </trkpt>
      <trkpt lat="43.10718" lon="2.03076">
        <ele>322</ele>
        <time>2023-09-10T12:42:34Z</time>
      </trkpt>
      <trkpt lat="43.10718" lon="2.03075">
        <ele>322</ele>
        <time>2023-09-10T12:42:35Z</time>
      </trkpt>
      <trkpt lat="43.10718" lon="2.03073">
        <ele>323</ele>
        <time>2023-09-10T12:42:36Z</time>
      </trkpt>
      <trkpt lat="43.10718" lon="2.03072">
        <ele>323</ele>
        <time>2023-09-10T12:42:37Z</time>
      </trkpt>
      <trkpt lat="43.10718" lon="2.0307">
        <ele>323</ele>
        <time>2023-09-10T12:42:38Z</time>
      </trkpt>
      <trkpt lat="43.10718" lon="2.03069">
        <ele>323</ele>
        <time>2023-09-10T12:42:39Z</time>
      </trkpt>
      <trkpt lat="43.10718" lon="2.03068">
        <ele>323</ele>
        <time>2023-09-10T12:42:40Z</time>
      </trkpt>
      <trkpt lat="43.10718" lon="2.03068">
        <ele>323</ele>
        <time>2023-09-10T12:42:41Z</time>
      </trkpt>
      <trkpt lat="43.10718" lon="2.03067">
        <ele>323</ele>
        <time>2023-09-10T12:42:42Z</time>
      </trkpt>
      <trkpt lat="43.10718" lon="2.03066">
        <ele>323</ele>
        <time>2023-09-10T12:42:43Z</time>
      </trkpt>
      <trkpt lat="43.10718" lon="2.03065">
        <ele>323</ele>
        <time>2023-09-10T12:42:44Z</time>
      </trkpt>
      <trkpt lat="43.10718" lon="2.03065">
        <ele>323</ele>
        <time>2023-09-10T12:42:45Z</time>
      </trkpt>
      <trkpt lat="43.10718" lon="2.03064">
        <ele>323</ele>
        <time>2023-09-10T12:42:46Z</time>
      </trkpt>
      <trkpt lat="43.10718" lon="2.03063">
        <ele>323</ele>
        <time>2023-09-10T12:42:47Z</time>
      </trkpt>
      <trkpt lat="43.10717" lon="2.03062">
        <ele>323</ele>
        <time>2023-09-10T12:42:48Z</time>
      </trkpt>
      <trkpt lat="43.10717" lon="2.03061">
        <ele>323</ele>
        <time>2023-09-10T12:42:49Z</time>
      </trkpt>
      <trkpt lat="43.10717" lon="2.0306">
        <ele>323</ele>
        <time>2023-09-10T12:42:50Z</time>
      </trkpt>
      <trkpt lat="43.10717" lon="2.03058">
        <ele>323</ele>
        <time>2023-09-10T12:42:51Z</time>
      </trkpt>
      <trkpt lat="43.10716" lon="2.03057">
        <ele>323</ele>
        <time>2023-09-10T12:42:52Z</time>
      </trkpt>
      <trkpt lat="43.10716" lon="2.03056">
        <ele>323</ele>
        <time>2023-09-10T12:42:53Z</time>
      </trkpt>
      <trkpt lat="43.10716" lon="2.03054">
        <ele>323</ele>
        <time>2023-09-10T12:42:54Z</time>
      </trkpt>
      <trkpt lat="43.10716" lon="2.03053">
        <ele>323</ele>
        <time>2023-09-10T12:42:55Z</time>
      </trkpt>
      <trkpt lat="43.10716" lon="2.03051">
        <ele>324</ele>
        <time>2023-09-10T12:42:56Z</time>
      </trkpt>
      <trkpt lat="43.10716" lon="2.0305">
        <ele>324</ele>
        <time>2023-09-10T12:42:57Z</time>
      </trkpt>
      <trkpt lat="43.10716" lon="2.03048">
        <ele>324</ele>
        <time>2023-09-10T12:42:58Z</time>
      </trkpt>
      <trkpt lat="43.10715" lon="2.03047">
        <ele>324</ele>
        <time>2023-09-10T12:42:59Z</time>
      </trkpt>
      <trkpt lat="43.10715" lon="2.03045">
        <ele>324</ele>
        <time>2023-09-10T12:43:00Z</time>
      </trkpt>
      <trkpt lat="43.10715" lon="2.03044">
        <ele>324</ele>
        <time>2023-09-10T12:43:01Z</time>
      </trkpt>
      <trkpt lat="43.10715" lon="2.03042">
        <ele>324</ele>
        <time>2023-09-10T12:43:02Z</time>
      </trkpt>
      <trkpt lat="43.10715" lon="2.03041">
        <ele>324</ele>
        <time>2023-09-10T12:43:03Z</time>
      </trkpt>
      <trkpt lat="43.10715" lon="2.03039">
        <ele>324</ele>
        <time>2023-09-10T12:43:04Z</time>
      </trkpt>
      <trkpt lat="43.10715" lon="2.03038">
        <ele>324</ele>
        <time>2023-09-10T12:43:05Z</time>
      </trkpt>
      <trkpt lat="43.10715" lon="2.03036">
        <ele>324</ele>
        <time>2023-09-10T12:43:06Z</time>
      </trkpt>
      <trkpt lat="43.10715" lon="2.03035">
        <ele>324</ele>
        <time>2023-09-10T12:43:07Z</time>
      </trkpt>
      <trkpt lat="43.10715" lon="2.03033">
        <ele>324</ele>
        <time>2023-09-10T12:43:08Z</time>
      </trkpt>
      <trkpt lat="43.10715" lon="2.03032">
        <ele>324</ele>
        <time>2023-09-10T12:43:09Z</time>
      </trkpt>
      <trkpt lat="43.10715" lon="2.0303">
        <ele>324</ele>
        <time>2023-09-10T12:43:10Z</time>
      </trkpt>
      <trkpt lat="43.10715" lon="2.03029">
        <ele>324</ele>
        <time>2023-09-10T12:43:11Z</time>
      </trkpt>
      <trkpt lat="43.10715" lon="2.03027">
        <ele>324</ele>
        <time>2023-09-10T12:43:12Z</time>
      </trkpt>
      <trkpt lat="43.10714" lon="2.03026">
        <ele>324</ele>
        <time>2023-09-10T12:43:13Z</time>
      </trkpt>
      <trkpt lat="43.10714" lon="2.03025">
        <ele>324</ele>
        <time>2023-09-10T12:43:14Z</time>
      </trkpt>
      <trkpt lat="43.10714" lon="2.03023">
        <ele>324</ele>
        <time>2023-09-10T12:43:15Z</time>
      </trkpt>
      <trkpt lat="43.10714" lon="2.03022">
        <ele>324</ele>
        <time>2023-09-10T12:43:16Z</time>
      </trkpt>
      <trkpt lat="43.10713" lon="2.0302">
        <ele>324</ele>
        <time>2023-09-10T12:43:17Z</time>
      </trkpt>
      <trkpt lat="43.10713" lon="2.03019">
        <ele>324</ele>
        <time>2023-09-10T12:43:18Z</time>
      </trkpt>
      <trkpt lat="43.10713" lon="2.03017">
        <ele>324</ele>
        <time>2023-09-10T12:43:19Z</time>
      </trkpt>
      <trkpt lat="43.10713" lon="2.03015">
        <ele>324</ele>
        <time>2023-09-10T12:43:20Z</time>
      </trkpt>
      <trkpt lat="43.10713" lon="2.03013">
        <ele>325</ele>
        <time>2023-09-10T12:43:21Z</time>
      </trkpt>
      <trkpt lat="43.10713" lon="2.03011">
        <ele>325</ele>
        <time>2023-09-10T12:43:22Z</time>
      </trkpt>
      <trkpt lat="43.10713" lon="2.03009">
        <ele>325</ele>
        <time>2023-09-10T12:43:23Z</time>
      </trkpt>
      <trkpt lat="43.10713" lon="2.03007">
        <ele>325</ele>
        <time>2023-09-10T12:43:24Z</time>
      </trkpt>
      <trkpt lat="43.10712" lon="2.03005">
        <ele>325</ele>
        <time>2023-09-10T12:43:25Z</time>
      </trkpt>
      <trkpt lat="43.10712" lon="2.03003">
        <ele>325</ele>
        <time>2023-09-10T12:43:26Z</time>
      </trkpt>
      <trkpt lat="43.10712" lon="2.03002">
        <ele>325</ele>
        <time>2023-09-10T12:43:27Z</time>
      </trkpt>
      <trkpt lat="43.10712" lon="2.03">
        <ele>325</ele>
        <time>2023-09-10T12:43:28Z</time>
      </trkpt>
      <trkpt lat="43.10712" lon="2.02998">
        <ele>325</ele>
        <time>2023-09-10T12:43:29Z</time>
      </trkpt>
      <trkpt lat="43.10713" lon="2.02996">
        <ele>325</ele>
        <time>2023-09-10T12:43:30Z</time>
      </trkpt>
      <trkpt lat="43.10713" lon="2.02994">
        <ele>325</ele>
        <time>2023-09-10T12:43:31Z</time>
      </trkpt>
      <trkpt lat="43.10713" lon="2.02993">
        <ele>325</ele>
        <time>2023-09-10T12:43:32Z</time>
      </trkpt>
      <trkpt lat="43.10713" lon="2.02991">
        <ele>325</ele>
        <time>2023-09-10T12:43:33Z</time>
      </trkpt>
      <trkpt lat="43.10713" lon="2.0299">
        <ele>325</ele>
        <time>2023-09-10T12:43:34Z</time>
      </trkpt>
      <trkpt lat="43.10714" lon="2.02988">
        <ele>325</ele>
        <time>2023-09-10T12:43:35Z</time>
      </trkpt>
      <trkpt lat="43.10714" lon="2.02987">
        <ele>325</ele>
        <time>2023-09-10T12:43:36Z</time>
      </trkpt>
      <trkpt lat="43.10714" lon="2.02985">
        <ele>325</ele>
        <time>2023-09-10T12:43:37Z</time>
      </trkpt>
      <trkpt lat="43.10714" lon="2.02984">
        <ele>325</ele>
        <time>2023-09-10T12:43:38Z</time>
      </trkpt>
      <trkpt lat="43.10715" lon="2.02982">
        <ele>325</ele>
        <time>2023-09-10T12:43:39Z</time>
      </trkpt>
      <trkpt lat="43.10715" lon="2.02981">
        <ele>325</ele>
        <time>2023-09-10T12:43:40Z</time>
      </trkpt>
      <trkpt lat="43.10715" lon="2.02979">
        <ele>326</ele>
        <time>2023-09-10T12:43:41Z</time>
      </trkpt>
      <trkpt lat="43.10715" lon="2.02978">
        <ele>326</ele>
        <time>2023-09-10T12:43:42Z</time>
      </trkpt>
      <trkpt lat="43.10715" lon="2.02977">
        <ele>326</ele>
        <time>2023-09-10T12:43:43Z</time>
      </trkpt>
      <trkpt lat="43.10716" lon="2.02975">
        <ele>326</ele>
        <time>2023-09-10T12:43:44Z</time>
      </trkpt>
      <trkpt lat="43.10716" lon="2.02974">
        <ele>326</ele>
        <time>2023-09-10T12:43:45Z</time>
      </trkpt>
      <trkpt lat="43.10716" lon="2.02973">
        <ele>326</ele>
        <time>2023-09-10T12:43:46Z</time>
      </trkpt>
      <trkpt lat="43.10717" lon="2.02971">
        <ele>326</ele>
        <time>2023-09-10T12:43:47Z</time>
      </trkpt>
      <trkpt lat="43.10717" lon="2.0297">
        <ele>326</ele>
        <time>2023-09-10T12:43:48Z</time>
      </trkpt>
      <trkpt lat="43.10717" lon="2.02968">
        <ele>326</ele>
        <time>2023-09-10T12:43:49Z</time>
      </trkpt>
      <trkpt lat="43.10717" lon="2.02967">
        <ele>326</ele>
        <time>2023-09-10T12:43:50Z</time>
      </trkpt>
      <trkpt lat="43.10718" lon="2.02965">
        <ele>327</ele>
        <time>2023-09-10T12:43:51Z</time>
      </trkpt>
      <trkpt lat="43.10718" lon="2.02964">
        <ele>327</ele>
        <time>2023-09-10T12:43:52Z</time>
      </trkpt>
      <trkpt lat="43.10718" lon="2.02962">
        <ele>327</ele>
        <time>2023-09-10T12:43:53Z</time>
      </trkpt>
      <trkpt lat="43.10718" lon="2.0296">
        <ele>327</ele>
        <time>2023-09-10T12:43:54Z</time>
      </trkpt>
      <trkpt lat="43.10718" lon="2.02959">
        <ele>327</ele>
        <time>2023-09-10T12:43:55Z</time>
      </trkpt>
      <trkpt lat="43.10718" lon="2.02957">
        <ele>327</ele>
        <time>2023-09-10T12:43:56Z</time>
      </trkpt>
      <trkpt lat="43.10718" lon="2.02955">
        <ele>327</ele>
        <time>2023-09-10T12:43:57Z</time>
      </trkpt>
      <trkpt lat="43.10719" lon="2.02954">
        <ele>327</ele>
        <time>2023-09-10T12:43:58Z</time>
      </trkpt>
      <trkpt lat="43.10719" lon="2.02952">
        <ele>327</ele>
        <time>2023-09-10T12:43:59Z</time>
      </trkpt>
      <trkpt lat="43.10719" lon="2.02951">
        <ele>327</ele>
        <time>2023-09-10T12:44:00Z</time>
      </trkpt>
      <trkpt lat="43.1072" lon="2.0295">
        <ele>327</ele>
        <time>2023-09-10T12:44:01Z</time>
      </trkpt>
      <trkpt lat="43.1072" lon="2.02949">
        <ele>327</ele>
        <time>2023-09-10T12:44:02Z</time>
      </trkpt>
      <trkpt lat="43.10721" lon="2.02948">
        <ele>327</ele>
        <time>2023-09-10T12:44:03Z</time>
      </trkpt>
      <trkpt lat="43.10721" lon="2.02946">
        <ele>327</ele>
        <time>2023-09-10T12:44:04Z</time>
      </trkpt>
      <trkpt lat="43.10722" lon="2.02945">
        <ele>327</ele>
        <time>2023-09-10T12:44:05Z</time>
      </trkpt>
      <trkpt lat="43.10722" lon="2.02943">
        <ele>328</ele>
        <time>2023-09-10T12:44:06Z</time>
      </trkpt>
      <trkpt lat="43.10723" lon="2.02942">
        <ele>328</ele>
        <time>2023-09-10T12:44:07Z</time>
      </trkpt>
      <trkpt lat="43.10723" lon="2.0294">
        <ele>328</ele>
        <time>2023-09-10T12:44:08Z</time>
      </trkpt>
      <trkpt lat="43.10724" lon="2.02938">
        <ele>328</ele>
        <time>2023-09-10T12:44:09Z</time>
      </trkpt>
      <trkpt lat="43.10724" lon="2.02937">
        <ele>328</ele>
        <time>2023-09-10T12:44:10Z</time>
      </trkpt>
      <trkpt lat="43.10725" lon="2.02936">
        <ele>328</ele>
        <time>2023-09-10T12:44:11Z</time>
      </trkpt>
      <trkpt lat="43.10725" lon="2.02935">
        <ele>328</ele>
        <time>2023-09-10T12:44:12Z</time>
      </trkpt>
      <trkpt lat="43.10725" lon="2.02935">
        <ele>328</ele>
        <time>2023-09-10T12:44:13Z</time>
      </trkpt>
      <trkpt lat="43.10725" lon="2.02934">
        <ele>328</ele>
        <time>2023-09-10T12:44:14Z</time>
      </trkpt>
      <trkpt lat="43.10725" lon="2.02934">
        <ele>328</ele>
        <time>2023-09-10T12:44:15Z</time>
      </trkpt>
      <trkpt lat="43.10726" lon="2.02933">
        <ele>328</ele>
        <time>2023-09-10T12:44:16Z</time>
      </trkpt>
      <trkpt lat="43.10726" lon="2.02932">
        <ele>328</ele>
        <time>2023-09-10T12:44:17Z</time>
      </trkpt>
      <trkpt lat="43.10726" lon="2.02931">
        <ele>328</ele>
        <time>2023-09-10T12:44:18Z</time>
      </trkpt>
      <trkpt lat="43.10727" lon="2.02929">
        <ele>328</ele>
        <time>2023-09-10T12:44:19Z</time>
      </trkpt>
      <trkpt lat="43.10727" lon="2.02928">
        <ele>328</ele>
        <time>2023-09-10T12:44:20Z</time>
      </trkpt>
      <trkpt lat="43.10728" lon="2.02926">
        <ele>329</ele>
        <time>2023-09-10T12:44:21Z</time>
      </trkpt>
      <trkpt lat="43.10729" lon="2.02924">
        <ele>329</ele>
        <time>2023-09-10T12:44:22Z</time>
      </trkpt>
      <trkpt lat="43.10729" lon="2.02923">
        <ele>329</ele>
        <time>2023-09-10T12:44:23Z</time>
      </trkpt>
      <trkpt lat="43.1073" lon="2.02921">
        <ele>329</ele>
        <time>2023-09-10T12:44:24Z</time>
      </trkpt>
      <trkpt lat="43.1073" lon="2.0292">
        <ele>329</ele>
        <time>2023-09-10T12:44:25Z</time>
      </trkpt>
      <trkpt lat="43.10731" lon="2.02918">
        <ele>329</ele>
        <time>2023-09-10T12:44:26Z</time>
      </trkpt>
      <trkpt lat="43.10731" lon="2.02917">
        <ele>329</ele>
        <time>2023-09-10T12:44:27Z</time>
      </trkpt>
      <trkpt lat="43.10732" lon="2.02915">
        <ele>329</ele>
        <time>2023-09-10T12:44:28Z</time>
      </trkpt>
      <trkpt lat="43.10732" lon="2.02914">
        <ele>329</ele>
        <time>2023-09-10T12:44:29Z</time>
      </trkpt>
      <trkpt lat="43.10733" lon="2.02913">
        <ele>329</ele>
        <time>2023-09-10T12:44:30Z</time>
      </trkpt>
      <trkpt lat="43.10733" lon="2.02911">
        <ele>329</ele>
        <time>2023-09-10T12:44:31Z</time>
      </trkpt>
      <trkpt lat="43.10734" lon="2.0291">
        <ele>329</ele>
        <time>2023-09-10T12:44:32Z</time>
      </trkpt>
      <trkpt lat="43.10734" lon="2.02908">
        <ele>329</ele>
        <time>2023-09-10T12:44:33Z</time>
      </trkpt>
      <trkpt lat="43.10735" lon="2.02907">
        <ele>329</ele>
        <time>2023-09-10T12:44:34Z</time>
      </trkpt>
      <trkpt lat="43.10735" lon="2.02906">
        <ele>329</ele>
        <time>2023-09-10T12:44:35Z</time>
      </trkpt>
      <trkpt lat="43.10736" lon="2.02905">
        <ele>329</ele>
        <time>2023-09-10T12:44:36Z</time>
      </trkpt>
      <trkpt lat="43.10736" lon="2.02903">
        <ele>329</ele>
        <time>2023-09-10T12:44:37Z</time>
      </trkpt>
      <trkpt lat="43.10737" lon="2.02902">
        <ele>329</ele>
        <time>2023-09-10T12:44:38Z</time>
      </trkpt>
      <trkpt lat="43.10737" lon="2.02901">
        <ele>329</ele>
        <time>2023-09-10T12:44:39Z</time>
      </trkpt>
      <trkpt lat="43.10738" lon="2.02899">
        <ele>329</ele>
        <time>2023-09-10T12:44:40Z</time>
      </trkpt>
      <trkpt lat="43.10738" lon="2.02898">
        <ele>329</ele>
        <time>2023-09-10T12:44:41Z</time>
      </trkpt>
      <trkpt lat="43.10739" lon="2.02896">
        <ele>329</ele>
        <time>2023-09-10T12:44:42Z</time>
      </trkpt>
      <trkpt lat="43.1074" lon="2.02894">
        <ele>329</ele>
        <time>2023-09-10T12:44:43Z</time>
      </trkpt>
      <trkpt lat="43.1074" lon="2.02893">
        <ele>329</ele>
        <time>2023-09-10T12:44:44Z</time>
      </trkpt>
      <trkpt lat="43.1074" lon="2.02891">
        <ele>329</ele>
        <time>2023-09-10T12:44:45Z</time>
      </trkpt>
      <trkpt lat="43.10741" lon="2.0289">
        <ele>330</ele>
        <time>2023-09-10T12:44:46Z</time>
      </trkpt>
      <trkpt lat="43.10741" lon="2.02888">
        <ele>330</ele>
        <time>2023-09-10T12:44:47Z</time>
      </trkpt>
      <trkpt lat="43.10741" lon="2.02887">
        <ele>330</ele>
        <time>2023-09-10T12:44:48Z</time>
      </trkpt>
      <trkpt lat="43.10742" lon="2.02885">
        <ele>330</ele>
        <time>2023-09-10T12:44:49Z</time>
      </trkpt>
      <trkpt lat="43.10742" lon="2.02884">
        <ele>330</ele>
        <time>2023-09-10T12:44:50Z</time>
      </trkpt>
      <trkpt lat="43.10742" lon="2.02883">
        <ele>330</ele>
        <time>2023-09-10T12:44:51Z</time>
      </trkpt>
      <trkpt lat="43.10743" lon="2.02882">
        <ele>330</ele>
        <time>2023-09-10T12:44:52Z</time>
      </trkpt>
      <trkpt lat="43.10743" lon="2.0288">
        <ele>330</ele>
        <time>2023-09-10T12:44:53Z</time>
      </trkpt>
      <trkpt lat="43.10743" lon="2.02879">
        <ele>330</ele>
        <time>2023-09-10T12:44:54Z</time>
      </trkpt>
      <trkpt lat="43.10744" lon="2.02878">
        <ele>330</ele>
        <time>2023-09-10T12:44:55Z</time>
      </trkpt>
      <trkpt lat="43.10744" lon="2.02877">
        <ele>330</ele>
        <time>2023-09-10T12:44:56Z</time>
      </trkpt>
      <trkpt lat="43.10744" lon="2.02875">
        <ele>330</ele>
        <time>2023-09-10T12:44:57Z</time>
      </trkpt>
      <trkpt lat="43.10744" lon="2.02874">
        <ele>330</ele>
        <time>2023-09-10T12:44:58Z</time>
      </trkpt>
      <trkpt lat="43.10745" lon="2.02873">
        <ele>330</ele>
        <time>2023-09-10T12:44:59Z</time>
      </trkpt>
      <trkpt lat="43.10745" lon="2.02871">
        <ele>330</ele>
        <time>2023-09-10T12:45:00Z</time>
      </trkpt>
      <trkpt lat="43.10745" lon="2.0287">
        <ele>330</ele>
        <time>2023-09-10T12:45:01Z</time>
      </trkpt>
      <trkpt lat="43.10746" lon="2.02868">
        <ele>330</ele>
        <time>2023-09-10T12:45:02Z</time>
      </trkpt>
      <trkpt lat="43.10746" lon="2.02867">
        <ele>330</ele>
        <time>2023-09-10T12:45:03Z</time>
      </trkpt>
      <trkpt lat="43.10746" lon="2.02866">
        <ele>330</ele>
        <time>2023-09-10T12:45:04Z</time>
      </trkpt>
      <trkpt lat="43.10747" lon="2.02864">
        <ele>330</ele>
        <time>2023-09-10T12:45:05Z</time>
      </trkpt>
      <trkpt lat="43.10747" lon="2.02863">
        <ele>331</ele>
        <time>2023-09-10T12:45:06Z</time>
      </trkpt>
      <trkpt lat="43.10748" lon="2.02862">
        <ele>331</ele>
        <time>2023-09-10T12:45:07Z</time>
      </trkpt>
      <trkpt lat="43.10748" lon="2.0286">
        <ele>331</ele>
        <time>2023-09-10T12:45:08Z</time>
      </trkpt>
      <trkpt lat="43.10748" lon="2.02859">
        <ele>331</ele>
        <time>2023-09-10T12:45:09Z</time>
      </trkpt>
      <trkpt lat="43.10749" lon="2.02858">
        <ele>331</ele>
        <time>2023-09-10T12:45:10Z</time>
      </trkpt>
      <trkpt lat="43.10749" lon="2.02856">
        <ele>331</ele>
        <time>2023-09-10T12:45:11Z</time>
      </trkpt>
      <trkpt lat="43.10749" lon="2.02854">
        <ele>331</ele>
        <time>2023-09-10T12:45:12Z</time>
      </trkpt>
      <trkpt lat="43.10749" lon="2.02853">
        <ele>331</ele>
        <time>2023-09-10T12:45:13Z</time>
      </trkpt>
      <trkpt lat="43.10749" lon="2.02851">
        <ele>331</ele>
        <time>2023-09-10T12:45:14Z</time>
      </trkpt>
      <trkpt lat="43.10749" lon="2.0285">
        <ele>331</ele>
        <time>2023-09-10T12:45:15Z</time>
      </trkpt>
      <trkpt lat="43.1075" lon="2.02849">
        <ele>331</ele>
        <time>2023-09-10T12:45:16Z</time>
      </trkpt>
      <trkpt lat="43.1075" lon="2.02847">
        <ele>331</ele>
        <time>2023-09-10T12:45:17Z</time>
      </trkpt>
      <trkpt lat="43.1075" lon="2.02846">
        <ele>331</ele>
        <time>2023-09-10T12:45:18Z</time>
      </trkpt>
      <trkpt lat="43.1075" lon="2.02844">
        <ele>331</ele>
        <time>2023-09-10T12:45:19Z</time>
      </trkpt>
      <trkpt lat="43.1075" lon="2.02843">
        <ele>331</ele>
        <time>2023-09-10T12:45:20Z</time>
      </trkpt>
      <trkpt lat="43.1075" lon="2.02841">
        <ele>332</ele>
        <time>2023-09-10T12:45:21Z</time>
      </trkpt>
      <trkpt lat="43.10751" lon="2.0284">
        <ele>332</ele>
        <time>2023-09-10T12:45:22Z</time>
      </trkpt>
      <trkpt lat="43.10751" lon="2.02838">
        <ele>332</ele>
        <time>2023-09-10T12:45:23Z</time>
      </trkpt>
      <trkpt lat="43.10751" lon="2.02837">
        <ele>332</ele>
        <time>2023-09-10T12:45:24Z</time>
      </trkpt>
      <trkpt lat="43.10751" lon="2.02835">
        <ele>332</ele>
        <time>2023-09-10T12:45:25Z</time>
      </trkpt>
      <trkpt lat="43.10751" lon="2.02833">
        <ele>332</ele>
        <time>2023-09-10T12:45:26Z</time>
      </trkpt>
      <trkpt lat="43.10752" lon="2.02832">
        <ele>332</ele>
        <time>2023-09-10T12:45:27Z</time>
      </trkpt>
      <trkpt lat="43.10752" lon="2.0283">
        <ele>332</ele>
        <time>2023-09-10T12:45:28Z</time>
      </trkpt>
      <trkpt lat="43.10752" lon="2.02829">
        <ele>332</ele>
        <time>2023-09-10T12:45:29Z</time>
      </trkpt>
      <trkpt lat="43.10752" lon="2.02827">
        <ele>332</ele>
        <time>2023-09-10T12:45:30Z</time>
      </trkpt>
      <trkpt lat="43.10752" lon="2.02826">
        <ele>332</ele>
        <time>2023-09-10T12:45:31Z</time>
      </trkpt>
      <trkpt lat="43.10752" lon="2.02824">
        <ele>332</ele>
        <time>2023-09-10T12:45:32Z</time>
      </trkpt>
      <trkpt lat="43.10752" lon="2.02823">
        <ele>332</ele>
        <time>2023-09-10T12:45:33Z</time>
      </trkpt>
      <trkpt lat="43.10752" lon="2.02821">
        <ele>332</ele>
        <time>2023-09-10T12:45:34Z</time>
      </trkpt>
      <trkpt lat="43.10753" lon="2.0282">
        <ele>332</ele>
        <time>2023-09-10T12:45:35Z</time>
      </trkpt>
      <trkpt lat="43.10753" lon="2.02818">
        <ele>333</ele>
        <time>2023-09-10T12:45:36Z</time>
      </trkpt>
      <trkpt lat="43.10753" lon="2.02817">
        <ele>333</ele>
        <time>2023-09-10T12:45:37Z</time>
      </trkpt>
      <trkpt lat="43.10753" lon="2.02816">
        <ele>333</ele>
        <time>2023-09-10T12:45:38Z</time>
      </trkpt>
      <trkpt lat="43.10754" lon="2.02814">
        <ele>333</ele>
        <time>2023-09-10T12:45:39Z</time>
      </trkpt>
      <trkpt lat="43.10754" lon="2.02813">
        <ele>333</ele>
        <time>2023-09-10T12:45:40Z</time>
      </trkpt>
      <trkpt lat="43.10754" lon="2.02811">
        <ele>333</ele>
        <time>2023-09-10T12:45:41Z</time>
      </trkpt>
      <trkpt lat="43.10754" lon="2.0281">
        <ele>333</ele>
        <time>2023-09-10T12:45:42Z</time>
      </trkpt>
      <trkpt lat="43.10754" lon="2.02808">
        <ele>333</ele>
        <time>2023-09-10T12:45:43Z</time>
      </trkpt>
      <trkpt lat="43.10754" lon="2.02807">
        <ele>333</ele>
        <time>2023-09-10T12:45:44Z</time>
      </trkpt>
      <trkpt lat="43.10754" lon="2.02805">
        <ele>333</ele>
        <time>2023-09-10T12:45:45Z</time>
      </trkpt>
      <trkpt lat="43.10754" lon="2.02804">
        <ele>333</ele>
        <time>2023-09-10T12:45:46Z</time>
      </trkpt>
      <trkpt lat="43.10754" lon="2.02802">
        <ele>333</ele>
        <time>2023-09-10T12:45:47Z</time>
      </trkpt>
      <trkpt lat="43.10754" lon="2.02801">
        <ele>333</ele>
        <time>2023-09-10T12:45:48Z</time>
      </trkpt>
      <trkpt lat="43.10754" lon="2.028">
        <ele>333</ele>
        <time>2023-09-10T12:45:49Z</time>
      </trkpt>
      <trkpt lat="43.10754" lon="2.02798">
        <ele>333</ele>
        <time>2023-09-10T12:45:50Z</time>
      </trkpt>
      <trkpt lat="43.10754" lon="2.02797">
        <ele>333</ele>
        <time>2023-09-10T12:45:51Z</time>
      </trkpt>
      <trkpt lat="43.10754" lon="2.02795">
        <ele>333</ele>
        <time>2023-09-10T12:45:52Z</time>
      </trkpt>
      <trkpt lat="43.10754" lon="2.02793">
        <ele>333</ele>
        <time>2023-09-10T12:45:53Z</time>
      </trkpt>
      <trkpt lat="43.10754" lon="2.02792">
        <ele>333</ele>
        <time>2023-09-10T12:45:54Z</time>
      </trkpt>
      <trkpt lat="43.10754" lon="2.0279">
        <ele>333</ele>
        <time>2023-09-10T12:45:55Z</time>
      </trkpt>
      <trkpt lat="43.10754" lon="2.02789">
        <ele>333</ele>
        <time>2023-09-10T12:45:56Z</time>
      </trkpt>
      <trkpt lat="43.10754" lon="2.02788">
        <ele>333</ele>
        <time>2023-09-10T12:45:57Z</time>
      </trkpt>
      <trkpt lat="43.10754" lon="2.02786">
        <ele>333</ele>
        <time>2023-09-10T12:45:58Z</time>
      </trkpt>
      <trkpt lat="43.10754" lon="2.02785">
        <ele>333</ele>
        <time>2023-09-10T12:45:59Z</time>
      </trkpt>
      <trkpt lat="43.10754" lon="2.02783">
        <ele>333</ele>
        <time>2023-09-10T12:46:00Z</time>
      </trkpt>
      <trkpt lat="43.10754" lon="2.02782">
        <ele>333</ele>
        <time>2023-09-10T12:46:01Z</time>
      </trkpt>
      <trkpt lat="43.10754" lon="2.0278">
        <ele>333</ele>
        <time>2023-09-10T12:46:02Z</time>
      </trkpt>
      <trkpt lat="43.10754" lon="2.02778">
        <ele>333</ele>
        <time>2023-09-10T12:46:03Z</time>
      </trkpt>
      <trkpt lat="43.10754" lon="2.02777">
        <ele>333</ele>
        <time>2023-09-10T12:46:04Z</time>
      </trkpt>
      <trkpt lat="43.10755" lon="2.02775">
        <ele>333</ele>
        <time>2023-09-10T12:46:05Z</time>
      </trkpt>
      <trkpt lat="43.10755" lon="2.02774">
        <ele>333</ele>
        <time>2023-09-10T12:46:06Z</time>
      </trkpt>
      <trkpt lat="43.10755" lon="2.02772">
        <ele>333</ele>
        <time>2023-09-10T12:46:07Z</time>
      </trkpt>
      <trkpt lat="43.10755" lon="2.02771">
        <ele>333</ele>
        <time>2023-09-10T12:46:08Z</time>
      </trkpt>
      <trkpt lat="43.10755" lon="2.02769">
        <ele>333</ele>
        <time>2023-09-10T12:46:09Z</time>
      </trkpt>
      <trkpt lat="43.10755" lon="2.02768">
        <ele>333</ele>
        <time>2023-09-10T12:46:10Z</time>
      </trkpt>
      <trkpt lat="43.10755" lon="2.02766">
        <ele>333</ele>
        <time>2023-09-10T12:46:11Z</time>
      </trkpt>
      <trkpt lat="43.10755" lon="2.02765">
        <ele>333</ele>
        <time>2023-09-10T12:46:12Z</time>
      </trkpt>
      <trkpt lat="43.10755" lon="2.02763">
        <ele>333</ele>
        <time>2023-09-10T12:46:13Z</time>
      </trkpt>
      <trkpt lat="43.10755" lon="2.02762">
        <ele>333</ele>
        <time>2023-09-10T12:46:14Z</time>
      </trkpt>
      <trkpt lat="43.10755" lon="2.0276">
        <ele>333</ele>
        <time>2023-09-10T12:46:15Z</time>
      </trkpt>
      <trkpt lat="43.10756" lon="2.02759">
        <ele>333</ele>
        <time>2023-09-10T12:46:16Z</time>
      </trkpt>
      <trkpt lat="43.10756" lon="2.02757">
        <ele>333</ele>
        <time>2023-09-10T12:46:17Z</time>
      </trkpt>
      <trkpt lat="43.10756" lon="2.02756">
        <ele>333</ele>
        <time>2023-09-10T12:46:18Z</time>
      </trkpt>
      <trkpt lat="43.10756" lon="2.02754">
        <ele>333</ele>
        <time>2023-09-10T12:46:19Z</time>
      </trkpt>
      <trkpt lat="43.10756" lon="2.02753">
        <ele>333</ele>
        <time>2023-09-10T12:46:20Z</time>
      </trkpt>
      <trkpt lat="43.10756" lon="2.02751">
        <ele>333</ele>
        <time>2023-09-10T12:46:21Z</time>
      </trkpt>
      <trkpt lat="43.10756" lon="2.02749">
        <ele>333</ele>
        <time>2023-09-10T12:46:22Z</time>
      </trkpt>
      <trkpt lat="43.10756" lon="2.02748">
        <ele>333</ele>
        <time>2023-09-10T12:46:23Z</time>
      </trkpt>
      <trkpt lat="43.10756" lon="2.02746">
        <ele>333</ele>
        <time>2023-09-10T12:46:24Z</time>
      </trkpt>
      <trkpt lat="43.10756" lon="2.02745">
        <ele>333</ele>
        <time>2023-09-10T12:46:25Z</time>
      </trkpt>
      <trkpt lat="43.10756" lon="2.02743">
        <ele>333</ele>
        <time>2023-09-10T12:46:26Z</time>
      </trkpt>
      <trkpt lat="43.10756" lon="2.02742">
        <ele>332</ele>
        <time>2023-09-10T12:46:27Z</time>
      </trkpt>
      <trkpt lat="43.10756" lon="2.0274">
        <ele>332</ele>
        <time>2023-09-10T12:46:28Z</time>
      </trkpt>
      <trkpt lat="43.10756" lon="2.02739">
        <ele>332</ele>
        <time>2023-09-10T12:46:29Z</time>
      </trkpt>
      <trkpt lat="43.10757" lon="2.02737">
        <ele>332</ele>
        <time>2023-09-10T12:46:30Z</time>
      </trkpt>
      <trkpt lat="43.10757" lon="2.02736">
        <ele>332</ele>
        <time>2023-09-10T12:46:31Z</time>
      </trkpt>
      <trkpt lat="43.10757" lon="2.02734">
        <ele>332</ele>
        <time>2023-09-10T12:46:32Z</time>
      </trkpt>
      <trkpt lat="43.10757" lon="2.02733">
        <ele>332</ele>
        <time>2023-09-10T12:46:33Z</time>
      </trkpt>
      <trkpt lat="43.10757" lon="2.02731">
        <ele>332</ele>
        <time>2023-09-10T12:46:34Z</time>
      </trkpt>
      <trkpt lat="43.10757" lon="2.0273">
        <ele>332</ele>
        <time>2023-09-10T12:46:35Z</time>
      </trkpt>
      <trkpt lat="43.10757" lon="2.02728">
        <ele>332</ele>
        <time>2023-09-10T12:46:36Z</time>
      </trkpt>
      <trkpt lat="43.10757" lon="2.02726">
        <ele>332</ele>
        <time>2023-09-10T12:46:37Z</time>
      </trkpt>
      <trkpt lat="43.10757" lon="2.02725">
        <ele>332</ele>
        <time>2023-09-10T12:46:38Z</time>
      </trkpt>
      <trkpt lat="43.10756" lon="2.02724">
        <ele>332</ele>
        <time>2023-09-10T12:46:39Z</time>
      </trkpt>
      <trkpt lat="43.10756" lon="2.02722">
        <ele>332</ele>
        <time>2023-09-10T12:46:40Z</time>
      </trkpt>
      <trkpt lat="43.10756" lon="2.02721">
        <ele>332</ele>
        <time>2023-09-10T12:46:46Z</time>
      </trkpt>
      <trkpt lat="43.10756" lon="2.0272">
        <ele>332</ele>
        <time>2023-09-10T12:46:47Z</time>
      </trkpt>
      <trkpt lat="43.10756" lon="2.0272">
        <ele>332</ele>
        <time>2023-09-10T12:46:48Z</time>
      </trkpt>
      <trkpt lat="43.10757" lon="2.02719">
        <ele>332</ele>
        <time>2023-09-10T12:46:49Z</time>
      </trkpt>
      <trkpt lat="43.10757" lon="2.02718">
        <ele>332</ele>
        <time>2023-09-10T12:46:50Z</time>
      </trkpt>
      <trkpt lat="43.10757" lon="2.02716">
        <ele>332</ele>
        <time>2023-09-10T12:46:51Z</time>
      </trkpt>
      <trkpt lat="43.10757" lon="2.02715">
        <ele>332</ele>
        <time>2023-09-10T12:46:52Z</time>
      </trkpt>
      <trkpt lat="43.10758" lon="2.02713">
        <ele>332</ele>
        <time>2023-09-10T12:46:53Z</time>
      </trkpt>
      <trkpt lat="43.10758" lon="2.02712">
        <ele>332</ele>
        <time>2023-09-10T12:46:54Z</time>
      </trkpt>
      <trkpt lat="43.10758" lon="2.0271">
        <ele>332</ele>
        <time>2023-09-10T12:46:55Z</time>
      </trkpt>
      <trkpt lat="43.10758" lon="2.02709">
        <ele>332</ele>
        <time>2023-09-10T12:46:56Z</time>
      </trkpt>
      <trkpt lat="43.10758" lon="2.02707">
        <ele>332</ele>
        <time>2023-09-10T12:46:57Z</time>
      </trkpt>
      <trkpt lat="43.10758" lon="2.02705">
        <ele>332</ele>
        <time>2023-09-10T12:46:58Z</time>
      </trkpt>
      <trkpt lat="43.10758" lon="2.02704">
        <ele>332</ele>
        <time>2023-09-10T12:46:59Z</time>
      </trkpt>
      <trkpt lat="43.10758" lon="2.02702">
        <ele>332</ele>
        <time>2023-09-10T12:47:00Z</time>
      </trkpt>
      <trkpt lat="43.10758" lon="2.02701">
        <ele>332</ele>
        <time>2023-09-10T12:47:01Z</time>
      </trkpt>
      <trkpt lat="43.10758" lon="2.02699">
        <ele>331</ele>
        <time>2023-09-10T12:47:02Z</time>
      </trkpt>
      <trkpt lat="43.10759" lon="2.02698">
        <ele>331</ele>
        <time>2023-09-10T12:47:03Z</time>
      </trkpt>
      <trkpt lat="43.10759" lon="2.02696">
        <ele>331</ele>
        <time>2023-09-10T12:47:04Z</time>
      </trkpt>
      <trkpt lat="43.10759" lon="2.02694">
        <ele>331</ele>
        <time>2023-09-10T12:47:05Z</time>
      </trkpt>
      <trkpt lat="43.10759" lon="2.02693">
        <ele>331</ele>
        <time>2023-09-10T12:47:06Z</time>
      </trkpt>
      <trkpt lat="43.10759" lon="2.02691">
        <ele>331</ele>
        <time>2023-09-10T12:47:07Z</time>
      </trkpt>
      <trkpt lat="43.10759" lon="2.02689">
        <ele>331</ele>
        <time>2023-09-10T12:47:08Z</time>
      </trkpt>
      <trkpt lat="43.10759" lon="2.02687">
        <ele>331</ele>
        <time>2023-09-10T12:47:09Z</time>
      </trkpt>
      <trkpt lat="43.10759" lon="2.02685">
        <ele>331</ele>
        <time>2023-09-10T12:47:10Z</time>
      </trkpt>
      <trkpt lat="43.1076" lon="2.02684">
        <ele>331</ele>
        <time>2023-09-10T12:47:11Z</time>
      </trkpt>
      <trkpt lat="43.1076" lon="2.02682">
        <ele>331</ele>
        <time>2023-09-10T12:47:12Z</time>
      </trkpt>
      <trkpt lat="43.1076" lon="2.0268">
        <ele>331</ele>
        <time>2023-09-10T12:47:13Z</time>
      </trkpt>
      <trkpt lat="43.1076" lon="2.02679">
        <ele>331</ele>
        <time>2023-09-10T12:47:14Z</time>
      </trkpt>
      <trkpt lat="43.1076" lon="2.02677">
        <ele>331</ele>
        <time>2023-09-10T12:47:15Z</time>
      </trkpt>
      <trkpt lat="43.10761" lon="2.02676">
        <ele>331</ele>
        <time>2023-09-10T12:47:16Z</time>
      </trkpt>
      <trkpt lat="43.10761" lon="2.02674">
        <ele>331</ele>
        <time>2023-09-10T12:47:17Z</time>
      </trkpt>
      <trkpt lat="43.10761" lon="2.02672">
        <ele>331</ele>
        <time>2023-09-10T12:47:18Z</time>
      </trkpt>
      <trkpt lat="43.10761" lon="2.02671">
        <ele>331</ele>
        <time>2023-09-10T12:47:19Z</time>
      </trkpt>
      <trkpt lat="43.10761" lon="2.02669">
        <ele>331</ele>
        <time>2023-09-10T12:47:20Z</time>
      </trkpt>
      <trkpt lat="43.10761" lon="2.02668">
        <ele>331</ele>
        <time>2023-09-10T12:47:21Z</time>
      </trkpt>
      <trkpt lat="43.10761" lon="2.02666">
        <ele>330</ele>
        <time>2023-09-10T12:47:22Z</time>
      </trkpt>
      <trkpt lat="43.10761" lon="2.02665">
        <ele>330</ele>
        <time>2023-09-10T12:47:23Z</time>
      </trkpt>
      <trkpt lat="43.10761" lon="2.02663">
        <ele>330</ele>
        <time>2023-09-10T12:47:24Z</time>
      </trkpt>
      <trkpt lat="43.10762" lon="2.02662">
        <ele>330</ele>
        <time>2023-09-10T12:47:25Z</time>
      </trkpt>
      <trkpt lat="43.10762" lon="2.02661">
        <ele>330</ele>
        <time>2023-09-10T12:47:26Z</time>
      </trkpt>
      <trkpt lat="43.10762" lon="2.02659">
        <ele>330</ele>
        <time>2023-09-10T12:47:27Z</time>
      </trkpt>
      <trkpt lat="43.10762" lon="2.02658">
        <ele>330</ele>
        <time>2023-09-10T12:47:28Z</time>
      </trkpt>
      <trkpt lat="43.10762" lon="2.02656">
        <ele>330</ele>
        <time>2023-09-10T12:47:29Z</time>
      </trkpt>
      <trkpt lat="43.10762" lon="2.02655">
        <ele>330</ele>
        <time>2023-09-10T12:47:30Z</time>
      </trkpt>
      <trkpt lat="43.10762" lon="2.02653">
        <ele>330</ele>
        <time>2023-09-10T12:47:31Z</time>
      </trkpt>
      <trkpt lat="43.10763" lon="2.02651">
        <ele>330</ele>
        <time>2023-09-10T12:47:32Z</time>
      </trkpt>
      <trkpt lat="43.10763" lon="2.0265">
        <ele>330</ele>
        <time>2023-09-10T12:47:33Z</time>
      </trkpt>
      <trkpt lat="43.10763" lon="2.02648">
        <ele>330</ele>
        <time>2023-09-10T12:47:34Z</time>
      </trkpt>
      <trkpt lat="43.10763" lon="2.02646">
        <ele>330</ele>
        <time>2023-09-10T12:47:35Z</time>
      </trkpt>
      <trkpt lat="43.10763" lon="2.02644">
        <ele>330</ele>
        <time>2023-09-10T12:47:36Z</time>
      </trkpt>
      <trkpt lat="43.10763" lon="2.02642">
        <ele>330</ele>
        <time>2023-09-10T12:47:37Z</time>
      </trkpt>
      <trkpt lat="43.10763" lon="2.02641">
        <ele>330</ele>
        <time>2023-09-10T12:47:38Z</time>
      </trkpt>
      <trkpt lat="43.10763" lon="2.02639">
        <ele>330</ele>
        <time>2023-09-10T12:47:39Z</time>
      </trkpt>
      <trkpt lat="43.10764" lon="2.02638">
        <ele>330</ele>
        <time>2023-09-10T12:47:40Z</time>
      </trkpt>
      <trkpt lat="43.10764" lon="2.02636">
        <ele>330</ele>
        <time>2023-09-10T12:47:41Z</time>
      </trkpt>
      <trkpt lat="43.10764" lon="2.02635">
        <ele>330</ele>
        <time>2023-09-10T12:47:42Z</time>
      </trkpt>
      <trkpt lat="43.10764" lon="2.02633">
        <ele>330</ele>
        <time>2023-09-10T12:47:43Z</time>
      </trkpt>
      <trkpt lat="43.10764" lon="2.02631">
        <ele>330</ele>
        <time>2023-09-10T12:47:44Z</time>
      </trkpt>
      <trkpt lat="43.10764" lon="2.0263">
        <ele>330</ele>
        <time>2023-09-10T12:47:45Z</time>
      </trkpt>
      <trkpt lat="43.10765" lon="2.02628">
        <ele>330</ele>
        <time>2023-09-10T12:47:46Z</time>
      </trkpt>
      <trkpt lat="43.10765" lon="2.02626">
        <ele>330</ele>
        <time>2023-09-10T12:47:47Z</time>
      </trkpt>
      <trkpt lat="43.10765" lon="2.02625">
        <ele>330</ele>
        <time>2023-09-10T12:47:48Z</time>
      </trkpt>
      <trkpt lat="43.10765" lon="2.02623">
        <ele>330</ele>
        <time>2023-09-10T12:47:49Z</time>
      </trkpt>
      <trkpt lat="43.10765" lon="2.02621">
        <ele>330</ele>
        <time>2023-09-10T12:47:50Z</time>
      </trkpt>
      <trkpt lat="43.10766" lon="2.0262">
        <ele>330</ele>
        <time>2023-09-10T12:47:51Z</time>
      </trkpt>
      <trkpt lat="43.10766" lon="2.02618">
        <ele>329</ele>
        <time>2023-09-10T12:47:52Z</time>
      </trkpt>
      <trkpt lat="43.10767" lon="2.02617">
        <ele>329</ele>
        <time>2023-09-10T12:47:53Z</time>
      </trkpt>
      <trkpt lat="43.10767" lon="2.02615">
        <ele>329</ele>
        <time>2023-09-10T12:47:54Z</time>
      </trkpt>
      <trkpt lat="43.10768" lon="2.02614">
        <ele>329</ele>
        <time>2023-09-10T12:47:55Z</time>
      </trkpt>
      <trkpt lat="43.10768" lon="2.02613">
        <ele>329</ele>
        <time>2023-09-10T12:47:56Z</time>
      </trkpt>
      <trkpt lat="43.10769" lon="2.02611">
        <ele>329</ele>
        <time>2023-09-10T12:47:57Z</time>
      </trkpt>
      <trkpt lat="43.10769" lon="2.0261">
        <ele>329</ele>
        <time>2023-09-10T12:47:58Z</time>
      </trkpt>
      <trkpt lat="43.1077" lon="2.02608">
        <ele>329</ele>
        <time>2023-09-10T12:47:59Z</time>
      </trkpt>
      <trkpt lat="43.1077" lon="2.02607">
        <ele>329</ele>
        <time>2023-09-10T12:48:00Z</time>
      </trkpt>
      <trkpt lat="43.1077" lon="2.02606">
        <ele>329</ele>
        <time>2023-09-10T12:48:01Z</time>
      </trkpt>
      <trkpt lat="43.1077" lon="2.02604">
        <ele>329</ele>
        <time>2023-09-10T12:48:02Z</time>
      </trkpt>
      <trkpt lat="43.10771" lon="2.02602">
        <ele>329</ele>
        <time>2023-09-10T12:48:03Z</time>
      </trkpt>
      <trkpt lat="43.10771" lon="2.02601">
        <ele>329</ele>
        <time>2023-09-10T12:48:04Z</time>
      </trkpt>
      <trkpt lat="43.10772" lon="2.02599">
        <ele>329</ele>
        <time>2023-09-10T12:48:05Z</time>
      </trkpt>
      <trkpt lat="43.10772" lon="2.02597">
        <ele>329</ele>
        <time>2023-09-10T12:48:06Z</time>
      </trkpt>
      <trkpt lat="43.10772" lon="2.02596">
        <ele>329</ele>
        <time>2023-09-10T12:48:07Z</time>
      </trkpt>
      <trkpt lat="43.10773" lon="2.02595">
        <ele>329</ele>
        <time>2023-09-10T12:48:08Z</time>
      </trkpt>
      <trkpt lat="43.10773" lon="2.02593">
        <ele>329</ele>
        <time>2023-09-10T12:48:09Z</time>
      </trkpt>
      <trkpt lat="43.10773" lon="2.02591">
        <ele>329</ele>
        <time>2023-09-10T12:48:10Z</time>
      </trkpt>
      <trkpt lat="43.10774" lon="2.0259">
        <ele>329</ele>
        <time>2023-09-10T12:48:11Z</time>
      </trkpt>
      <trkpt lat="43.10774" lon="2.02588">
        <ele>329</ele>
        <time>2023-09-10T12:48:12Z</time>
      </trkpt>
      <trkpt lat="43.10774" lon="2.02586">
        <ele>329</ele>
        <time>2023-09-10T12:48:13Z</time>
      </trkpt>
      <trkpt lat="43.10774" lon="2.02585">
        <ele>329</ele>
        <time>2023-09-10T12:48:14Z</time>
      </trkpt>
      <trkpt lat="43.10775" lon="2.02583">
        <ele>329</ele>
        <time>2023-09-10T12:48:15Z</time>
      </trkpt>
      <trkpt lat="43.10775" lon="2.02582">
        <ele>329</ele>
        <time>2023-09-10T12:48:16Z</time>
      </trkpt>
      <trkpt lat="43.10775" lon="2.0258">
        <ele>329</ele>
        <time>2023-09-10T12:48:17Z</time>
      </trkpt>
      <trkpt lat="43.10775" lon="2.02578">
        <ele>329</ele>
        <time>2023-09-10T12:48:18Z</time>
      </trkpt>
      <trkpt lat="43.10775" lon="2.02576">
        <ele>329</ele>
        <time>2023-09-10T12:48:19Z</time>
      </trkpt>
      <trkpt lat="43.10776" lon="2.02575">
        <ele>329</ele>
        <time>2023-09-10T12:48:20Z</time>
      </trkpt>
      <trkpt lat="43.10776" lon="2.02573">
        <ele>329</ele>
        <time>2023-09-10T12:48:21Z</time>
      </trkpt>
      <trkpt lat="43.10776" lon="2.02572">
        <ele>329</ele>
        <time>2023-09-10T12:48:22Z</time>
      </trkpt>
      <trkpt lat="43.10776" lon="2.0257">
        <ele>329</ele>
        <time>2023-09-10T12:48:23Z</time>
      </trkpt>
      <trkpt lat="43.10776" lon="2.02568">
        <ele>329</ele>
        <time>2023-09-10T12:48:24Z</time>
      </trkpt>
      <trkpt lat="43.10777" lon="2.02567">
        <ele>329</ele>
        <time>2023-09-10T12:48:25Z</time>
      </trkpt>
      <trkpt lat="43.10777" lon="2.02566">
        <ele>329</ele>
        <time>2023-09-10T12:48:26Z</time>
      </trkpt>
      <trkpt lat="43.10777" lon="2.02564">
        <ele>329</ele>
        <time>2023-09-10T12:48:27Z</time>
      </trkpt>
      <trkpt lat="43.10778" lon="2.02563">
        <ele>329</ele>
        <time>2023-09-10T12:48:28Z</time>
      </trkpt>
      <trkpt lat="43.10778" lon="2.02561">
        <ele>329</ele>
        <time>2023-09-10T12:48:29Z</time>
      </trkpt>
      <trkpt lat="43.10779" lon="2.0256">
        <ele>329</ele>
        <time>2023-09-10T12:48:30Z</time>
      </trkpt>
      <trkpt lat="43.10779" lon="2.02559">
        <ele>329</ele>
        <time>2023-09-10T12:48:31Z</time>
      </trkpt>
      <trkpt lat="43.1078" lon="2.02557">
        <ele>328</ele>
        <time>2023-09-10T12:48:32Z</time>
      </trkpt>
      <trkpt lat="43.1078" lon="2.02556">
        <ele>328</ele>
        <time>2023-09-10T12:48:33Z</time>
      </trkpt>
      <trkpt lat="43.1078" lon="2.02554">
        <ele>328</ele>
        <time>2023-09-10T12:48:34Z</time>
      </trkpt>
      <trkpt lat="43.10781" lon="2.02553">
        <ele>328</ele>
        <time>2023-09-10T12:48:35Z</time>
      </trkpt>
      <trkpt lat="43.10781" lon="2.02551">
        <ele>328</ele>
        <time>2023-09-10T12:48:36Z</time>
      </trkpt>
      <trkpt lat="43.10782" lon="2.0255">
        <ele>328</ele>
        <time>2023-09-10T12:48:37Z</time>
      </trkpt>
      <trkpt lat="43.10782" lon="2.02548">
        <ele>328</ele>
        <time>2023-09-10T12:48:38Z</time>
      </trkpt>
      <trkpt lat="43.10782" lon="2.02546">
        <ele>328</ele>
        <time>2023-09-10T12:48:39Z</time>
      </trkpt>
      <trkpt lat="43.10783" lon="2.02545">
        <ele>328</ele>
        <time>2023-09-10T12:48:40Z</time>
      </trkpt>
      <trkpt lat="43.10783" lon="2.02543">
        <ele>328</ele>
        <time>2023-09-10T12:48:41Z</time>
      </trkpt>
      <trkpt lat="43.10783" lon="2.02542">
        <ele>328</ele>
        <time>2023-09-10T12:48:42Z</time>
      </trkpt>
      <trkpt lat="43.10783" lon="2.0254">
        <ele>328</ele>
        <time>2023-09-10T12:48:43Z</time>
      </trkpt>
      <trkpt lat="43.10784" lon="2.02538">
        <ele>328</ele>
        <time>2023-09-10T12:48:44Z</time>
      </trkpt>
      <trkpt lat="43.10784" lon="2.02537">
        <ele>328</ele>
        <time>2023-09-10T12:48:45Z</time>
      </trkpt>
      <trkpt lat="43.10784" lon="2.02535">
        <ele>328</ele>
        <time>2023-09-10T12:48:46Z</time>
      </trkpt>
      <trkpt lat="43.10785" lon="2.02533">
        <ele>328</ele>
        <time>2023-09-10T12:48:47Z</time>
      </trkpt>
      <trkpt lat="43.10785" lon="2.02532">
        <ele>328</ele>
        <time>2023-09-10T12:48:48Z</time>
      </trkpt>
      <trkpt lat="43.10785" lon="2.0253">
        <ele>328</ele>
        <time>2023-09-10T12:48:49Z</time>
      </trkpt>
      <trkpt lat="43.10785" lon="2.02528">
        <ele>328</ele>
        <time>2023-09-10T12:48:50Z</time>
      </trkpt>
      <trkpt lat="43.10785" lon="2.02527">
        <ele>328</ele>
        <time>2023-09-10T12:48:51Z</time>
      </trkpt>
      <trkpt lat="43.10785" lon="2.02525">
        <ele>328</ele>
        <time>2023-09-10T12:48:52Z</time>
      </trkpt>
      <trkpt lat="43.10786" lon="2.02524">
        <ele>328</ele>
        <time>2023-09-10T12:48:53Z</time>
      </trkpt>
      <trkpt lat="43.10786" lon="2.02522">
        <ele>328</ele>
        <time>2023-09-10T12:48:54Z</time>
      </trkpt>
      <trkpt lat="43.10786" lon="2.02521">
        <ele>328</ele>
        <time>2023-09-10T12:48:55Z</time>
      </trkpt>
      <trkpt lat="43.10786" lon="2.02519">
        <ele>328</ele>
        <time>2023-09-10T12:48:56Z</time>
      </trkpt>
      <trkpt lat="43.10787" lon="2.02517">
        <ele>328</ele>
        <time>2023-09-10T12:48:57Z</time>
      </trkpt>
      <trkpt lat="43.10787" lon="2.02516">
        <ele>328</ele>
        <time>2023-09-10T12:48:58Z</time>
      </trkpt>
      <trkpt lat="43.10788" lon="2.02514">
        <ele>328</ele>
        <time>2023-09-10T12:48:59Z</time>
      </trkpt>
      <trkpt lat="43.10788" lon="2.02513">
        <ele>328</ele>
        <time>2023-09-10T12:49:00Z</time>
      </trkpt>
      <trkpt lat="43.10788" lon="2.02511">
        <ele>328</ele>
        <time>2023-09-10T12:49:01Z</time>
      </trkpt>
      <trkpt lat="43.10789" lon="2.0251">
        <ele>328</ele>
        <time>2023-09-10T12:49:02Z</time>
      </trkpt>
      <trkpt lat="43.10789" lon="2.02508">
        <ele>328</ele>
        <time>2023-09-10T12:49:03Z</time>
      </trkpt>
      <trkpt lat="43.1079" lon="2.02506">
        <ele>328</ele>
        <time>2023-09-10T12:49:04Z</time>
      </trkpt>
      <trkpt lat="43.1079" lon="2.02505">
        <ele>328</ele>
        <time>2023-09-10T12:49:05Z</time>
      </trkpt>
      <trkpt lat="43.1079" lon="2.02503">
        <ele>328</ele>
        <time>2023-09-10T12:49:06Z</time>
      </trkpt>
      <trkpt lat="43.10791" lon="2.02501">
        <ele>328</ele>
        <time>2023-09-10T12:49:07Z</time>
      </trkpt>
      <trkpt lat="43.10791" lon="2.025">
        <ele>328</ele>
        <time>2023-09-10T12:49:08Z</time>
      </trkpt>
      <trkpt lat="43.10791" lon="2.02498">
        <ele>328</ele>
        <time>2023-09-10T12:49:09Z</time>
      </trkpt>
      <trkpt lat="43.10791" lon="2.02497">
        <ele>328</ele>
        <time>2023-09-10T12:49:10Z</time>
      </trkpt>
      <trkpt lat="43.10791" lon="2.02495">
        <ele>328</ele>
        <time>2023-09-10T12:49:11Z</time>
      </trkpt>
      <trkpt lat="43.10792" lon="2.02493">
        <ele>328</ele>
        <time>2023-09-10T12:49:12Z</time>
      </trkpt>
      <trkpt lat="43.10792" lon="2.02492">
        <ele>328</ele>
        <time>2023-09-10T12:49:13Z</time>
      </trkpt>
      <trkpt lat="43.10792" lon="2.0249">
        <ele>328</ele>
        <time>2023-09-10T12:49:14Z</time>
      </trkpt>
      <trkpt lat="43.10793" lon="2.02488">
        <ele>328</ele>
        <time>2023-09-10T12:49:15Z</time>
      </trkpt>
      <trkpt lat="43.10793" lon="2.02487">
        <ele>328</ele>
        <time>2023-09-10T12:49:16Z</time>
      </trkpt>
      <trkpt lat="43.10793" lon="2.02485">
        <ele>328</ele>
        <time>2023-09-10T12:49:17Z</time>
      </trkpt>
      <trkpt lat="43.10793" lon="2.02483">
        <ele>328</ele>
        <time>2023-09-10T12:49:18Z</time>
      </trkpt>
      <trkpt lat="43.10794" lon="2.02482">
        <ele>328</ele>
        <time>2023-09-10T12:49:19Z</time>
      </trkpt>
      <trkpt lat="43.10794" lon="2.0248">
        <ele>328</ele>
        <time>2023-09-10T12:49:20Z</time>
      </trkpt>
      <trkpt lat="43.10794" lon="2.02478">
        <ele>328</ele>
        <time>2023-09-10T12:49:21Z</time>
      </trkpt>
      <trkpt lat="43.10794" lon="2.02477">
        <ele>328</ele>
        <time>2023-09-10T12:49:22Z</time>
      </trkpt>
      <trkpt lat="43.10794" lon="2.02475">
        <ele>328</ele>
        <time>2023-09-10T12:49:23Z</time>
      </trkpt>
      <trkpt lat="43.10794" lon="2.02474">
        <ele>328</ele>
        <time>2023-09-10T12:49:24Z</time>
      </trkpt>
      <trkpt lat="43.10794" lon="2.02472">
        <ele>328</ele>
        <time>2023-09-10T12:49:25Z</time>
      </trkpt>
      <trkpt lat="43.10794" lon="2.02471">
        <ele>328</ele>
        <time>2023-09-10T12:49:26Z</time>
      </trkpt>
      <trkpt lat="43.10794" lon="2.02469">
        <ele>328</ele>
        <time>2023-09-10T12:49:27Z</time>
      </trkpt>
      <trkpt lat="43.10794" lon="2.02467">
        <ele>328</ele>
        <time>2023-09-10T12:49:28Z</time>
      </trkpt>
      <trkpt lat="43.10794" lon="2.02466">
        <ele>328</ele>
        <time>2023-09-10T12:49:29Z</time>
      </trkpt>
      <trkpt lat="43.10794" lon="2.02464">
        <ele>328</ele>
        <time>2023-09-10T12:49:30Z</time>
      </trkpt>
      <trkpt lat="43.10795" lon="2.02462">
        <ele>328</ele>
        <time>2023-09-10T12:49:31Z</time>
      </trkpt>
      <trkpt lat="43.10795" lon="2.02461">
        <ele>328</ele>
        <time>2023-09-10T12:49:32Z</time>
      </trkpt>
      <trkpt lat="43.10795" lon="2.02459">
        <ele>328</ele>
        <time>2023-09-10T12:49:33Z</time>
      </trkpt>
      <trkpt lat="43.10795" lon="2.02457">
        <ele>328</ele>
        <time>2023-09-10T12:49:34Z</time>
      </trkpt>
      <trkpt lat="43.10795" lon="2.02456">
        <ele>328</ele>
        <time>2023-09-10T12:49:35Z</time>
      </trkpt>
      <trkpt lat="43.10795" lon="2.02454">
        <ele>328</ele>
        <time>2023-09-10T12:49:36Z</time>
      </trkpt>
      <trkpt lat="43.10795" lon="2.02452">
        <ele>328</ele>
        <time>2023-09-10T12:49:37Z</time>
      </trkpt>
      <trkpt lat="43.10795" lon="2.02451">
        <ele>328</ele>
        <time>2023-09-10T12:49:38Z</time>
      </trkpt>
      <trkpt lat="43.10795" lon="2.02449">
        <ele>328</ele>
        <time>2023-09-10T12:49:39Z</time>
      </trkpt>
      <trkpt lat="43.10795" lon="2.02448">
        <ele>328</ele>
        <time>2023-09-10T12:49:40Z</time>
      </trkpt>
      <trkpt lat="43.10794" lon="2.02446">
        <ele>329</ele>
        <time>2023-09-10T12:49:41Z</time>
      </trkpt>
      <trkpt lat="43.10794" lon="2.02445">
        <ele>329</ele>
        <time>2023-09-10T12:49:42Z</time>
      </trkpt>
      <trkpt lat="43.10793" lon="2.02443">
        <ele>329</ele>
        <time>2023-09-10T12:49:43Z</time>
      </trkpt>
      <trkpt lat="43.10793" lon="2.02442">
        <ele>329</ele>
        <time>2023-09-10T12:49:44Z</time>
      </trkpt>
      <trkpt lat="43.10792" lon="2.0244">
        <ele>329</ele>
        <time>2023-09-10T12:49:45Z</time>
      </trkpt>
      <trkpt lat="43.10792" lon="2.02439">
        <ele>329</ele>
        <time>2023-09-10T12:49:46Z</time>
      </trkpt>
      <trkpt lat="43.10791" lon="2.02437">
        <ele>329</ele>
        <time>2023-09-10T12:49:47Z</time>
      </trkpt>
      <trkpt lat="43.1079" lon="2.02436">
        <ele>329</ele>
        <time>2023-09-10T12:49:48Z</time>
      </trkpt>
      <trkpt lat="43.1079" lon="2.02435">
        <ele>329</ele>
        <time>2023-09-10T12:49:49Z</time>
      </trkpt>
      <trkpt lat="43.10789" lon="2.02433">
        <ele>329</ele>
        <time>2023-09-10T12:49:50Z</time>
      </trkpt>
      <trkpt lat="43.10789" lon="2.02432">
        <ele>329</ele>
        <time>2023-09-10T12:49:51Z</time>
      </trkpt>
      <trkpt lat="43.10788" lon="2.02431">
        <ele>329</ele>
        <time>2023-09-10T12:49:52Z</time>
      </trkpt>
      <trkpt lat="43.10787" lon="2.0243">
        <ele>329</ele>
        <time>2023-09-10T12:49:53Z</time>
      </trkpt>
      <trkpt lat="43.10787" lon="2.02429">
        <ele>329</ele>
        <time>2023-09-10T12:49:54Z</time>
      </trkpt>
      <trkpt lat="43.10786" lon="2.02427">
        <ele>329</ele>
        <time>2023-09-10T12:49:55Z</time>
      </trkpt>
      <trkpt lat="43.10786" lon="2.02426">
        <ele>329</ele>
        <time>2023-09-10T12:49:56Z</time>
      </trkpt>
      <trkpt lat="43.10785" lon="2.02424">
        <ele>329</ele>
        <time>2023-09-10T12:49:57Z</time>
      </trkpt>
      <trkpt lat="43.10784" lon="2.02423">
        <ele>329</ele>
        <time>2023-09-10T12:49:58Z</time>
      </trkpt>
      <trkpt lat="43.10784" lon="2.02421">
        <ele>329</ele>
        <time>2023-09-10T12:49:59Z</time>
      </trkpt>
      <trkpt lat="43.10783" lon="2.0242">
        <ele>329</ele>
        <time>2023-09-10T12:50:00Z</time>
      </trkpt>
      <trkpt lat="43.10783" lon="2.02419">
        <ele>329</ele>
        <time>2023-09-10T12:50:01Z</time>
      </trkpt>
      <trkpt lat="43.10783" lon="2.02417">
        <ele>329</ele>
        <time>2023-09-10T12:50:02Z</time>
      </trkpt>
      <trkpt lat="43.10782" lon="2.02416">
        <ele>329</ele>
        <time>2023-09-10T12:50:03Z</time>
      </trkpt>
      <trkpt lat="43.10782" lon="2.02414">
        <ele>329</ele>
        <time>2023-09-10T12:50:04Z</time>
      </trkpt>
      <trkpt lat="43.10781" lon="2.02413">
        <ele>329</ele>
        <time>2023-09-10T12:50:05Z</time>
      </trkpt>
      <trkpt lat="43.10781" lon="2.02411">
        <ele>329</ele>
        <time>2023-09-10T12:50:06Z</time>
      </trkpt>
      <trkpt lat="43.10781" lon="2.0241">
        <ele>329</ele>
        <time>2023-09-10T12:50:07Z</time>
      </trkpt>
      <trkpt lat="43.1078" lon="2.02408">
        <ele>329</ele>
        <time>2023-09-10T12:50:08Z</time>
      </trkpt>
      <trkpt lat="43.1078" lon="2.02407">
        <ele>329</ele>
        <time>2023-09-10T12:50:09Z</time>
      </trkpt>
      <trkpt lat="43.1078" lon="2.02405">
        <ele>329</ele>
        <time>2023-09-10T12:50:10Z</time>
      </trkpt>
      <trkpt lat="43.10779" lon="2.02403">
        <ele>329</ele>
        <time>2023-09-10T12:50:11Z</time>
      </trkpt>
      <trkpt lat="43.10779" lon="2.02402">
        <ele>329</ele>
        <time>2023-09-10T12:50:12Z</time>
      </trkpt>
      <trkpt lat="43.10779" lon="2.024">
        <ele>329</ele>
        <time>2023-09-10T12:50:13Z</time>
      </trkpt>
      <trkpt lat="43.10778" lon="2.02399">
        <ele>329</ele>
        <time>2023-09-10T12:50:14Z</time>
      </trkpt>
      <trkpt lat="43.10778" lon="2.02397">
        <ele>329</ele>
        <time>2023-09-10T12:50:15Z</time>
      </trkpt>
      <trkpt lat="43.10778" lon="2.02396">
        <ele>329</ele>
        <time>2023-09-10T12:50:16Z</time>
      </trkpt>
      <trkpt lat="43.10778" lon="2.02395">
        <ele>329</ele>
        <time>2023-09-10T12:50:17Z</time>
      </trkpt>
      <trkpt lat="43.10778" lon="2.02393">
        <ele>329</ele>
        <time>2023-09-10T12:50:18Z</time>
      </trkpt>
      <trkpt lat="43.10778" lon="2.02392">
        <ele>329</ele>
        <time>2023-09-10T12:50:19Z</time>
      </trkpt>
      <trkpt lat="43.10778" lon="2.0239">
        <ele>329</ele>
        <time>2023-09-10T12:50:20Z</time>
      </trkpt>
      <trkpt lat="43.10778" lon="2.02389">
        <ele>329</ele>
        <time>2023-09-10T12:50:21Z</time>
      </trkpt>
      <trkpt lat="43.10779" lon="2.02388">
        <ele>329</ele>
        <time>2023-09-10T12:50:22Z</time>
      </trkpt>
      <trkpt lat="43.10779" lon="2.02386">
        <ele>329</ele>
        <time>2023-09-10T12:50:23Z</time>
      </trkpt>
      <trkpt lat="43.1078" lon="2.02385">
        <ele>329</ele>
        <time>2023-09-10T12:50:24Z</time>
      </trkpt>
      <trkpt lat="43.10781" lon="2.02384">
        <ele>329</ele>
        <time>2023-09-10T12:50:25Z</time>
      </trkpt>
      <trkpt lat="43.10782" lon="2.02382">
        <ele>329</ele>
        <time>2023-09-10T12:50:26Z</time>
      </trkpt>
      <trkpt lat="43.10782" lon="2.02381">
        <ele>329</ele>
        <time>2023-09-10T12:50:27Z</time>
      </trkpt>
      <trkpt lat="43.10783" lon="2.0238">
        <ele>329</ele>
        <time>2023-09-10T12:50:28Z</time>
      </trkpt>
      <trkpt lat="43.10784" lon="2.02379">
        <ele>329</ele>
        <time>2023-09-10T12:50:29Z</time>
      </trkpt>
      <trkpt lat="43.10785" lon="2.02378">
        <ele>329</ele>
        <time>2023-09-10T12:50:30Z</time>
      </trkpt>
      <trkpt lat="43.10785" lon="2.02377">
        <ele>329</ele>
        <time>2023-09-10T12:50:31Z</time>
      </trkpt>
      <trkpt lat="43.10785" lon="2.02375">
        <ele>329</ele>
        <time>2023-09-10T12:50:32Z</time>
      </trkpt>
      <trkpt lat="43.10786" lon="2.02374">
        <ele>329</ele>
        <time>2023-09-10T12:50:33Z</time>
      </trkpt>
      <trkpt lat="43.10786" lon="2.02372">
        <ele>329</ele>
        <time>2023-09-10T12:50:34Z</time>
      </trkpt>
      <trkpt lat="43.10786" lon="2.02371">
        <ele>329</ele>
        <time>2023-09-10T12:50:35Z</time>
      </trkpt>
      <trkpt lat="43.10786" lon="2.0237">
        <ele>329</ele>
        <time>2023-09-10T12:50:36Z</time>
      </trkpt>
      <trkpt lat="43.10785" lon="2.02368">
        <ele>329</ele>
        <time>2023-09-10T12:50:37Z</time>
      </trkpt>
      <trkpt lat="43.10785" lon="2.02367">
        <ele>329</ele>
        <time>2023-09-10T12:50:38Z</time>
      </trkpt>
      <trkpt lat="43.10785" lon="2.02366">
        <ele>329</ele>
        <time>2023-09-10T12:50:39Z</time>
      </trkpt>
      <trkpt lat="43.10784" lon="2.02365">
        <ele>329</ele>
        <time>2023-09-10T12:50:40Z</time>
      </trkpt>
      <trkpt lat="43.10784" lon="2.02363">
        <ele>329</ele>
        <time>2023-09-10T12:50:41Z</time>
      </trkpt>
      <trkpt lat="43.10783" lon="2.02362">
        <ele>329</ele>
        <time>2023-09-10T12:50:42Z</time>
      </trkpt>
      <trkpt lat="43.10783" lon="2.02361">
        <ele>329</ele>
        <time>2023-09-10T12:50:43Z</time>
      </trkpt>
      <trkpt lat="43.10782" lon="2.0236">
        <ele>329</ele>
        <time>2023-09-10T12:50:44Z</time>
      </trkpt>
      <trkpt lat="43.10782" lon="2.02358">
        <ele>329</ele>
        <time>2023-09-10T12:50:45Z</time>
      </trkpt>
      <trkpt lat="43.10781" lon="2.02357">
        <ele>329</ele>
        <time>2023-09-10T12:50:46Z</time>
      </trkpt>
      <trkpt lat="43.10781" lon="2.02356">
        <ele>329</ele>
        <time>2023-09-10T12:50:47Z</time>
      </trkpt>
      <trkpt lat="43.1078" lon="2.02354">
        <ele>329</ele>
        <time>2023-09-10T12:50:48Z</time>
      </trkpt>
      <trkpt lat="43.1078" lon="2.02353">
        <ele>329</ele>
        <time>2023-09-10T12:50:49Z</time>
      </trkpt>
      <trkpt lat="43.10779" lon="2.02352">
        <ele>329</ele>
        <time>2023-09-10T12:50:50Z</time>
      </trkpt>
      <trkpt lat="43.10778" lon="2.0235">
        <ele>329</ele>
        <time>2023-09-10T12:50:51Z</time>
      </trkpt>
      <trkpt lat="43.10778" lon="2.02349">
        <ele>329</ele>
        <time>2023-09-10T12:50:52Z</time>
      </trkpt>
      <trkpt lat="43.10777" lon="2.02348">
        <ele>329</ele>
        <time>2023-09-10T12:50:53Z</time>
      </trkpt>
      <trkpt lat="43.10777" lon="2.02347">
        <ele>329</ele>
        <time>2023-09-10T12:50:54Z</time>
      </trkpt>
      <trkpt lat="43.10776" lon="2.02345">
        <ele>329</ele>
        <time>2023-09-10T12:50:55Z</time>
      </trkpt>
      <trkpt lat="43.10775" lon="2.02344">
        <ele>329</ele>
        <time>2023-09-10T12:50:56Z</time>
      </trkpt>
      <trkpt lat="43.10775" lon="2.02343">
        <ele>329</ele>
        <time>2023-09-10T12:50:57Z</time>
      </trkpt>
      <trkpt lat="43.10774" lon="2.02342">
        <ele>329</ele>
        <time>2023-09-10T12:50:58Z</time>
      </trkpt>
      <trkpt lat="43.10773" lon="2.02341">
        <ele>329</ele>
        <time>2023-09-10T12:50:59Z</time>
      </trkpt>
      <trkpt lat="43.10773" lon="2.02339">
        <ele>329</ele>
        <time>2023-09-10T12:51:00Z</time>
      </trkpt>
      <trkpt lat="43.10773" lon="2.02338">
        <ele>329</ele>
        <time>2023-09-10T12:51:01Z</time>
      </trkpt>
      <trkpt lat="43.10772" lon="2.02336">
        <ele>329</ele>
        <time>2023-09-10T12:51:02Z</time>
      </trkpt>
      <trkpt lat="43.10772" lon="2.02335">
        <ele>329</ele>
        <time>2023-09-10T12:51:03Z</time>
      </trkpt>
      <trkpt lat="43.10771" lon="2.02334">
        <ele>329</ele>
        <time>2023-09-10T12:51:04Z</time>
      </trkpt>
      <trkpt lat="43.10771" lon="2.02332">
        <ele>329</ele>
        <time>2023-09-10T12:51:05Z</time>
      </trkpt>
      <trkpt lat="43.1077" lon="2.02331">
        <ele>329</ele>
        <time>2023-09-10T12:51:06Z</time>
      </trkpt>
      <trkpt lat="43.1077" lon="2.02329">
        <ele>329</ele>
        <time>2023-09-10T12:51:07Z</time>
      </trkpt>
      <trkpt lat="43.10769" lon="2.02328">
        <ele>329</ele>
        <time>2023-09-10T12:51:08Z</time>
      </trkpt>
      <trkpt lat="43.10769" lon="2.02327">
        <ele>329</ele>
        <time>2023-09-10T12:51:09Z</time>
      </trkpt>
      <trkpt lat="43.10768" lon="2.02325">
        <ele>329</ele>
        <time>2023-09-10T12:51:10Z</time>
      </trkpt>
      <trkpt lat="43.10767" lon="2.02324">
        <ele>329</ele>
        <time>2023-09-10T12:51:11Z</time>
      </trkpt>
      <trkpt lat="43.10767" lon="2.02323">
        <ele>329</ele>
        <time>2023-09-10T12:51:12Z</time>
      </trkpt>
      <trkpt lat="43.10766" lon="2.02321">
        <ele>329</ele>
        <time>2023-09-10T12:51:13Z</time>
      </trkpt>
      <trkpt lat="43.10766" lon="2.0232">
        <ele>329</ele>
        <time>2023-09-10T12:51:14Z</time>
      </trkpt>
      <trkpt lat="43.10765" lon="2.02319">
        <ele>329</ele>
        <time>2023-09-10T12:51:15Z</time>
      </trkpt>
      <trkpt lat="43.10765" lon="2.02318">
        <ele>330</ele>
        <time>2023-09-10T12:51:16Z</time>
      </trkpt>
      <trkpt lat="43.10764" lon="2.02316">
        <ele>330</ele>
        <time>2023-09-10T12:51:17Z</time>
      </trkpt>
      <trkpt lat="43.10763" lon="2.02315">
        <ele>330</ele>
        <time>2023-09-10T12:51:18Z</time>
      </trkpt>
      <trkpt lat="43.10763" lon="2.02313">
        <ele>330</ele>
        <time>2023-09-10T12:51:19Z</time>
      </trkpt>
      <trkpt lat="43.10762" lon="2.02312">
        <ele>330</ele>
        <time>2023-09-10T12:51:20Z</time>
      </trkpt>
      <trkpt lat="43.10762" lon="2.0231">
        <ele>330</ele>
        <time>2023-09-10T12:51:21Z</time>
      </trkpt>
      <trkpt lat="43.10761" lon="2.02309">
        <ele>330</ele>
        <time>2023-09-10T12:51:22Z</time>
      </trkpt>
      <trkpt lat="43.1076" lon="2.02307">
        <ele>330</ele>
        <time>2023-09-10T12:51:23Z</time>
      </trkpt>
      <trkpt lat="43.10759" lon="2.02305">
        <ele>330</ele>
        <time>2023-09-10T12:51:24Z</time>
      </trkpt>
      <trkpt lat="43.10759" lon="2.02304">
        <ele>330</ele>
        <time>2023-09-10T12:51:25Z</time>
      </trkpt>
      <trkpt lat="43.10758" lon="2.02303">
        <ele>330</ele>
        <time>2023-09-10T12:51:26Z</time>
      </trkpt>
      <trkpt lat="43.10757" lon="2.02301">
        <ele>330</ele>
        <time>2023-09-10T12:51:27Z</time>
      </trkpt>
      <trkpt lat="43.10756" lon="2.023">
        <ele>330</ele>
        <time>2023-09-10T12:51:28Z</time>
      </trkpt>
      <trkpt lat="43.10756" lon="2.02298">
        <ele>330</ele>
        <time>2023-09-10T12:51:29Z</time>
      </trkpt>
      <trkpt lat="43.10755" lon="2.02297">
        <ele>330</ele>
        <time>2023-09-10T12:51:30Z</time>
      </trkpt>
      <trkpt lat="43.10754" lon="2.02295">
        <ele>330</ele>
        <time>2023-09-10T12:51:31Z</time>
      </trkpt>
      <trkpt lat="43.10754" lon="2.02294">
        <ele>330</ele>
        <time>2023-09-10T12:51:32Z</time>
      </trkpt>
      <trkpt lat="43.10753" lon="2.02292">
        <ele>330</ele>
        <time>2023-09-10T12:51:33Z</time>
      </trkpt>
      <trkpt lat="43.10752" lon="2.02291">
        <ele>330</ele>
        <time>2023-09-10T12:51:34Z</time>
      </trkpt>
      <trkpt lat="43.10752" lon="2.02289">
        <ele>330</ele>
        <time>2023-09-10T12:51:35Z</time>
      </trkpt>
      <trkpt lat="43.10751" lon="2.02288">
        <ele>330</ele>
        <time>2023-09-10T12:51:36Z</time>
      </trkpt>
      <trkpt lat="43.1075" lon="2.02287">
        <ele>330</ele>
        <time>2023-09-10T12:51:37Z</time>
      </trkpt>
      <trkpt lat="43.1075" lon="2.02285">
        <ele>330</ele>
        <time>2023-09-10T12:51:38Z</time>
      </trkpt>
      <trkpt lat="43.10749" lon="2.02284">
        <ele>330</ele>
        <time>2023-09-10T12:51:39Z</time>
      </trkpt>
      <trkpt lat="43.10748" lon="2.02282">
        <ele>330</ele>
        <time>2023-09-10T12:51:40Z</time>
      </trkpt>
      <trkpt lat="43.10747" lon="2.02281">
        <ele>330</ele>
        <time>2023-09-10T12:51:41Z</time>
      </trkpt>
      <trkpt lat="43.10747" lon="2.02279">
        <ele>330</ele>
        <time>2023-09-10T12:51:42Z</time>
      </trkpt>
      <trkpt lat="43.10746" lon="2.02278">
        <ele>330</ele>
        <time>2023-09-10T12:51:43Z</time>
      </trkpt>
      <trkpt lat="43.10745" lon="2.02277">
        <ele>330</ele>
        <time>2023-09-10T12:51:44Z</time>
      </trkpt>
      <trkpt lat="43.10744" lon="2.02275">
        <ele>330</ele>
        <time>2023-09-10T12:51:45Z</time>
      </trkpt>
      <trkpt lat="43.10744" lon="2.02274">
        <ele>330</ele>
        <time>2023-09-10T12:51:46Z</time>
      </trkpt>
      <trkpt lat="43.10743" lon="2.02272">
        <ele>330</ele>
        <time>2023-09-10T12:51:47Z</time>
      </trkpt>
      <trkpt lat="43.10742" lon="2.02271">
        <ele>330</ele>
        <time>2023-09-10T12:51:48Z</time>
      </trkpt>
      <trkpt lat="43.10741" lon="2.0227">
        <ele>330</ele>
        <time>2023-09-10T12:51:49Z</time>
      </trkpt>
      <trkpt lat="43.1074" lon="2.02268">
        <ele>330</ele>
        <time>2023-09-10T12:51:50Z</time>
      </trkpt>
      <trkpt lat="43.1074" lon="2.02267">
        <ele>330</ele>
        <time>2023-09-10T12:51:51Z</time>
      </trkpt>
      <trkpt lat="43.10739" lon="2.02266">
        <ele>330</ele>
        <time>2023-09-10T12:51:52Z</time>
      </trkpt>
      <trkpt lat="43.10738" lon="2.02264">
        <ele>330</ele>
        <time>2023-09-10T12:51:53Z</time>
      </trkpt>
      <trkpt lat="43.10737" lon="2.02263">
        <ele>330</ele>
        <time>2023-09-10T12:51:54Z</time>
      </trkpt>
      <trkpt lat="43.10736" lon="2.02261">
        <ele>330</ele>
        <time>2023-09-10T12:51:55Z</time>
      </trkpt>
      <trkpt lat="43.10735" lon="2.0226">
        <ele>331</ele>
        <time>2023-09-10T12:51:56Z</time>
      </trkpt>
      <trkpt lat="43.10734" lon="2.02259">
        <ele>331</ele>
        <time>2023-09-10T12:51:57Z</time>
      </trkpt>
      <trkpt lat="43.10733" lon="2.02257">
        <ele>331</ele>
        <time>2023-09-10T12:51:58Z</time>
      </trkpt>
      <trkpt lat="43.10732" lon="2.02256">
        <ele>331</ele>
        <time>2023-09-10T12:51:59Z</time>
      </trkpt>
      <trkpt lat="43.10732" lon="2.02255">
        <ele>331</ele>
        <time>2023-09-10T12:52:00Z</time>
      </trkpt>
      <trkpt lat="43.10731" lon="2.02254">
        <ele>331</ele>
        <time>2023-09-10T12:52:01Z</time>
      </trkpt>
      <trkpt lat="43.1073" lon="2.02253">
        <ele>331</ele>
        <time>2023-09-10T12:52:02Z</time>
      </trkpt>
      <trkpt lat="43.10729" lon="2.02252">
        <ele>331</ele>
        <time>2023-09-10T12:52:03Z</time>
      </trkpt>
      <trkpt lat="43.10729" lon="2.02251">
        <ele>331</ele>
        <time>2023-09-10T12:52:04Z</time>
      </trkpt>
      <trkpt lat="43.10728" lon="2.0225">
        <ele>331</ele>
        <time>2023-09-10T12:52:05Z</time>
      </trkpt>
      <trkpt lat="43.10727" lon="2.02249">
        <ele>331</ele>
        <time>2023-09-10T12:52:06Z</time>
      </trkpt>
      <trkpt lat="43.10727" lon="2.02248">
        <ele>331</ele>
        <time>2023-09-10T12:52:07Z</time>
      </trkpt>
      <trkpt lat="43.10726" lon="2.02247">
        <ele>331</ele>
        <time>2023-09-10T12:52:08Z</time>
      </trkpt>
      <trkpt lat="43.10725" lon="2.02245">
        <ele>331</ele>
        <time>2023-09-10T12:52:09Z</time>
      </trkpt>
      <trkpt lat="43.10725" lon="2.02244">
        <ele>331</ele>
        <time>2023-09-10T12:52:10Z</time>
      </trkpt>
      <trkpt lat="43.10724" lon="2.02244">
        <ele>331</ele>
        <time>2023-09-10T12:52:11Z</time>
      </trkpt>
      <trkpt lat="43.10723" lon="2.02243">
        <ele>331</ele>
        <time>2023-09-10T12:52:12Z</time>
      </trkpt>
      <trkpt lat="43.10723" lon="2.02242">
        <ele>331</ele>
        <time>2023-09-10T12:52:13Z</time>
      </trkpt>
      <trkpt lat="43.10722" lon="2.02241">
        <ele>331</ele>
        <time>2023-09-10T12:52:14Z</time>
      </trkpt>
      <trkpt lat="43.10722" lon="2.0224">
        <ele>331</ele>
        <time>2023-09-10T12:52:15Z</time>
      </trkpt>
      <trkpt lat="43.10721" lon="2.02239">
        <ele>331</ele>
        <time>2023-09-10T12:52:16Z</time>
      </trkpt>
      <trkpt lat="43.10721" lon="2.02238">
        <ele>331</ele>
        <time>2023-09-10T12:52:17Z</time>
      </trkpt>
      <trkpt lat="43.1072" lon="2.02236">
        <ele>331</ele>
        <time>2023-09-10T12:52:18Z</time>
      </trkpt>
      <trkpt lat="43.10719" lon="2.02235">
        <ele>331</ele>
        <time>2023-09-10T12:52:19Z</time>
      </trkpt>
      <trkpt lat="43.10719" lon="2.02234">
        <ele>331</ele>
        <time>2023-09-10T12:52:20Z</time>
      </trkpt>
      <trkpt lat="43.10718" lon="2.02233">
        <ele>331</ele>
        <time>2023-09-10T12:52:21Z</time>
      </trkpt>
      <trkpt lat="43.10717" lon="2.02231">
        <ele>331</ele>
        <time>2023-09-10T12:52:22Z</time>
      </trkpt>
      <trkpt lat="43.10716" lon="2.0223">
        <ele>331</ele>
        <time>2023-09-10T12:52:23Z</time>
      </trkpt>
      <trkpt lat="43.10716" lon="2.02229">
        <ele>331</ele>
        <time>2023-09-10T12:52:24Z</time>
      </trkpt>
      <trkpt lat="43.10715" lon="2.02228">
        <ele>331</ele>
        <time>2023-09-10T12:52:25Z</time>
      </trkpt>
      <trkpt lat="43.10714" lon="2.02227">
        <ele>331</ele>
        <time>2023-09-10T12:52:26Z</time>
      </trkpt>
      <trkpt lat="43.10713" lon="2.02226">
        <ele>331</ele>
        <time>2023-09-10T12:52:27Z</time>
      </trkpt>
      <trkpt lat="43.10713" lon="2.02225">
        <ele>331</ele>
        <time>2023-09-10T12:52:28Z</time>
      </trkpt>
      <trkpt lat="43.10712" lon="2.02224">
        <ele>331</ele>
        <time>2023-09-10T12:52:29Z</time>
      </trkpt>
      <trkpt lat="43.10711" lon="2.02222">
        <ele>331</ele>
        <time>2023-09-10T12:52:30Z</time>
      </trkpt>
      <trkpt lat="43.1071" lon="2.02221">
        <ele>332</ele>
        <time>2023-09-10T12:52:31Z</time>
      </trkpt>
      <trkpt lat="43.10709" lon="2.0222">
        <ele>332</ele>
        <time>2023-09-10T12:52:32Z</time>
      </trkpt>
      <trkpt lat="43.10708" lon="2.02219">
        <ele>332</ele>
        <time>2023-09-10T12:52:33Z</time>
      </trkpt>
      <trkpt lat="43.10707" lon="2.02218">
        <ele>332</ele>
        <time>2023-09-10T12:52:34Z</time>
      </trkpt>
      <trkpt lat="43.10707" lon="2.02217">
        <ele>332</ele>
        <time>2023-09-10T12:52:35Z</time>
      </trkpt>
      <trkpt lat="43.10706" lon="2.02217">
        <ele>332</ele>
        <time>2023-09-10T12:52:36Z</time>
      </trkpt>
      <trkpt lat="43.10705" lon="2.02217">
        <ele>332</ele>
        <time>2023-09-10T12:52:37Z</time>
      </trkpt>
      <trkpt lat="43.10704" lon="2.02217">
        <ele>332</ele>
        <time>2023-09-10T12:52:38Z</time>
      </trkpt>
      <trkpt lat="43.10704" lon="2.02217">
        <ele>332</ele>
        <time>2023-09-10T12:52:39Z</time>
      </trkpt>
      <trkpt lat="43.10703" lon="2.02217">
        <ele>332</ele>
        <time>2023-09-10T12:52:40Z</time>
      </trkpt>
      <trkpt lat="43.10703" lon="2.02218">
        <ele>332</ele>
        <time>2023-09-10T12:52:41Z</time>
      </trkpt>
      <trkpt lat="43.10702" lon="2.02219">
        <ele>332</ele>
        <time>2023-09-10T12:52:42Z</time>
      </trkpt>
      <trkpt lat="43.10702" lon="2.0222">
        <ele>332</ele>
        <time>2023-09-10T12:52:43Z</time>
      </trkpt>
      <trkpt lat="43.10701" lon="2.0222">
        <ele>332</ele>
        <time>2023-09-10T12:52:44Z</time>
      </trkpt>
      <trkpt lat="43.10701" lon="2.02221">
        <ele>332</ele>
        <time>2023-09-10T12:52:45Z</time>
      </trkpt>
      <trkpt lat="43.107" lon="2.02222">
        <ele>332</ele>
        <time>2023-09-10T12:52:46Z</time>
      </trkpt>
      <trkpt lat="43.107" lon="2.02222">
        <ele>332</ele>
        <time>2023-09-10T12:52:47Z</time>
      </trkpt>
      <trkpt lat="43.107" lon="2.02223">
        <ele>332</ele>
        <time>2023-09-10T12:52:48Z</time>
      </trkpt>
      <trkpt lat="43.10699" lon="2.02225">
        <ele>332</ele>
        <time>2023-09-10T12:52:54Z</time>
      </trkpt>
      <trkpt lat="43.10698" lon="2.02226">
        <ele>332</ele>
        <time>2023-09-10T12:52:55Z</time>
      </trkpt>
      <trkpt lat="43.10698" lon="2.02227">
        <ele>332</ele>
        <time>2023-09-10T12:52:56Z</time>
      </trkpt>
      <trkpt lat="43.10697" lon="2.02228">
        <ele>332</ele>
        <time>2023-09-10T12:52:57Z</time>
      </trkpt>
      <trkpt lat="43.10697" lon="2.02229">
        <ele>332</ele>
        <time>2023-09-10T12:52:58Z</time>
      </trkpt>
      <trkpt lat="43.10696" lon="2.0223">
        <ele>332</ele>
        <time>2023-09-10T12:52:59Z</time>
      </trkpt>
      <trkpt lat="43.10696" lon="2.02232">
        <ele>332</ele>
        <time>2023-09-10T12:53:00Z</time>
      </trkpt>
      <trkpt lat="43.10696" lon="2.02233">
        <ele>332</ele>
        <time>2023-09-10T12:53:01Z</time>
      </trkpt>
      <trkpt lat="43.10695" lon="2.02234">
        <ele>332</ele>
        <time>2023-09-10T12:53:02Z</time>
      </trkpt>
      <trkpt lat="43.10695" lon="2.02235">
        <ele>332</ele>
        <time>2023-09-10T12:53:03Z</time>
      </trkpt>
      <trkpt lat="43.10695" lon="2.02237">
        <ele>332</ele>
        <time>2023-09-10T12:53:04Z</time>
      </trkpt>
      <trkpt lat="43.10695" lon="2.02238">
        <ele>332</ele>
        <time>2023-09-10T12:53:05Z</time>
      </trkpt>
      <trkpt lat="43.10694" lon="2.02239">
        <ele>332</ele>
        <time>2023-09-10T12:53:06Z</time>
      </trkpt>
      <trkpt lat="43.10694" lon="2.0224">
        <ele>332</ele>
        <time>2023-09-10T12:53:07Z</time>
      </trkpt>
      <trkpt lat="43.10694" lon="2.02242">
        <ele>332</ele>
        <time>2023-09-10T12:53:08Z</time>
      </trkpt>
      <trkpt lat="43.10693" lon="2.02243">
        <ele>332</ele>
        <time>2023-09-10T12:53:09Z</time>
      </trkpt>
      <trkpt lat="43.10693" lon="2.02244">
        <ele>332</ele>
        <time>2023-09-10T12:53:10Z</time>
      </trkpt>
      <trkpt lat="43.10692" lon="2.02246">
        <ele>332</ele>
        <time>2023-09-10T12:53:11Z</time>
      </trkpt>
      <trkpt lat="43.10692" lon="2.02247">
        <ele>332</ele>
        <time>2023-09-10T12:53:12Z</time>
      </trkpt>
      <trkpt lat="43.10691" lon="2.02249">
        <ele>332</ele>
        <time>2023-09-10T12:53:13Z</time>
      </trkpt>
      <trkpt lat="43.10691" lon="2.0225">
        <ele>332</ele>
        <time>2023-09-10T12:53:14Z</time>
      </trkpt>
      <trkpt lat="43.1069" lon="2.02252">
        <ele>332</ele>
        <time>2023-09-10T12:53:15Z</time>
      </trkpt>
      <trkpt lat="43.1069" lon="2.02253">
        <ele>332</ele>
        <time>2023-09-10T12:53:16Z</time>
      </trkpt>
      <trkpt lat="43.10689" lon="2.02254">
        <ele>332</ele>
        <time>2023-09-10T12:53:17Z</time>
      </trkpt>
      <trkpt lat="43.10689" lon="2.02256">
        <ele>332</ele>
        <time>2023-09-10T12:53:18Z</time>
      </trkpt>
      <trkpt lat="43.10688" lon="2.02257">
        <ele>332</ele>
        <time>2023-09-10T12:53:19Z</time>
      </trkpt>
      <trkpt lat="43.10688" lon="2.02258">
        <ele>332</ele>
        <time>2023-09-10T12:53:20Z</time>
      </trkpt>
      <trkpt lat="43.10687" lon="2.0226">
        <ele>332</ele>
        <time>2023-09-10T12:53:21Z</time>
      </trkpt>
      <trkpt lat="43.10686" lon="2.02261">
        <ele>331</ele>
        <time>2023-09-10T12:53:22Z</time>
      </trkpt>
      <trkpt lat="43.10686" lon="2.02263">
        <ele>331</ele>
        <time>2023-09-10T12:53:23Z</time>
      </trkpt>
      <trkpt lat="43.10685" lon="2.02264">
        <ele>331</ele>
        <time>2023-09-10T12:53:24Z</time>
      </trkpt>
      <trkpt lat="43.10684" lon="2.02265">
        <ele>331</ele>
        <time>2023-09-10T12:53:25Z</time>
      </trkpt>
      <trkpt lat="43.10683" lon="2.02267">
        <ele>331</ele>
        <time>2023-09-10T12:53:26Z</time>
      </trkpt>
      <trkpt lat="43.10683" lon="2.02268">
        <ele>331</ele>
        <time>2023-09-10T12:53:27Z</time>
      </trkpt>
      <trkpt lat="43.10682" lon="2.02269">
        <ele>331</ele>
        <time>2023-09-10T12:53:28Z</time>
      </trkpt>
      <trkpt lat="43.10681" lon="2.0227">
        <ele>331</ele>
        <time>2023-09-10T12:53:29Z</time>
      </trkpt>
      <trkpt lat="43.10681" lon="2.02271">
        <ele>331</ele>
        <time>2023-09-10T12:53:30Z</time>
      </trkpt>
      <trkpt lat="43.1068" lon="2.02273">
        <ele>331</ele>
        <time>2023-09-10T12:53:31Z</time>
      </trkpt>
      <trkpt lat="43.10679" lon="2.02274">
        <ele>331</ele>
        <time>2023-09-10T12:53:32Z</time>
      </trkpt>
      <trkpt lat="43.10678" lon="2.02275">
        <ele>331</ele>
        <time>2023-09-10T12:53:33Z</time>
      </trkpt>
      <trkpt lat="43.10678" lon="2.02276">
        <ele>331</ele>
        <time>2023-09-10T12:53:34Z</time>
      </trkpt>
      <trkpt lat="43.10677" lon="2.02277">
        <ele>331</ele>
        <time>2023-09-10T12:53:35Z</time>
      </trkpt>
      <trkpt lat="43.10677" lon="2.02278">
        <ele>331</ele>
        <time>2023-09-10T12:53:36Z</time>
      </trkpt>
      <trkpt lat="43.10677" lon="2.02279">
        <ele>331</ele>
        <time>2023-09-10T12:53:37Z</time>
      </trkpt>
      <trkpt lat="43.10676" lon="2.0228">
        <ele>331</ele>
        <time>2023-09-10T12:53:38Z</time>
      </trkpt>
      <trkpt lat="43.10675" lon="2.02281">
        <ele>331</ele>
        <time>2023-09-10T12:53:39Z</time>
      </trkpt>
      <trkpt lat="43.10675" lon="2.02282">
        <ele>331</ele>
        <time>2023-09-10T12:53:40Z</time>
      </trkpt>
      <trkpt lat="43.10674" lon="2.02283">
        <ele>331</ele>
        <time>2023-09-10T12:53:41Z</time>
      </trkpt>
      <trkpt lat="43.10673" lon="2.02284">
        <ele>331</ele>
        <time>2023-09-10T12:53:42Z</time>
      </trkpt>
      <trkpt lat="43.10673" lon="2.02285">
        <ele>331</ele>
        <time>2023-09-10T12:53:43Z</time>
      </trkpt>
      <trkpt lat="43.10672" lon="2.02286">
        <ele>331</ele>
        <time>2023-09-10T12:53:44Z</time>
      </trkpt>
      <trkpt lat="43.10671" lon="2.02287">
        <ele>331</ele>
        <time>2023-09-10T12:53:45Z</time>
      </trkpt>
      <trkpt lat="43.1067" lon="2.02288">
        <ele>331</ele>
        <time>2023-09-10T12:53:46Z</time>
      </trkpt>
      <trkpt lat="43.10669" lon="2.02289">
        <ele>331</ele>
        <time>2023-09-10T12:53:47Z</time>
      </trkpt>
      <trkpt lat="43.10668" lon="2.0229">
        <ele>331</ele>
        <time>2023-09-10T12:53:48Z</time>
      </trkpt>
      <trkpt lat="43.10667" lon="2.02292">
        <ele>331</ele>
        <time>2023-09-10T12:53:49Z</time>
      </trkpt>
      <trkpt lat="43.10666" lon="2.02293">
        <ele>331</ele>
        <time>2023-09-10T12:53:50Z</time>
      </trkpt>
      <trkpt lat="43.10666" lon="2.02294">
        <ele>331</ele>
        <time>2023-09-10T12:53:51Z</time>
      </trkpt>
      <trkpt lat="43.10665" lon="2.02295">
        <ele>331</ele>
        <time>2023-09-10T12:53:52Z</time>
      </trkpt>
      <trkpt lat="43.10664" lon="2.02297">
        <ele>331</ele>
        <time>2023-09-10T12:53:53Z</time>
      </trkpt>
      <trkpt lat="43.10663" lon="2.02298">
        <ele>331</ele>
        <time>2023-09-10T12:53:54Z</time>
      </trkpt>
      <trkpt lat="43.10663" lon="2.02299">
        <ele>331</ele>
        <time>2023-09-10T12:53:55Z</time>
      </trkpt>
      <trkpt lat="43.10662" lon="2.023">
        <ele>331</ele>
        <time>2023-09-10T12:53:56Z</time>
      </trkpt>
      <trkpt lat="43.10662" lon="2.02302">
        <ele>331</ele>
        <time>2023-09-10T12:53:57Z</time>
      </trkpt>
      <trkpt lat="43.10661" lon="2.02303">
        <ele>331</ele>
        <time>2023-09-10T12:53:58Z</time>
      </trkpt>
      <trkpt lat="43.1066" lon="2.02304">
        <ele>331</ele>
        <time>2023-09-10T12:53:59Z</time>
      </trkpt>
      <trkpt lat="43.1066" lon="2.02306">
        <ele>331</ele>
        <time>2023-09-10T12:54:00Z</time>
      </trkpt>
      <trkpt lat="43.10659" lon="2.02307">
        <ele>331</ele>
        <time>2023-09-10T12:54:01Z</time>
      </trkpt>
      <trkpt lat="43.10659" lon="2.02308">
        <ele>331</ele>
        <time>2023-09-10T12:54:02Z</time>
      </trkpt>
      <trkpt lat="43.10659" lon="2.02309">
        <ele>331</ele>
        <time>2023-09-10T12:54:03Z</time>
      </trkpt>
      <trkpt lat="43.10658" lon="2.02311">
        <ele>331</ele>
        <time>2023-09-10T12:54:04Z</time>
      </trkpt>
      <trkpt lat="43.10657" lon="2.02312">
        <ele>331</ele>
        <time>2023-09-10T12:54:05Z</time>
      </trkpt>
      <trkpt lat="43.10657" lon="2.02313">
        <ele>331</ele>
        <time>2023-09-10T12:54:06Z</time>
      </trkpt>
      <trkpt lat="43.10656" lon="2.02314">
        <ele>331</ele>
        <time>2023-09-10T12:54:07Z</time>
      </trkpt>
      <trkpt lat="43.10656" lon="2.02315">
        <ele>331</ele>
        <time>2023-09-10T12:54:08Z</time>
      </trkpt>
      <trkpt lat="43.10655" lon="2.02317">
        <ele>331</ele>
        <time>2023-09-10T12:54:09Z</time>
      </trkpt>
      <trkpt lat="43.10655" lon="2.02318">
        <ele>331</ele>
        <time>2023-09-10T12:54:10Z</time>
      </trkpt>
      <trkpt lat="43.10654" lon="2.02319">
        <ele>331</ele>
        <time>2023-09-10T12:54:11Z</time>
      </trkpt>
      <trkpt lat="43.10653" lon="2.0232">
        <ele>331</ele>
        <time>2023-09-10T12:54:12Z</time>
      </trkpt>
      <trkpt lat="43.10653" lon="2.02321">
        <ele>331</ele>
        <time>2023-09-10T12:54:13Z</time>
      </trkpt>
      <trkpt lat="43.10652" lon="2.02322">
        <ele>331</ele>
        <time>2023-09-10T12:54:14Z</time>
      </trkpt>
      <trkpt lat="43.10652" lon="2.02324">
        <ele>331</ele>
        <time>2023-09-10T12:54:15Z</time>
      </trkpt>
      <trkpt lat="43.10651" lon="2.02325">
        <ele>331</ele>
        <time>2023-09-10T12:54:16Z</time>
      </trkpt>
      <trkpt lat="43.1065" lon="2.02326">
        <ele>331</ele>
        <time>2023-09-10T12:54:17Z</time>
      </trkpt>
      <trkpt lat="43.1065" lon="2.02328">
        <ele>331</ele>
        <time>2023-09-10T12:54:18Z</time>
      </trkpt>
      <trkpt lat="43.10649" lon="2.02329">
        <ele>331</ele>
        <time>2023-09-10T12:54:19Z</time>
      </trkpt>
      <trkpt lat="43.10649" lon="2.0233">
        <ele>331</ele>
        <time>2023-09-10T12:54:20Z</time>
      </trkpt>
      <trkpt lat="43.10648" lon="2.02331">
        <ele>331</ele>
        <time>2023-09-10T12:54:21Z</time>
      </trkpt>
      <trkpt lat="43.10648" lon="2.02332">
        <ele>331</ele>
        <time>2023-09-10T12:54:22Z</time>
      </trkpt>
      <trkpt lat="43.10647" lon="2.02333">
        <ele>331</ele>
        <time>2023-09-10T12:54:23Z</time>
      </trkpt>
      <trkpt lat="43.10647" lon="2.02334">
        <ele>331</ele>
        <time>2023-09-10T12:54:24Z</time>
      </trkpt>
      <trkpt lat="43.10646" lon="2.02336">
        <ele>331</ele>
        <time>2023-09-10T12:54:25Z</time>
      </trkpt>
      <trkpt lat="43.10646" lon="2.02337">
        <ele>331</ele>
        <time>2023-09-10T12:54:26Z</time>
      </trkpt>
      <trkpt lat="43.10645" lon="2.02338">
        <ele>331</ele>
        <time>2023-09-10T12:54:27Z</time>
      </trkpt>
      <trkpt lat="43.10645" lon="2.02339">
        <ele>331</ele>
        <time>2023-09-10T12:54:28Z</time>
      </trkpt>
      <trkpt lat="43.10644" lon="2.02341">
        <ele>331</ele>
        <time>2023-09-10T12:54:29Z</time>
      </trkpt>
      <trkpt lat="43.10644" lon="2.02342">
        <ele>331</ele>
        <time>2023-09-10T12:54:30Z</time>
      </trkpt>
      <trkpt lat="43.10643" lon="2.02344">
        <ele>331</ele>
        <time>2023-09-10T12:54:31Z</time>
      </trkpt>
      <trkpt lat="43.10643" lon="2.02345">
        <ele>331</ele>
        <time>2023-09-10T12:54:32Z</time>
      </trkpt>
      <trkpt lat="43.10642" lon="2.02346">
        <ele>331</ele>
        <time>2023-09-10T12:54:33Z</time>
      </trkpt>
      <trkpt lat="43.10641" lon="2.02348">
        <ele>331</ele>
        <time>2023-09-10T12:54:34Z</time>
      </trkpt>
      <trkpt lat="43.10641" lon="2.02349">
        <ele>331</ele>
        <time>2023-09-10T12:54:35Z</time>
      </trkpt>
      <trkpt lat="43.1064" lon="2.0235">
        <ele>331</ele>
        <time>2023-09-10T12:54:36Z</time>
      </trkpt>
      <trkpt lat="43.10639" lon="2.02351">
        <ele>331</ele>
        <time>2023-09-10T12:54:37Z</time>
      </trkpt>
      <trkpt lat="43.10639" lon="2.02353">
        <ele>331</ele>
        <time>2023-09-10T12:54:38Z</time>
      </trkpt>
      <trkpt lat="43.10638" lon="2.02354">
        <ele>331</ele>
        <time>2023-09-10T12:54:39Z</time>
      </trkpt>
      <trkpt lat="43.10638" lon="2.02355">
        <ele>331</ele>
        <time>2023-09-10T12:54:40Z</time>
      </trkpt>
      <trkpt lat="43.10637" lon="2.02357">
        <ele>331</ele>
        <time>2023-09-10T12:54:41Z</time>
      </trkpt>
      <trkpt lat="43.10636" lon="2.02358">
        <ele>331</ele>
        <time>2023-09-10T12:54:42Z</time>
      </trkpt>
      <trkpt lat="43.10636" lon="2.02359">
        <ele>331</ele>
        <time>2023-09-10T12:54:43Z</time>
      </trkpt>
      <trkpt lat="43.10635" lon="2.02361">
        <ele>331</ele>
        <time>2023-09-10T12:54:44Z</time>
      </trkpt>
      <trkpt lat="43.10634" lon="2.02362">
        <ele>331</ele>
        <time>2023-09-10T12:54:45Z</time>
      </trkpt>
      <trkpt lat="43.10633" lon="2.02363">
        <ele>331</ele>
        <time>2023-09-10T12:54:46Z</time>
      </trkpt>
      <trkpt lat="43.10633" lon="2.02364">
        <ele>330</ele>
        <time>2023-09-10T12:54:47Z</time>
      </trkpt>
      <trkpt lat="43.10632" lon="2.02365">
        <ele>330</ele>
        <time>2023-09-10T12:54:48Z</time>
      </trkpt>
      <trkpt lat="43.10631" lon="2.02367">
        <ele>330</ele>
        <time>2023-09-10T12:54:49Z</time>
      </trkpt>
      <trkpt lat="43.1063" lon="2.02368">
        <ele>330</ele>
        <time>2023-09-10T12:54:50Z</time>
      </trkpt>
      <trkpt lat="43.1063" lon="2.02369">
        <ele>330</ele>
        <time>2023-09-10T12:54:51Z</time>
      </trkpt>
      <trkpt lat="43.10629" lon="2.02371">
        <ele>330</ele>
        <time>2023-09-10T12:54:52Z</time>
      </trkpt>
      <trkpt lat="43.10628" lon="2.02372">
        <ele>330</ele>
        <time>2023-09-10T12:54:53Z</time>
      </trkpt>
      <trkpt lat="43.10627" lon="2.02373">
        <ele>330</ele>
        <time>2023-09-10T12:54:54Z</time>
      </trkpt>
      <trkpt lat="43.10626" lon="2.02374">
        <ele>330</ele>
        <time>2023-09-10T12:54:55Z</time>
      </trkpt>
      <trkpt lat="43.10625" lon="2.02375">
        <ele>330</ele>
        <time>2023-09-10T12:54:56Z</time>
      </trkpt>
      <trkpt lat="43.10624" lon="2.02376">
        <ele>330</ele>
        <time>2023-09-10T12:54:57Z</time>
      </trkpt>
      <trkpt lat="43.10623" lon="2.02377">
        <ele>330</ele>
        <time>2023-09-10T12:54:58Z</time>
      </trkpt>
      <trkpt lat="43.10622" lon="2.02378">
        <ele>330</ele>
        <time>2023-09-10T12:54:59Z</time>
      </trkpt>
      <trkpt lat="43.10621" lon="2.02379">
        <ele>330</ele>
        <time>2023-09-10T12:55:00Z</time>
      </trkpt>
      <trkpt lat="43.1062" lon="2.02379">
        <ele>330</ele>
        <time>2023-09-10T12:55:01Z</time>
      </trkpt>
      <trkpt lat="43.10619" lon="2.0238">
        <ele>330</ele>
        <time>2023-09-10T12:55:02Z</time>
      </trkpt>
      <trkpt lat="43.10618" lon="2.02381">
        <ele>330</ele>
        <time>2023-09-10T12:55:03Z</time>
      </trkpt>
      <trkpt lat="43.10617" lon="2.02382">
        <ele>330</ele>
        <time>2023-09-10T12:55:04Z</time>
      </trkpt>
      <trkpt lat="43.10616" lon="2.02382">
        <ele>330</ele>
        <time>2023-09-10T12:55:05Z</time>
      </trkpt>
      <trkpt lat="43.10615" lon="2.02383">
        <ele>330</ele>
        <time>2023-09-10T12:55:06Z</time>
      </trkpt>
      <trkpt lat="43.10614" lon="2.02384">
        <ele>330</ele>
        <time>2023-09-10T12:55:07Z</time>
      </trkpt>
      <trkpt lat="43.10613" lon="2.02384">
        <ele>330</ele>
        <time>2023-09-10T12:55:08Z</time>
      </trkpt>
      <trkpt lat="43.10612" lon="2.02385">
        <ele>330</ele>
        <time>2023-09-10T12:55:09Z</time>
      </trkpt>
      <trkpt lat="43.10611" lon="2.02386">
        <ele>330</ele>
        <time>2023-09-10T12:55:10Z</time>
      </trkpt>
      <trkpt lat="43.1061" lon="2.02387">
        <ele>330</ele>
        <time>2023-09-10T12:55:11Z</time>
      </trkpt>
      <trkpt lat="43.1061" lon="2.02387">
        <ele>330</ele>
        <time>2023-09-10T12:55:12Z</time>
      </trkpt>
      <trkpt lat="43.10609" lon="2.02388">
        <ele>330</ele>
        <time>2023-09-10T12:55:13Z</time>
      </trkpt>
      <trkpt lat="43.10608" lon="2.02389">
        <ele>330</ele>
        <time>2023-09-10T12:55:14Z</time>
      </trkpt>
      <trkpt lat="43.10607" lon="2.0239">
        <ele>330</ele>
        <time>2023-09-10T12:55:15Z</time>
      </trkpt>
      <trkpt lat="43.10606" lon="2.02391">
        <ele>330</ele>
        <time>2023-09-10T12:55:16Z</time>
      </trkpt>
      <trkpt lat="43.10605" lon="2.02393">
        <ele>329</ele>
        <time>2023-09-10T12:55:17Z</time>
      </trkpt>
      <trkpt lat="43.10604" lon="2.02394">
        <ele>329</ele>
        <time>2023-09-10T12:55:18Z</time>
      </trkpt>
      <trkpt lat="43.10603" lon="2.02395">
        <ele>329</ele>
        <time>2023-09-10T12:55:19Z</time>
      </trkpt>
      <trkpt lat="43.10603" lon="2.02396">
        <ele>329</ele>
        <time>2023-09-10T12:55:20Z</time>
      </trkpt>
      <trkpt lat="43.10602" lon="2.02397">
        <ele>329</ele>
        <time>2023-09-10T12:55:21Z</time>
      </trkpt>
      <trkpt lat="43.10601" lon="2.02398">
        <ele>329</ele>
        <time>2023-09-10T12:55:22Z</time>
      </trkpt>
      <trkpt lat="43.106" lon="2.02399">
        <ele>329</ele>
        <time>2023-09-10T12:55:23Z</time>
      </trkpt>
      <trkpt lat="43.106" lon="2.024">
        <ele>329</ele>
        <time>2023-09-10T12:55:24Z</time>
      </trkpt>
      <trkpt lat="43.10599" lon="2.02401">
        <ele>329</ele>
        <time>2023-09-10T12:55:25Z</time>
      </trkpt>
      <trkpt lat="43.10599" lon="2.02402">
        <ele>329</ele>
        <time>2023-09-10T12:55:26Z</time>
      </trkpt>
      <trkpt lat="43.10599" lon="2.02403">
        <ele>328</ele>
        <time>2023-09-10T12:55:27Z</time>
      </trkpt>
      <trkpt lat="43.10598" lon="2.02404">
        <ele>328</ele>
        <time>2023-09-10T12:55:28Z</time>
      </trkpt>
      <trkpt lat="43.10598" lon="2.02405">
        <ele>328</ele>
        <time>2023-09-10T12:55:29Z</time>
      </trkpt>
      <trkpt lat="43.10597" lon="2.02406">
        <ele>328</ele>
        <time>2023-09-10T12:55:30Z</time>
      </trkpt>
      <trkpt lat="43.10596" lon="2.02408">
        <ele>328</ele>
        <time>2023-09-10T12:55:31Z</time>
      </trkpt>
      <trkpt lat="43.10596" lon="2.02409">
        <ele>328</ele>
        <time>2023-09-10T12:55:32Z</time>
      </trkpt>
      <trkpt lat="43.10596" lon="2.02411">
        <ele>328</ele>
        <time>2023-09-10T12:55:33Z</time>
      </trkpt>
      <trkpt lat="43.10595" lon="2.02412">
        <ele>328</ele>
        <time>2023-09-10T12:55:34Z</time>
      </trkpt>
      <trkpt lat="43.10595" lon="2.02414">
        <ele>328</ele>
        <time>2023-09-10T12:55:35Z</time>
      </trkpt>
      <trkpt lat="43.10595" lon="2.02416">
        <ele>328</ele>
        <time>2023-09-10T12:55:36Z</time>
      </trkpt>
      <trkpt lat="43.10595" lon="2.02417">
        <ele>327</ele>
        <time>2023-09-10T12:55:37Z</time>
      </trkpt>
      <trkpt lat="43.10594" lon="2.02419">
        <ele>327</ele>
        <time>2023-09-10T12:55:38Z</time>
      </trkpt>
      <trkpt lat="43.10594" lon="2.0242">
        <ele>327</ele>
        <time>2023-09-10T12:55:39Z</time>
      </trkpt>
      <trkpt lat="43.10594" lon="2.02422">
        <ele>327</ele>
        <time>2023-09-10T12:55:40Z</time>
      </trkpt>
      <trkpt lat="43.10593" lon="2.02423">
        <ele>327</ele>
        <time>2023-09-10T12:55:41Z</time>
      </trkpt>
      <trkpt lat="43.10593" lon="2.02425">
        <ele>327</ele>
        <time>2023-09-10T12:55:42Z</time>
      </trkpt>
      <trkpt lat="43.10592" lon="2.02426">
        <ele>327</ele>
        <time>2023-09-10T12:55:43Z</time>
      </trkpt>
      <trkpt lat="43.10592" lon="2.02427">
        <ele>327</ele>
        <time>2023-09-10T12:55:44Z</time>
      </trkpt>
      <trkpt lat="43.10592" lon="2.02429">
        <ele>327</ele>
        <time>2023-09-10T12:55:45Z</time>
      </trkpt>
      <trkpt lat="43.10591" lon="2.02431">
        <ele>327</ele>
        <time>2023-09-10T12:55:46Z</time>
      </trkpt>
      <trkpt lat="43.10591" lon="2.02432">
        <ele>327</ele>
        <time>2023-09-10T12:55:47Z</time>
      </trkpt>
      <trkpt lat="43.10591" lon="2.02434">
        <ele>327</ele>
        <time>2023-09-10T12:55:48Z</time>
      </trkpt>
      <trkpt lat="43.10591" lon="2.02435">
        <ele>327</ele>
        <time>2023-09-10T12:55:49Z</time>
      </trkpt>
      <trkpt lat="43.10591" lon="2.02437">
        <ele>327</ele>
        <time>2023-09-10T12:55:50Z</time>
      </trkpt>
      <trkpt lat="43.1059" lon="2.02439">
        <ele>327</ele>
        <time>2023-09-10T12:55:51Z</time>
      </trkpt>
      <trkpt lat="43.1059" lon="2.0244">
        <ele>327</ele>
        <time>2023-09-10T12:55:52Z</time>
      </trkpt>
      <trkpt lat="43.1059" lon="2.02442">
        <ele>327</ele>
        <time>2023-09-10T12:55:53Z</time>
      </trkpt>
      <trkpt lat="43.1059" lon="2.02443">
        <ele>327</ele>
        <time>2023-09-10T12:55:54Z</time>
      </trkpt>
      <trkpt lat="43.10589" lon="2.02445">
        <ele>327</ele>
        <time>2023-09-10T12:55:55Z</time>
      </trkpt>
      <trkpt lat="43.10589" lon="2.02446">
        <ele>327</ele>
        <time>2023-09-10T12:55:56Z</time>
      </trkpt>
      <trkpt lat="43.10588" lon="2.02448">
        <ele>327</ele>
        <time>2023-09-10T12:55:57Z</time>
      </trkpt>
      <trkpt lat="43.10588" lon="2.0245">
        <ele>327</ele>
        <time>2023-09-10T12:55:58Z</time>
      </trkpt>
      <trkpt lat="43.10588" lon="2.02452">
        <ele>327</ele>
        <time>2023-09-10T12:55:59Z</time>
      </trkpt>
      <trkpt lat="43.10587" lon="2.02453">
        <ele>327</ele>
        <time>2023-09-10T12:56:00Z</time>
      </trkpt>
      <trkpt lat="43.10587" lon="2.02455">
        <ele>327</ele>
        <time>2023-09-10T12:56:01Z</time>
      </trkpt>
      <trkpt lat="43.10586" lon="2.02457">
        <ele>327</ele>
        <time>2023-09-10T12:56:02Z</time>
      </trkpt>
      <trkpt lat="43.10586" lon="2.02459">
        <ele>327</ele>
        <time>2023-09-10T12:56:03Z</time>
      </trkpt>
      <trkpt lat="43.10585" lon="2.0246">
        <ele>327</ele>
        <time>2023-09-10T12:56:04Z</time>
      </trkpt>
      <trkpt lat="43.10585" lon="2.02462">
        <ele>327</ele>
        <time>2023-09-10T12:56:05Z</time>
      </trkpt>
      <trkpt lat="43.10584" lon="2.02463">
        <ele>327</ele>
        <time>2023-09-10T12:56:06Z</time>
      </trkpt>
      <trkpt lat="43.10584" lon="2.02465">
        <ele>326</ele>
        <time>2023-09-10T12:56:07Z</time>
      </trkpt>
      <trkpt lat="43.10583" lon="2.02466">
        <ele>326</ele>
        <time>2023-09-10T12:56:08Z</time>
      </trkpt>
      <trkpt lat="43.10583" lon="2.02467">
        <ele>326</ele>
        <time>2023-09-10T12:56:09Z</time>
      </trkpt>
      <trkpt lat="43.10582" lon="2.02469">
        <ele>326</ele>
        <time>2023-09-10T12:56:10Z</time>
      </trkpt>
      <trkpt lat="43.10581" lon="2.0247">
        <ele>326</ele>
        <time>2023-09-10T12:56:11Z</time>
      </trkpt>
      <trkpt lat="43.10581" lon="2.02471">
        <ele>326</ele>
        <time>2023-09-10T12:56:12Z</time>
      </trkpt>
      <trkpt lat="43.1058" lon="2.02472">
        <ele>326</ele>
        <time>2023-09-10T12:56:13Z</time>
      </trkpt>
      <trkpt lat="43.10579" lon="2.02473">
        <ele>326</ele>
        <time>2023-09-10T12:56:14Z</time>
      </trkpt>
      <trkpt lat="43.10577" lon="2.02474">
        <ele>326</ele>
        <time>2023-09-10T12:56:15Z</time>
      </trkpt>
      <trkpt lat="43.10576" lon="2.02475">
        <ele>326</ele>
        <time>2023-09-10T12:56:16Z</time>
      </trkpt>
      <trkpt lat="43.10575" lon="2.02476">
        <ele>326</ele>
        <time>2023-09-10T12:56:17Z</time>
      </trkpt>
      <trkpt lat="43.10574" lon="2.02477">
        <ele>326</ele>
        <time>2023-09-10T12:56:18Z</time>
      </trkpt>
      <trkpt lat="43.10573" lon="2.02477">
        <ele>326</ele>
        <time>2023-09-10T12:56:19Z</time>
      </trkpt>
      <trkpt lat="43.10572" lon="2.02478">
        <ele>326</ele>
        <time>2023-09-10T12:56:20Z</time>
      </trkpt>
      <trkpt lat="43.10571" lon="2.02478">
        <ele>326</ele>
        <time>2023-09-10T12:56:21Z</time>
      </trkpt>
      <trkpt lat="43.1057" lon="2.02479">
        <ele>326</ele>
        <time>2023-09-10T12:56:22Z</time>
      </trkpt>
      <trkpt lat="43.10568" lon="2.02479">
        <ele>326</ele>
        <time>2023-09-10T12:56:23Z</time>
      </trkpt>
      <trkpt lat="43.10567" lon="2.0248">
        <ele>326</ele>
        <time>2023-09-10T12:56:24Z</time>
      </trkpt>
      <trkpt lat="43.10566" lon="2.0248">
        <ele>326</ele>
        <time>2023-09-10T12:56:25Z</time>
      </trkpt>
      <trkpt lat="43.10565" lon="2.0248">
        <ele>326</ele>
        <time>2023-09-10T12:56:26Z</time>
      </trkpt>
      <trkpt lat="43.10563" lon="2.02481">
        <ele>326</ele>
        <time>2023-09-10T12:56:27Z</time>
      </trkpt>
      <trkpt lat="43.10562" lon="2.02481">
        <ele>326</ele>
        <time>2023-09-10T12:56:28Z</time>
      </trkpt>
      <trkpt lat="43.10561" lon="2.02482">
        <ele>326</ele>
        <time>2023-09-10T12:56:29Z</time>
      </trkpt>
      <trkpt lat="43.1056" lon="2.02482">
        <ele>326</ele>
        <time>2023-09-10T12:56:30Z</time>
      </trkpt>
      <trkpt lat="43.10559" lon="2.02483">
        <ele>327</ele>
        <time>2023-09-10T12:56:31Z</time>
      </trkpt>
      <trkpt lat="43.10557" lon="2.02483">
        <ele>327</ele>
        <time>2023-09-10T12:56:32Z</time>
      </trkpt>
      <trkpt lat="43.10556" lon="2.02483">
        <ele>327</ele>
        <time>2023-09-10T12:56:33Z</time>
      </trkpt>
      <trkpt lat="43.10555" lon="2.02484">
        <ele>327</ele>
        <time>2023-09-10T12:56:34Z</time>
      </trkpt>
      <trkpt lat="43.10554" lon="2.02484">
        <ele>327</ele>
        <time>2023-09-10T12:56:35Z</time>
      </trkpt>
      <trkpt lat="43.10553" lon="2.02485">
        <ele>327</ele>
        <time>2023-09-10T12:56:36Z</time>
      </trkpt>
      <trkpt lat="43.10552" lon="2.02485">
        <ele>327</ele>
        <time>2023-09-10T12:56:37Z</time>
      </trkpt>
      <trkpt lat="43.10551" lon="2.02485">
        <ele>327</ele>
        <time>2023-09-10T12:56:38Z</time>
      </trkpt>
      <trkpt lat="43.1055" lon="2.02485">
        <ele>327</ele>
        <time>2023-09-10T12:56:39Z</time>
      </trkpt>
      <trkpt lat="43.10549" lon="2.02485">
        <ele>327</ele>
        <time>2023-09-10T12:56:40Z</time>
      </trkpt>
      <trkpt lat="43.10547" lon="2.02485">
        <ele>327</ele>
        <time>2023-09-10T12:56:41Z</time>
      </trkpt>
      <trkpt lat="43.10546" lon="2.02485">
        <ele>327</ele>
        <time>2023-09-10T12:56:42Z</time>
      </trkpt>
      <trkpt lat="43.10545" lon="2.02485">
        <ele>327</ele>
        <time>2023-09-10T12:56:43Z</time>
      </trkpt>
      <trkpt lat="43.10544" lon="2.02485">
        <ele>327</ele>
        <time>2023-09-10T12:56:44Z</time>
      </trkpt>
      <trkpt lat="43.10543" lon="2.02485">
        <ele>327</ele>
        <time>2023-09-10T12:56:45Z</time>
      </trkpt>
      <trkpt lat="43.10541" lon="2.02485">
        <ele>328</ele>
        <time>2023-09-10T12:56:46Z</time>
      </trkpt>
      <trkpt lat="43.10541" lon="2.02485">
        <ele>328</ele>
        <time>2023-09-10T12:56:47Z</time>
      </trkpt>
      <trkpt lat="43.10541" lon="2.02485">
        <ele>328</ele>
        <time>2023-09-10T12:56:48Z</time>
      </trkpt>
      <trkpt lat="43.1054" lon="2.02485">
        <ele>328</ele>
        <time>2023-09-10T12:56:49Z</time>
      </trkpt>
      <trkpt lat="43.1054" lon="2.02485">
        <ele>328</ele>
        <time>2023-09-10T12:56:50Z</time>
      </trkpt>
      <trkpt lat="43.10539" lon="2.02485">
        <ele>329</ele>
        <time>2023-09-10T12:56:51Z</time>
      </trkpt>
      <trkpt lat="43.10538" lon="2.02486">
        <ele>329</ele>
        <time>2023-09-10T12:56:52Z</time>
      </trkpt>
      <trkpt lat="43.10538" lon="2.02486">
        <ele>329</ele>
        <time>2023-09-10T12:56:53Z</time>
      </trkpt>
      <trkpt lat="43.10537" lon="2.02486">
        <ele>329</ele>
        <time>2023-09-10T12:56:54Z</time>
      </trkpt>
      <trkpt lat="43.10536" lon="2.02487">
        <ele>329</ele>
        <time>2023-09-10T12:56:55Z</time>
      </trkpt>
      <trkpt lat="43.10535" lon="2.02487">
        <ele>329</ele>
        <time>2023-09-10T12:56:56Z</time>
      </trkpt>
      <trkpt lat="43.10534" lon="2.02488">
        <ele>329</ele>
        <time>2023-09-10T12:56:57Z</time>
      </trkpt>
      <trkpt lat="43.10533" lon="2.02488">
        <ele>329</ele>
        <time>2023-09-10T12:56:58Z</time>
      </trkpt>
      <trkpt lat="43.10532" lon="2.02488">
        <ele>329</ele>
        <time>2023-09-10T12:56:59Z</time>
      </trkpt>
      <trkpt lat="43.10531" lon="2.02488">
        <ele>329</ele>
        <time>2023-09-10T12:57:00Z</time>
      </trkpt>
      <trkpt lat="43.10529" lon="2.02488">
        <ele>330</ele>
        <time>2023-09-10T12:57:01Z</time>
      </trkpt>
      <trkpt lat="43.10528" lon="2.02488">
        <ele>330</ele>
        <time>2023-09-10T12:57:02Z</time>
      </trkpt>
      <trkpt lat="43.10527" lon="2.02488">
        <ele>330</ele>
        <time>2023-09-10T12:57:03Z</time>
      </trkpt>
      <trkpt lat="43.10526" lon="2.02488">
        <ele>330</ele>
        <time>2023-09-10T12:57:04Z</time>
      </trkpt>
      <trkpt lat="43.10525" lon="2.02488">
        <ele>330</ele>
        <time>2023-09-10T12:57:05Z</time>
      </trkpt>
      <trkpt lat="43.10524" lon="2.02488">
        <ele>330</ele>
        <time>2023-09-10T12:57:06Z</time>
      </trkpt>
      <trkpt lat="43.10523" lon="2.02488">
        <ele>330</ele>
        <time>2023-09-10T12:57:07Z</time>
      </trkpt>
      <trkpt lat="43.10521" lon="2.02488">
        <ele>330</ele>
        <time>2023-09-10T12:57:08Z</time>
      </trkpt>
      <trkpt lat="43.1052" lon="2.02488">
        <ele>330</ele>
        <time>2023-09-10T12:57:09Z</time>
      </trkpt>
      <trkpt lat="43.10519" lon="2.02488">
        <ele>330</ele>
        <time>2023-09-10T12:57:10Z</time>
      </trkpt>
      <trkpt lat="43.10518" lon="2.02488">
        <ele>330</ele>
        <time>2023-09-10T12:57:11Z</time>
      </trkpt>
      <trkpt lat="43.10517" lon="2.02488">
        <ele>330</ele>
        <time>2023-09-10T12:57:12Z</time>
      </trkpt>
      <trkpt lat="43.10516" lon="2.02488">
        <ele>330</ele>
        <time>2023-09-10T12:57:13Z</time>
      </trkpt>
      <trkpt lat="43.10515" lon="2.02488">
        <ele>330</ele>
        <time>2023-09-10T12:57:14Z</time>
      </trkpt>
      <trkpt lat="43.10514" lon="2.02488">
        <ele>330</ele>
        <time>2023-09-10T12:57:15Z</time>
      </trkpt>
      <trkpt lat="43.10513" lon="2.02488">
        <ele>331</ele>
        <time>2023-09-10T12:57:16Z</time>
      </trkpt>
      <trkpt lat="43.10512" lon="2.02488">
        <ele>331</ele>
        <time>2023-09-10T12:57:17Z</time>
      </trkpt>
      <trkpt lat="43.10511" lon="2.02488">
        <ele>331</ele>
        <time>2023-09-10T12:57:18Z</time>
      </trkpt>
      <trkpt lat="43.1051" lon="2.02487">
        <ele>331</ele>
        <time>2023-09-10T12:57:19Z</time>
      </trkpt>
      <trkpt lat="43.10508" lon="2.02487">
        <ele>331</ele>
        <time>2023-09-10T12:57:20Z</time>
      </trkpt>
      <trkpt lat="43.10507" lon="2.02487">
        <ele>331</ele>
        <time>2023-09-10T12:57:21Z</time>
      </trkpt>
      <trkpt lat="43.10506" lon="2.02486">
        <ele>331</ele>
        <time>2023-09-10T12:57:22Z</time>
      </trkpt>
      <trkpt lat="43.10505" lon="2.02486">
        <ele>331</ele>
        <time>2023-09-10T12:57:23Z</time>
      </trkpt>
      <trkpt lat="43.10504" lon="2.02486">
        <ele>331</ele>
        <time>2023-09-10T12:57:24Z</time>
      </trkpt>
      <trkpt lat="43.10503" lon="2.02486">
        <ele>331</ele>
        <time>2023-09-10T12:57:25Z</time>
      </trkpt>
      <trkpt lat="43.10502" lon="2.02486">
        <ele>331</ele>
        <time>2023-09-10T12:57:26Z</time>
      </trkpt>
      <trkpt lat="43.105" lon="2.02486">
        <ele>331</ele>
        <time>2023-09-10T12:57:27Z</time>
      </trkpt>
      <trkpt lat="43.10499" lon="2.02486">
        <ele>331</ele>
        <time>2023-09-10T12:57:28Z</time>
      </trkpt>
      <trkpt lat="43.10498" lon="2.02486">
        <ele>331</ele>
        <time>2023-09-10T12:57:29Z</time>
      </trkpt>
      <trkpt lat="43.10497" lon="2.02485">
        <ele>331</ele>
        <time>2023-09-10T12:57:30Z</time>
      </trkpt>
      <trkpt lat="43.10496" lon="2.02485">
        <ele>332</ele>
        <time>2023-09-10T12:57:31Z</time>
      </trkpt>
      <trkpt lat="43.10495" lon="2.02485">
        <ele>332</ele>
        <time>2023-09-10T12:57:32Z</time>
      </trkpt>
      <trkpt lat="43.10494" lon="2.02485">
        <ele>332</ele>
        <time>2023-09-10T12:57:33Z</time>
      </trkpt>
      <trkpt lat="43.10493" lon="2.02485">
        <ele>332</ele>
        <time>2023-09-10T12:57:34Z</time>
      </trkpt>
      <trkpt lat="43.10492" lon="2.02485">
        <ele>332</ele>
        <time>2023-09-10T12:57:35Z</time>
      </trkpt>
      <trkpt lat="43.10491" lon="2.02485">
        <ele>332</ele>
        <time>2023-09-10T12:57:36Z</time>
      </trkpt>
      <trkpt lat="43.10489" lon="2.02485">
        <ele>332</ele>
        <time>2023-09-10T12:57:37Z</time>
      </trkpt>
      <trkpt lat="43.10488" lon="2.02485">
        <ele>332</ele>
        <time>2023-09-10T12:57:38Z</time>
      </trkpt>
      <trkpt lat="43.10487" lon="2.02485">
        <ele>332</ele>
        <time>2023-09-10T12:57:39Z</time>
      </trkpt>
      <trkpt lat="43.10486" lon="2.02485">
        <ele>332</ele>
        <time>2023-09-10T12:57:40Z</time>
      </trkpt>
      <trkpt lat="43.10485" lon="2.02485">
        <ele>332</ele>
        <time>2023-09-10T12:57:41Z</time>
      </trkpt>
      <trkpt lat="43.10484" lon="2.02485">
        <ele>332</ele>
        <time>2023-09-10T12:57:42Z</time>
      </trkpt>
      <trkpt lat="43.10483" lon="2.02485">
        <ele>332</ele>
        <time>2023-09-10T12:57:43Z</time>
      </trkpt>
      <trkpt lat="43.10482" lon="2.02485">
        <ele>332</ele>
        <time>2023-09-10T12:57:44Z</time>
      </trkpt>
      <trkpt lat="43.10481" lon="2.02485">
        <ele>332</ele>
        <time>2023-09-10T12:57:45Z</time>
      </trkpt>
      <trkpt lat="43.10479" lon="2.02485">
        <ele>332</ele>
        <time>2023-09-10T12:57:46Z</time>
      </trkpt>
      <trkpt lat="43.10478" lon="2.02485">
        <ele>332</ele>
        <time>2023-09-10T12:57:47Z</time>
      </trkpt>
      <trkpt lat="43.10477" lon="2.02485">
        <ele>332</ele>
        <time>2023-09-10T12:57:48Z</time>
      </trkpt>
      <trkpt lat="43.10476" lon="2.02485">
        <ele>332</ele>
        <time>2023-09-10T12:57:49Z</time>
      </trkpt>
      <trkpt lat="43.10474" lon="2.02485">
        <ele>332</ele>
        <time>2023-09-10T12:57:50Z</time>
      </trkpt>
      <trkpt lat="43.10473" lon="2.02485">
        <ele>332</ele>
        <time>2023-09-10T12:57:51Z</time>
      </trkpt>
      <trkpt lat="43.10472" lon="2.02485">
        <ele>332</ele>
        <time>2023-09-10T12:57:52Z</time>
      </trkpt>
      <trkpt lat="43.10471" lon="2.02484">
        <ele>332</ele>
        <time>2023-09-10T12:57:53Z</time>
      </trkpt>
      <trkpt lat="43.1047" lon="2.02484">
        <ele>332</ele>
        <time>2023-09-10T12:57:54Z</time>
      </trkpt>
      <trkpt lat="43.10469" lon="2.02484">
        <ele>332</ele>
        <time>2023-09-10T12:57:55Z</time>
      </trkpt>
      <trkpt lat="43.10468" lon="2.02484">
        <ele>332</ele>
        <time>2023-09-10T12:57:56Z</time>
      </trkpt>
      <trkpt lat="43.10467" lon="2.02484">
        <ele>332</ele>
        <time>2023-09-10T12:57:57Z</time>
      </trkpt>
      <trkpt lat="43.10466" lon="2.02484">
        <ele>332</ele>
        <time>2023-09-10T12:57:58Z</time>
      </trkpt>
      <trkpt lat="43.10465" lon="2.02484">
        <ele>332</ele>
        <time>2023-09-10T12:57:59Z</time>
      </trkpt>
      <trkpt lat="43.10464" lon="2.02483">
        <ele>332</ele>
        <time>2023-09-10T12:58:00Z</time>
      </trkpt>
      <trkpt lat="43.10463" lon="2.02483">
        <ele>332</ele>
        <time>2023-09-10T12:58:01Z</time>
      </trkpt>
      <trkpt lat="43.10462" lon="2.02483">
        <ele>331</ele>
        <time>2023-09-10T12:58:02Z</time>
      </trkpt>
      <trkpt lat="43.10461" lon="2.02483">
        <ele>331</ele>
        <time>2023-09-10T12:58:03Z</time>
      </trkpt>
      <trkpt lat="43.1046" lon="2.02483">
        <ele>331</ele>
        <time>2023-09-10T12:58:04Z</time>
      </trkpt>
      <trkpt lat="43.10459" lon="2.02483">
        <ele>331</ele>
        <time>2023-09-10T12:58:05Z</time>
      </trkpt>
      <trkpt lat="43.10458" lon="2.02483">
        <ele>331</ele>
        <time>2023-09-10T12:58:06Z</time>
      </trkpt>
      <trkpt lat="43.10457" lon="2.02483">
        <ele>331</ele>
        <time>2023-09-10T12:58:07Z</time>
      </trkpt>
      <trkpt lat="43.10456" lon="2.02483">
        <ele>331</ele>
        <time>2023-09-10T12:58:08Z</time>
      </trkpt>
      <trkpt lat="43.10455" lon="2.02483">
        <ele>331</ele>
        <time>2023-09-10T12:58:09Z</time>
      </trkpt>
      <trkpt lat="43.10454" lon="2.02484">
        <ele>331</ele>
        <time>2023-09-10T12:58:10Z</time>
      </trkpt>
      <trkpt lat="43.10452" lon="2.02484">
        <ele>331</ele>
        <time>2023-09-10T12:58:11Z</time>
      </trkpt>
      <trkpt lat="43.10451" lon="2.02484">
        <ele>330</ele>
        <time>2023-09-10T12:58:12Z</time>
      </trkpt>
      <trkpt lat="43.1045" lon="2.02484">
        <ele>330</ele>
        <time>2023-09-10T12:58:13Z</time>
      </trkpt>
      <trkpt lat="43.10449" lon="2.02484">
        <ele>330</ele>
        <time>2023-09-10T12:58:14Z</time>
      </trkpt>
      <trkpt lat="43.10448" lon="2.02484">
        <ele>330</ele>
        <time>2023-09-10T12:58:15Z</time>
      </trkpt>
      <trkpt lat="43.10447" lon="2.02484">
        <ele>330</ele>
        <time>2023-09-10T12:58:16Z</time>
      </trkpt>
      <trkpt lat="43.10446" lon="2.02484">
        <ele>330</ele>
        <time>2023-09-10T12:58:17Z</time>
      </trkpt>
      <trkpt lat="43.10444" lon="2.02484">
        <ele>330</ele>
        <time>2023-09-10T12:58:18Z</time>
      </trkpt>
      <trkpt lat="43.10443" lon="2.02484">
        <ele>330</ele>
        <time>2023-09-10T12:58:19Z</time>
      </trkpt>
      <trkpt lat="43.10442" lon="2.02484">
        <ele>330</ele>
        <time>2023-09-10T12:58:20Z</time>
      </trkpt>
      <trkpt lat="43.10441" lon="2.02484">
        <ele>330</ele>
        <time>2023-09-10T12:58:21Z</time>
      </trkpt>
      <trkpt lat="43.1044" lon="2.02484">
        <ele>329</ele>
        <time>2023-09-10T12:58:22Z</time>
      </trkpt>
      <trkpt lat="43.10438" lon="2.02485">
        <ele>329</ele>
        <time>2023-09-10T12:58:23Z</time>
      </trkpt>
      <trkpt lat="43.10437" lon="2.02485">
        <ele>329</ele>
        <time>2023-09-10T12:58:24Z</time>
      </trkpt>
      <trkpt lat="43.10436" lon="2.02485">
        <ele>329</ele>
        <time>2023-09-10T12:58:25Z</time>
      </trkpt>
      <trkpt lat="43.10435" lon="2.02485">
        <ele>329</ele>
        <time>2023-09-10T12:58:26Z</time>
      </trkpt>
      <trkpt lat="43.10434" lon="2.02485">
        <ele>329</ele>
        <time>2023-09-10T12:58:27Z</time>
      </trkpt>
      <trkpt lat="43.10432" lon="2.02486">
        <ele>329</ele>
        <time>2023-09-10T12:58:28Z</time>
      </trkpt>
      <trkpt lat="43.10431" lon="2.02486">
        <ele>329</ele>
        <time>2023-09-10T12:58:29Z</time>
      </trkpt>
      <trkpt lat="43.1043" lon="2.02487">
        <ele>329</ele>
        <time>2023-09-10T12:58:30Z</time>
      </trkpt>
      <trkpt lat="43.10429" lon="2.02487">
        <ele>329</ele>
        <time>2023-09-10T12:58:31Z</time>
      </trkpt>
      <trkpt lat="43.10427" lon="2.02488">
        <ele>328</ele>
        <time>2023-09-10T12:58:32Z</time>
      </trkpt>
      <trkpt lat="43.10426" lon="2.02488">
        <ele>328</ele>
        <time>2023-09-10T12:58:33Z</time>
      </trkpt>
      <trkpt lat="43.10425" lon="2.02489">
        <ele>328</ele>
        <time>2023-09-10T12:58:34Z</time>
      </trkpt>
      <trkpt lat="43.10424" lon="2.02489">
        <ele>328</ele>
        <time>2023-09-10T12:58:35Z</time>
      </trkpt>
      <trkpt lat="43.10423" lon="2.0249">
        <ele>328</ele>
        <time>2023-09-10T12:58:36Z</time>
      </trkpt>
      <trkpt lat="43.10422" lon="2.0249">
        <ele>328</ele>
        <time>2023-09-10T12:58:37Z</time>
      </trkpt>
      <trkpt lat="43.10421" lon="2.02491">
        <ele>328</ele>
        <time>2023-09-10T12:58:38Z</time>
      </trkpt>
      <trkpt lat="43.1042" lon="2.02492">
        <ele>328</ele>
        <time>2023-09-10T12:58:39Z</time>
      </trkpt>
      <trkpt lat="43.10419" lon="2.02493">
        <ele>328</ele>
        <time>2023-09-10T12:58:40Z</time>
      </trkpt>
      <trkpt lat="43.10418" lon="2.02494">
        <ele>328</ele>
        <time>2023-09-10T12:58:41Z</time>
      </trkpt>
      <trkpt lat="43.10417" lon="2.02495">
        <ele>327</ele>
        <time>2023-09-10T12:58:42Z</time>
      </trkpt>
      <trkpt lat="43.10416" lon="2.02495">
        <ele>327</ele>
        <time>2023-09-10T12:58:43Z</time>
      </trkpt>
      <trkpt lat="43.10415" lon="2.02497">
        <ele>327</ele>
        <time>2023-09-10T12:58:44Z</time>
      </trkpt>
      <trkpt lat="43.10414" lon="2.02498">
        <ele>327</ele>
        <time>2023-09-10T12:58:45Z</time>
      </trkpt>
      <trkpt lat="43.10413" lon="2.02499">
        <ele>327</ele>
        <time>2023-09-10T12:58:46Z</time>
      </trkpt>
      <trkpt lat="43.10411" lon="2.025">
        <ele>327</ele>
        <time>2023-09-10T12:58:47Z</time>
      </trkpt>
      <trkpt lat="43.1041" lon="2.02502">
        <ele>327</ele>
        <time>2023-09-10T12:58:48Z</time>
      </trkpt>
      <trkpt lat="43.10409" lon="2.02503">
        <ele>327</ele>
        <time>2023-09-10T12:58:49Z</time>
      </trkpt>
      <trkpt lat="43.10408" lon="2.02504">
        <ele>327</ele>
        <time>2023-09-10T12:58:50Z</time>
      </trkpt>
      <trkpt lat="43.10407" lon="2.02505">
        <ele>327</ele>
        <time>2023-09-10T12:58:51Z</time>
      </trkpt>
      <trkpt lat="43.10406" lon="2.02506">
        <ele>327</ele>
        <time>2023-09-10T12:58:52Z</time>
      </trkpt>
      <trkpt lat="43.10406" lon="2.02507">
        <ele>327</ele>
        <time>2023-09-10T12:58:53Z</time>
      </trkpt>
      <trkpt lat="43.10405" lon="2.02508">
        <ele>327</ele>
        <time>2023-09-10T12:58:54Z</time>
      </trkpt>
      <trkpt lat="43.10404" lon="2.02509">
        <ele>327</ele>
        <time>2023-09-10T12:58:55Z</time>
      </trkpt>
      <trkpt lat="43.10403" lon="2.02511">
        <ele>327</ele>
        <time>2023-09-10T12:58:56Z</time>
      </trkpt>
      <trkpt lat="43.10402" lon="2.02512">
        <ele>327</ele>
        <time>2023-09-10T12:58:57Z</time>
      </trkpt>
      <trkpt lat="43.10401" lon="2.02512">
        <ele>327</ele>
        <time>2023-09-10T12:58:58Z</time>
      </trkpt>
      <trkpt lat="43.104" lon="2.02513">
        <ele>327</ele>
        <time>2023-09-10T12:58:59Z</time>
      </trkpt>
      <trkpt lat="43.10399" lon="2.02514">
        <ele>327</ele>
        <time>2023-09-10T12:59:00Z</time>
      </trkpt>
      <trkpt lat="43.10398" lon="2.02515">
        <ele>327</ele>
        <time>2023-09-10T12:59:01Z</time>
      </trkpt>
      <trkpt lat="43.10397" lon="2.02516">
        <ele>326</ele>
        <time>2023-09-10T12:59:02Z</time>
      </trkpt>
      <trkpt lat="43.10396" lon="2.02517">
        <ele>326</ele>
        <time>2023-09-10T12:59:03Z</time>
      </trkpt>
      <trkpt lat="43.10395" lon="2.02518">
        <ele>326</ele>
        <time>2023-09-10T12:59:04Z</time>
      </trkpt>
      <trkpt lat="43.10394" lon="2.02519">
        <ele>326</ele>
        <time>2023-09-10T12:59:05Z</time>
      </trkpt>
      <trkpt lat="43.10393" lon="2.0252">
        <ele>326</ele>
        <time>2023-09-10T12:59:06Z</time>
      </trkpt>
      <trkpt lat="43.10391" lon="2.02521">
        <ele>326</ele>
        <time>2023-09-10T12:59:07Z</time>
      </trkpt>
      <trkpt lat="43.1039" lon="2.02523">
        <ele>326</ele>
        <time>2023-09-10T12:59:08Z</time>
      </trkpt>
      <trkpt lat="43.10389" lon="2.02524">
        <ele>326</ele>
        <time>2023-09-10T12:59:09Z</time>
      </trkpt>
      <trkpt lat="43.10388" lon="2.02525">
        <ele>326</ele>
        <time>2023-09-10T12:59:10Z</time>
      </trkpt>
      <trkpt lat="43.10387" lon="2.02526">
        <ele>326</ele>
        <time>2023-09-10T12:59:11Z</time>
      </trkpt>
      <trkpt lat="43.10386" lon="2.02527">
        <ele>326</ele>
        <time>2023-09-10T12:59:12Z</time>
      </trkpt>
      <trkpt lat="43.10386" lon="2.02528">
        <ele>326</ele>
        <time>2023-09-10T12:59:13Z</time>
      </trkpt>
      <trkpt lat="43.10385" lon="2.02529">
        <ele>326</ele>
        <time>2023-09-10T12:59:14Z</time>
      </trkpt>
      <trkpt lat="43.10384" lon="2.02531">
        <ele>326</ele>
        <time>2023-09-10T12:59:15Z</time>
      </trkpt>
      <trkpt lat="43.10383" lon="2.02532">
        <ele>326</ele>
        <time>2023-09-10T12:59:16Z</time>
      </trkpt>
      <trkpt lat="43.10382" lon="2.02533">
        <ele>326</ele>
        <time>2023-09-10T12:59:17Z</time>
      </trkpt>
      <trkpt lat="43.10381" lon="2.02534">
        <ele>326</ele>
        <time>2023-09-10T12:59:18Z</time>
      </trkpt>
      <trkpt lat="43.1038" lon="2.02535">
        <ele>326</ele>
        <time>2023-09-10T12:59:19Z</time>
      </trkpt>
      <trkpt lat="43.10379" lon="2.02536">
        <ele>326</ele>
        <time>2023-09-10T12:59:20Z</time>
      </trkpt>
      <trkpt lat="43.10379" lon="2.02537">
        <ele>326</ele>
        <time>2023-09-10T12:59:21Z</time>
      </trkpt>
      <trkpt lat="43.10378" lon="2.02538">
        <ele>326</ele>
        <time>2023-09-10T12:59:22Z</time>
      </trkpt>
      <trkpt lat="43.10377" lon="2.02539">
        <ele>326</ele>
        <time>2023-09-10T12:59:23Z</time>
      </trkpt>
      <trkpt lat="43.10376" lon="2.0254">
        <ele>326</ele>
        <time>2023-09-10T12:59:24Z</time>
      </trkpt>
      <trkpt lat="43.10375" lon="2.02541">
        <ele>326</ele>
        <time>2023-09-10T12:59:25Z</time>
      </trkpt>
      <trkpt lat="43.10375" lon="2.02543">
        <ele>326</ele>
        <time>2023-09-10T12:59:26Z</time>
      </trkpt>
      <trkpt lat="43.10374" lon="2.02544">
        <ele>326</ele>
        <time>2023-09-10T12:59:27Z</time>
      </trkpt>
      <trkpt lat="43.10373" lon="2.02545">
        <ele>326</ele>
        <time>2023-09-10T12:59:28Z</time>
      </trkpt>
      <trkpt lat="43.10372" lon="2.02546">
        <ele>326</ele>
        <time>2023-09-10T12:59:29Z</time>
      </trkpt>
      <trkpt lat="43.10371" lon="2.02547">
        <ele>326</ele>
        <time>2023-09-10T12:59:30Z</time>
      </trkpt>
      <trkpt lat="43.10371" lon="2.02548">
        <ele>326</ele>
        <time>2023-09-10T12:59:31Z</time>
      </trkpt>
      <trkpt lat="43.1037" lon="2.02549">
        <ele>326</ele>
        <time>2023-09-10T12:59:32Z</time>
      </trkpt>
      <trkpt lat="43.10369" lon="2.02551">
        <ele>326</ele>
        <time>2023-09-10T12:59:33Z</time>
      </trkpt>
      <trkpt lat="43.10368" lon="2.02552">
        <ele>326</ele>
        <time>2023-09-10T12:59:34Z</time>
      </trkpt>
      <trkpt lat="43.10367" lon="2.02553">
        <ele>326</ele>
        <time>2023-09-10T12:59:35Z</time>
      </trkpt>
      <trkpt lat="43.10366" lon="2.02554">
        <ele>326</ele>
        <time>2023-09-10T12:59:36Z</time>
      </trkpt>
      <trkpt lat="43.10365" lon="2.02555">
        <ele>326</ele>
        <time>2023-09-10T12:59:37Z</time>
      </trkpt>
      <trkpt lat="43.10364" lon="2.02556">
        <ele>326</ele>
        <time>2023-09-10T12:59:38Z</time>
      </trkpt>
      <trkpt lat="43.10363" lon="2.02557">
        <ele>326</ele>
        <time>2023-09-10T12:59:39Z</time>
      </trkpt>
      <trkpt lat="43.10362" lon="2.02558">
        <ele>326</ele>
        <time>2023-09-10T12:59:40Z</time>
      </trkpt>
      <trkpt lat="43.10361" lon="2.02559">
        <ele>326</ele>
        <time>2023-09-10T12:59:41Z</time>
      </trkpt>
      <trkpt lat="43.10361" lon="2.0256">
        <ele>326</ele>
        <time>2023-09-10T12:59:42Z</time>
      </trkpt>
      <trkpt lat="43.1036" lon="2.02561">
        <ele>326</ele>
        <time>2023-09-10T12:59:43Z</time>
      </trkpt>
      <trkpt lat="43.10359" lon="2.02562">
        <ele>326</ele>
        <time>2023-09-10T12:59:44Z</time>
      </trkpt>
      <trkpt lat="43.10358" lon="2.02563">
        <ele>326</ele>
        <time>2023-09-10T12:59:45Z</time>
      </trkpt>
      <trkpt lat="43.10357" lon="2.02564">
        <ele>326</ele>
        <time>2023-09-10T12:59:46Z</time>
      </trkpt>
      <trkpt lat="43.10356" lon="2.02565">
        <ele>326</ele>
        <time>2023-09-10T12:59:47Z</time>
      </trkpt>
      <trkpt lat="43.10355" lon="2.02566">
        <ele>326</ele>
        <time>2023-09-10T12:59:48Z</time>
      </trkpt>
      <trkpt lat="43.10354" lon="2.02567">
        <ele>326</ele>
        <time>2023-09-10T12:59:49Z</time>
      </trkpt>
      <trkpt lat="43.10353" lon="2.02568">
        <ele>326</ele>
        <time>2023-09-10T12:59:50Z</time>
      </trkpt>
      <trkpt lat="43.10352" lon="2.02569">
        <ele>326</ele>
        <time>2023-09-10T12:59:51Z</time>
      </trkpt>
      <trkpt lat="43.10351" lon="2.0257">
        <ele>326</ele>
        <time>2023-09-10T12:59:52Z</time>
      </trkpt>
      <trkpt lat="43.1035" lon="2.02571">
        <ele>326</ele>
        <time>2023-09-10T12:59:53Z</time>
      </trkpt>
      <trkpt lat="43.1035" lon="2.02572">
        <ele>326</ele>
        <time>2023-09-10T12:59:54Z</time>
      </trkpt>
      <trkpt lat="43.10349" lon="2.02573">
        <ele>326</ele>
        <time>2023-09-10T12:59:55Z</time>
      </trkpt>
      <trkpt lat="43.10348" lon="2.02574">
        <ele>326</ele>
        <time>2023-09-10T12:59:56Z</time>
      </trkpt>
      <trkpt lat="43.10347" lon="2.02575">
        <ele>326</ele>
        <time>2023-09-10T12:59:57Z</time>
      </trkpt>
      <trkpt lat="43.10346" lon="2.02576">
        <ele>326</ele>
        <time>2023-09-10T12:59:58Z</time>
      </trkpt>
      <trkpt lat="43.10346" lon="2.02577">
        <ele>326</ele>
        <time>2023-09-10T12:59:59Z</time>
      </trkpt>
      <trkpt lat="43.10345" lon="2.02578">
        <ele>326</ele>
        <time>2023-09-10T13:00:00Z</time>
      </trkpt>
      <trkpt lat="43.10344" lon="2.02579">
        <ele>326</ele>
        <time>2023-09-10T13:00:01Z</time>
      </trkpt>
      <trkpt lat="43.10343" lon="2.0258">
        <ele>326</ele>
        <time>2023-09-10T13:00:02Z</time>
      </trkpt>
      <trkpt lat="43.10342" lon="2.02581">
        <ele>326</ele>
        <time>2023-09-10T13:00:03Z</time>
      </trkpt>
      <trkpt lat="43.10341" lon="2.02582">
        <ele>326</ele>
        <time>2023-09-10T13:00:04Z</time>
      </trkpt>
      <trkpt lat="43.10341" lon="2.02583">
        <ele>326</ele>
        <time>2023-09-10T13:00:05Z</time>
      </trkpt>
      <trkpt lat="43.1034" lon="2.02585">
        <ele>327</ele>
        <time>2023-09-10T13:00:06Z</time>
      </trkpt>
      <trkpt lat="43.10339" lon="2.02586">
        <ele>327</ele>
        <time>2023-09-10T13:00:07Z</time>
      </trkpt>
      <trkpt lat="43.10338" lon="2.02587">
        <ele>327</ele>
        <time>2023-09-10T13:00:08Z</time>
      </trkpt>
      <trkpt lat="43.10337" lon="2.02588">
        <ele>327</ele>
        <time>2023-09-10T13:00:09Z</time>
      </trkpt>
      <trkpt lat="43.10337" lon="2.0259">
        <ele>327</ele>
        <time>2023-09-10T13:00:10Z</time>
      </trkpt>
      <trkpt lat="43.10336" lon="2.02591">
        <ele>327</ele>
        <time>2023-09-10T13:00:11Z</time>
      </trkpt>
      <trkpt lat="43.10335" lon="2.02592">
        <ele>327</ele>
        <time>2023-09-10T13:00:12Z</time>
      </trkpt>
      <trkpt lat="43.10334" lon="2.02593">
        <ele>327</ele>
        <time>2023-09-10T13:00:13Z</time>
      </trkpt>
      <trkpt lat="43.10334" lon="2.02595">
        <ele>327</ele>
        <time>2023-09-10T13:00:14Z</time>
      </trkpt>
      <trkpt lat="43.10333" lon="2.02596">
        <ele>327</ele>
        <time>2023-09-10T13:00:15Z</time>
      </trkpt>
      <trkpt lat="43.10332" lon="2.02598">
        <ele>327</ele>
        <time>2023-09-10T13:00:16Z</time>
      </trkpt>
      <trkpt lat="43.10332" lon="2.02599">
        <ele>327</ele>
        <time>2023-09-10T13:00:17Z</time>
      </trkpt>
      <trkpt lat="43.10331" lon="2.026">
        <ele>327</ele>
        <time>2023-09-10T13:00:18Z</time>
      </trkpt>
      <trkpt lat="43.1033" lon="2.02602">
        <ele>327</ele>
        <time>2023-09-10T13:00:19Z</time>
      </trkpt>
      <trkpt lat="43.1033" lon="2.02603">
        <ele>327</ele>
        <time>2023-09-10T13:00:20Z</time>
      </trkpt>
      <trkpt lat="43.10329" lon="2.02605">
        <ele>327</ele>
        <time>2023-09-10T13:00:21Z</time>
      </trkpt>
      <trkpt lat="43.10328" lon="2.02606">
        <ele>327</ele>
        <time>2023-09-10T13:00:22Z</time>
      </trkpt>
      <trkpt lat="43.10328" lon="2.02608">
        <ele>327</ele>
        <time>2023-09-10T13:00:23Z</time>
      </trkpt>
      <trkpt lat="43.10327" lon="2.02609">
        <ele>327</ele>
        <time>2023-09-10T13:00:24Z</time>
      </trkpt>
      <trkpt lat="43.10326" lon="2.0261">
        <ele>327</ele>
        <time>2023-09-10T13:00:25Z</time>
      </trkpt>
      <trkpt lat="43.10325" lon="2.02611">
        <ele>327</ele>
        <time>2023-09-10T13:00:26Z</time>
      </trkpt>
      <trkpt lat="43.10325" lon="2.02613">
        <ele>327</ele>
        <time>2023-09-10T13:00:27Z</time>
      </trkpt>
      <trkpt lat="43.10324" lon="2.02614">
        <ele>327</ele>
        <time>2023-09-10T13:00:28Z</time>
      </trkpt>
      <trkpt lat="43.10323" lon="2.02616">
        <ele>327</ele>
        <time>2023-09-10T13:00:29Z</time>
      </trkpt>
      <trkpt lat="43.10323" lon="2.02617">
        <ele>327</ele>
        <time>2023-09-10T13:00:30Z</time>
      </trkpt>
      <trkpt lat="43.10322" lon="2.02619">
        <ele>327</ele>
        <time>2023-09-10T13:00:31Z</time>
      </trkpt>
      <trkpt lat="43.10321" lon="2.0262">
        <ele>327</ele>
        <time>2023-09-10T13:00:32Z</time>
      </trkpt>
      <trkpt lat="43.10321" lon="2.02621">
        <ele>327</ele>
        <time>2023-09-10T13:00:33Z</time>
      </trkpt>
      <trkpt lat="43.1032" lon="2.02623">
        <ele>327</ele>
        <time>2023-09-10T13:00:34Z</time>
      </trkpt>
      <trkpt lat="43.10319" lon="2.02624">
        <ele>327</ele>
        <time>2023-09-10T13:00:35Z</time>
      </trkpt>
      <trkpt lat="43.10319" lon="2.02626">
        <ele>327</ele>
        <time>2023-09-10T13:00:36Z</time>
      </trkpt>
      <trkpt lat="43.10318" lon="2.02627">
        <ele>327</ele>
        <time>2023-09-10T13:00:37Z</time>
      </trkpt>
      <trkpt lat="43.10317" lon="2.02628">
        <ele>327</ele>
        <time>2023-09-10T13:00:38Z</time>
      </trkpt>
      <trkpt lat="43.10317" lon="2.0263">
        <ele>327</ele>
        <time>2023-09-10T13:00:39Z</time>
      </trkpt>
      <trkpt lat="43.10316" lon="2.02631">
        <ele>327</ele>
        <time>2023-09-10T13:00:40Z</time>
      </trkpt>
      <trkpt lat="43.10315" lon="2.02633">
        <ele>327</ele>
        <time>2023-09-10T13:00:41Z</time>
      </trkpt>
      <trkpt lat="43.10315" lon="2.02634">
        <ele>327</ele>
        <time>2023-09-10T13:00:42Z</time>
      </trkpt>
      <trkpt lat="43.10314" lon="2.02635">
        <ele>327</ele>
        <time>2023-09-10T13:00:43Z</time>
      </trkpt>
      <trkpt lat="43.10314" lon="2.02636">
        <ele>327</ele>
        <time>2023-09-10T13:00:44Z</time>
      </trkpt>
      <trkpt lat="43.10313" lon="2.02638">
        <ele>327</ele>
        <time>2023-09-10T13:00:45Z</time>
      </trkpt>
      <trkpt lat="43.10312" lon="2.02639">
        <ele>327</ele>
        <time>2023-09-10T13:00:46Z</time>
      </trkpt>
      <trkpt lat="43.10312" lon="2.0264">
        <ele>327</ele>
        <time>2023-09-10T13:00:47Z</time>
      </trkpt>
      <trkpt lat="43.10311" lon="2.02641">
        <ele>327</ele>
        <time>2023-09-10T13:00:48Z</time>
      </trkpt>
      <trkpt lat="43.10311" lon="2.02643">
        <ele>327</ele>
        <time>2023-09-10T13:00:49Z</time>
      </trkpt>
      <trkpt lat="43.1031" lon="2.02644">
        <ele>327</ele>
        <time>2023-09-10T13:00:50Z</time>
      </trkpt>
      <trkpt lat="43.10309" lon="2.02645">
        <ele>327</ele>
        <time>2023-09-10T13:00:51Z</time>
      </trkpt>
      <trkpt lat="43.10308" lon="2.02646">
        <ele>327</ele>
        <time>2023-09-10T13:00:52Z</time>
      </trkpt>
      <trkpt lat="43.10308" lon="2.02648">
        <ele>327</ele>
        <time>2023-09-10T13:00:53Z</time>
      </trkpt>
      <trkpt lat="43.10307" lon="2.02649">
        <ele>327</ele>
        <time>2023-09-10T13:00:54Z</time>
      </trkpt>
      <trkpt lat="43.10306" lon="2.0265">
        <ele>327</ele>
        <time>2023-09-10T13:00:55Z</time>
      </trkpt>
      <trkpt lat="43.10306" lon="2.02651">
        <ele>327</ele>
        <time>2023-09-10T13:00:56Z</time>
      </trkpt>
      <trkpt lat="43.10305" lon="2.02652">
        <ele>327</ele>
        <time>2023-09-10T13:00:57Z</time>
      </trkpt>
      <trkpt lat="43.10304" lon="2.02654">
        <ele>327</ele>
        <time>2023-09-10T13:00:58Z</time>
      </trkpt>
      <trkpt lat="43.10304" lon="2.02655">
        <ele>327</ele>
        <time>2023-09-10T13:00:59Z</time>
      </trkpt>
      <trkpt lat="43.10303" lon="2.02656">
        <ele>327</ele>
        <time>2023-09-10T13:01:00Z</time>
      </trkpt>
      <trkpt lat="43.10303" lon="2.02657">
        <ele>327</ele>
        <time>2023-09-10T13:01:01Z</time>
      </trkpt>
      <trkpt lat="43.10302" lon="2.02658">
        <ele>327</ele>
        <time>2023-09-10T13:01:02Z</time>
      </trkpt>
      <trkpt lat="43.10301" lon="2.02659">
        <ele>327</ele>
        <time>2023-09-10T13:01:03Z</time>
      </trkpt>
      <trkpt lat="43.10301" lon="2.0266">
        <ele>327</ele>
        <time>2023-09-10T13:01:04Z</time>
      </trkpt>
      <trkpt lat="43.103" lon="2.02661">
        <ele>327</ele>
        <time>2023-09-10T13:01:05Z</time>
      </trkpt>
      <trkpt lat="43.10299" lon="2.02662">
        <ele>328</ele>
        <time>2023-09-10T13:01:06Z</time>
      </trkpt>
      <trkpt lat="43.10299" lon="2.02664">
        <ele>328</ele>
        <time>2023-09-10T13:01:07Z</time>
      </trkpt>
      <trkpt lat="43.10298" lon="2.02665">
        <ele>328</ele>
        <time>2023-09-10T13:01:08Z</time>
      </trkpt>
      <trkpt lat="43.10297" lon="2.02666">
        <ele>328</ele>
        <time>2023-09-10T13:01:09Z</time>
      </trkpt>
      <trkpt lat="43.10297" lon="2.02668">
        <ele>328</ele>
        <time>2023-09-10T13:01:10Z</time>
      </trkpt>
      <trkpt lat="43.10296" lon="2.02669">
        <ele>328</ele>
        <time>2023-09-10T13:01:11Z</time>
      </trkpt>
      <trkpt lat="43.10296" lon="2.02671">
        <ele>327</ele>
        <time>2023-09-10T13:01:12Z</time>
      </trkpt>
      <trkpt lat="43.10295" lon="2.02672">
        <ele>327</ele>
        <time>2023-09-10T13:01:13Z</time>
      </trkpt>
      <trkpt lat="43.10294" lon="2.02674">
        <ele>327</ele>
        <time>2023-09-10T13:01:14Z</time>
      </trkpt>
      <trkpt lat="43.10294" lon="2.02675">
        <ele>327</ele>
        <time>2023-09-10T13:01:15Z</time>
      </trkpt>
      <trkpt lat="43.10293" lon="2.02677">
        <ele>327</ele>
        <time>2023-09-10T13:01:16Z</time>
      </trkpt>
      <trkpt lat="43.10292" lon="2.02678">
        <ele>327</ele>
        <time>2023-09-10T13:01:17Z</time>
      </trkpt>
      <trkpt lat="43.10292" lon="2.02679">
        <ele>327</ele>
        <time>2023-09-10T13:01:18Z</time>
      </trkpt>
      <trkpt lat="43.10291" lon="2.02681">
        <ele>327</ele>
        <time>2023-09-10T13:01:19Z</time>
      </trkpt>
      <trkpt lat="43.1029" lon="2.02682">
        <ele>327</ele>
        <time>2023-09-10T13:01:20Z</time>
      </trkpt>
      <trkpt lat="43.1029" lon="2.02683">
        <ele>327</ele>
        <time>2023-09-10T13:01:21Z</time>
      </trkpt>
      <trkpt lat="43.10289" lon="2.02685">
        <ele>327</ele>
        <time>2023-09-10T13:01:22Z</time>
      </trkpt>
      <trkpt lat="43.10288" lon="2.02687">
        <ele>327</ele>
        <time>2023-09-10T13:01:23Z</time>
      </trkpt>
      <trkpt lat="43.10288" lon="2.02688">
        <ele>327</ele>
        <time>2023-09-10T13:01:24Z</time>
      </trkpt>
      <trkpt lat="43.10287" lon="2.0269">
        <ele>327</ele>
        <time>2023-09-10T13:01:25Z</time>
      </trkpt>
      <trkpt lat="43.10286" lon="2.02692">
        <ele>327</ele>
        <time>2023-09-10T13:01:26Z</time>
      </trkpt>
      <trkpt lat="43.10286" lon="2.02693">
        <ele>327</ele>
        <time>2023-09-10T13:01:27Z</time>
      </trkpt>
      <trkpt lat="43.10285" lon="2.02694">
        <ele>327</ele>
        <time>2023-09-10T13:01:28Z</time>
      </trkpt>
      <trkpt lat="43.10284" lon="2.02696">
        <ele>327</ele>
        <time>2023-09-10T13:01:29Z</time>
      </trkpt>
      <trkpt lat="43.10284" lon="2.02697">
        <ele>327</ele>
        <time>2023-09-10T13:01:30Z</time>
      </trkpt>
      <trkpt lat="43.10284" lon="2.02698">
        <ele>327</ele>
        <time>2023-09-10T13:01:31Z</time>
      </trkpt>
      <trkpt lat="43.10283" lon="2.02699">
        <ele>327</ele>
        <time>2023-09-10T13:01:32Z</time>
      </trkpt>
      <trkpt lat="43.10283" lon="2.027">
        <ele>327</ele>
        <time>2023-09-10T13:01:33Z</time>
      </trkpt>
      <trkpt lat="43.10282" lon="2.02701">
        <ele>327</ele>
        <time>2023-09-10T13:01:34Z</time>
      </trkpt>
      <trkpt lat="43.10282" lon="2.02703">
        <ele>327</ele>
        <time>2023-09-10T13:01:35Z</time>
      </trkpt>
      <trkpt lat="43.10281" lon="2.02704">
        <ele>327</ele>
        <time>2023-09-10T13:01:36Z</time>
      </trkpt>
      <trkpt lat="43.10281" lon="2.02705">
        <ele>327</ele>
        <time>2023-09-10T13:01:37Z</time>
      </trkpt>
      <trkpt lat="43.1028" lon="2.02707">
        <ele>327</ele>
        <time>2023-09-10T13:01:38Z</time>
      </trkpt>
      <trkpt lat="43.1028" lon="2.02709">
        <ele>327</ele>
        <time>2023-09-10T13:01:39Z</time>
      </trkpt>
      <trkpt lat="43.10279" lon="2.0271">
        <ele>327</ele>
        <time>2023-09-10T13:01:40Z</time>
      </trkpt>
      <trkpt lat="43.10278" lon="2.02712">
        <ele>327</ele>
        <time>2023-09-10T13:01:41Z</time>
      </trkpt>
      <trkpt lat="43.10278" lon="2.02714">
        <ele>327</ele>
        <time>2023-09-10T13:01:42Z</time>
      </trkpt>
      <trkpt lat="43.10277" lon="2.02715">
        <ele>327</ele>
        <time>2023-09-10T13:01:43Z</time>
      </trkpt>
      <trkpt lat="43.10276" lon="2.02717">
        <ele>327</ele>
        <time>2023-09-10T13:01:44Z</time>
      </trkpt>
      <trkpt lat="43.10276" lon="2.02718">
        <ele>327</ele>
        <time>2023-09-10T13:01:45Z</time>
      </trkpt>
      <trkpt lat="43.10275" lon="2.02719">
        <ele>328</ele>
        <time>2023-09-10T13:01:46Z</time>
      </trkpt>
      <trkpt lat="43.10274" lon="2.02721">
        <ele>328</ele>
        <time>2023-09-10T13:01:47Z</time>
      </trkpt>
      <trkpt lat="43.10274" lon="2.02722">
        <ele>328</ele>
        <time>2023-09-10T13:01:48Z</time>
      </trkpt>
      <trkpt lat="43.10273" lon="2.02723">
        <ele>328</ele>
        <time>2023-09-10T13:01:49Z</time>
      </trkpt>
      <trkpt lat="43.10272" lon="2.02725">
        <ele>328</ele>
        <time>2023-09-10T13:01:50Z</time>
      </trkpt>
      <trkpt lat="43.10271" lon="2.02726">
        <ele>328</ele>
        <time>2023-09-10T13:01:51Z</time>
      </trkpt>
      <trkpt lat="43.1027" lon="2.02728">
        <ele>327</ele>
        <time>2023-09-10T13:01:52Z</time>
      </trkpt>
      <trkpt lat="43.10269" lon="2.02729">
        <ele>327</ele>
        <time>2023-09-10T13:01:53Z</time>
      </trkpt>
      <trkpt lat="43.10269" lon="2.0273">
        <ele>327</ele>
        <time>2023-09-10T13:01:54Z</time>
      </trkpt>
      <trkpt lat="43.10268" lon="2.02732">
        <ele>327</ele>
        <time>2023-09-10T13:01:55Z</time>
      </trkpt>
      <trkpt lat="43.10268" lon="2.02733">
        <ele>327</ele>
        <time>2023-09-10T13:01:56Z</time>
      </trkpt>
      <trkpt lat="43.10267" lon="2.02735">
        <ele>327</ele>
        <time>2023-09-10T13:01:57Z</time>
      </trkpt>
      <trkpt lat="43.10267" lon="2.02736">
        <ele>327</ele>
        <time>2023-09-10T13:01:58Z</time>
      </trkpt>
      <trkpt lat="43.10266" lon="2.02738">
        <ele>327</ele>
        <time>2023-09-10T13:01:59Z</time>
      </trkpt>
      <trkpt lat="43.10266" lon="2.02739">
        <ele>327</ele>
        <time>2023-09-10T13:02:00Z</time>
      </trkpt>
      <trkpt lat="43.10265" lon="2.0274">
        <ele>327</ele>
        <time>2023-09-10T13:02:01Z</time>
      </trkpt>
      <trkpt lat="43.10265" lon="2.02742">
        <ele>327</ele>
        <time>2023-09-10T13:02:02Z</time>
      </trkpt>
      <trkpt lat="43.10264" lon="2.02743">
        <ele>327</ele>
        <time>2023-09-10T13:02:03Z</time>
      </trkpt>
      <trkpt lat="43.10263" lon="2.02745">
        <ele>327</ele>
        <time>2023-09-10T13:02:04Z</time>
      </trkpt>
      <trkpt lat="43.10263" lon="2.02746">
        <ele>327</ele>
        <time>2023-09-10T13:02:05Z</time>
      </trkpt>
      <trkpt lat="43.10262" lon="2.02747">
        <ele>327</ele>
        <time>2023-09-10T13:02:06Z</time>
      </trkpt>
      <trkpt lat="43.10262" lon="2.02748">
        <ele>327</ele>
        <time>2023-09-10T13:02:07Z</time>
      </trkpt>
      <trkpt lat="43.10261" lon="2.02751">
        <ele>326</ele>
        <time>2023-09-10T13:02:32Z</time>
      </trkpt>
      <trkpt lat="43.1026" lon="2.02752">
        <ele>326</ele>
        <time>2023-09-10T13:02:33Z</time>
      </trkpt>
      <trkpt lat="43.1026" lon="2.02754">
        <ele>326</ele>
        <time>2023-09-10T13:02:34Z</time>
      </trkpt>
      <trkpt lat="43.10259" lon="2.02756">
        <ele>326</ele>
        <time>2023-09-10T13:02:56Z</time>
      </trkpt>
      <trkpt lat="43.10258" lon="2.02758">
        <ele>326</ele>
        <time>2023-09-10T13:02:57Z</time>
      </trkpt>
      <trkpt lat="43.10258" lon="2.02759">
        <ele>326</ele>
        <time>2023-09-10T13:02:58Z</time>
      </trkpt>
      <trkpt lat="43.10257" lon="2.0276">
        <ele>326</ele>
        <time>2023-09-10T13:02:59Z</time>
      </trkpt>
      <trkpt lat="43.10257" lon="2.02762">
        <ele>326</ele>
        <time>2023-09-10T13:03:00Z</time>
      </trkpt>
      <trkpt lat="43.10256" lon="2.02763">
        <ele>327</ele>
        <time>2023-09-10T13:03:01Z</time>
      </trkpt>
      <trkpt lat="43.10255" lon="2.02764">
        <ele>327</ele>
        <time>2023-09-10T13:03:02Z</time>
      </trkpt>
      <trkpt lat="43.10254" lon="2.02765">
        <ele>327</ele>
        <time>2023-09-10T13:03:03Z</time>
      </trkpt>
      <trkpt lat="43.10254" lon="2.02767">
        <ele>327</ele>
        <time>2023-09-10T13:03:04Z</time>
      </trkpt>
      <trkpt lat="43.10253" lon="2.02768">
        <ele>327</ele>
        <time>2023-09-10T13:03:05Z</time>
      </trkpt>
      <trkpt lat="43.10253" lon="2.02769">
        <ele>327</ele>
        <time>2023-09-10T13:03:06Z</time>
      </trkpt>
      <trkpt lat="43.10252" lon="2.0277">
        <ele>327</ele>
        <time>2023-09-10T13:03:07Z</time>
      </trkpt>
      <trkpt lat="43.10252" lon="2.02771">
        <ele>327</ele>
        <time>2023-09-10T13:03:08Z</time>
      </trkpt>
      <trkpt lat="43.10251" lon="2.02772">
        <ele>327</ele>
        <time>2023-09-10T13:03:09Z</time>
      </trkpt>
      <trkpt lat="43.10251" lon="2.02773">
        <ele>327</ele>
        <time>2023-09-10T13:03:10Z</time>
      </trkpt>
      <trkpt lat="43.1025" lon="2.02774">
        <ele>327</ele>
        <time>2023-09-10T13:03:11Z</time>
      </trkpt>
      <trkpt lat="43.1025" lon="2.02776">
        <ele>327</ele>
        <time>2023-09-10T13:03:12Z</time>
      </trkpt>
      <trkpt lat="43.10249" lon="2.02777">
        <ele>327</ele>
        <time>2023-09-10T13:03:13Z</time>
      </trkpt>
      <trkpt lat="43.10249" lon="2.02779">
        <ele>327</ele>
        <time>2023-09-10T13:03:14Z</time>
      </trkpt>
      <trkpt lat="43.10248" lon="2.0278">
        <ele>327</ele>
        <time>2023-09-10T13:03:15Z</time>
      </trkpt>
      <trkpt lat="43.10248" lon="2.02782">
        <ele>327</ele>
        <time>2023-09-10T13:03:16Z</time>
      </trkpt>
      <trkpt lat="43.10247" lon="2.02783">
        <ele>326</ele>
        <time>2023-09-10T13:03:17Z</time>
      </trkpt>
      <trkpt lat="43.10247" lon="2.02785">
        <ele>326</ele>
        <time>2023-09-10T13:03:18Z</time>
      </trkpt>
      <trkpt lat="43.10246" lon="2.02787">
        <ele>326</ele>
        <time>2023-09-10T13:03:19Z</time>
      </trkpt>
      <trkpt lat="43.10246" lon="2.02788">
        <ele>326</ele>
        <time>2023-09-10T13:03:20Z</time>
      </trkpt>
      <trkpt lat="43.10245" lon="2.0279">
        <ele>326</ele>
        <time>2023-09-10T13:03:21Z</time>
      </trkpt>
      <trkpt lat="43.10245" lon="2.02791">
        <ele>326</ele>
        <time>2023-09-10T13:03:22Z</time>
      </trkpt>
      <trkpt lat="43.10244" lon="2.02792">
        <ele>326</ele>
        <time>2023-09-10T13:03:23Z</time>
      </trkpt>
      <trkpt lat="43.10243" lon="2.02794">
        <ele>326</ele>
        <time>2023-09-10T13:03:24Z</time>
      </trkpt>
      <trkpt lat="43.10243" lon="2.02795">
        <ele>326</ele>
        <time>2023-09-10T13:03:25Z</time>
      </trkpt>
      <trkpt lat="43.10242" lon="2.02796">
        <ele>326</ele>
        <time>2023-09-10T13:03:26Z</time>
      </trkpt>
      <trkpt lat="43.10241" lon="2.02797">
        <ele>326</ele>
        <time>2023-09-10T13:03:27Z</time>
      </trkpt>
      <trkpt lat="43.1024" lon="2.02799">
        <ele>326</ele>
        <time>2023-09-10T13:03:28Z</time>
      </trkpt>
      <trkpt lat="43.1024" lon="2.028">
        <ele>326</ele>
        <time>2023-09-10T13:03:29Z</time>
      </trkpt>
      <trkpt lat="43.10239" lon="2.02801">
        <ele>326</ele>
        <time>2023-09-10T13:03:30Z</time>
      </trkpt>
      <trkpt lat="43.10238" lon="2.02802">
        <ele>326</ele>
        <time>2023-09-10T13:03:31Z</time>
      </trkpt>
      <trkpt lat="43.10237" lon="2.02802">
        <ele>326</ele>
        <time>2023-09-10T13:03:32Z</time>
      </trkpt>
      <trkpt lat="43.10236" lon="2.02803">
        <ele>326</ele>
        <time>2023-09-10T13:03:33Z</time>
      </trkpt>
      <trkpt lat="43.10235" lon="2.02803">
        <ele>326</ele>
        <time>2023-09-10T13:03:34Z</time>
      </trkpt>
      <trkpt lat="43.10234" lon="2.02802">
        <ele>326</ele>
        <time>2023-09-10T13:04:05Z</time>
      </trkpt>
      <trkpt lat="43.10233" lon="2.02801">
        <ele>326</ele>
        <time>2023-09-10T13:04:06Z</time>
      </trkpt>
      <trkpt lat="43.10233" lon="2.028">
        <ele>325</ele>
        <time>2023-09-10T13:04:07Z</time>
      </trkpt>
      <trkpt lat="43.10232" lon="2.02799">
        <ele>325</ele>
        <time>2023-09-10T13:04:08Z</time>
      </trkpt>
      <trkpt lat="43.10232" lon="2.02799">
        <ele>325</ele>
        <time>2023-09-10T13:04:09Z</time>
      </trkpt>
      <trkpt lat="43.10231" lon="2.02798">
        <ele>325</ele>
        <time>2023-09-10T13:04:10Z</time>
      </trkpt>
      <trkpt lat="43.1023" lon="2.02797">
        <ele>325</ele>
        <time>2023-09-10T13:04:11Z</time>
      </trkpt>
      <trkpt lat="43.10229" lon="2.02796">
        <ele>325</ele>
        <time>2023-09-10T13:04:12Z</time>
      </trkpt>
      <trkpt lat="43.10228" lon="2.02795">
        <ele>325</ele>
        <time>2023-09-10T13:04:13Z</time>
      </trkpt>
      <trkpt lat="43.10227" lon="2.02794">
        <ele>325</ele>
        <time>2023-09-10T13:04:14Z</time>
      </trkpt>
      <trkpt lat="43.10226" lon="2.02793">
        <ele>325</ele>
        <time>2023-09-10T13:04:15Z</time>
      </trkpt>
      <trkpt lat="43.10225" lon="2.02792">
        <ele>325</ele>
        <time>2023-09-10T13:04:16Z</time>
      </trkpt>
      <trkpt lat="43.10224" lon="2.02791">
        <ele>325</ele>
        <time>2023-09-10T13:04:17Z</time>
      </trkpt>
      <trkpt lat="43.10223" lon="2.0279">
        <ele>325</ele>
        <time>2023-09-10T13:04:18Z</time>
      </trkpt>
      <trkpt lat="43.10223" lon="2.02789">
        <ele>325</ele>
        <time>2023-09-10T13:04:19Z</time>
      </trkpt>
      <trkpt lat="43.10222" lon="2.02789">
        <ele>325</ele>
        <time>2023-09-10T13:04:20Z</time>
      </trkpt>
      <trkpt lat="43.10222" lon="2.02788">
        <ele>326</ele>
        <time>2023-09-10T13:04:21Z</time>
      </trkpt>
      <trkpt lat="43.10221" lon="2.02788">
        <ele>326</ele>
        <time>2023-09-10T13:04:22Z</time>
      </trkpt>
      <trkpt lat="43.1022" lon="2.02787">
        <ele>326</ele>
        <time>2023-09-10T13:04:23Z</time>
      </trkpt>
      <trkpt lat="43.10219" lon="2.02786">
        <ele>326</ele>
        <time>2023-09-10T13:04:24Z</time>
      </trkpt>
      <trkpt lat="43.10218" lon="2.02785">
        <ele>326</ele>
        <time>2023-09-10T13:04:25Z</time>
      </trkpt>
      <trkpt lat="43.10217" lon="2.02784">
        <ele>326</ele>
        <time>2023-09-10T13:04:26Z</time>
      </trkpt>
      <trkpt lat="43.10217" lon="2.02783">
        <ele>326</ele>
        <time>2023-09-10T13:04:27Z</time>
      </trkpt>
      <trkpt lat="43.10216" lon="2.02782">
        <ele>326</ele>
        <time>2023-09-10T13:04:28Z</time>
      </trkpt>
      <trkpt lat="43.10215" lon="2.02781">
        <ele>326</ele>
        <time>2023-09-10T13:04:29Z</time>
      </trkpt>
      <trkpt lat="43.10214" lon="2.0278">
        <ele>326</ele>
        <time>2023-09-10T13:04:30Z</time>
      </trkpt>
      <trkpt lat="43.10213" lon="2.02779">
        <ele>326</ele>
        <time>2023-09-10T13:04:31Z</time>
      </trkpt>
      <trkpt lat="43.10212" lon="2.02778">
        <ele>326</ele>
        <time>2023-09-10T13:04:32Z</time>
      </trkpt>
      <trkpt lat="43.10211" lon="2.02776">
        <ele>326</ele>
        <time>2023-09-10T13:04:33Z</time>
      </trkpt>
      <trkpt lat="43.1021" lon="2.02775">
        <ele>326</ele>
        <time>2023-09-10T13:04:41Z</time>
      </trkpt>
      <trkpt lat="43.10209" lon="2.02774">
        <ele>326</ele>
        <time>2023-09-10T13:04:42Z</time>
      </trkpt>
      <trkpt lat="43.10209" lon="2.02774">
        <ele>326</ele>
        <time>2023-09-10T13:04:43Z</time>
      </trkpt>
      <trkpt lat="43.10208" lon="2.02773">
        <ele>326</ele>
        <time>2023-09-10T13:04:44Z</time>
      </trkpt>
      <trkpt lat="43.10207" lon="2.02773">
        <ele>326</ele>
        <time>2023-09-10T13:04:45Z</time>
      </trkpt>
      <trkpt lat="43.10206" lon="2.02772">
        <ele>326</ele>
        <time>2023-09-10T13:04:46Z</time>
      </trkpt>
      <trkpt lat="43.10206" lon="2.02772">
        <ele>326</ele>
        <time>2023-09-10T13:04:47Z</time>
      </trkpt>
      <trkpt lat="43.10205" lon="2.02771">
        <ele>326</ele>
        <time>2023-09-10T13:04:48Z</time>
      </trkpt>
      <trkpt lat="43.10204" lon="2.0277">
        <ele>326</ele>
        <time>2023-09-10T13:04:49Z</time>
      </trkpt>
      <trkpt lat="43.10203" lon="2.02769">
        <ele>326</ele>
        <time>2023-09-10T13:04:50Z</time>
      </trkpt>
      <trkpt lat="43.10202" lon="2.02768">
        <ele>326</ele>
        <time>2023-09-10T13:04:51Z</time>
      </trkpt>
      <trkpt lat="43.10201" lon="2.02767">
        <ele>326</ele>
        <time>2023-09-10T13:04:52Z</time>
      </trkpt>
      <trkpt lat="43.10201" lon="2.02766">
        <ele>326</ele>
        <time>2023-09-10T13:04:53Z</time>
      </trkpt>
      <trkpt lat="43.102" lon="2.02765">
        <ele>326</ele>
        <time>2023-09-10T13:04:54Z</time>
      </trkpt>
      <trkpt lat="43.10199" lon="2.02764">
        <ele>326</ele>
        <time>2023-09-10T13:04:55Z</time>
      </trkpt>
      <trkpt lat="43.10198" lon="2.02763">
        <ele>327</ele>
        <time>2023-09-10T13:04:56Z</time>
      </trkpt>
      <trkpt lat="43.10197" lon="2.02762">
        <ele>327</ele>
        <time>2023-09-10T13:04:57Z</time>
      </trkpt>
      <trkpt lat="43.10196" lon="2.02761">
        <ele>327</ele>
        <time>2023-09-10T13:04:58Z</time>
      </trkpt>
      <trkpt lat="43.10195" lon="2.0276">
        <ele>327</ele>
        <time>2023-09-10T13:04:59Z</time>
      </trkpt>
      <trkpt lat="43.10194" lon="2.02759">
        <ele>327</ele>
        <time>2023-09-10T13:05:00Z</time>
      </trkpt>
      <trkpt lat="43.10193" lon="2.02758">
        <ele>327</ele>
        <time>2023-09-10T13:05:01Z</time>
      </trkpt>
      <trkpt lat="43.10193" lon="2.02757">
        <ele>327</ele>
        <time>2023-09-10T13:05:02Z</time>
      </trkpt>
      <trkpt lat="43.10192" lon="2.02756">
        <ele>327</ele>
        <time>2023-09-10T13:05:03Z</time>
      </trkpt>
      <trkpt lat="43.10191" lon="2.02754">
        <ele>327</ele>
        <time>2023-09-10T13:05:04Z</time>
      </trkpt>
      <trkpt lat="43.1019" lon="2.02753">
        <ele>327</ele>
        <time>2023-09-10T13:05:05Z</time>
      </trkpt>
      <trkpt lat="43.1019" lon="2.02752">
        <ele>327</ele>
        <time>2023-09-10T13:05:06Z</time>
      </trkpt>
      <trkpt lat="43.10189" lon="2.0275">
        <ele>327</ele>
        <time>2023-09-10T13:05:07Z</time>
      </trkpt>
      <trkpt lat="43.10188" lon="2.02749">
        <ele>327</ele>
        <time>2023-09-10T13:05:08Z</time>
      </trkpt>
      <trkpt lat="43.10187" lon="2.02748">
        <ele>327</ele>
        <time>2023-09-10T13:05:09Z</time>
      </trkpt>
      <trkpt lat="43.10186" lon="2.02747">
        <ele>327</ele>
        <time>2023-09-10T13:05:10Z</time>
      </trkpt>
      <trkpt lat="43.10186" lon="2.02746">
        <ele>327</ele>
        <time>2023-09-10T13:05:11Z</time>
      </trkpt>
      <trkpt lat="43.10185" lon="2.02745">
        <ele>327</ele>
        <time>2023-09-10T13:05:12Z</time>
      </trkpt>
      <trkpt lat="43.10184" lon="2.02744">
        <ele>327</ele>
        <time>2023-09-10T13:05:13Z</time>
      </trkpt>
      <trkpt lat="43.10183" lon="2.02743">
        <ele>327</ele>
        <time>2023-09-10T13:05:14Z</time>
      </trkpt>
      <trkpt lat="43.10183" lon="2.02742">
        <ele>327</ele>
        <time>2023-09-10T13:05:15Z</time>
      </trkpt>
      <trkpt lat="43.10182" lon="2.02741">
        <ele>327</ele>
        <time>2023-09-10T13:05:16Z</time>
      </trkpt>
      <trkpt lat="43.10181" lon="2.0274">
        <ele>327</ele>
        <time>2023-09-10T13:05:17Z</time>
      </trkpt>
      <trkpt lat="43.1018" lon="2.02739">
        <ele>327</ele>
        <time>2023-09-10T13:05:18Z</time>
      </trkpt>
      <trkpt lat="43.10179" lon="2.02739">
        <ele>327</ele>
        <time>2023-09-10T13:05:19Z</time>
      </trkpt>
      <trkpt lat="43.10178" lon="2.02738">
        <ele>327</ele>
        <time>2023-09-10T13:05:20Z</time>
      </trkpt>
      <trkpt lat="43.10177" lon="2.02737">
        <ele>328</ele>
        <time>2023-09-10T13:05:21Z</time>
      </trkpt>
      <trkpt lat="43.10176" lon="2.02736">
        <ele>328</ele>
        <time>2023-09-10T13:05:22Z</time>
      </trkpt>
      <trkpt lat="43.10175" lon="2.02735">
        <ele>328</ele>
        <time>2023-09-10T13:05:23Z</time>
      </trkpt>
      <trkpt lat="43.10174" lon="2.02734">
        <ele>328</ele>
        <time>2023-09-10T13:05:24Z</time>
      </trkpt>
      <trkpt lat="43.10173" lon="2.02734">
        <ele>328</ele>
        <time>2023-09-10T13:05:25Z</time>
      </trkpt>
      <trkpt lat="43.10172" lon="2.02733">
        <ele>328</ele>
        <time>2023-09-10T13:05:26Z</time>
      </trkpt>
      <trkpt lat="43.10171" lon="2.02732">
        <ele>328</ele>
        <time>2023-09-10T13:05:27Z</time>
      </trkpt>
      <trkpt lat="43.1017" lon="2.02731">
        <ele>328</ele>
        <time>2023-09-10T13:05:28Z</time>
      </trkpt>
      <trkpt lat="43.10169" lon="2.0273">
        <ele>328</ele>
        <time>2023-09-10T13:05:29Z</time>
      </trkpt>
      <trkpt lat="43.10168" lon="2.02729">
        <ele>328</ele>
        <time>2023-09-10T13:05:30Z</time>
      </trkpt>
      <trkpt lat="43.10167" lon="2.02728">
        <ele>329</ele>
        <time>2023-09-10T13:05:31Z</time>
      </trkpt>
      <trkpt lat="43.10167" lon="2.02727">
        <ele>329</ele>
        <time>2023-09-10T13:05:32Z</time>
      </trkpt>
      <trkpt lat="43.10166" lon="2.02726">
        <ele>329</ele>
        <time>2023-09-10T13:05:33Z</time>
      </trkpt>
      <trkpt lat="43.10165" lon="2.02725">
        <ele>329</ele>
        <time>2023-09-10T13:05:34Z</time>
      </trkpt>
      <trkpt lat="43.10164" lon="2.02724">
        <ele>329</ele>
        <time>2023-09-10T13:05:35Z</time>
      </trkpt>
      <trkpt lat="43.10163" lon="2.02723">
        <ele>329</ele>
        <time>2023-09-10T13:05:36Z</time>
      </trkpt>
      <trkpt lat="43.10162" lon="2.02722">
        <ele>329</ele>
        <time>2023-09-10T13:05:37Z</time>
      </trkpt>
      <trkpt lat="43.10162" lon="2.02722">
        <ele>329</ele>
        <time>2023-09-10T13:05:38Z</time>
      </trkpt>
      <trkpt lat="43.10161" lon="2.02721">
        <ele>329</ele>
        <time>2023-09-10T13:05:39Z</time>
      </trkpt>
      <trkpt lat="43.1016" lon="2.0272">
        <ele>329</ele>
        <time>2023-09-10T13:05:40Z</time>
      </trkpt>
      <trkpt lat="43.10159" lon="2.02719">
        <ele>330</ele>
        <time>2023-09-10T13:05:41Z</time>
      </trkpt>
      <trkpt lat="43.10158" lon="2.02718">
        <ele>330</ele>
        <time>2023-09-10T13:05:42Z</time>
      </trkpt>
      <trkpt lat="43.10158" lon="2.02717">
        <ele>330</ele>
        <time>2023-09-10T13:05:43Z</time>
      </trkpt>
      <trkpt lat="43.10157" lon="2.02717">
        <ele>330</ele>
        <time>2023-09-10T13:05:44Z</time>
      </trkpt>
      <trkpt lat="43.10156" lon="2.02716">
        <ele>330</ele>
        <time>2023-09-10T13:05:45Z</time>
      </trkpt>
      <trkpt lat="43.10155" lon="2.02715">
        <ele>331</ele>
        <time>2023-09-10T13:05:46Z</time>
      </trkpt>
      <trkpt lat="43.10153" lon="2.02715">
        <ele>331</ele>
        <time>2023-09-10T13:05:47Z</time>
      </trkpt>
      <trkpt lat="43.10152" lon="2.02714">
        <ele>331</ele>
        <time>2023-09-10T13:05:48Z</time>
      </trkpt>
      <trkpt lat="43.10151" lon="2.02713">
        <ele>331</ele>
        <time>2023-09-10T13:05:49Z</time>
      </trkpt>
      <trkpt lat="43.10151" lon="2.02712">
        <ele>331</ele>
        <time>2023-09-10T13:05:50Z</time>
      </trkpt>
      <trkpt lat="43.1015" lon="2.02711">
        <ele>332</ele>
        <time>2023-09-10T13:05:51Z</time>
      </trkpt>
      <trkpt lat="43.10149" lon="2.0271">
        <ele>332</ele>
        <time>2023-09-10T13:05:52Z</time>
      </trkpt>
      <trkpt lat="43.10148" lon="2.02709">
        <ele>332</ele>
        <time>2023-09-10T13:05:53Z</time>
      </trkpt>
      <trkpt lat="43.10147" lon="2.02708">
        <ele>332</ele>
        <time>2023-09-10T13:05:54Z</time>
      </trkpt>
      <trkpt lat="43.10146" lon="2.02707">
        <ele>332</ele>
        <time>2023-09-10T13:05:55Z</time>
      </trkpt>
      <trkpt lat="43.10145" lon="2.02707">
        <ele>332</ele>
        <time>2023-09-10T13:05:56Z</time>
      </trkpt>
      <trkpt lat="43.10144" lon="2.02706">
        <ele>332</ele>
        <time>2023-09-10T13:05:57Z</time>
      </trkpt>
      <trkpt lat="43.10144" lon="2.02705">
        <ele>332</ele>
        <time>2023-09-10T13:05:58Z</time>
      </trkpt>
      <trkpt lat="43.10143" lon="2.02704">
        <ele>332</ele>
        <time>2023-09-10T13:05:59Z</time>
      </trkpt>
      <trkpt lat="43.10142" lon="2.02703">
        <ele>332</ele>
        <time>2023-09-10T13:06:00Z</time>
      </trkpt>
      <trkpt lat="43.10141" lon="2.02702">
        <ele>333</ele>
        <time>2023-09-10T13:06:01Z</time>
      </trkpt>
      <trkpt lat="43.1014" lon="2.02701">
        <ele>333</ele>
        <time>2023-09-10T13:06:02Z</time>
      </trkpt>
      <trkpt lat="43.10139" lon="2.02701">
        <ele>333</ele>
        <time>2023-09-10T13:06:03Z</time>
      </trkpt>
      <trkpt lat="43.10138" lon="2.027">
        <ele>333</ele>
        <time>2023-09-10T13:06:04Z</time>
      </trkpt>
      <trkpt lat="43.10138" lon="2.02699">
        <ele>333</ele>
        <time>2023-09-10T13:06:05Z</time>
      </trkpt>
      <trkpt lat="43.10137" lon="2.02698">
        <ele>334</ele>
        <time>2023-09-10T13:06:06Z</time>
      </trkpt>
      <trkpt lat="43.10136" lon="2.02698">
        <ele>334</ele>
        <time>2023-09-10T13:06:07Z</time>
      </trkpt>
      <trkpt lat="43.10135" lon="2.02697">
        <ele>334</ele>
        <time>2023-09-10T13:06:08Z</time>
      </trkpt>
      <trkpt lat="43.10134" lon="2.02696">
        <ele>334</ele>
        <time>2023-09-10T13:06:09Z</time>
      </trkpt>
      <trkpt lat="43.10133" lon="2.02695">
        <ele>334</ele>
        <time>2023-09-10T13:06:10Z</time>
      </trkpt>
      <trkpt lat="43.10132" lon="2.02694">
        <ele>335</ele>
        <time>2023-09-10T13:06:11Z</time>
      </trkpt>
      <trkpt lat="43.10131" lon="2.02694">
        <ele>335</ele>
        <time>2023-09-10T13:06:12Z</time>
      </trkpt>
      <trkpt lat="43.1013" lon="2.02693">
        <ele>335</ele>
        <time>2023-09-10T13:06:13Z</time>
      </trkpt>
      <trkpt lat="43.10129" lon="2.02692">
        <ele>335</ele>
        <time>2023-09-10T13:06:14Z</time>
      </trkpt>
      <trkpt lat="43.10128" lon="2.02691">
        <ele>335</ele>
        <time>2023-09-10T13:06:15Z</time>
      </trkpt>
      <trkpt lat="43.10127" lon="2.0269">
        <ele>336</ele>
        <time>2023-09-10T13:06:16Z</time>
      </trkpt>
      <trkpt lat="43.10126" lon="2.02689">
        <ele>336</ele>
        <time>2023-09-10T13:06:17Z</time>
      </trkpt>
      <trkpt lat="43.10125" lon="2.02688">
        <ele>336</ele>
        <time>2023-09-10T13:06:18Z</time>
      </trkpt>
      <trkpt lat="43.10124" lon="2.02687">
        <ele>336</ele>
        <time>2023-09-10T13:06:19Z</time>
      </trkpt>
      <trkpt lat="43.10123" lon="2.02686">
        <ele>336</ele>
        <time>2023-09-10T13:06:20Z</time>
      </trkpt>
      <trkpt lat="43.10122" lon="2.02685">
        <ele>336</ele>
        <time>2023-09-10T13:06:21Z</time>
      </trkpt>
      <trkpt lat="43.10121" lon="2.02684">
        <ele>336</ele>
        <time>2023-09-10T13:06:22Z</time>
      </trkpt>
      <trkpt lat="43.1012" lon="2.02684">
        <ele>336</ele>
        <time>2023-09-10T13:06:23Z</time>
      </trkpt>
      <trkpt lat="43.10119" lon="2.02683">
        <ele>336</ele>
        <time>2023-09-10T13:06:24Z</time>
      </trkpt>
      <trkpt lat="43.10118" lon="2.02682">
        <ele>336</ele>
        <time>2023-09-10T13:06:25Z</time>
      </trkpt>
      <trkpt lat="43.10117" lon="2.02681">
        <ele>337</ele>
        <time>2023-09-10T13:06:26Z</time>
      </trkpt>
      <trkpt lat="43.10116" lon="2.0268">
        <ele>337</ele>
        <time>2023-09-10T13:06:27Z</time>
      </trkpt>
      <trkpt lat="43.10115" lon="2.02679">
        <ele>337</ele>
        <time>2023-09-10T13:06:28Z</time>
      </trkpt>
      <trkpt lat="43.10114" lon="2.02679">
        <ele>337</ele>
        <time>2023-09-10T13:06:29Z</time>
      </trkpt>
      <trkpt lat="43.10113" lon="2.02678">
        <ele>337</ele>
        <time>2023-09-10T13:06:30Z</time>
      </trkpt>
      <trkpt lat="43.10112" lon="2.02677">
        <ele>337</ele>
        <time>2023-09-10T13:06:31Z</time>
      </trkpt>
      <trkpt lat="43.10111" lon="2.02676">
        <ele>337</ele>
        <time>2023-09-10T13:06:32Z</time>
      </trkpt>
      <trkpt lat="43.1011" lon="2.02676">
        <ele>337</ele>
        <time>2023-09-10T13:06:33Z</time>
      </trkpt>
      <trkpt lat="43.10108" lon="2.02675">
        <ele>337</ele>
        <time>2023-09-10T13:06:34Z</time>
      </trkpt>
      <trkpt lat="43.10107" lon="2.02674">
        <ele>337</ele>
        <time>2023-09-10T13:06:35Z</time>
      </trkpt>
      <trkpt lat="43.10106" lon="2.02673">
        <ele>337</ele>
        <time>2023-09-10T13:06:36Z</time>
      </trkpt>
      <trkpt lat="43.10105" lon="2.02673">
        <ele>337</ele>
        <time>2023-09-10T13:06:37Z</time>
      </trkpt>
      <trkpt lat="43.10103" lon="2.02672">
        <ele>337</ele>
        <time>2023-09-10T13:06:38Z</time>
      </trkpt>
      <trkpt lat="43.10102" lon="2.02671">
        <ele>337</ele>
        <time>2023-09-10T13:06:39Z</time>
      </trkpt>
      <trkpt lat="43.10101" lon="2.02671">
        <ele>337</ele>
        <time>2023-09-10T13:06:40Z</time>
      </trkpt>
      <trkpt lat="43.101" lon="2.0267">
        <ele>337</ele>
        <time>2023-09-10T13:06:41Z</time>
      </trkpt>
      <trkpt lat="43.10099" lon="2.02669">
        <ele>337</ele>
        <time>2023-09-10T13:06:42Z</time>
      </trkpt>
      <trkpt lat="43.10098" lon="2.02669">
        <ele>337</ele>
        <time>2023-09-10T13:06:43Z</time>
      </trkpt>
      <trkpt lat="43.10097" lon="2.02668">
        <ele>337</ele>
        <time>2023-09-10T13:06:44Z</time>
      </trkpt>
      <trkpt lat="43.10096" lon="2.02667">
        <ele>337</ele>
        <time>2023-09-10T13:06:45Z</time>
      </trkpt>
      <trkpt lat="43.10095" lon="2.02666">
        <ele>338</ele>
        <time>2023-09-10T13:06:46Z</time>
      </trkpt>
      <trkpt lat="43.10094" lon="2.02666">
        <ele>338</ele>
        <time>2023-09-10T13:06:47Z</time>
      </trkpt>
      <trkpt lat="43.10093" lon="2.02665">
        <ele>338</ele>
        <time>2023-09-10T13:06:48Z</time>
      </trkpt>
      <trkpt lat="43.10092" lon="2.02664">
        <ele>338</ele>
        <time>2023-09-10T13:06:49Z</time>
      </trkpt>
      <trkpt lat="43.10091" lon="2.02663">
        <ele>338</ele>
        <time>2023-09-10T13:06:50Z</time>
      </trkpt>
      <trkpt lat="43.1009" lon="2.02662">
        <ele>338</ele>
        <time>2023-09-10T13:06:51Z</time>
      </trkpt>
      <trkpt lat="43.10089" lon="2.02661">
        <ele>338</ele>
        <time>2023-09-10T13:06:52Z</time>
      </trkpt>
      <trkpt lat="43.10088" lon="2.0266">
        <ele>338</ele>
        <time>2023-09-10T13:06:53Z</time>
      </trkpt>
      <trkpt lat="43.10087" lon="2.02659">
        <ele>338</ele>
        <time>2023-09-10T13:06:54Z</time>
      </trkpt>
      <trkpt lat="43.10086" lon="2.02658">
        <ele>338</ele>
        <time>2023-09-10T13:06:55Z</time>
      </trkpt>
      <trkpt lat="43.10085" lon="2.02657">
        <ele>338</ele>
        <time>2023-09-10T13:06:56Z</time>
      </trkpt>
      <trkpt lat="43.10084" lon="2.02656">
        <ele>338</ele>
        <time>2023-09-10T13:06:57Z</time>
      </trkpt>
      <trkpt lat="43.10083" lon="2.02656">
        <ele>338</ele>
        <time>2023-09-10T13:06:58Z</time>
      </trkpt>
      <trkpt lat="43.10082" lon="2.02655">
        <ele>338</ele>
        <time>2023-09-10T13:06:59Z</time>
      </trkpt>
      <trkpt lat="43.1008" lon="2.02654">
        <ele>338</ele>
        <time>2023-09-10T13:07:00Z</time>
      </trkpt>
      <trkpt lat="43.10079" lon="2.02653">
        <ele>338</ele>
        <time>2023-09-10T13:07:01Z</time>
      </trkpt>
      <trkpt lat="43.10078" lon="2.02652">
        <ele>338</ele>
        <time>2023-09-10T13:07:02Z</time>
      </trkpt>
      <trkpt lat="43.10077" lon="2.0265">
        <ele>338</ele>
        <time>2023-09-10T13:07:03Z</time>
      </trkpt>
      <trkpt lat="43.10076" lon="2.0265">
        <ele>338</ele>
        <time>2023-09-10T13:07:04Z</time>
      </trkpt>
      <trkpt lat="43.10075" lon="2.02649">
        <ele>338</ele>
        <time>2023-09-10T13:07:05Z</time>
      </trkpt>
      <trkpt lat="43.10074" lon="2.02648">
        <ele>338</ele>
        <time>2023-09-10T13:07:06Z</time>
      </trkpt>
      <trkpt lat="43.10073" lon="2.02647">
        <ele>338</ele>
        <time>2023-09-10T13:07:07Z</time>
      </trkpt>
      <trkpt lat="43.10072" lon="2.02646">
        <ele>338</ele>
        <time>2023-09-10T13:07:08Z</time>
      </trkpt>
      <trkpt lat="43.1007" lon="2.02645">
        <ele>338</ele>
        <time>2023-09-10T13:07:09Z</time>
      </trkpt>
      <trkpt lat="43.10069" lon="2.02645">
        <ele>338</ele>
        <time>2023-09-10T13:07:10Z</time>
      </trkpt>
      <trkpt lat="43.10068" lon="2.02644">
        <ele>338</ele>
        <time>2023-09-10T13:07:11Z</time>
      </trkpt>
      <trkpt lat="43.10067" lon="2.02644">
        <ele>338</ele>
        <time>2023-09-10T13:07:12Z</time>
      </trkpt>
      <trkpt lat="43.10066" lon="2.02644">
        <ele>338</ele>
        <time>2023-09-10T13:07:13Z</time>
      </trkpt>
      <trkpt lat="43.10065" lon="2.02645">
        <ele>338</ele>
        <time>2023-09-10T13:07:14Z</time>
      </trkpt>
      <trkpt lat="43.10065" lon="2.02645">
        <ele>338</ele>
        <time>2023-09-10T13:07:15Z</time>
      </trkpt>
      <trkpt lat="43.10064" lon="2.02646">
        <ele>338</ele>
        <time>2023-09-10T13:07:16Z</time>
      </trkpt>
      <trkpt lat="43.10063" lon="2.02647">
        <ele>338</ele>
        <time>2023-09-10T13:07:17Z</time>
      </trkpt>
      <trkpt lat="43.10063" lon="2.02648">
        <ele>338</ele>
        <time>2023-09-10T13:07:18Z</time>
      </trkpt>
      <trkpt lat="43.10062" lon="2.0265">
        <ele>338</ele>
        <time>2023-09-10T13:07:19Z</time>
      </trkpt>
      <trkpt lat="43.10062" lon="2.02651">
        <ele>338</ele>
        <time>2023-09-10T13:07:20Z</time>
      </trkpt>
      <trkpt lat="43.10062" lon="2.02653">
        <ele>338</ele>
        <time>2023-09-10T13:07:21Z</time>
      </trkpt>
      <trkpt lat="43.10061" lon="2.02654">
        <ele>338</ele>
        <time>2023-09-10T13:07:22Z</time>
      </trkpt>
      <trkpt lat="43.10061" lon="2.02656">
        <ele>338</ele>
        <time>2023-09-10T13:07:23Z</time>
      </trkpt>
      <trkpt lat="43.10061" lon="2.02657">
        <ele>338</ele>
        <time>2023-09-10T13:07:24Z</time>
      </trkpt>
      <trkpt lat="43.10061" lon="2.02659">
        <ele>338</ele>
        <time>2023-09-10T13:07:25Z</time>
      </trkpt>
      <trkpt lat="43.10061" lon="2.02661">
        <ele>338</ele>
        <time>2023-09-10T13:07:26Z</time>
      </trkpt>
      <trkpt lat="43.10061" lon="2.02662">
        <ele>338</ele>
        <time>2023-09-10T13:07:27Z</time>
      </trkpt>
      <trkpt lat="43.10061" lon="2.02664">
        <ele>338</ele>
        <time>2023-09-10T13:07:28Z</time>
      </trkpt>
      <trkpt lat="43.10061" lon="2.02665">
        <ele>338</ele>
        <time>2023-09-10T13:07:29Z</time>
      </trkpt>
      <trkpt lat="43.10061" lon="2.02667">
        <ele>338</ele>
        <time>2023-09-10T13:07:30Z</time>
      </trkpt>
      <trkpt lat="43.10061" lon="2.02668">
        <ele>339</ele>
        <time>2023-09-10T13:07:31Z</time>
      </trkpt>
      <trkpt lat="43.10061" lon="2.0267">
        <ele>339</ele>
        <time>2023-09-10T13:07:32Z</time>
      </trkpt>
      <trkpt lat="43.10061" lon="2.02672">
        <ele>339</ele>
        <time>2023-09-10T13:07:33Z</time>
      </trkpt>
      <trkpt lat="43.10061" lon="2.02673">
        <ele>339</ele>
        <time>2023-09-10T13:07:34Z</time>
      </trkpt>
      <trkpt lat="43.10061" lon="2.02675">
        <ele>339</ele>
        <time>2023-09-10T13:07:35Z</time>
      </trkpt>
      <trkpt lat="43.10061" lon="2.02677">
        <ele>339</ele>
        <time>2023-09-10T13:07:36Z</time>
      </trkpt>
      <trkpt lat="43.10061" lon="2.02679">
        <ele>339</ele>
        <time>2023-09-10T13:07:37Z</time>
      </trkpt>
      <trkpt lat="43.10061" lon="2.02681">
        <ele>339</ele>
        <time>2023-09-10T13:07:38Z</time>
      </trkpt>
      <trkpt lat="43.10061" lon="2.02683">
        <ele>339</ele>
        <time>2023-09-10T13:07:39Z</time>
      </trkpt>
      <trkpt lat="43.10061" lon="2.02684">
        <ele>339</ele>
        <time>2023-09-10T13:07:40Z</time>
      </trkpt>
      <trkpt lat="43.10061" lon="2.02686">
        <ele>340</ele>
        <time>2023-09-10T13:07:41Z</time>
      </trkpt>
      <trkpt lat="43.10061" lon="2.02688">
        <ele>340</ele>
        <time>2023-09-10T13:07:42Z</time>
      </trkpt>
      <trkpt lat="43.10061" lon="2.02689">
        <ele>340</ele>
        <time>2023-09-10T13:07:43Z</time>
      </trkpt>
      <trkpt lat="43.10061" lon="2.02691">
        <ele>340</ele>
        <time>2023-09-10T13:07:44Z</time>
      </trkpt>
      <trkpt lat="43.10061" lon="2.02693">
        <ele>340</ele>
        <time>2023-09-10T13:07:45Z</time>
      </trkpt>
      <trkpt lat="43.10061" lon="2.02694">
        <ele>340</ele>
        <time>2023-09-10T13:07:46Z</time>
      </trkpt>
      <trkpt lat="43.10061" lon="2.02696">
        <ele>340</ele>
        <time>2023-09-10T13:07:47Z</time>
      </trkpt>
      <trkpt lat="43.10061" lon="2.02698">
        <ele>340</ele>
        <time>2023-09-10T13:07:48Z</time>
      </trkpt>
      <trkpt lat="43.10061" lon="2.02699">
        <ele>340</ele>
        <time>2023-09-10T13:07:49Z</time>
      </trkpt>
      <trkpt lat="43.1006" lon="2.02701">
        <ele>340</ele>
        <time>2023-09-10T13:07:50Z</time>
      </trkpt>
      <trkpt lat="43.1006" lon="2.02703">
        <ele>340</ele>
        <time>2023-09-10T13:07:51Z</time>
      </trkpt>
      <trkpt lat="43.1006" lon="2.02705">
        <ele>340</ele>
        <time>2023-09-10T13:07:52Z</time>
      </trkpt>
      <trkpt lat="43.1006" lon="2.02707">
        <ele>340</ele>
        <time>2023-09-10T13:07:53Z</time>
      </trkpt>
      <trkpt lat="43.1006" lon="2.02709">
        <ele>340</ele>
        <time>2023-09-10T13:07:54Z</time>
      </trkpt>
      <trkpt lat="43.1006" lon="2.0271">
        <ele>340</ele>
        <time>2023-09-10T13:07:55Z</time>
      </trkpt>
      <trkpt lat="43.1006" lon="2.02712">
        <ele>341</ele>
        <time>2023-09-10T13:07:56Z</time>
      </trkpt>
      <trkpt lat="43.1006" lon="2.02714">
        <ele>341</ele>
        <time>2023-09-10T13:07:57Z</time>
      </trkpt>
      <trkpt lat="43.1006" lon="2.02716">
        <ele>341</ele>
        <time>2023-09-10T13:07:58Z</time>
      </trkpt>
      <trkpt lat="43.1006" lon="2.02718">
        <ele>341</ele>
        <time>2023-09-10T13:07:59Z</time>
      </trkpt>
      <trkpt lat="43.1006" lon="2.02719">
        <ele>341</ele>
        <time>2023-09-10T13:08:00Z</time>
      </trkpt>
      <trkpt lat="43.1006" lon="2.02721">
        <ele>341</ele>
        <time>2023-09-10T13:08:01Z</time>
      </trkpt>
      <trkpt lat="43.10059" lon="2.02723">
        <ele>341</ele>
        <time>2023-09-10T13:08:02Z</time>
      </trkpt>
      <trkpt lat="43.10059" lon="2.02725">
        <ele>341</ele>
        <time>2023-09-10T13:08:03Z</time>
      </trkpt>
      <trkpt lat="43.10059" lon="2.02726">
        <ele>341</ele>
        <time>2023-09-10T13:08:04Z</time>
      </trkpt>
      <trkpt lat="43.10059" lon="2.02728">
        <ele>341</ele>
        <time>2023-09-10T13:08:05Z</time>
      </trkpt>
      <trkpt lat="43.10059" lon="2.0273">
        <ele>342</ele>
        <time>2023-09-10T13:08:06Z</time>
      </trkpt>
      <trkpt lat="43.10059" lon="2.02731">
        <ele>342</ele>
        <time>2023-09-10T13:08:07Z</time>
      </trkpt>
      <trkpt lat="43.10059" lon="2.02733">
        <ele>342</ele>
        <time>2023-09-10T13:08:08Z</time>
      </trkpt>
      <trkpt lat="43.10059" lon="2.02735">
        <ele>342</ele>
        <time>2023-09-10T13:08:09Z</time>
      </trkpt>
      <trkpt lat="43.10059" lon="2.02737">
        <ele>342</ele>
        <time>2023-09-10T13:08:10Z</time>
      </trkpt>
      <trkpt lat="43.10059" lon="2.02739">
        <ele>342</ele>
        <time>2023-09-10T13:08:11Z</time>
      </trkpt>
      <trkpt lat="43.10059" lon="2.0274">
        <ele>342</ele>
        <time>2023-09-10T13:08:12Z</time>
      </trkpt>
      <trkpt lat="43.10058" lon="2.02742">
        <ele>342</ele>
        <time>2023-09-10T13:08:13Z</time>
      </trkpt>
      <trkpt lat="43.10058" lon="2.02744">
        <ele>342</ele>
        <time>2023-09-10T13:08:14Z</time>
      </trkpt>
      <trkpt lat="43.10058" lon="2.02746">
        <ele>342</ele>
        <time>2023-09-10T13:08:15Z</time>
      </trkpt>
      <trkpt lat="43.10058" lon="2.02748">
        <ele>342</ele>
        <time>2023-09-10T13:08:16Z</time>
      </trkpt>
      <trkpt lat="43.10058" lon="2.0275">
        <ele>342</ele>
        <time>2023-09-10T13:08:17Z</time>
      </trkpt>
      <trkpt lat="43.10058" lon="2.02752">
        <ele>342</ele>
        <time>2023-09-10T13:08:18Z</time>
      </trkpt>
      <trkpt lat="43.10058" lon="2.02754">
        <ele>342</ele>
        <time>2023-09-10T13:08:19Z</time>
      </trkpt>
      <trkpt lat="43.10058" lon="2.02756">
        <ele>342</ele>
        <time>2023-09-10T13:08:20Z</time>
      </trkpt>
      <trkpt lat="43.10057" lon="2.02758">
        <ele>342</ele>
        <time>2023-09-10T13:08:21Z</time>
      </trkpt>
      <trkpt lat="43.10057" lon="2.02759">
        <ele>342</ele>
        <time>2023-09-10T13:08:22Z</time>
      </trkpt>
      <trkpt lat="43.10057" lon="2.02761">
        <ele>342</ele>
        <time>2023-09-10T13:08:23Z</time>
      </trkpt>
      <trkpt lat="43.10057" lon="2.02763">
        <ele>342</ele>
        <time>2023-09-10T13:08:24Z</time>
      </trkpt>
      <trkpt lat="43.10057" lon="2.02765">
        <ele>342</ele>
        <time>2023-09-10T13:08:25Z</time>
      </trkpt>
      <trkpt lat="43.10057" lon="2.02767">
        <ele>343</ele>
        <time>2023-09-10T13:08:26Z</time>
      </trkpt>
      <trkpt lat="43.10056" lon="2.02768">
        <ele>343</ele>
        <time>2023-09-10T13:08:27Z</time>
      </trkpt>
      <trkpt lat="43.10056" lon="2.0277">
        <ele>343</ele>
        <time>2023-09-10T13:08:28Z</time>
      </trkpt>
      <trkpt lat="43.10056" lon="2.02772">
        <ele>343</ele>
        <time>2023-09-10T13:08:29Z</time>
      </trkpt>
      <trkpt lat="43.10056" lon="2.02774">
        <ele>343</ele>
        <time>2023-09-10T13:08:30Z</time>
      </trkpt>
      <trkpt lat="43.10056" lon="2.02776">
        <ele>343</ele>
        <time>2023-09-10T13:08:31Z</time>
      </trkpt>
      <trkpt lat="43.10056" lon="2.02777">
        <ele>343</ele>
        <time>2023-09-10T13:08:32Z</time>
      </trkpt>
      <trkpt lat="43.10055" lon="2.02779">
        <ele>343</ele>
        <time>2023-09-10T13:08:33Z</time>
      </trkpt>
      <trkpt lat="43.10055" lon="2.02781">
        <ele>343</ele>
        <time>2023-09-10T13:08:34Z</time>
      </trkpt>
      <trkpt lat="43.10055" lon="2.02783">
        <ele>343</ele>
        <time>2023-09-10T13:08:35Z</time>
      </trkpt>
      <trkpt lat="43.10055" lon="2.02784">
        <ele>343</ele>
        <time>2023-09-10T13:08:36Z</time>
      </trkpt>
      <trkpt lat="43.10055" lon="2.02786">
        <ele>343</ele>
        <time>2023-09-10T13:08:37Z</time>
      </trkpt>
      <trkpt lat="43.10055" lon="2.02788">
        <ele>343</ele>
        <time>2023-09-10T13:08:38Z</time>
      </trkpt>
      <trkpt lat="43.10055" lon="2.0279">
        <ele>343</ele>
        <time>2023-09-10T13:08:39Z</time>
      </trkpt>
      <trkpt lat="43.10055" lon="2.02791">
        <ele>343</ele>
        <time>2023-09-10T13:08:40Z</time>
      </trkpt>
      <trkpt lat="43.10055" lon="2.02793">
        <ele>343</ele>
        <time>2023-09-10T13:08:41Z</time>
      </trkpt>
      <trkpt lat="43.10054" lon="2.02794">
        <ele>343</ele>
        <time>2023-09-10T13:08:42Z</time>
      </trkpt>
      <trkpt lat="43.10054" lon="2.02795">
        <ele>343</ele>
        <time>2023-09-10T13:08:43Z</time>
      </trkpt>
      <trkpt lat="43.10054" lon="2.02797">
        <ele>343</ele>
        <time>2023-09-10T13:08:44Z</time>
      </trkpt>
      <trkpt lat="43.10054" lon="2.02798">
        <ele>343</ele>
        <time>2023-09-10T13:08:45Z</time>
      </trkpt>
      <trkpt lat="43.10053" lon="2.02799">
        <ele>343</ele>
        <time>2023-09-10T13:08:46Z</time>
      </trkpt>
      <trkpt lat="43.10053" lon="2.028">
        <ele>343</ele>
        <time>2023-09-10T13:08:47Z</time>
      </trkpt>
      <trkpt lat="43.10053" lon="2.02801">
        <ele>343</ele>
        <time>2023-09-10T13:08:48Z</time>
      </trkpt>
      <trkpt lat="43.10053" lon="2.02802">
        <ele>343</ele>
        <time>2023-09-10T13:08:49Z</time>
      </trkpt>
      <trkpt lat="43.10052" lon="2.02803">
        <ele>343</ele>
        <time>2023-09-10T13:08:50Z</time>
      </trkpt>
      <trkpt lat="43.10052" lon="2.02804">
        <ele>344</ele>
        <time>2023-09-10T13:08:51Z</time>
      </trkpt>
      <trkpt lat="43.10052" lon="2.02806">
        <ele>344</ele>
        <time>2023-09-10T13:08:52Z</time>
      </trkpt>
      <trkpt lat="43.10052" lon="2.02807">
        <ele>344</ele>
        <time>2023-09-10T13:08:53Z</time>
      </trkpt>
      <trkpt lat="43.10052" lon="2.02809">
        <ele>344</ele>
        <time>2023-09-10T13:08:54Z</time>
      </trkpt>
      <trkpt lat="43.10052" lon="2.0281">
        <ele>344</ele>
        <time>2023-09-10T13:08:55Z</time>
      </trkpt>
      <trkpt lat="43.10052" lon="2.02811">
        <ele>344</ele>
        <time>2023-09-10T13:08:56Z</time>
      </trkpt>
      <trkpt lat="43.10052" lon="2.02813">
        <ele>344</ele>
        <time>2023-09-10T13:08:57Z</time>
      </trkpt>
      <trkpt lat="43.10052" lon="2.02814">
        <ele>344</ele>
        <time>2023-09-10T13:08:58Z</time>
      </trkpt>
      <trkpt lat="43.10052" lon="2.02815">
        <ele>344</ele>
        <time>2023-09-10T13:08:59Z</time>
      </trkpt>
      <trkpt lat="43.10052" lon="2.02816">
        <ele>344</ele>
        <time>2023-09-10T13:09:00Z</time>
      </trkpt>
      <trkpt lat="43.10053" lon="2.02817">
        <ele>345</ele>
        <time>2023-09-10T13:09:01Z</time>
      </trkpt>
      <trkpt lat="43.10053" lon="2.02819">
        <ele>345</ele>
        <time>2023-09-10T13:09:02Z</time>
      </trkpt>
      <trkpt lat="43.10053" lon="2.0282">
        <ele>345</ele>
        <time>2023-09-10T13:09:03Z</time>
      </trkpt>
      <trkpt lat="43.10053" lon="2.02822">
        <ele>345</ele>
        <time>2023-09-10T13:09:04Z</time>
      </trkpt>
      <trkpt lat="43.10053" lon="2.02823">
        <ele>345</ele>
        <time>2023-09-10T13:09:05Z</time>
      </trkpt>
      <trkpt lat="43.10053" lon="2.02825">
        <ele>345</ele>
        <time>2023-09-10T13:09:06Z</time>
      </trkpt>
      <trkpt lat="43.10053" lon="2.02826">
        <ele>345</ele>
        <time>2023-09-10T13:09:07Z</time>
      </trkpt>
      <trkpt lat="43.10053" lon="2.02828">
        <ele>345</ele>
        <time>2023-09-10T13:09:08Z</time>
      </trkpt>
      <trkpt lat="43.10053" lon="2.02829">
        <ele>345</ele>
        <time>2023-09-10T13:09:09Z</time>
      </trkpt>
      <trkpt lat="43.10053" lon="2.02831">
        <ele>345</ele>
        <time>2023-09-10T13:09:10Z</time>
      </trkpt>
      <trkpt lat="43.10053" lon="2.02832">
        <ele>346</ele>
        <time>2023-09-10T13:09:11Z</time>
      </trkpt>
      <trkpt lat="43.10053" lon="2.02833">
        <ele>346</ele>
        <time>2023-09-10T13:09:12Z</time>
      </trkpt>
      <trkpt lat="43.10053" lon="2.02835">
        <ele>346</ele>
        <time>2023-09-10T13:09:13Z</time>
      </trkpt>
      <trkpt lat="43.10053" lon="2.02836">
        <ele>346</ele>
        <time>2023-09-10T13:09:14Z</time>
      </trkpt>
      <trkpt lat="43.10053" lon="2.02838">
        <ele>346</ele>
        <time>2023-09-10T13:09:15Z</time>
      </trkpt>
      <trkpt lat="43.10053" lon="2.02839">
        <ele>346</ele>
        <time>2023-09-10T13:09:16Z</time>
      </trkpt>
      <trkpt lat="43.10053" lon="2.02841">
        <ele>346</ele>
        <time>2023-09-10T13:09:17Z</time>
      </trkpt>
      <trkpt lat="43.10053" lon="2.02842">
        <ele>346</ele>
        <time>2023-09-10T13:09:18Z</time>
      </trkpt>
      <trkpt lat="43.10053" lon="2.02844">
        <ele>346</ele>
        <time>2023-09-10T13:09:19Z</time>
      </trkpt>
      <trkpt lat="43.10052" lon="2.02845">
        <ele>346</ele>
        <time>2023-09-10T13:09:20Z</time>
      </trkpt>
      <trkpt lat="43.10052" lon="2.02847">
        <ele>347</ele>
        <time>2023-09-10T13:09:21Z</time>
      </trkpt>
      <trkpt lat="43.10052" lon="2.02848">
        <ele>347</ele>
        <time>2023-09-10T13:09:22Z</time>
      </trkpt>
      <trkpt lat="43.10052" lon="2.0285">
        <ele>347</ele>
        <time>2023-09-10T13:09:23Z</time>
      </trkpt>
      <trkpt lat="43.10052" lon="2.02851">
        <ele>347</ele>
        <time>2023-09-10T13:09:24Z</time>
      </trkpt>
      <trkpt lat="43.10052" lon="2.02853">
        <ele>347</ele>
        <time>2023-09-10T13:09:25Z</time>
      </trkpt>
      <trkpt lat="43.10052" lon="2.02854">
        <ele>347</ele>
        <time>2023-09-10T13:09:26Z</time>
      </trkpt>
      <trkpt lat="43.10052" lon="2.02856">
        <ele>347</ele>
        <time>2023-09-10T13:09:27Z</time>
      </trkpt>
      <trkpt lat="43.10052" lon="2.02857">
        <ele>347</ele>
        <time>2023-09-10T13:09:28Z</time>
      </trkpt>
      <trkpt lat="43.10052" lon="2.02859">
        <ele>347</ele>
        <time>2023-09-10T13:09:29Z</time>
      </trkpt>
      <trkpt lat="43.10052" lon="2.0286">
        <ele>347</ele>
        <time>2023-09-10T13:09:30Z</time>
      </trkpt>
      <trkpt lat="43.10052" lon="2.02862">
        <ele>348</ele>
        <time>2023-09-10T13:09:31Z</time>
      </trkpt>
      <trkpt lat="43.10052" lon="2.02864">
        <ele>348</ele>
        <time>2023-09-10T13:09:32Z</time>
      </trkpt>
      <trkpt lat="43.10051" lon="2.02865">
        <ele>348</ele>
        <time>2023-09-10T13:09:33Z</time>
      </trkpt>
      <trkpt lat="43.10051" lon="2.02867">
        <ele>348</ele>
        <time>2023-09-10T13:09:34Z</time>
      </trkpt>
      <trkpt lat="43.10051" lon="2.02869">
        <ele>348</ele>
        <time>2023-09-10T13:09:35Z</time>
      </trkpt>
      <trkpt lat="43.10051" lon="2.0287">
        <ele>348</ele>
        <time>2023-09-10T13:09:36Z</time>
      </trkpt>
      <trkpt lat="43.10051" lon="2.02872">
        <ele>348</ele>
        <time>2023-09-10T13:09:37Z</time>
      </trkpt>
      <trkpt lat="43.10051" lon="2.02874">
        <ele>348</ele>
        <time>2023-09-10T13:09:38Z</time>
      </trkpt>
      <trkpt lat="43.10051" lon="2.02876">
        <ele>348</ele>
        <time>2023-09-10T13:09:39Z</time>
      </trkpt>
      <trkpt lat="43.10051" lon="2.02877">
        <ele>348</ele>
        <time>2023-09-10T13:09:40Z</time>
      </trkpt>
      <trkpt lat="43.10051" lon="2.02879">
        <ele>349</ele>
        <time>2023-09-10T13:09:41Z</time>
      </trkpt>
      <trkpt lat="43.10051" lon="2.0288">
        <ele>349</ele>
        <time>2023-09-10T13:09:42Z</time>
      </trkpt>
      <trkpt lat="43.10051" lon="2.02882">
        <ele>349</ele>
        <time>2023-09-10T13:09:43Z</time>
      </trkpt>
      <trkpt lat="43.10051" lon="2.02882">
        <ele>349</ele>
        <time>2023-09-10T13:09:44Z</time>
      </trkpt>
      <trkpt lat="43.10051" lon="2.02882">
        <ele>349</ele>
        <time>2023-09-10T13:09:45Z</time>
      </trkpt>
      <trkpt lat="43.10051" lon="2.02883">
        <ele>349</ele>
        <time>2023-09-10T13:09:46Z</time>
      </trkpt>
      <trkpt lat="43.10051" lon="2.02883">
        <ele>349</ele>
        <time>2023-09-10T13:09:47Z</time>
      </trkpt>
      <trkpt lat="43.10051" lon="2.02884">
        <ele>349</ele>
        <time>2023-09-10T13:09:48Z</time>
      </trkpt>
      <trkpt lat="43.1005" lon="2.02884">
        <ele>349</ele>
        <time>2023-09-10T13:09:49Z</time>
      </trkpt>
      <trkpt lat="43.1005" lon="2.02884">
        <ele>349</ele>
        <time>2023-09-10T13:09:50Z</time>
      </trkpt>
      <trkpt lat="43.10049" lon="2.02884">
        <ele>349</ele>
        <time>2023-09-10T13:09:51Z</time>
      </trkpt>
      <trkpt lat="43.10048" lon="2.02883">
        <ele>349</ele>
        <time>2023-09-10T13:09:52Z</time>
      </trkpt>
      <trkpt lat="43.10048" lon="2.02883">
        <ele>349</ele>
        <time>2023-09-10T13:09:53Z</time>
      </trkpt>
      <trkpt lat="43.10048" lon="2.02882">
        <ele>350</ele>
        <time>2023-09-10T13:10:34Z</time>
      </trkpt>
      <trkpt lat="43.10048" lon="2.02882">
        <ele>350</ele>
        <time>2023-09-10T13:10:35Z</time>
      </trkpt>
      <trkpt lat="43.10049" lon="2.02882">
        <ele>350</ele>
        <time>2023-09-10T13:10:36Z</time>
      </trkpt>
      <trkpt lat="43.10049" lon="2.02883">
        <ele>350</ele>
        <time>2023-09-10T13:10:37Z</time>
      </trkpt>
      <trkpt lat="43.10049" lon="2.02883">
        <ele>350</ele>
        <time>2023-09-10T13:10:38Z</time>
      </trkpt>
      <trkpt lat="43.10049" lon="2.02884">
        <ele>350</ele>
        <time>2023-09-10T13:10:39Z</time>
      </trkpt>
      <trkpt lat="43.10049" lon="2.02885">
        <ele>350</ele>
        <time>2023-09-10T13:10:40Z</time>
      </trkpt>
      <trkpt lat="43.10049" lon="2.02887">
        <ele>350</ele>
        <time>2023-09-10T13:10:41Z</time>
      </trkpt>
      <trkpt lat="43.10049" lon="2.02888">
        <ele>350</ele>
        <time>2023-09-10T13:10:42Z</time>
      </trkpt>
      <trkpt lat="43.10049" lon="2.0289">
        <ele>350</ele>
        <time>2023-09-10T13:10:43Z</time>
      </trkpt>
      <trkpt lat="43.10049" lon="2.02891">
        <ele>350</ele>
        <time>2023-09-10T13:10:44Z</time>
      </trkpt>
      <trkpt lat="43.10049" lon="2.02893">
        <ele>350</ele>
        <time>2023-09-10T13:10:45Z</time>
      </trkpt>
      <trkpt lat="43.10049" lon="2.02894">
        <ele>350</ele>
        <time>2023-09-10T13:10:46Z</time>
      </trkpt>
      <trkpt lat="43.10049" lon="2.02896">
        <ele>350</ele>
        <time>2023-09-10T13:10:47Z</time>
      </trkpt>
      <trkpt lat="43.10049" lon="2.02897">
        <ele>350</ele>
        <time>2023-09-10T13:10:48Z</time>
      </trkpt>
      <trkpt lat="43.10049" lon="2.02899">
        <ele>350</ele>
        <time>2023-09-10T13:10:49Z</time>
      </trkpt>
      <trkpt lat="43.10049" lon="2.029">
        <ele>350</ele>
        <time>2023-09-10T13:10:50Z</time>
      </trkpt>
      <trkpt lat="43.10048" lon="2.02902">
        <ele>350</ele>
        <time>2023-09-10T13:10:51Z</time>
      </trkpt>
      <trkpt lat="43.10048" lon="2.02903">
        <ele>350</ele>
        <time>2023-09-10T13:10:52Z</time>
      </trkpt>
      <trkpt lat="43.10048" lon="2.02904">
        <ele>350</ele>
        <time>2023-09-10T13:10:53Z</time>
      </trkpt>
      <trkpt lat="43.10048" lon="2.02906">
        <ele>350</ele>
        <time>2023-09-10T13:10:54Z</time>
      </trkpt>
      <trkpt lat="43.10048" lon="2.02907">
        <ele>350</ele>
        <time>2023-09-10T13:10:55Z</time>
      </trkpt>
      <trkpt lat="43.10047" lon="2.02909">
        <ele>350</ele>
        <time>2023-09-10T13:10:56Z</time>
      </trkpt>
      <trkpt lat="43.10047" lon="2.0291">
        <ele>349</ele>
        <time>2023-09-10T13:10:57Z</time>
      </trkpt>
      <trkpt lat="43.10047" lon="2.02912">
        <ele>349</ele>
        <time>2023-09-10T13:10:58Z</time>
      </trkpt>
      <trkpt lat="43.10047" lon="2.02913">
        <ele>349</ele>
        <time>2023-09-10T13:10:59Z</time>
      </trkpt>
      <trkpt lat="43.10047" lon="2.02915">
        <ele>349</ele>
        <time>2023-09-10T13:11:00Z</time>
      </trkpt>
      <trkpt lat="43.10047" lon="2.02916">
        <ele>349</ele>
        <time>2023-09-10T13:11:01Z</time>
      </trkpt>
      <trkpt lat="43.10046" lon="2.02918">
        <ele>349</ele>
        <time>2023-09-10T13:11:02Z</time>
      </trkpt>
      <trkpt lat="43.10046" lon="2.02919">
        <ele>349</ele>
        <time>2023-09-10T13:11:03Z</time>
      </trkpt>
      <trkpt lat="43.10046" lon="2.0292">
        <ele>349</ele>
        <time>2023-09-10T13:11:04Z</time>
      </trkpt>
      <trkpt lat="43.10046" lon="2.02922">
        <ele>349</ele>
        <time>2023-09-10T13:11:05Z</time>
      </trkpt>
      <trkpt lat="43.10046" lon="2.02923">
        <ele>349</ele>
        <time>2023-09-10T13:11:06Z</time>
      </trkpt>
      <trkpt lat="43.10046" lon="2.02925">
        <ele>348</ele>
        <time>2023-09-10T13:11:07Z</time>
      </trkpt>
      <trkpt lat="43.10046" lon="2.02926">
        <ele>348</ele>
        <time>2023-09-10T13:11:08Z</time>
      </trkpt>
      <trkpt lat="43.10045" lon="2.02927">
        <ele>348</ele>
        <time>2023-09-10T13:11:09Z</time>
      </trkpt>
      <trkpt lat="43.10045" lon="2.02929">
        <ele>348</ele>
        <time>2023-09-10T13:11:10Z</time>
      </trkpt>
      <trkpt lat="43.10045" lon="2.0293">
        <ele>348</ele>
        <time>2023-09-10T13:11:11Z</time>
      </trkpt>
      <trkpt lat="43.10045" lon="2.02931">
        <ele>348</ele>
        <time>2023-09-10T13:11:12Z</time>
      </trkpt>
      <trkpt lat="43.10045" lon="2.02932">
        <ele>348</ele>
        <time>2023-09-10T13:11:13Z</time>
      </trkpt>
      <trkpt lat="43.10045" lon="2.02932">
        <ele>348</ele>
        <time>2023-09-10T13:11:14Z</time>
      </trkpt>
      <trkpt lat="43.10044" lon="2.02933">
        <ele>348</ele>
        <time>2023-09-10T13:11:15Z</time>
      </trkpt>
      <trkpt lat="43.10044" lon="2.02933">
        <ele>348</ele>
        <time>2023-09-10T13:11:16Z</time>
      </trkpt>
      <trkpt lat="43.10044" lon="2.02934">
        <ele>348</ele>
        <time>2023-09-10T13:11:17Z</time>
      </trkpt>
      <trkpt lat="43.10044" lon="2.02935">
        <ele>348</ele>
        <time>2023-09-10T13:11:18Z</time>
      </trkpt>
      <trkpt lat="43.10044" lon="2.02936">
        <ele>348</ele>
        <time>2023-09-10T13:11:19Z</time>
      </trkpt>
      <trkpt lat="43.10044" lon="2.02937">
        <ele>348</ele>
        <time>2023-09-10T13:11:20Z</time>
      </trkpt>
      <trkpt lat="43.10044" lon="2.02938">
        <ele>348</ele>
        <time>2023-09-10T13:11:21Z</time>
      </trkpt>
      <trkpt lat="43.10044" lon="2.02939">
        <ele>348</ele>
        <time>2023-09-10T13:11:22Z</time>
      </trkpt>
      <trkpt lat="43.10044" lon="2.02941">
        <ele>348</ele>
        <time>2023-09-10T13:11:23Z</time>
      </trkpt>
      <trkpt lat="43.10043" lon="2.02942">
        <ele>348</ele>
        <time>2023-09-10T13:11:24Z</time>
      </trkpt>
      <trkpt lat="43.10043" lon="2.02943">
        <ele>348</ele>
        <time>2023-09-10T13:11:25Z</time>
      </trkpt>
      <trkpt lat="43.10043" lon="2.02945">
        <ele>348</ele>
        <time>2023-09-10T13:11:26Z</time>
      </trkpt>
      <trkpt lat="43.10043" lon="2.02946">
        <ele>347</ele>
        <time>2023-09-10T13:11:27Z</time>
      </trkpt>
      <trkpt lat="43.10043" lon="2.02947">
        <ele>347</ele>
        <time>2023-09-10T13:11:28Z</time>
      </trkpt>
      <trkpt lat="43.10042" lon="2.02948">
        <ele>347</ele>
        <time>2023-09-10T13:11:29Z</time>
      </trkpt>
      <trkpt lat="43.10042" lon="2.0295">
        <ele>347</ele>
        <time>2023-09-10T13:11:30Z</time>
      </trkpt>
      <trkpt lat="43.10042" lon="2.02951">
        <ele>347</ele>
        <time>2023-09-10T13:11:31Z</time>
      </trkpt>
      <trkpt lat="43.10042" lon="2.02952">
        <ele>347</ele>
        <time>2023-09-10T13:11:32Z</time>
      </trkpt>
      <trkpt lat="43.10042" lon="2.02954">
        <ele>347</ele>
        <time>2023-09-10T13:11:33Z</time>
      </trkpt>
      <trkpt lat="43.10041" lon="2.02955">
        <ele>347</ele>
        <time>2023-09-10T13:11:34Z</time>
      </trkpt>
      <trkpt lat="43.10041" lon="2.02956">
        <ele>347</ele>
        <time>2023-09-10T13:11:35Z</time>
      </trkpt>
      <trkpt lat="43.10041" lon="2.02958">
        <ele>347</ele>
        <time>2023-09-10T13:11:36Z</time>
      </trkpt>
      <trkpt lat="43.10041" lon="2.02959">
        <ele>347</ele>
        <time>2023-09-10T13:11:37Z</time>
      </trkpt>
      <trkpt lat="43.1004" lon="2.0296">
        <ele>347</ele>
        <time>2023-09-10T13:11:38Z</time>
      </trkpt>
      <trkpt lat="43.1004" lon="2.02962">
        <ele>347</ele>
        <time>2023-09-10T13:11:39Z</time>
      </trkpt>
      <trkpt lat="43.1004" lon="2.02963">
        <ele>347</ele>
        <time>2023-09-10T13:11:40Z</time>
      </trkpt>
      <trkpt lat="43.10039" lon="2.02965">
        <ele>347</ele>
        <time>2023-09-10T13:11:41Z</time>
      </trkpt>
      <trkpt lat="43.10039" lon="2.02966">
        <ele>346</ele>
        <time>2023-09-10T13:11:42Z</time>
      </trkpt>
      <trkpt lat="43.10039" lon="2.02967">
        <ele>346</ele>
        <time>2023-09-10T13:11:43Z</time>
      </trkpt>
      <trkpt lat="43.10039" lon="2.02969">
        <ele>346</ele>
        <time>2023-09-10T13:11:44Z</time>
      </trkpt>
      <trkpt lat="43.10038" lon="2.0297">
        <ele>346</ele>
        <time>2023-09-10T13:11:45Z</time>
      </trkpt>
      <trkpt lat="43.10038" lon="2.02972">
        <ele>346</ele>
        <time>2023-09-10T13:11:46Z</time>
      </trkpt>
      <trkpt lat="43.10038" lon="2.02973">
        <ele>346</ele>
        <time>2023-09-10T13:11:47Z</time>
      </trkpt>
      <trkpt lat="43.10037" lon="2.02974">
        <ele>346</ele>
        <time>2023-09-10T13:11:48Z</time>
      </trkpt>
      <trkpt lat="43.10037" lon="2.02975">
        <ele>346</ele>
        <time>2023-09-10T13:11:49Z</time>
      </trkpt>
      <trkpt lat="43.10037" lon="2.02976">
        <ele>346</ele>
        <time>2023-09-10T13:11:50Z</time>
      </trkpt>
      <trkpt lat="43.10037" lon="2.02978">
        <ele>346</ele>
        <time>2023-09-10T13:11:51Z</time>
      </trkpt>
      <trkpt lat="43.10037" lon="2.02979">
        <ele>346</ele>
        <time>2023-09-10T13:11:52Z</time>
      </trkpt>
      <trkpt lat="43.10036" lon="2.0298">
        <ele>346</ele>
        <time>2023-09-10T13:11:53Z</time>
      </trkpt>
      <trkpt lat="43.10036" lon="2.02981">
        <ele>346</ele>
        <time>2023-09-10T13:11:54Z</time>
      </trkpt>
      <trkpt lat="43.10036" lon="2.02983">
        <ele>346</ele>
        <time>2023-09-10T13:11:55Z</time>
      </trkpt>
      <trkpt lat="43.10036" lon="2.02984">
        <ele>346</ele>
        <time>2023-09-10T13:11:56Z</time>
      </trkpt>
      <trkpt lat="43.10035" lon="2.02986">
        <ele>345</ele>
        <time>2023-09-10T13:11:57Z</time>
      </trkpt>
      <trkpt lat="43.10035" lon="2.02987">
        <ele>345</ele>
        <time>2023-09-10T13:11:58Z</time>
      </trkpt>
      <trkpt lat="43.10035" lon="2.02988">
        <ele>345</ele>
        <time>2023-09-10T13:11:59Z</time>
      </trkpt>
      <trkpt lat="43.10034" lon="2.0299">
        <ele>345</ele>
        <time>2023-09-10T13:12:00Z</time>
      </trkpt>
      <trkpt lat="43.10034" lon="2.02991">
        <ele>345</ele>
        <time>2023-09-10T13:12:01Z</time>
      </trkpt>
      <trkpt lat="43.10034" lon="2.02992">
        <ele>345</ele>
        <time>2023-09-10T13:12:02Z</time>
      </trkpt>
      <trkpt lat="43.10033" lon="2.02994">
        <ele>345</ele>
        <time>2023-09-10T13:12:03Z</time>
      </trkpt>
      <trkpt lat="43.10033" lon="2.02995">
        <ele>345</ele>
        <time>2023-09-10T13:12:04Z</time>
      </trkpt>
      <trkpt lat="43.10033" lon="2.02996">
        <ele>345</ele>
        <time>2023-09-10T13:12:05Z</time>
      </trkpt>
      <trkpt lat="43.10032" lon="2.02998">
        <ele>345</ele>
        <time>2023-09-10T13:12:06Z</time>
      </trkpt>
      <trkpt lat="43.10032" lon="2.02999">
        <ele>344</ele>
        <time>2023-09-10T13:12:07Z</time>
      </trkpt>
      <trkpt lat="43.10031" lon="2.03">
        <ele>344</ele>
        <time>2023-09-10T13:12:08Z</time>
      </trkpt>
      <trkpt lat="43.10031" lon="2.03002">
        <ele>344</ele>
        <time>2023-09-10T13:12:09Z</time>
      </trkpt>
      <trkpt lat="43.1003" lon="2.03003">
        <ele>344</ele>
        <time>2023-09-10T13:12:10Z</time>
      </trkpt>
      <trkpt lat="43.1003" lon="2.03005">
        <ele>344</ele>
        <time>2023-09-10T13:12:11Z</time>
      </trkpt>
      <trkpt lat="43.10029" lon="2.03006">
        <ele>344</ele>
        <time>2023-09-10T13:12:12Z</time>
      </trkpt>
      <trkpt lat="43.10029" lon="2.03007">
        <ele>344</ele>
        <time>2023-09-10T13:12:13Z</time>
      </trkpt>
      <trkpt lat="43.10028" lon="2.03009">
        <ele>344</ele>
        <time>2023-09-10T13:12:14Z</time>
      </trkpt>
      <trkpt lat="43.10028" lon="2.0301">
        <ele>344</ele>
        <time>2023-09-10T13:12:15Z</time>
      </trkpt>
      <trkpt lat="43.10028" lon="2.03012">
        <ele>344</ele>
        <time>2023-09-10T13:12:16Z</time>
      </trkpt>
      <trkpt lat="43.10027" lon="2.03013">
        <ele>343</ele>
        <time>2023-09-10T13:12:17Z</time>
      </trkpt>
      <trkpt lat="43.10027" lon="2.03015">
        <ele>343</ele>
        <time>2023-09-10T13:12:18Z</time>
      </trkpt>
      <trkpt lat="43.10027" lon="2.03016">
        <ele>343</ele>
        <time>2023-09-10T13:12:19Z</time>
      </trkpt>
      <trkpt lat="43.10026" lon="2.03017">
        <ele>343</ele>
        <time>2023-09-10T13:12:20Z</time>
      </trkpt>
      <trkpt lat="43.10026" lon="2.03018">
        <ele>343</ele>
        <time>2023-09-10T13:12:21Z</time>
      </trkpt>
      <trkpt lat="43.10026" lon="2.0302">
        <ele>343</ele>
        <time>2023-09-10T13:12:22Z</time>
      </trkpt>
      <trkpt lat="43.10025" lon="2.03021">
        <ele>343</ele>
        <time>2023-09-10T13:12:23Z</time>
      </trkpt>
      <trkpt lat="43.10025" lon="2.03022">
        <ele>343</ele>
        <time>2023-09-10T13:12:24Z</time>
      </trkpt>
      <trkpt lat="43.10024" lon="2.03024">
        <ele>343</ele>
        <time>2023-09-10T13:12:25Z</time>
      </trkpt>
      <trkpt lat="43.10024" lon="2.03025">
        <ele>343</ele>
        <time>2023-09-10T13:12:26Z</time>
      </trkpt>
      <trkpt lat="43.10023" lon="2.03026">
        <ele>342</ele>
        <time>2023-09-10T13:12:27Z</time>
      </trkpt>
      <trkpt lat="43.10023" lon="2.03028">
        <ele>342</ele>
        <time>2023-09-10T13:12:28Z</time>
      </trkpt>
      <trkpt lat="43.10022" lon="2.03029">
        <ele>342</ele>
        <time>2023-09-10T13:12:29Z</time>
      </trkpt>
      <trkpt lat="43.10022" lon="2.03031">
        <ele>342</ele>
        <time>2023-09-10T13:12:30Z</time>
      </trkpt>
      <trkpt lat="43.10021" lon="2.03032">
        <ele>342</ele>
        <time>2023-09-10T13:12:31Z</time>
      </trkpt>
      <trkpt lat="43.10021" lon="2.03033">
        <ele>342</ele>
        <time>2023-09-10T13:12:32Z</time>
      </trkpt>
      <trkpt lat="43.1002" lon="2.03035">
        <ele>342</ele>
        <time>2023-09-10T13:12:33Z</time>
      </trkpt>
      <trkpt lat="43.10019" lon="2.03036">
        <ele>342</ele>
        <time>2023-09-10T13:12:34Z</time>
      </trkpt>
      <trkpt lat="43.10019" lon="2.03038">
        <ele>342</ele>
        <time>2023-09-10T13:12:35Z</time>
      </trkpt>
      <trkpt lat="43.10018" lon="2.03039">
        <ele>342</ele>
        <time>2023-09-10T13:12:36Z</time>
      </trkpt>
      <trkpt lat="43.10018" lon="2.0304">
        <ele>341</ele>
        <time>2023-09-10T13:12:37Z</time>
      </trkpt>
      <trkpt lat="43.10017" lon="2.03042">
        <ele>341</ele>
        <time>2023-09-10T13:12:38Z</time>
      </trkpt>
      <trkpt lat="43.10016" lon="2.03043">
        <ele>341</ele>
        <time>2023-09-10T13:12:39Z</time>
      </trkpt>
      <trkpt lat="43.10016" lon="2.03045">
        <ele>341</ele>
        <time>2023-09-10T13:12:40Z</time>
      </trkpt>
      <trkpt lat="43.10015" lon="2.03046">
        <ele>341</ele>
        <time>2023-09-10T13:12:41Z</time>
      </trkpt>
      <trkpt lat="43.10015" lon="2.03047">
        <ele>341</ele>
        <time>2023-09-10T13:12:42Z</time>
      </trkpt>
      <trkpt lat="43.10014" lon="2.03048">
        <ele>341</ele>
        <time>2023-09-10T13:12:43Z</time>
      </trkpt>
      <trkpt lat="43.10013" lon="2.0305">
        <ele>341</ele>
        <time>2023-09-10T13:12:44Z</time>
      </trkpt>
      <trkpt lat="43.10013" lon="2.03051">
        <ele>341</ele>
        <time>2023-09-10T13:12:45Z</time>
      </trkpt>
      <trkpt lat="43.10013" lon="2.03052">
        <ele>341</ele>
        <time>2023-09-10T13:12:46Z</time>
      </trkpt>
      <trkpt lat="43.10012" lon="2.03053">
        <ele>340</ele>
        <time>2023-09-10T13:12:47Z</time>
      </trkpt>
      <trkpt lat="43.10012" lon="2.03055">
        <ele>340</ele>
        <time>2023-09-10T13:12:48Z</time>
      </trkpt>
      <trkpt lat="43.10011" lon="2.03056">
        <ele>340</ele>
        <time>2023-09-10T13:12:49Z</time>
      </trkpt>
      <trkpt lat="43.1001" lon="2.03057">
        <ele>340</ele>
        <time>2023-09-10T13:12:50Z</time>
      </trkpt>
      <trkpt lat="43.1001" lon="2.03058">
        <ele>340</ele>
        <time>2023-09-10T13:12:51Z</time>
      </trkpt>
      <trkpt lat="43.10009" lon="2.03059">
        <ele>340</ele>
        <time>2023-09-10T13:12:52Z</time>
      </trkpt>
      <trkpt lat="43.10009" lon="2.0306">
        <ele>340</ele>
        <time>2023-09-10T13:12:53Z</time>
      </trkpt>
      <trkpt lat="43.10008" lon="2.03062">
        <ele>340</ele>
        <time>2023-09-10T13:12:54Z</time>
      </trkpt>
      <trkpt lat="43.10008" lon="2.03063">
        <ele>340</ele>
        <time>2023-09-10T13:12:55Z</time>
      </trkpt>
      <trkpt lat="43.10007" lon="2.03064">
        <ele>340</ele>
        <time>2023-09-10T13:12:56Z</time>
      </trkpt>
      <trkpt lat="43.10006" lon="2.03065">
        <ele>340</ele>
        <time>2023-09-10T13:12:57Z</time>
      </trkpt>
      <trkpt lat="43.10006" lon="2.03067">
        <ele>340</ele>
        <time>2023-09-10T13:12:58Z</time>
      </trkpt>
      <trkpt lat="43.10005" lon="2.03068">
        <ele>340</ele>
        <time>2023-09-10T13:12:59Z</time>
      </trkpt>
      <trkpt lat="43.10004" lon="2.03069">
        <ele>340</ele>
        <time>2023-09-10T13:13:00Z</time>
      </trkpt>
      <trkpt lat="43.10004" lon="2.0307">
        <ele>340</ele>
        <time>2023-09-10T13:13:01Z</time>
      </trkpt>
      <trkpt lat="43.10003" lon="2.03072">
        <ele>339</ele>
        <time>2023-09-10T13:13:02Z</time>
      </trkpt>
      <trkpt lat="43.10003" lon="2.03073">
        <ele>339</ele>
        <time>2023-09-10T13:13:03Z</time>
      </trkpt>
      <trkpt lat="43.10002" lon="2.03074">
        <ele>339</ele>
        <time>2023-09-10T13:13:04Z</time>
      </trkpt>
      <trkpt lat="43.10001" lon="2.03076">
        <ele>339</ele>
        <time>2023-09-10T13:13:05Z</time>
      </trkpt>
      <trkpt lat="43.10001" lon="2.03077">
        <ele>339</ele>
        <time>2023-09-10T13:13:06Z</time>
      </trkpt>
      <trkpt lat="43.1" lon="2.03079">
        <ele>339</ele>
        <time>2023-09-10T13:13:07Z</time>
      </trkpt>
      <trkpt lat="43.1" lon="2.0308">
        <ele>339</ele>
        <time>2023-09-10T13:13:08Z</time>
      </trkpt>
      <trkpt lat="43.09999" lon="2.03081">
        <ele>339</ele>
        <time>2023-09-10T13:13:09Z</time>
      </trkpt>
      <trkpt lat="43.09999" lon="2.03082">
        <ele>339</ele>
        <time>2023-09-10T13:13:10Z</time>
      </trkpt>
      <trkpt lat="43.09998" lon="2.03084">
        <ele>339</ele>
        <time>2023-09-10T13:13:11Z</time>
      </trkpt>
      <trkpt lat="43.09997" lon="2.03085">
        <ele>339</ele>
        <time>2023-09-10T13:13:12Z</time>
      </trkpt>
      <trkpt lat="43.09997" lon="2.03086">
        <ele>339</ele>
        <time>2023-09-10T13:13:13Z</time>
      </trkpt>
      <trkpt lat="43.09996" lon="2.03088">
        <ele>339</ele>
        <time>2023-09-10T13:13:14Z</time>
      </trkpt>
      <trkpt lat="43.09995" lon="2.03089">
        <ele>339</ele>
        <time>2023-09-10T13:13:15Z</time>
      </trkpt>
      <trkpt lat="43.09995" lon="2.0309">
        <ele>339</ele>
        <time>2023-09-10T13:13:16Z</time>
      </trkpt>
      <trkpt lat="43.09994" lon="2.03091">
        <ele>339</ele>
        <time>2023-09-10T13:13:17Z</time>
      </trkpt>
      <trkpt lat="43.09994" lon="2.03092">
        <ele>339</ele>
        <time>2023-09-10T13:13:18Z</time>
      </trkpt>
      <trkpt lat="43.09993" lon="2.03093">
        <ele>339</ele>
        <time>2023-09-10T13:13:19Z</time>
      </trkpt>
      <trkpt lat="43.09993" lon="2.03094">
        <ele>339</ele>
        <time>2023-09-10T13:13:20Z</time>
      </trkpt>
      <trkpt lat="43.09992" lon="2.03095">
        <ele>339</ele>
        <time>2023-09-10T13:13:21Z</time>
      </trkpt>
      <trkpt lat="43.09992" lon="2.03096">
        <ele>338</ele>
        <time>2023-09-10T13:13:22Z</time>
      </trkpt>
      <trkpt lat="43.09991" lon="2.03098">
        <ele>338</ele>
        <time>2023-09-10T13:13:23Z</time>
      </trkpt>
      <trkpt lat="43.0999" lon="2.03099">
        <ele>338</ele>
        <time>2023-09-10T13:13:24Z</time>
      </trkpt>
      <trkpt lat="43.0999" lon="2.031">
        <ele>338</ele>
        <time>2023-09-10T13:13:25Z</time>
      </trkpt>
      <trkpt lat="43.09989" lon="2.03101">
        <ele>338</ele>
        <time>2023-09-10T13:13:26Z</time>
      </trkpt>
      <trkpt lat="43.09989" lon="2.03102">
        <ele>338</ele>
        <time>2023-09-10T13:13:27Z</time>
      </trkpt>
      <trkpt lat="43.09988" lon="2.03103">
        <ele>338</ele>
        <time>2023-09-10T13:13:28Z</time>
      </trkpt>
      <trkpt lat="43.09987" lon="2.03104">
        <ele>338</ele>
        <time>2023-09-10T13:13:29Z</time>
      </trkpt>
      <trkpt lat="43.09987" lon="2.03106">
        <ele>338</ele>
        <time>2023-09-10T13:13:30Z</time>
      </trkpt>
      <trkpt lat="43.09986" lon="2.03107">
        <ele>338</ele>
        <time>2023-09-10T13:13:31Z</time>
      </trkpt>
      <trkpt lat="43.09985" lon="2.03108">
        <ele>338</ele>
        <time>2023-09-10T13:13:32Z</time>
      </trkpt>
      <trkpt lat="43.09985" lon="2.03109">
        <ele>338</ele>
        <time>2023-09-10T13:13:33Z</time>
      </trkpt>
      <trkpt lat="43.09984" lon="2.0311">
        <ele>338</ele>
        <time>2023-09-10T13:13:34Z</time>
      </trkpt>
      <trkpt lat="43.09984" lon="2.03112">
        <ele>338</ele>
        <time>2023-09-10T13:13:35Z</time>
      </trkpt>
      <trkpt lat="43.09983" lon="2.03113">
        <ele>338</ele>
        <time>2023-09-10T13:13:36Z</time>
      </trkpt>
      <trkpt lat="43.09982" lon="2.03114">
        <ele>338</ele>
        <time>2023-09-10T13:13:37Z</time>
      </trkpt>
      <trkpt lat="43.09981" lon="2.03115">
        <ele>338</ele>
        <time>2023-09-10T13:13:38Z</time>
      </trkpt>
      <trkpt lat="43.0998" lon="2.03117">
        <ele>338</ele>
        <time>2023-09-10T13:13:39Z</time>
      </trkpt>
      <trkpt lat="43.0998" lon="2.03118">
        <ele>338</ele>
        <time>2023-09-10T13:13:40Z</time>
      </trkpt>
      <trkpt lat="43.09979" lon="2.03119">
        <ele>338</ele>
        <time>2023-09-10T13:13:41Z</time>
      </trkpt>
      <trkpt lat="43.09978" lon="2.03121">
        <ele>337</ele>
        <time>2023-09-10T13:13:42Z</time>
      </trkpt>
      <trkpt lat="43.09978" lon="2.03122">
        <ele>337</ele>
        <time>2023-09-10T13:13:43Z</time>
      </trkpt>
      <trkpt lat="43.09977" lon="2.03123">
        <ele>337</ele>
        <time>2023-09-10T13:13:44Z</time>
      </trkpt>
      <trkpt lat="43.09977" lon="2.03125">
        <ele>337</ele>
        <time>2023-09-10T13:13:45Z</time>
      </trkpt>
      <trkpt lat="43.09976" lon="2.03126">
        <ele>337</ele>
        <time>2023-09-10T13:13:46Z</time>
      </trkpt>
      <trkpt lat="43.09976" lon="2.03128">
        <ele>337</ele>
        <time>2023-09-10T13:13:47Z</time>
      </trkpt>
      <trkpt lat="43.09975" lon="2.03129">
        <ele>337</ele>
        <time>2023-09-10T13:13:48Z</time>
      </trkpt>
      <trkpt lat="43.09974" lon="2.0313">
        <ele>337</ele>
        <time>2023-09-10T13:13:49Z</time>
      </trkpt>
      <trkpt lat="43.09974" lon="2.03132">
        <ele>337</ele>
        <time>2023-09-10T13:13:50Z</time>
      </trkpt>
      <trkpt lat="43.09973" lon="2.03133">
        <ele>337</ele>
        <time>2023-09-10T13:13:51Z</time>
      </trkpt>
      <trkpt lat="43.09973" lon="2.03134">
        <ele>337</ele>
        <time>2023-09-10T13:13:52Z</time>
      </trkpt>
      <trkpt lat="43.09972" lon="2.03136">
        <ele>337</ele>
        <time>2023-09-10T13:13:53Z</time>
      </trkpt>
      <trkpt lat="43.09972" lon="2.03137">
        <ele>337</ele>
        <time>2023-09-10T13:13:54Z</time>
      </trkpt>
      <trkpt lat="43.09971" lon="2.03138">
        <ele>337</ele>
        <time>2023-09-10T13:13:55Z</time>
      </trkpt>
      <trkpt lat="43.09971" lon="2.03139">
        <ele>337</ele>
        <time>2023-09-10T13:13:56Z</time>
      </trkpt>
      <trkpt lat="43.0997" lon="2.0314">
        <ele>337</ele>
        <time>2023-09-10T13:13:57Z</time>
      </trkpt>
      <trkpt lat="43.0997" lon="2.03142">
        <ele>337</ele>
        <time>2023-09-10T13:13:58Z</time>
      </trkpt>
      <trkpt lat="43.09969" lon="2.03143">
        <ele>337</ele>
        <time>2023-09-10T13:13:59Z</time>
      </trkpt>
      <trkpt lat="43.09968" lon="2.03144">
        <ele>337</ele>
        <time>2023-09-10T13:14:00Z</time>
      </trkpt>
      <trkpt lat="43.09968" lon="2.03145">
        <ele>337</ele>
        <time>2023-09-10T13:14:01Z</time>
      </trkpt>
      <trkpt lat="43.09967" lon="2.03147">
        <ele>337</ele>
        <time>2023-09-10T13:14:02Z</time>
      </trkpt>
      <trkpt lat="43.09967" lon="2.03148">
        <ele>337</ele>
        <time>2023-09-10T13:14:03Z</time>
      </trkpt>
      <trkpt lat="43.09966" lon="2.03149">
        <ele>337</ele>
        <time>2023-09-10T13:14:04Z</time>
      </trkpt>
      <trkpt lat="43.09966" lon="2.03151">
        <ele>337</ele>
        <time>2023-09-10T13:14:05Z</time>
      </trkpt>
      <trkpt lat="43.09965" lon="2.03152">
        <ele>337</ele>
        <time>2023-09-10T13:14:06Z</time>
      </trkpt>
      <trkpt lat="43.09964" lon="2.03153">
        <ele>336</ele>
        <time>2023-09-10T13:14:07Z</time>
      </trkpt>
      <trkpt lat="43.09964" lon="2.03154">
        <ele>336</ele>
        <time>2023-09-10T13:14:08Z</time>
      </trkpt>
      <trkpt lat="43.09963" lon="2.03156">
        <ele>336</ele>
        <time>2023-09-10T13:14:09Z</time>
      </trkpt>
      <trkpt lat="43.09963" lon="2.03157">
        <ele>336</ele>
        <time>2023-09-10T13:14:10Z</time>
      </trkpt>
      <trkpt lat="43.09962" lon="2.03158">
        <ele>336</ele>
        <time>2023-09-10T13:14:11Z</time>
      </trkpt>
      <trkpt lat="43.09962" lon="2.0316">
        <ele>336</ele>
        <time>2023-09-10T13:14:12Z</time>
      </trkpt>
      <trkpt lat="43.09961" lon="2.03161">
        <ele>336</ele>
        <time>2023-09-10T13:14:13Z</time>
      </trkpt>
      <trkpt lat="43.09961" lon="2.03162">
        <ele>336</ele>
        <time>2023-09-10T13:14:14Z</time>
      </trkpt>
      <trkpt lat="43.0996" lon="2.03164">
        <ele>336</ele>
        <time>2023-09-10T13:14:15Z</time>
      </trkpt>
      <trkpt lat="43.0996" lon="2.03165">
        <ele>336</ele>
        <time>2023-09-10T13:14:16Z</time>
      </trkpt>
      <trkpt lat="43.09959" lon="2.03166">
        <ele>336</ele>
        <time>2023-09-10T13:14:17Z</time>
      </trkpt>
      <trkpt lat="43.09958" lon="2.03167">
        <ele>336</ele>
        <time>2023-09-10T13:14:18Z</time>
      </trkpt>
      <trkpt lat="43.09958" lon="2.03168">
        <ele>336</ele>
        <time>2023-09-10T13:14:19Z</time>
      </trkpt>
      <trkpt lat="43.09957" lon="2.03169">
        <ele>336</ele>
        <time>2023-09-10T13:14:20Z</time>
      </trkpt>
      <trkpt lat="43.09956" lon="2.0317">
        <ele>336</ele>
        <time>2023-09-10T13:14:21Z</time>
      </trkpt>
      <trkpt lat="43.09956" lon="2.03171">
        <ele>336</ele>
        <time>2023-09-10T13:14:22Z</time>
      </trkpt>
      <trkpt lat="43.09955" lon="2.03173">
        <ele>336</ele>
        <time>2023-09-10T13:14:23Z</time>
      </trkpt>
      <trkpt lat="43.09954" lon="2.03174">
        <ele>336</ele>
        <time>2023-09-10T13:14:24Z</time>
      </trkpt>
      <trkpt lat="43.09954" lon="2.03175">
        <ele>336</ele>
        <time>2023-09-10T13:14:25Z</time>
      </trkpt>
      <trkpt lat="43.09953" lon="2.03176">
        <ele>336</ele>
        <time>2023-09-10T13:14:26Z</time>
      </trkpt>
      <trkpt lat="43.09952" lon="2.03177">
        <ele>336</ele>
        <time>2023-09-10T13:14:27Z</time>
      </trkpt>
      <trkpt lat="43.09952" lon="2.03178">
        <ele>336</ele>
        <time>2023-09-10T13:14:28Z</time>
      </trkpt>
      <trkpt lat="43.09951" lon="2.03178">
        <ele>336</ele>
        <time>2023-09-10T13:14:29Z</time>
      </trkpt>
      <trkpt lat="43.0995" lon="2.03179">
        <ele>336</ele>
        <time>2023-09-10T13:14:30Z</time>
      </trkpt>
      <trkpt lat="43.09949" lon="2.03179">
        <ele>336</ele>
        <time>2023-09-10T13:14:31Z</time>
      </trkpt>
      <trkpt lat="43.09948" lon="2.03179">
        <ele>336</ele>
        <time>2023-09-10T13:14:32Z</time>
      </trkpt>
      <trkpt lat="43.09948" lon="2.03179">
        <ele>336</ele>
        <time>2023-09-10T13:14:33Z</time>
      </trkpt>
      <trkpt lat="43.09947" lon="2.03178">
        <ele>336</ele>
        <time>2023-09-10T13:14:34Z</time>
      </trkpt>
      <trkpt lat="43.09946" lon="2.03177">
        <ele>336</ele>
        <time>2023-09-10T13:14:35Z</time>
      </trkpt>
      <trkpt lat="43.09945" lon="2.03177">
        <ele>336</ele>
        <time>2023-09-10T13:14:36Z</time>
      </trkpt>
      <trkpt lat="43.09944" lon="2.03176">
        <ele>335</ele>
        <time>2023-09-10T13:14:37Z</time>
      </trkpt>
      <trkpt lat="43.09943" lon="2.03175">
        <ele>335</ele>
        <time>2023-09-10T13:14:38Z</time>
      </trkpt>
      <trkpt lat="43.09942" lon="2.03175">
        <ele>335</ele>
        <time>2023-09-10T13:14:39Z</time>
      </trkpt>
      <trkpt lat="43.09941" lon="2.03174">
        <ele>335</ele>
        <time>2023-09-10T13:14:40Z</time>
      </trkpt>
      <trkpt lat="43.0994" lon="2.03173">
        <ele>335</ele>
        <time>2023-09-10T13:14:41Z</time>
      </trkpt>
      <trkpt lat="43.09939" lon="2.03172">
        <ele>335</ele>
        <time>2023-09-10T13:14:42Z</time>
      </trkpt>
      <trkpt lat="43.09938" lon="2.03172">
        <ele>335</ele>
        <time>2023-09-10T13:14:43Z</time>
      </trkpt>
      <trkpt lat="43.09937" lon="2.03171">
        <ele>335</ele>
        <time>2023-09-10T13:14:44Z</time>
      </trkpt>
      <trkpt lat="43.09936" lon="2.0317">
        <ele>335</ele>
        <time>2023-09-10T13:14:45Z</time>
      </trkpt>
      <trkpt lat="43.09935" lon="2.03169">
        <ele>335</ele>
        <time>2023-09-10T13:14:46Z</time>
      </trkpt>
      <trkpt lat="43.09934" lon="2.03168">
        <ele>335</ele>
        <time>2023-09-10T13:14:47Z</time>
      </trkpt>
      <trkpt lat="43.09933" lon="2.03168">
        <ele>335</ele>
        <time>2023-09-10T13:14:48Z</time>
      </trkpt>
      <trkpt lat="43.09932" lon="2.03167">
        <ele>335</ele>
        <time>2023-09-10T13:14:49Z</time>
      </trkpt>
      <trkpt lat="43.09931" lon="2.03166">
        <ele>335</ele>
        <time>2023-09-10T13:14:50Z</time>
      </trkpt>
      <trkpt lat="43.0993" lon="2.03166">
        <ele>335</ele>
        <time>2023-09-10T13:14:51Z</time>
      </trkpt>
      <trkpt lat="43.09929" lon="2.03165">
        <ele>335</ele>
        <time>2023-09-10T13:14:52Z</time>
      </trkpt>
      <trkpt lat="43.09928" lon="2.03165">
        <ele>335</ele>
        <time>2023-09-10T13:14:53Z</time>
      </trkpt>
      <trkpt lat="43.09927" lon="2.03165">
        <ele>335</ele>
        <time>2023-09-10T13:14:54Z</time>
      </trkpt>
      <trkpt lat="43.09926" lon="2.03164">
        <ele>335</ele>
        <time>2023-09-10T13:14:55Z</time>
      </trkpt>
      <trkpt lat="43.09925" lon="2.03164">
        <ele>335</ele>
        <time>2023-09-10T13:14:56Z</time>
      </trkpt>
      <trkpt lat="43.09924" lon="2.03163">
        <ele>335</ele>
        <time>2023-09-10T13:14:57Z</time>
      </trkpt>
      <trkpt lat="43.09923" lon="2.03162">
        <ele>335</ele>
        <time>2023-09-10T13:14:58Z</time>
      </trkpt>
      <trkpt lat="43.09922" lon="2.03162">
        <ele>335</ele>
        <time>2023-09-10T13:14:59Z</time>
      </trkpt>
      <trkpt lat="43.09921" lon="2.03161">
        <ele>335</ele>
        <time>2023-09-10T13:15:00Z</time>
      </trkpt>
      <trkpt lat="43.0992" lon="2.03161">
        <ele>335</ele>
        <time>2023-09-10T13:15:01Z</time>
      </trkpt>
      <trkpt lat="43.09919" lon="2.03161">
        <ele>334</ele>
        <time>2023-09-10T13:15:02Z</time>
      </trkpt>
      <trkpt lat="43.09918" lon="2.0316">
        <ele>334</ele>
        <time>2023-09-10T13:15:03Z</time>
      </trkpt>
      <trkpt lat="43.09917" lon="2.03159">
        <ele>334</ele>
        <time>2023-09-10T13:15:04Z</time>
      </trkpt>
      <trkpt lat="43.09916" lon="2.03159">
        <ele>334</ele>
        <time>2023-09-10T13:15:05Z</time>
      </trkpt>
      <trkpt lat="43.09915" lon="2.03158">
        <ele>334</ele>
        <time>2023-09-10T13:15:06Z</time>
      </trkpt>
      <trkpt lat="43.09915" lon="2.03157">
        <ele>334</ele>
        <time>2023-09-10T13:15:07Z</time>
      </trkpt>
      <trkpt lat="43.09914" lon="2.03157">
        <ele>334</ele>
        <time>2023-09-10T13:15:08Z</time>
      </trkpt>
      <trkpt lat="43.09913" lon="2.03156">
        <ele>334</ele>
        <time>2023-09-10T13:15:09Z</time>
      </trkpt>
      <trkpt lat="43.09912" lon="2.03156">
        <ele>334</ele>
        <time>2023-09-10T13:15:10Z</time>
      </trkpt>
      <trkpt lat="43.09911" lon="2.03155">
        <ele>334</ele>
        <time>2023-09-10T13:15:11Z</time>
      </trkpt>
      <trkpt lat="43.0991" lon="2.03154">
        <ele>334</ele>
        <time>2023-09-10T13:15:12Z</time>
      </trkpt>
      <trkpt lat="43.09909" lon="2.03154">
        <ele>334</ele>
        <time>2023-09-10T13:15:13Z</time>
      </trkpt>
      <trkpt lat="43.09909" lon="2.03153">
        <ele>334</ele>
        <time>2023-09-10T13:15:14Z</time>
      </trkpt>
      <trkpt lat="43.09908" lon="2.03153">
        <ele>334</ele>
        <time>2023-09-10T13:15:15Z</time>
      </trkpt>
      <trkpt lat="43.09907" lon="2.03152">
        <ele>334</ele>
        <time>2023-09-10T13:15:16Z</time>
      </trkpt>
      <trkpt lat="43.09906" lon="2.03152">
        <ele>333</ele>
        <time>2023-09-10T13:15:17Z</time>
      </trkpt>
      <trkpt lat="43.09905" lon="2.03151">
        <ele>333</ele>
        <time>2023-09-10T13:15:18Z</time>
      </trkpt>
      <trkpt lat="43.09904" lon="2.0315">
        <ele>333</ele>
        <time>2023-09-10T13:15:19Z</time>
      </trkpt>
      <trkpt lat="43.09903" lon="2.0315">
        <ele>333</ele>
        <time>2023-09-10T13:15:20Z</time>
      </trkpt>
      <trkpt lat="43.09902" lon="2.03149">
        <ele>333</ele>
        <time>2023-09-10T13:15:21Z</time>
      </trkpt>
      <trkpt lat="43.09901" lon="2.03149">
        <ele>333</ele>
        <time>2023-09-10T13:15:22Z</time>
      </trkpt>
      <trkpt lat="43.099" lon="2.03148">
        <ele>333</ele>
        <time>2023-09-10T13:15:23Z</time>
      </trkpt>
      <trkpt lat="43.09899" lon="2.03147">
        <ele>333</ele>
        <time>2023-09-10T13:15:24Z</time>
      </trkpt>
      <trkpt lat="43.09898" lon="2.03147">
        <ele>333</ele>
        <time>2023-09-10T13:15:25Z</time>
      </trkpt>
      <trkpt lat="43.09897" lon="2.03146">
        <ele>333</ele>
        <time>2023-09-10T13:15:26Z</time>
      </trkpt>
      <trkpt lat="43.09896" lon="2.03145">
        <ele>332</ele>
        <time>2023-09-10T13:15:27Z</time>
      </trkpt>
      <trkpt lat="43.09895" lon="2.03145">
        <ele>332</ele>
        <time>2023-09-10T13:15:28Z</time>
      </trkpt>
      <trkpt lat="43.09894" lon="2.03144">
        <ele>332</ele>
        <time>2023-09-10T13:15:29Z</time>
      </trkpt>
      <trkpt lat="43.09893" lon="2.03144">
        <ele>332</ele>
        <time>2023-09-10T13:15:30Z</time>
      </trkpt>
      <trkpt lat="43.09892" lon="2.03144">
        <ele>332</ele>
        <time>2023-09-10T13:15:31Z</time>
      </trkpt>
      <trkpt lat="43.09891" lon="2.03143">
        <ele>332</ele>
        <time>2023-09-10T13:15:32Z</time>
      </trkpt>
      <trkpt lat="43.09889" lon="2.03143">
        <ele>332</ele>
        <time>2023-09-10T13:15:33Z</time>
      </trkpt>
      <trkpt lat="43.09888" lon="2.03142">
        <ele>332</ele>
        <time>2023-09-10T13:15:34Z</time>
      </trkpt>
      <trkpt lat="43.09887" lon="2.03142">
        <ele>332</ele>
        <time>2023-09-10T13:15:35Z</time>
      </trkpt>
      <trkpt lat="43.09886" lon="2.03141">
        <ele>332</ele>
        <time>2023-09-10T13:15:36Z</time>
      </trkpt>
      <trkpt lat="43.09885" lon="2.03141">
        <ele>332</ele>
        <time>2023-09-10T13:15:37Z</time>
      </trkpt>
      <trkpt lat="43.09884" lon="2.0314">
        <ele>332</ele>
        <time>2023-09-10T13:15:38Z</time>
      </trkpt>
      <trkpt lat="43.09883" lon="2.03139">
        <ele>332</ele>
        <time>2023-09-10T13:15:39Z</time>
      </trkpt>
      <trkpt lat="43.09882" lon="2.03139">
        <ele>332</ele>
        <time>2023-09-10T13:15:40Z</time>
      </trkpt>
      <trkpt lat="43.09881" lon="2.03138">
        <ele>332</ele>
        <time>2023-09-10T13:15:41Z</time>
      </trkpt>
      <trkpt lat="43.0988" lon="2.03137">
        <ele>331</ele>
        <time>2023-09-10T13:15:42Z</time>
      </trkpt>
      <trkpt lat="43.09879" lon="2.03137">
        <ele>331</ele>
        <time>2023-09-10T13:15:43Z</time>
      </trkpt>
      <trkpt lat="43.09878" lon="2.03136">
        <ele>331</ele>
        <time>2023-09-10T13:15:44Z</time>
      </trkpt>
      <trkpt lat="43.09877" lon="2.03136">
        <ele>331</ele>
        <time>2023-09-10T13:15:45Z</time>
      </trkpt>
      <trkpt lat="43.09876" lon="2.03135">
        <ele>331</ele>
        <time>2023-09-10T13:15:46Z</time>
      </trkpt>
      <trkpt lat="43.09875" lon="2.03135">
        <ele>331</ele>
        <time>2023-09-10T13:15:47Z</time>
      </trkpt>
      <trkpt lat="43.09874" lon="2.03135">
        <ele>331</ele>
        <time>2023-09-10T13:15:48Z</time>
      </trkpt>
      <trkpt lat="43.09873" lon="2.03134">
        <ele>331</ele>
        <time>2023-09-10T13:15:49Z</time>
      </trkpt>
      <trkpt lat="43.09872" lon="2.03133">
        <ele>331</ele>
        <time>2023-09-10T13:15:50Z</time>
      </trkpt>
      <trkpt lat="43.09871" lon="2.03133">
        <ele>331</ele>
        <time>2023-09-10T13:15:51Z</time>
      </trkpt>
      <trkpt lat="43.0987" lon="2.03132">
        <ele>331</ele>
        <time>2023-09-10T13:15:52Z</time>
      </trkpt>
      <trkpt lat="43.09869" lon="2.03132">
        <ele>331</ele>
        <time>2023-09-10T13:15:53Z</time>
      </trkpt>
      <trkpt lat="43.09868" lon="2.03131">
        <ele>331</ele>
        <time>2023-09-10T13:15:54Z</time>
      </trkpt>
      <trkpt lat="43.09867" lon="2.0313">
        <ele>331</ele>
        <time>2023-09-10T13:15:55Z</time>
      </trkpt>
      <trkpt lat="43.09866" lon="2.0313">
        <ele>331</ele>
        <time>2023-09-10T13:15:56Z</time>
      </trkpt>
      <trkpt lat="43.09865" lon="2.03129">
        <ele>331</ele>
        <time>2023-09-10T13:15:57Z</time>
      </trkpt>
      <trkpt lat="43.09864" lon="2.03129">
        <ele>331</ele>
        <time>2023-09-10T13:15:58Z</time>
      </trkpt>
      <trkpt lat="43.09863" lon="2.03129">
        <ele>331</ele>
        <time>2023-09-10T13:15:59Z</time>
      </trkpt>
      <trkpt lat="43.09862" lon="2.03128">
        <ele>331</ele>
        <time>2023-09-10T13:16:00Z</time>
      </trkpt>
      <trkpt lat="43.09861" lon="2.03128">
        <ele>331</ele>
        <time>2023-09-10T13:16:01Z</time>
      </trkpt>
      <trkpt lat="43.0986" lon="2.03127">
        <ele>330</ele>
        <time>2023-09-10T13:16:02Z</time>
      </trkpt>
      <trkpt lat="43.09859" lon="2.03127">
        <ele>330</ele>
        <time>2023-09-10T13:16:03Z</time>
      </trkpt>
      <trkpt lat="43.09858" lon="2.03126">
        <ele>330</ele>
        <time>2023-09-10T13:16:04Z</time>
      </trkpt>
      <trkpt lat="43.09857" lon="2.03125">
        <ele>330</ele>
        <time>2023-09-10T13:16:05Z</time>
      </trkpt>
      <trkpt lat="43.09856" lon="2.03125">
        <ele>330</ele>
        <time>2023-09-10T13:16:06Z</time>
      </trkpt>
      <trkpt lat="43.09855" lon="2.03124">
        <ele>330</ele>
        <time>2023-09-10T13:16:07Z</time>
      </trkpt>
      <trkpt lat="43.09854" lon="2.03124">
        <ele>330</ele>
        <time>2023-09-10T13:16:08Z</time>
      </trkpt>
      <trkpt lat="43.09853" lon="2.03123">
        <ele>330</ele>
        <time>2023-09-10T13:16:09Z</time>
      </trkpt>
      <trkpt lat="43.09852" lon="2.03122">
        <ele>330</ele>
        <time>2023-09-10T13:16:10Z</time>
      </trkpt>
      <trkpt lat="43.09852" lon="2.03122">
        <ele>330</ele>
        <time>2023-09-10T13:16:11Z</time>
      </trkpt>
      <trkpt lat="43.09851" lon="2.03121">
        <ele>329</ele>
        <time>2023-09-10T13:16:12Z</time>
      </trkpt>
      <trkpt lat="43.0985" lon="2.0312">
        <ele>329</ele>
        <time>2023-09-10T13:16:13Z</time>
      </trkpt>
      <trkpt lat="43.09849" lon="2.0312">
        <ele>329</ele>
        <time>2023-09-10T13:16:14Z</time>
      </trkpt>
      <trkpt lat="43.09848" lon="2.03119">
        <ele>329</ele>
        <time>2023-09-10T13:16:15Z</time>
      </trkpt>
      <trkpt lat="43.09847" lon="2.03118">
        <ele>329</ele>
        <time>2023-09-10T13:16:16Z</time>
      </trkpt>
      <trkpt lat="43.09846" lon="2.03118">
        <ele>329</ele>
        <time>2023-09-10T13:16:17Z</time>
      </trkpt>
      <trkpt lat="43.09845" lon="2.03117">
        <ele>329</ele>
        <time>2023-09-10T13:16:18Z</time>
      </trkpt>
      <trkpt lat="43.09844" lon="2.03116">
        <ele>329</ele>
        <time>2023-09-10T13:16:19Z</time>
      </trkpt>
      <trkpt lat="43.09843" lon="2.03115">
        <ele>329</ele>
        <time>2023-09-10T13:16:20Z</time>
      </trkpt>
      <trkpt lat="43.09842" lon="2.03115">
        <ele>329</ele>
        <time>2023-09-10T13:16:21Z</time>
      </trkpt>
      <trkpt lat="43.09841" lon="2.03114">
        <ele>329</ele>
        <time>2023-09-10T13:16:22Z</time>
      </trkpt>
      <trkpt lat="43.0984" lon="2.03113">
        <ele>329</ele>
        <time>2023-09-10T13:16:23Z</time>
      </trkpt>
      <trkpt lat="43.09839" lon="2.03113">
        <ele>329</ele>
        <time>2023-09-10T13:16:24Z</time>
      </trkpt>
      <trkpt lat="43.09838" lon="2.03113">
        <ele>329</ele>
        <time>2023-09-10T13:16:25Z</time>
      </trkpt>
      <trkpt lat="43.09837" lon="2.03112">
        <ele>329</ele>
        <time>2023-09-10T13:16:26Z</time>
      </trkpt>
      <trkpt lat="43.09836" lon="2.03112">
        <ele>328</ele>
        <time>2023-09-10T13:16:27Z</time>
      </trkpt>
      <trkpt lat="43.09835" lon="2.03111">
        <ele>328</ele>
        <time>2023-09-10T13:16:28Z</time>
      </trkpt>
      <trkpt lat="43.09834" lon="2.03111">
        <ele>328</ele>
        <time>2023-09-10T13:16:29Z</time>
      </trkpt>
      <trkpt lat="43.09833" lon="2.0311">
        <ele>328</ele>
        <time>2023-09-10T13:16:30Z</time>
      </trkpt>
      <trkpt lat="43.09832" lon="2.0311">
        <ele>328</ele>
        <time>2023-09-10T13:16:31Z</time>
      </trkpt>
      <trkpt lat="43.09831" lon="2.0311">
        <ele>328</ele>
        <time>2023-09-10T13:16:32Z</time>
      </trkpt>
      <trkpt lat="43.0983" lon="2.03109">
        <ele>328</ele>
        <time>2023-09-10T13:16:33Z</time>
      </trkpt>
      <trkpt lat="43.09829" lon="2.03109">
        <ele>328</ele>
        <time>2023-09-10T13:16:34Z</time>
      </trkpt>
      <trkpt lat="43.09829" lon="2.03108">
        <ele>328</ele>
        <time>2023-09-10T13:16:35Z</time>
      </trkpt>
      <trkpt lat="43.09828" lon="2.03107">
        <ele>328</ele>
        <time>2023-09-10T13:16:36Z</time>
      </trkpt>
      <trkpt lat="43.09827" lon="2.03106">
        <ele>327</ele>
        <time>2023-09-10T13:16:37Z</time>
      </trkpt>
      <trkpt lat="43.09826" lon="2.03106">
        <ele>327</ele>
        <time>2023-09-10T13:16:38Z</time>
      </trkpt>
      <trkpt lat="43.09825" lon="2.03105">
        <ele>327</ele>
        <time>2023-09-10T13:16:39Z</time>
      </trkpt>
      <trkpt lat="43.09824" lon="2.03105">
        <ele>327</ele>
        <time>2023-09-10T13:16:40Z</time>
      </trkpt>
      <trkpt lat="43.09823" lon="2.03104">
        <ele>327</ele>
        <time>2023-09-10T13:16:41Z</time>
      </trkpt>
      <trkpt lat="43.09822" lon="2.03103">
        <ele>327</ele>
        <time>2023-09-10T13:16:42Z</time>
      </trkpt>
      <trkpt lat="43.09821" lon="2.03103">
        <ele>327</ele>
        <time>2023-09-10T13:16:43Z</time>
      </trkpt>
      <trkpt lat="43.0982" lon="2.03102">
        <ele>327</ele>
        <time>2023-09-10T13:16:44Z</time>
      </trkpt>
      <trkpt lat="43.09819" lon="2.03102">
        <ele>327</ele>
        <time>2023-09-10T13:16:45Z</time>
      </trkpt>
      <trkpt lat="43.09818" lon="2.03101">
        <ele>327</ele>
        <time>2023-09-10T13:16:46Z</time>
      </trkpt>
      <trkpt lat="43.09817" lon="2.031">
        <ele>326</ele>
        <time>2023-09-10T13:16:47Z</time>
      </trkpt>
      <trkpt lat="43.09816" lon="2.031">
        <ele>326</ele>
        <time>2023-09-10T13:16:48Z</time>
      </trkpt>
      <trkpt lat="43.09815" lon="2.03099">
        <ele>326</ele>
        <time>2023-09-10T13:16:49Z</time>
      </trkpt>
      <trkpt lat="43.09814" lon="2.03098">
        <ele>326</ele>
        <time>2023-09-10T13:16:50Z</time>
      </trkpt>
      <trkpt lat="43.09813" lon="2.03098">
        <ele>326</ele>
        <time>2023-09-10T13:16:51Z</time>
      </trkpt>
      <trkpt lat="43.09812" lon="2.03097">
        <ele>326</ele>
        <time>2023-09-10T13:16:52Z</time>
      </trkpt>
      <trkpt lat="43.09811" lon="2.03096">
        <ele>326</ele>
        <time>2023-09-10T13:16:53Z</time>
      </trkpt>
      <trkpt lat="43.0981" lon="2.03096">
        <ele>326</ele>
        <time>2023-09-10T13:16:54Z</time>
      </trkpt>
      <trkpt lat="43.09809" lon="2.03095">
        <ele>326</ele>
        <time>2023-09-10T13:16:55Z</time>
      </trkpt>
      <trkpt lat="43.09808" lon="2.03095">
        <ele>326</ele>
        <time>2023-09-10T13:16:56Z</time>
      </trkpt>
      <trkpt lat="43.09807" lon="2.03094">
        <ele>326</ele>
        <time>2023-09-10T13:16:57Z</time>
      </trkpt>
      <trkpt lat="43.09806" lon="2.03094">
        <ele>326</ele>
        <time>2023-09-10T13:16:58Z</time>
      </trkpt>
      <trkpt lat="43.09805" lon="2.03094">
        <ele>326</ele>
        <time>2023-09-10T13:16:59Z</time>
      </trkpt>
      <trkpt lat="43.09804" lon="2.03093">
        <ele>326</ele>
        <time>2023-09-10T13:17:00Z</time>
      </trkpt>
      <trkpt lat="43.09803" lon="2.03093">
        <ele>326</ele>
        <time>2023-09-10T13:17:01Z</time>
      </trkpt>
      <trkpt lat="43.09802" lon="2.03092">
        <ele>326</ele>
        <time>2023-09-10T13:17:02Z</time>
      </trkpt>
      <trkpt lat="43.09801" lon="2.03092">
        <ele>326</ele>
        <time>2023-09-10T13:17:03Z</time>
      </trkpt>
      <trkpt lat="43.09799" lon="2.03091">
        <ele>326</ele>
        <time>2023-09-10T13:17:04Z</time>
      </trkpt>
      <trkpt lat="43.09798" lon="2.0309">
        <ele>326</ele>
        <time>2023-09-10T13:17:05Z</time>
      </trkpt>
      <trkpt lat="43.09797" lon="2.0309">
        <ele>326</ele>
        <time>2023-09-10T13:17:06Z</time>
      </trkpt>
      <trkpt lat="43.09796" lon="2.03089">
        <ele>326</ele>
        <time>2023-09-10T13:17:07Z</time>
      </trkpt>
      <trkpt lat="43.09795" lon="2.03088">
        <ele>326</ele>
        <time>2023-09-10T13:17:08Z</time>
      </trkpt>
      <trkpt lat="43.09794" lon="2.03088">
        <ele>326</ele>
        <time>2023-09-10T13:17:09Z</time>
      </trkpt>
      <trkpt lat="43.09793" lon="2.03087">
        <ele>326</ele>
        <time>2023-09-10T13:17:10Z</time>
      </trkpt>
      <trkpt lat="43.09792" lon="2.03086">
        <ele>326</ele>
        <time>2023-09-10T13:17:11Z</time>
      </trkpt>
      <trkpt lat="43.09791" lon="2.03086">
        <ele>325</ele>
        <time>2023-09-10T13:17:12Z</time>
      </trkpt>
      <trkpt lat="43.0979" lon="2.03085">
        <ele>325</ele>
        <time>2023-09-10T13:17:13Z</time>
      </trkpt>
      <trkpt lat="43.09789" lon="2.03085">
        <ele>325</ele>
        <time>2023-09-10T13:17:14Z</time>
      </trkpt>
      <trkpt lat="43.09788" lon="2.03084">
        <ele>325</ele>
        <time>2023-09-10T13:17:15Z</time>
      </trkpt>
      <trkpt lat="43.09787" lon="2.03084">
        <ele>325</ele>
        <time>2023-09-10T13:17:16Z</time>
      </trkpt>
      <trkpt lat="43.09786" lon="2.03083">
        <ele>325</ele>
        <time>2023-09-10T13:17:17Z</time>
      </trkpt>
      <trkpt lat="43.09785" lon="2.03083">
        <ele>325</ele>
        <time>2023-09-10T13:17:18Z</time>
      </trkpt>
      <trkpt lat="43.09784" lon="2.03083">
        <ele>325</ele>
        <time>2023-09-10T13:17:19Z</time>
      </trkpt>
      <trkpt lat="43.09783" lon="2.03082">
        <ele>325</ele>
        <time>2023-09-10T13:17:20Z</time>
      </trkpt>
      <trkpt lat="43.09782" lon="2.03082">
        <ele>326</ele>
        <time>2023-09-10T13:17:21Z</time>
      </trkpt>
      <trkpt lat="43.0978" lon="2.03082">
        <ele>326</ele>
        <time>2023-09-10T13:17:22Z</time>
      </trkpt>
      <trkpt lat="43.09779" lon="2.03081">
        <ele>326</ele>
        <time>2023-09-10T13:17:23Z</time>
      </trkpt>
      <trkpt lat="43.09778" lon="2.03081">
        <ele>326</ele>
        <time>2023-09-10T13:17:24Z</time>
      </trkpt>
      <trkpt lat="43.09777" lon="2.0308">
        <ele>326</ele>
        <time>2023-09-10T13:17:25Z</time>
      </trkpt>
      <trkpt lat="43.09776" lon="2.0308">
        <ele>326</ele>
        <time>2023-09-10T13:17:26Z</time>
      </trkpt>
      <trkpt lat="43.09775" lon="2.03079">
        <ele>326</ele>
        <time>2023-09-10T13:17:27Z</time>
      </trkpt>
      <trkpt lat="43.09774" lon="2.03079">
        <ele>326</ele>
        <time>2023-09-10T13:17:28Z</time>
      </trkpt>
      <trkpt lat="43.09773" lon="2.03078">
        <ele>326</ele>
        <time>2023-09-10T13:17:29Z</time>
      </trkpt>
      <trkpt lat="43.09772" lon="2.03078">
        <ele>326</ele>
        <time>2023-09-10T13:17:30Z</time>
      </trkpt>
      <trkpt lat="43.09771" lon="2.03078">
        <ele>326</ele>
        <time>2023-09-10T13:17:31Z</time>
      </trkpt>
      <trkpt lat="43.0977" lon="2.03077">
        <ele>326</ele>
        <time>2023-09-10T13:17:32Z</time>
      </trkpt>
      <trkpt lat="43.09769" lon="2.03077">
        <ele>326</ele>
        <time>2023-09-10T13:17:33Z</time>
      </trkpt>
      <trkpt lat="43.09768" lon="2.03076">
        <ele>326</ele>
        <time>2023-09-10T13:17:34Z</time>
      </trkpt>
      <trkpt lat="43.09768" lon="2.03076">
        <ele>326</ele>
        <time>2023-09-10T13:17:35Z</time>
      </trkpt>
      <trkpt lat="43.09767" lon="2.03075">
        <ele>326</ele>
        <time>2023-09-10T13:17:36Z</time>
      </trkpt>
      <trkpt lat="43.09766" lon="2.03075">
        <ele>326</ele>
        <time>2023-09-10T13:17:37Z</time>
      </trkpt>
      <trkpt lat="43.09765" lon="2.03074">
        <ele>326</ele>
        <time>2023-09-10T13:17:38Z</time>
      </trkpt>
      <trkpt lat="43.09765" lon="2.03074">
        <ele>326</ele>
        <time>2023-09-10T13:17:39Z</time>
      </trkpt>
      <trkpt lat="43.09764" lon="2.03073">
        <ele>326</ele>
        <time>2023-09-10T13:17:40Z</time>
      </trkpt>
      <trkpt lat="43.09763" lon="2.03073">
        <ele>327</ele>
        <time>2023-09-10T13:17:41Z</time>
      </trkpt>
      <trkpt lat="43.09762" lon="2.03072">
        <ele>327</ele>
        <time>2023-09-10T13:17:42Z</time>
      </trkpt>
      <trkpt lat="43.09762" lon="2.03072">
        <ele>327</ele>
        <time>2023-09-10T13:17:43Z</time>
      </trkpt>
      <trkpt lat="43.09761" lon="2.03072">
        <ele>327</ele>
        <time>2023-09-10T13:17:44Z</time>
      </trkpt>
      <trkpt lat="43.0976" lon="2.03072">
        <ele>327</ele>
        <time>2023-09-10T13:17:45Z</time>
      </trkpt>
      <trkpt lat="43.0976" lon="2.03071">
        <ele>328</ele>
        <time>2023-09-10T13:17:46Z</time>
      </trkpt>
      <trkpt lat="43.09759" lon="2.03071">
        <ele>328</ele>
        <time>2023-09-10T13:17:47Z</time>
      </trkpt>
      <trkpt lat="43.09758" lon="2.03071">
        <ele>328</ele>
        <time>2023-09-10T13:17:48Z</time>
      </trkpt>
      <trkpt lat="43.09757" lon="2.0307">
        <ele>328</ele>
        <time>2023-09-10T13:17:49Z</time>
      </trkpt>
      <trkpt lat="43.09756" lon="2.0307">
        <ele>328</ele>
        <time>2023-09-10T13:17:50Z</time>
      </trkpt>
      <trkpt lat="43.09755" lon="2.03069">
        <ele>328</ele>
        <time>2023-09-10T13:17:51Z</time>
      </trkpt>
      <trkpt lat="43.09755" lon="2.03068">
        <ele>328</ele>
        <time>2023-09-10T13:17:52Z</time>
      </trkpt>
      <trkpt lat="43.09754" lon="2.03068">
        <ele>328</ele>
        <time>2023-09-10T13:17:53Z</time>
      </trkpt>
      <trkpt lat="43.09753" lon="2.03067">
        <ele>328</ele>
        <time>2023-09-10T13:17:54Z</time>
      </trkpt>
      <trkpt lat="43.09752" lon="2.03067">
        <ele>328</ele>
        <time>2023-09-10T13:17:55Z</time>
      </trkpt>
      <trkpt lat="43.09751" lon="2.03066">
        <ele>329</ele>
        <time>2023-09-10T13:17:56Z</time>
      </trkpt>
      <trkpt lat="43.09751" lon="2.03066">
        <ele>329</ele>
        <time>2023-09-10T13:17:57Z</time>
      </trkpt>
      <trkpt lat="43.0975" lon="2.03065">
        <ele>329</ele>
        <time>2023-09-10T13:17:58Z</time>
      </trkpt>
      <trkpt lat="43.09749" lon="2.03065">
        <ele>329</ele>
        <time>2023-09-10T13:17:59Z</time>
      </trkpt>
      <trkpt lat="43.09749" lon="2.03064">
        <ele>329</ele>
        <time>2023-09-10T13:18:00Z</time>
      </trkpt>
      <trkpt lat="43.09748" lon="2.03064">
        <ele>330</ele>
        <time>2023-09-10T13:18:01Z</time>
      </trkpt>
      <trkpt lat="43.09748" lon="2.03063">
        <ele>330</ele>
        <time>2023-09-10T13:18:02Z</time>
      </trkpt>
      <trkpt lat="43.09747" lon="2.03063">
        <ele>330</ele>
        <time>2023-09-10T13:18:03Z</time>
      </trkpt>
      <trkpt lat="43.09746" lon="2.03062">
        <ele>330</ele>
        <time>2023-09-10T13:18:04Z</time>
      </trkpt>
      <trkpt lat="43.09746" lon="2.03062">
        <ele>330</ele>
        <time>2023-09-10T13:18:05Z</time>
      </trkpt>
      <trkpt lat="43.09745" lon="2.03062">
        <ele>331</ele>
        <time>2023-09-10T13:18:06Z</time>
      </trkpt>
      <trkpt lat="43.09744" lon="2.03061">
        <ele>331</ele>
        <time>2023-09-10T13:18:07Z</time>
      </trkpt>
      <trkpt lat="43.09744" lon="2.03061">
        <ele>331</ele>
        <time>2023-09-10T13:18:08Z</time>
      </trkpt>
      <trkpt lat="43.09743" lon="2.03061">
        <ele>331</ele>
        <time>2023-09-10T13:18:09Z</time>
      </trkpt>
      <trkpt lat="43.09743" lon="2.03061">
        <ele>331</ele>
        <time>2023-09-10T13:18:10Z</time>
      </trkpt>
      <trkpt lat="43.09742" lon="2.0306">
        <ele>332</ele>
        <time>2023-09-10T13:18:11Z</time>
      </trkpt>
      <trkpt lat="43.09741" lon="2.0306">
        <ele>332</ele>
        <time>2023-09-10T13:18:12Z</time>
      </trkpt>
      <trkpt lat="43.09741" lon="2.03059">
        <ele>332</ele>
        <time>2023-09-10T13:18:13Z</time>
      </trkpt>
      <trkpt lat="43.0974" lon="2.03059">
        <ele>332</ele>
        <time>2023-09-10T13:18:14Z</time>
      </trkpt>
      <trkpt lat="43.09739" lon="2.03058">
        <ele>332</ele>
        <time>2023-09-10T13:18:15Z</time>
      </trkpt>
      <trkpt lat="43.09739" lon="2.03058">
        <ele>333</ele>
        <time>2023-09-10T13:18:16Z</time>
      </trkpt>
      <trkpt lat="43.09738" lon="2.03058">
        <ele>333</ele>
        <time>2023-09-10T13:18:17Z</time>
      </trkpt>
      <trkpt lat="43.09737" lon="2.03058">
        <ele>336</ele>
        <time>2023-09-10T13:18:44Z</time>
      </trkpt>
      <trkpt lat="43.09737" lon="2.03058">
        <ele>336</ele>
        <time>2023-09-10T13:18:45Z</time>
      </trkpt>
      <trkpt lat="43.09736" lon="2.03059">
        <ele>336</ele>
        <time>2023-09-10T13:18:46Z</time>
      </trkpt>
      <trkpt lat="43.09736" lon="2.03059">
        <ele>336</ele>
        <time>2023-09-10T13:18:47Z</time>
      </trkpt>
      <trkpt lat="43.09735" lon="2.0306">
        <ele>336</ele>
        <time>2023-09-10T13:18:48Z</time>
      </trkpt>
      <trkpt lat="43.09735" lon="2.03061">
        <ele>336</ele>
        <time>2023-09-10T13:18:49Z</time>
      </trkpt>
      <trkpt lat="43.09734" lon="2.03061">
        <ele>336</ele>
        <time>2023-09-10T13:18:50Z</time>
      </trkpt>
      <trkpt lat="43.09734" lon="2.03062">
        <ele>336</ele>
        <time>2023-09-10T13:18:51Z</time>
      </trkpt>
      <trkpt lat="43.09733" lon="2.03064">
        <ele>336</ele>
        <time>2023-09-10T13:18:52Z</time>
      </trkpt>
      <trkpt lat="43.09732" lon="2.03065">
        <ele>336</ele>
        <time>2023-09-10T13:18:53Z</time>
      </trkpt>
      <trkpt lat="43.09732" lon="2.03066">
        <ele>336</ele>
        <time>2023-09-10T13:18:54Z</time>
      </trkpt>
      <trkpt lat="43.09731" lon="2.03067">
        <ele>336</ele>
        <time>2023-09-10T13:18:55Z</time>
      </trkpt>
      <trkpt lat="43.09731" lon="2.03069">
        <ele>336</ele>
        <time>2023-09-10T13:18:56Z</time>
      </trkpt>
      <trkpt lat="43.0973" lon="2.0307">
        <ele>336</ele>
        <time>2023-09-10T13:18:57Z</time>
      </trkpt>
      <trkpt lat="43.0973" lon="2.03071">
        <ele>336</ele>
        <time>2023-09-10T13:18:58Z</time>
      </trkpt>
      <trkpt lat="43.09729" lon="2.03073">
        <ele>336</ele>
        <time>2023-09-10T13:18:59Z</time>
      </trkpt>
      <trkpt lat="43.09729" lon="2.03074">
        <ele>336</ele>
        <time>2023-09-10T13:19:00Z</time>
      </trkpt>
      <trkpt lat="43.09728" lon="2.03075">
        <ele>336</ele>
        <time>2023-09-10T13:19:01Z</time>
      </trkpt>
      <trkpt lat="43.09728" lon="2.03077">
        <ele>336</ele>
        <time>2023-09-10T13:19:02Z</time>
      </trkpt>
      <trkpt lat="43.09727" lon="2.03078">
        <ele>336</ele>
        <time>2023-09-10T13:19:03Z</time>
      </trkpt>
      <trkpt lat="43.09727" lon="2.0308">
        <ele>336</ele>
        <time>2023-09-10T13:19:04Z</time>
      </trkpt>
      <trkpt lat="43.09726" lon="2.03081">
        <ele>336</ele>
        <time>2023-09-10T13:19:05Z</time>
      </trkpt>
      <trkpt lat="43.09726" lon="2.03083">
        <ele>336</ele>
        <time>2023-09-10T13:19:06Z</time>
      </trkpt>
      <trkpt lat="43.09725" lon="2.03084">
        <ele>336</ele>
        <time>2023-09-10T13:19:07Z</time>
      </trkpt>
      <trkpt lat="43.09725" lon="2.03085">
        <ele>336</ele>
        <time>2023-09-10T13:19:08Z</time>
      </trkpt>
      <trkpt lat="43.09724" lon="2.03087">
        <ele>336</ele>
        <time>2023-09-10T13:19:09Z</time>
      </trkpt>
      <trkpt lat="43.09724" lon="2.03088">
        <ele>336</ele>
        <time>2023-09-10T13:19:10Z</time>
      </trkpt>
      <trkpt lat="43.09724" lon="2.03089">
        <ele>336</ele>
        <time>2023-09-10T13:19:11Z</time>
      </trkpt>
      <trkpt lat="43.09723" lon="2.03091">
        <ele>336</ele>
        <time>2023-09-10T13:19:12Z</time>
      </trkpt>
      <trkpt lat="43.09723" lon="2.03092">
        <ele>336</ele>
        <time>2023-09-10T13:19:13Z</time>
      </trkpt>
      <trkpt lat="43.09723" lon="2.03094">
        <ele>336</ele>
        <time>2023-09-10T13:19:14Z</time>
      </trkpt>
      <trkpt lat="43.09722" lon="2.03095">
        <ele>336</ele>
        <time>2023-09-10T13:19:15Z</time>
      </trkpt>
      <trkpt lat="43.09722" lon="2.03097">
        <ele>336</ele>
        <time>2023-09-10T13:19:16Z</time>
      </trkpt>
      <trkpt lat="43.09721" lon="2.03098">
        <ele>336</ele>
        <time>2023-09-10T13:19:17Z</time>
      </trkpt>
      <trkpt lat="43.09721" lon="2.03099">
        <ele>336</ele>
        <time>2023-09-10T13:19:18Z</time>
      </trkpt>
      <trkpt lat="43.0972" lon="2.03101">
        <ele>336</ele>
        <time>2023-09-10T13:19:19Z</time>
      </trkpt>
      <trkpt lat="43.0972" lon="2.03102">
        <ele>336</ele>
        <time>2023-09-10T13:19:20Z</time>
      </trkpt>
      <trkpt lat="43.0972" lon="2.03103">
        <ele>336</ele>
        <time>2023-09-10T13:19:21Z</time>
      </trkpt>
      <trkpt lat="43.0972" lon="2.03105">
        <ele>336</ele>
        <time>2023-09-10T13:19:22Z</time>
      </trkpt>
      <trkpt lat="43.0972" lon="2.03106">
        <ele>336</ele>
        <time>2023-09-10T13:19:23Z</time>
      </trkpt>
      <trkpt lat="43.0972" lon="2.03108">
        <ele>336</ele>
        <time>2023-09-10T13:19:24Z</time>
      </trkpt>
      <trkpt lat="43.09719" lon="2.03109">
        <ele>336</ele>
        <time>2023-09-10T13:19:25Z</time>
      </trkpt>
      <trkpt lat="43.09719" lon="2.0311">
        <ele>336</ele>
        <time>2023-09-10T13:19:26Z</time>
      </trkpt>
      <trkpt lat="43.09719" lon="2.03112">
        <ele>336</ele>
        <time>2023-09-10T13:19:27Z</time>
      </trkpt>
      <trkpt lat="43.09718" lon="2.03113">
        <ele>336</ele>
        <time>2023-09-10T13:19:28Z</time>
      </trkpt>
      <trkpt lat="43.09718" lon="2.03115">
        <ele>336</ele>
        <time>2023-09-10T13:19:29Z</time>
      </trkpt>
      <trkpt lat="43.09717" lon="2.03117">
        <ele>336</ele>
        <time>2023-09-10T13:19:30Z</time>
      </trkpt>
      <trkpt lat="43.09717" lon="2.03118">
        <ele>336</ele>
        <time>2023-09-10T13:19:31Z</time>
      </trkpt>
      <trkpt lat="43.09716" lon="2.0312">
        <ele>336</ele>
        <time>2023-09-10T13:19:32Z</time>
      </trkpt>
      <trkpt lat="43.09716" lon="2.03122">
        <ele>336</ele>
        <time>2023-09-10T13:19:33Z</time>
      </trkpt>
      <trkpt lat="43.09715" lon="2.03123">
        <ele>336</ele>
        <time>2023-09-10T13:19:34Z</time>
      </trkpt>
      <trkpt lat="43.09715" lon="2.03125">
        <ele>336</ele>
        <time>2023-09-10T13:19:35Z</time>
      </trkpt>
      <trkpt lat="43.09714" lon="2.03127">
        <ele>336</ele>
        <time>2023-09-10T13:19:36Z</time>
      </trkpt>
      <trkpt lat="43.09714" lon="2.03128">
        <ele>336</ele>
        <time>2023-09-10T13:19:37Z</time>
      </trkpt>
      <trkpt lat="43.09714" lon="2.0313">
        <ele>336</ele>
        <time>2023-09-10T13:19:38Z</time>
      </trkpt>
      <trkpt lat="43.09713" lon="2.03131">
        <ele>336</ele>
        <time>2023-09-10T13:19:39Z</time>
      </trkpt>
      <trkpt lat="43.09713" lon="2.03132">
        <ele>336</ele>
        <time>2023-09-10T13:19:40Z</time>
      </trkpt>
      <trkpt lat="43.09713" lon="2.03134">
        <ele>336</ele>
        <time>2023-09-10T13:19:41Z</time>
      </trkpt>
      <trkpt lat="43.09712" lon="2.03135">
        <ele>336</ele>
        <time>2023-09-10T13:19:42Z</time>
      </trkpt>
      <trkpt lat="43.09712" lon="2.03136">
        <ele>336</ele>
        <time>2023-09-10T13:19:43Z</time>
      </trkpt>
      <trkpt lat="43.09712" lon="2.03138">
        <ele>336</ele>
        <time>2023-09-10T13:19:44Z</time>
      </trkpt>
      <trkpt lat="43.09712" lon="2.0314">
        <ele>336</ele>
        <time>2023-09-10T13:19:45Z</time>
      </trkpt>
      <trkpt lat="43.09711" lon="2.03141">
        <ele>336</ele>
        <time>2023-09-10T13:19:46Z</time>
      </trkpt>
      <trkpt lat="43.09711" lon="2.03143">
        <ele>336</ele>
        <time>2023-09-10T13:19:47Z</time>
      </trkpt>
      <trkpt lat="43.09711" lon="2.03144">
        <ele>336</ele>
        <time>2023-09-10T13:19:48Z</time>
      </trkpt>
      <trkpt lat="43.0971" lon="2.03145">
        <ele>336</ele>
        <time>2023-09-10T13:19:49Z</time>
      </trkpt>
      <trkpt lat="43.0971" lon="2.03147">
        <ele>336</ele>
        <time>2023-09-10T13:19:50Z</time>
      </trkpt>
      <trkpt lat="43.0971" lon="2.03148">
        <ele>336</ele>
        <time>2023-09-10T13:19:51Z</time>
      </trkpt>
      <trkpt lat="43.09709" lon="2.03149">
        <ele>336</ele>
        <time>2023-09-10T13:19:52Z</time>
      </trkpt>
      <trkpt lat="43.09709" lon="2.03151">
        <ele>336</ele>
        <time>2023-09-10T13:19:53Z</time>
      </trkpt>
      <trkpt lat="43.09709" lon="2.03152">
        <ele>336</ele>
        <time>2023-09-10T13:19:54Z</time>
      </trkpt>
      <trkpt lat="43.09708" lon="2.03153">
        <ele>336</ele>
        <time>2023-09-10T13:19:55Z</time>
      </trkpt>
      <trkpt lat="43.09708" lon="2.03155">
        <ele>336</ele>
        <time>2023-09-10T13:19:56Z</time>
      </trkpt>
      <trkpt lat="43.09708" lon="2.03156">
        <ele>335</ele>
        <time>2023-09-10T13:19:57Z</time>
      </trkpt>
      <trkpt lat="43.09707" lon="2.03158">
        <ele>335</ele>
        <time>2023-09-10T13:19:58Z</time>
      </trkpt>
      <trkpt lat="43.09707" lon="2.03159">
        <ele>335</ele>
        <time>2023-09-10T13:19:59Z</time>
      </trkpt>
      <trkpt lat="43.09706" lon="2.03161">
        <ele>335</ele>
        <time>2023-09-10T13:20:00Z</time>
      </trkpt>
      <trkpt lat="43.09706" lon="2.03162">
        <ele>335</ele>
        <time>2023-09-10T13:20:01Z</time>
      </trkpt>
      <trkpt lat="43.09705" lon="2.03164">
        <ele>335</ele>
        <time>2023-09-10T13:20:02Z</time>
      </trkpt>
      <trkpt lat="43.09705" lon="2.03165">
        <ele>335</ele>
        <time>2023-09-10T13:20:03Z</time>
      </trkpt>
      <trkpt lat="43.09704" lon="2.03167">
        <ele>335</ele>
        <time>2023-09-10T13:20:04Z</time>
      </trkpt>
      <trkpt lat="43.09704" lon="2.03168">
        <ele>335</ele>
        <time>2023-09-10T13:20:05Z</time>
      </trkpt>
      <trkpt lat="43.09703" lon="2.03169">
        <ele>335</ele>
        <time>2023-09-10T13:20:06Z</time>
      </trkpt>
      <trkpt lat="43.09703" lon="2.0317">
        <ele>335</ele>
        <time>2023-09-10T13:20:07Z</time>
      </trkpt>
      <trkpt lat="43.09702" lon="2.03171">
        <ele>335</ele>
        <time>2023-09-10T13:20:08Z</time>
      </trkpt>
      <trkpt lat="43.09701" lon="2.03172">
        <ele>335</ele>
        <time>2023-09-10T13:20:09Z</time>
      </trkpt>
      <trkpt lat="43.09701" lon="2.03173">
        <ele>335</ele>
        <time>2023-09-10T13:20:10Z</time>
      </trkpt>
      <trkpt lat="43.097" lon="2.03174">
        <ele>335</ele>
        <time>2023-09-10T13:20:11Z</time>
      </trkpt>
      <trkpt lat="43.09699" lon="2.03175">
        <ele>335</ele>
        <time>2023-09-10T13:20:12Z</time>
      </trkpt>
      <trkpt lat="43.09698" lon="2.03175">
        <ele>335</ele>
        <time>2023-09-10T13:20:13Z</time>
      </trkpt>
      <trkpt lat="43.09698" lon="2.03175">
        <ele>335</ele>
        <time>2023-09-10T13:20:14Z</time>
      </trkpt>
      <trkpt lat="43.09697" lon="2.03174">
        <ele>335</ele>
        <time>2023-09-10T13:20:15Z</time>
      </trkpt>
      <trkpt lat="43.09696" lon="2.03174">
        <ele>335</ele>
        <time>2023-09-10T13:20:16Z</time>
      </trkpt>
      <trkpt lat="43.09695" lon="2.03173">
        <ele>335</ele>
        <time>2023-09-10T13:20:17Z</time>
      </trkpt>
      <trkpt lat="43.09694" lon="2.03172">
        <ele>335</ele>
        <time>2023-09-10T13:20:18Z</time>
      </trkpt>
      <trkpt lat="43.09693" lon="2.03171">
        <ele>335</ele>
        <time>2023-09-10T13:20:19Z</time>
      </trkpt>
      <trkpt lat="43.09692" lon="2.0317">
        <ele>335</ele>
        <time>2023-09-10T13:20:20Z</time>
      </trkpt>
      <trkpt lat="43.09692" lon="2.03169">
        <ele>335</ele>
        <time>2023-09-10T13:20:21Z</time>
      </trkpt>
      <trkpt lat="43.09691" lon="2.03168">
        <ele>335</ele>
        <time>2023-09-10T13:20:22Z</time>
      </trkpt>
      <trkpt lat="43.09691" lon="2.03166">
        <ele>335</ele>
        <time>2023-09-10T13:20:23Z</time>
      </trkpt>
      <trkpt lat="43.0969" lon="2.03165">
        <ele>335</ele>
        <time>2023-09-10T13:20:24Z</time>
      </trkpt>
      <trkpt lat="43.0969" lon="2.03164">
        <ele>335</ele>
        <time>2023-09-10T13:20:25Z</time>
      </trkpt>
      <trkpt lat="43.0969" lon="2.03162">
        <ele>335</ele>
        <time>2023-09-10T13:20:26Z</time>
      </trkpt>
      <trkpt lat="43.09691" lon="2.03161">
        <ele>335</ele>
        <time>2023-09-10T13:20:27Z</time>
      </trkpt>
      <trkpt lat="43.09691" lon="2.03159">
        <ele>335</ele>
        <time>2023-09-10T13:20:28Z</time>
      </trkpt>
      <trkpt lat="43.09691" lon="2.03158">
        <ele>335</ele>
        <time>2023-09-10T13:20:29Z</time>
      </trkpt>
      <trkpt lat="43.09691" lon="2.03156">
        <ele>335</ele>
        <time>2023-09-10T13:20:30Z</time>
      </trkpt>
      <trkpt lat="43.09692" lon="2.03155">
        <ele>335</ele>
        <time>2023-09-10T13:20:31Z</time>
      </trkpt>
      <trkpt lat="43.09692" lon="2.03154">
        <ele>335</ele>
        <time>2023-09-10T13:20:32Z</time>
      </trkpt>
      <trkpt lat="43.09693" lon="2.03152">
        <ele>335</ele>
        <time>2023-09-10T13:20:33Z</time>
      </trkpt>
      <trkpt lat="43.09693" lon="2.03151">
        <ele>335</ele>
        <time>2023-09-10T13:20:34Z</time>
      </trkpt>
      <trkpt lat="43.09693" lon="2.03149">
        <ele>335</ele>
        <time>2023-09-10T13:20:35Z</time>
      </trkpt>
      <trkpt lat="43.09693" lon="2.03148">
        <ele>335</ele>
        <time>2023-09-10T13:20:36Z</time>
      </trkpt>
      <trkpt lat="43.09693" lon="2.03146">
        <ele>335</ele>
        <time>2023-09-10T13:20:37Z</time>
      </trkpt>
      <trkpt lat="43.09693" lon="2.03145">
        <ele>335</ele>
        <time>2023-09-10T13:20:38Z</time>
      </trkpt>
      <trkpt lat="43.09693" lon="2.03143">
        <ele>335</ele>
        <time>2023-09-10T13:20:39Z</time>
      </trkpt>
      <trkpt lat="43.09692" lon="2.03142">
        <ele>335</ele>
        <time>2023-09-10T13:20:40Z</time>
      </trkpt>
      <trkpt lat="43.09692" lon="2.03141">
        <ele>335</ele>
        <time>2023-09-10T13:20:41Z</time>
      </trkpt>
      <trkpt lat="43.09692" lon="2.0314">
        <ele>335</ele>
        <time>2023-09-10T13:20:42Z</time>
      </trkpt>
      <trkpt lat="43.09691" lon="2.03139">
        <ele>335</ele>
        <time>2023-09-10T13:20:43Z</time>
      </trkpt>
      <trkpt lat="43.09691" lon="2.03138">
        <ele>335</ele>
        <time>2023-09-10T13:20:44Z</time>
      </trkpt>
      <trkpt lat="43.0969" lon="2.03137">
        <ele>335</ele>
        <time>2023-09-10T13:20:45Z</time>
      </trkpt>
      <trkpt lat="43.0969" lon="2.03136">
        <ele>335</ele>
        <time>2023-09-10T13:20:46Z</time>
      </trkpt>
      <trkpt lat="43.09689" lon="2.03135">
        <ele>335</ele>
        <time>2023-09-10T13:20:47Z</time>
      </trkpt>
      <trkpt lat="43.09688" lon="2.03135">
        <ele>335</ele>
        <time>2023-09-10T13:20:48Z</time>
      </trkpt>
      <trkpt lat="43.09688" lon="2.03134">
        <ele>335</ele>
        <time>2023-09-10T13:20:49Z</time>
      </trkpt>
      <trkpt lat="43.09687" lon="2.03133">
        <ele>335</ele>
        <time>2023-09-10T13:20:50Z</time>
      </trkpt>
      <trkpt lat="43.09687" lon="2.03133">
        <ele>335</ele>
        <time>2023-09-10T13:20:51Z</time>
      </trkpt>
      <trkpt lat="43.09686" lon="2.03132">
        <ele>335</ele>
        <time>2023-09-10T13:20:52Z</time>
      </trkpt>
      <trkpt lat="43.09686" lon="2.03132">
        <ele>335</ele>
        <time>2023-09-10T13:20:53Z</time>
      </trkpt>
      <trkpt lat="43.09685" lon="2.03131">
        <ele>335</ele>
        <time>2023-09-10T13:20:54Z</time>
      </trkpt>
      <trkpt lat="43.09685" lon="2.03131">
        <ele>335</ele>
        <time>2023-09-10T13:20:55Z</time>
      </trkpt>
      <trkpt lat="43.09685" lon="2.0313">
        <ele>335</ele>
        <time>2023-09-10T13:20:56Z</time>
      </trkpt>
      <trkpt lat="43.09684" lon="2.03129">
        <ele>334</ele>
        <time>2023-09-10T13:20:57Z</time>
      </trkpt>
      <trkpt lat="43.09684" lon="2.03129">
        <ele>334</ele>
        <time>2023-09-10T13:20:58Z</time>
      </trkpt>
      <trkpt lat="43.09684" lon="2.03128">
        <ele>334</ele>
        <time>2023-09-10T13:20:59Z</time>
      </trkpt>
      <trkpt lat="43.09684" lon="2.03128">
        <ele>334</ele>
        <time>2023-09-10T13:21:00Z</time>
      </trkpt>
      <trkpt lat="43.09684" lon="2.03127">
        <ele>334</ele>
        <time>2023-09-10T13:21:01Z</time>
      </trkpt>
      <trkpt lat="43.09684" lon="2.03127">
        <ele>333</ele>
        <time>2023-09-10T13:21:02Z</time>
      </trkpt>
      <trkpt lat="43.09683" lon="2.03126">
        <ele>333</ele>
        <time>2023-09-10T13:21:03Z</time>
      </trkpt>
      <trkpt lat="43.09683" lon="2.03125">
        <ele>333</ele>
        <time>2023-09-10T13:21:04Z</time>
      </trkpt>
      <trkpt lat="43.09683" lon="2.03125">
        <ele>333</ele>
        <time>2023-09-10T13:21:05Z</time>
      </trkpt>
      <trkpt lat="43.09682" lon="2.03124">
        <ele>333</ele>
        <time>2023-09-10T13:21:06Z</time>
      </trkpt>
      <trkpt lat="43.09681" lon="2.03124">
        <ele>333</ele>
        <time>2023-09-10T13:21:07Z</time>
      </trkpt>
      <trkpt lat="43.09681" lon="2.03123">
        <ele>333</ele>
        <time>2023-09-10T13:21:08Z</time>
      </trkpt>
      <trkpt lat="43.0968" lon="2.03123">
        <ele>333</ele>
        <time>2023-09-10T13:21:09Z</time>
      </trkpt>
      <trkpt lat="43.09679" lon="2.03122">
        <ele>333</ele>
        <time>2023-09-10T13:21:10Z</time>
      </trkpt>
      <trkpt lat="43.09679" lon="2.03122">
        <ele>333</ele>
        <time>2023-09-10T13:21:11Z</time>
      </trkpt>
      <trkpt lat="43.09678" lon="2.03122">
        <ele>333</ele>
        <time>2023-09-10T13:21:12Z</time>
      </trkpt>
      <trkpt lat="43.09678" lon="2.03122">
        <ele>333</ele>
        <time>2023-09-10T13:21:13Z</time>
      </trkpt>
      <trkpt lat="43.09677" lon="2.03121">
        <ele>333</ele>
        <time>2023-09-10T13:21:14Z</time>
      </trkpt>
      <trkpt lat="43.09677" lon="2.03121">
        <ele>333</ele>
        <time>2023-09-10T13:21:15Z</time>
      </trkpt>
      <trkpt lat="43.09677" lon="2.03121">
        <ele>333</ele>
        <time>2023-09-10T13:21:16Z</time>
      </trkpt>
      <trkpt lat="43.09677" lon="2.03121">
        <ele>332</ele>
        <time>2023-09-10T13:21:17Z</time>
      </trkpt>
      <trkpt lat="43.09676" lon="2.03121">
        <ele>332</ele>
        <time>2023-09-10T13:21:18Z</time>
      </trkpt>
      <trkpt lat="43.09676" lon="2.03121">
        <ele>332</ele>
        <time>2023-09-10T13:21:19Z</time>
      </trkpt>
      <trkpt lat="43.09676" lon="2.03121">
        <ele>332</ele>
        <time>2023-09-10T13:21:20Z</time>
      </trkpt>
      <trkpt lat="43.09675" lon="2.0312">
        <ele>332</ele>
        <time>2023-09-10T13:21:21Z</time>
      </trkpt>
      <trkpt lat="43.09675" lon="2.0312">
        <ele>332</ele>
        <time>2023-09-10T13:21:22Z</time>
      </trkpt>
      <trkpt lat="43.09674" lon="2.0312">
        <ele>332</ele>
        <time>2023-09-10T13:21:23Z</time>
      </trkpt>
      <trkpt lat="43.09673" lon="2.0312">
        <ele>332</ele>
        <time>2023-09-10T13:21:24Z</time>
      </trkpt>
      <trkpt lat="43.09673" lon="2.03121">
        <ele>332</ele>
        <time>2023-09-10T13:21:25Z</time>
      </trkpt>
      <trkpt lat="43.09672" lon="2.03121">
        <ele>332</ele>
        <time>2023-09-10T13:21:26Z</time>
      </trkpt>
      <trkpt lat="43.09671" lon="2.03122">
        <ele>331</ele>
        <time>2023-09-10T13:21:27Z</time>
      </trkpt>
      <trkpt lat="43.09671" lon="2.03123">
        <ele>331</ele>
        <time>2023-09-10T13:21:28Z</time>
      </trkpt>
      <trkpt lat="43.0967" lon="2.03123">
        <ele>331</ele>
        <time>2023-09-10T13:21:29Z</time>
      </trkpt>
      <trkpt lat="43.09669" lon="2.03124">
        <ele>331</ele>
        <time>2023-09-10T13:21:30Z</time>
      </trkpt>
      <trkpt lat="43.09669" lon="2.03125">
        <ele>331</ele>
        <time>2023-09-10T13:21:31Z</time>
      </trkpt>
      <trkpt lat="43.09668" lon="2.03125">
        <ele>330</ele>
        <time>2023-09-10T13:21:32Z</time>
      </trkpt>
      <trkpt lat="43.09667" lon="2.03125">
        <ele>330</ele>
        <time>2023-09-10T13:21:33Z</time>
      </trkpt>
      <trkpt lat="43.09666" lon="2.03126">
        <ele>330</ele>
        <time>2023-09-10T13:21:34Z</time>
      </trkpt>
      <trkpt lat="43.09665" lon="2.03126">
        <ele>330</ele>
        <time>2023-09-10T13:21:35Z</time>
      </trkpt>
      <trkpt lat="43.09664" lon="2.03127">
        <ele>330</ele>
        <time>2023-09-10T13:21:36Z</time>
      </trkpt>
      <trkpt lat="43.09663" lon="2.03128">
        <ele>330</ele>
        <time>2023-09-10T13:21:37Z</time>
      </trkpt>
      <trkpt lat="43.09662" lon="2.03129">
        <ele>330</ele>
        <time>2023-09-10T13:21:38Z</time>
      </trkpt>
      <trkpt lat="43.0966" lon="2.0313">
        <ele>330</ele>
        <time>2023-09-10T13:21:39Z</time>
      </trkpt>
      <trkpt lat="43.09659" lon="2.03131">
        <ele>330</ele>
        <time>2023-09-10T13:21:40Z</time>
      </trkpt>
      <trkpt lat="43.09658" lon="2.03132">
        <ele>330</ele>
        <time>2023-09-10T13:21:41Z</time>
      </trkpt>
      <trkpt lat="43.09657" lon="2.03132">
        <ele>329</ele>
        <time>2023-09-10T13:21:42Z</time>
      </trkpt>
      <trkpt lat="43.09656" lon="2.03133">
        <ele>329</ele>
        <time>2023-09-10T13:21:43Z</time>
      </trkpt>
      <trkpt lat="43.09655" lon="2.03134">
        <ele>329</ele>
        <time>2023-09-10T13:21:44Z</time>
      </trkpt>
      <trkpt lat="43.09654" lon="2.03134">
        <ele>329</ele>
        <time>2023-09-10T13:21:45Z</time>
      </trkpt>
      <trkpt lat="43.09654" lon="2.03135">
        <ele>329</ele>
        <time>2023-09-10T13:21:46Z</time>
      </trkpt>
      <trkpt lat="43.09653" lon="2.03135">
        <ele>329</ele>
        <time>2023-09-10T13:21:47Z</time>
      </trkpt>
      <trkpt lat="43.09652" lon="2.03136">
        <ele>329</ele>
        <time>2023-09-10T13:21:48Z</time>
      </trkpt>
      <trkpt lat="43.09652" lon="2.03136">
        <ele>329</ele>
        <time>2023-09-10T13:21:49Z</time>
      </trkpt>
      <trkpt lat="43.09651" lon="2.03137">
        <ele>329</ele>
        <time>2023-09-10T13:21:50Z</time>
      </trkpt>
      <trkpt lat="43.09651" lon="2.03138">
        <ele>329</ele>
        <time>2023-09-10T13:21:51Z</time>
      </trkpt>
      <trkpt lat="43.0965" lon="2.03139">
        <ele>328</ele>
        <time>2023-09-10T13:21:52Z</time>
      </trkpt>
      <trkpt lat="43.0965" lon="2.0314">
        <ele>328</ele>
        <time>2023-09-10T13:21:53Z</time>
      </trkpt>
      <trkpt lat="43.09649" lon="2.03141">
        <ele>328</ele>
        <time>2023-09-10T13:21:54Z</time>
      </trkpt>
      <trkpt lat="43.09648" lon="2.03141">
        <ele>328</ele>
        <time>2023-09-10T13:21:55Z</time>
      </trkpt>
      <trkpt lat="43.09647" lon="2.03142">
        <ele>328</ele>
        <time>2023-09-10T13:21:56Z</time>
      </trkpt>
      <trkpt lat="43.09646" lon="2.03143">
        <ele>328</ele>
        <time>2023-09-10T13:21:57Z</time>
      </trkpt>
    </trkseg>
  </trk>
</gpx>